<?xml version="1.0" encoding="UTF-8" standalone="no" ?><gpx xmlns="http://www.topografix.com/GPX/1/1" xmlns:gpxx="http://www.garmin.com/xmlschemas/GpxExtensions/v3" xmlns:wptx1="http://www.garmin.com/xmlschemas/WaypointExtension/v1" xmlns:gpxtpx="http://www.garmin.com/xmlschemas/TrackPointExtension/v1" creator="Alpha 50 EU" version="1.1" xmlns:xsi="http://www.w3.org/2001/XMLSchema-instance" xsi:schemaLocation="http://www.topografix.com/GPX/1/1 http://www.topografix.com/GPX/1/1/gpx.xsd http://www.garmin.com/xmlschemas/GpxExtensions/v3 http://www8.garmin.com/xmlschemas/GpxExtensionsv3.xsd http://www.garmin.com/xmlschemas/WaypointExtension/v1 http://www8.garmin.com/xmlschemas/WaypointExtensionv1.xsd http://www.garmin.com/xmlschemas/TrackPointExtension/v1 http://www.garmin.com/xmlschemas/TrackPointExtensionv1.xsd"><metadata><link href="http://www.garmin.com"><text>Garmin International</text></link><time>2026-04-22T12:23:42Z</time></metadata><trk><name>2026-04-22 15:23:38</name><extensions><gpxx:TrackExtension><gpxx:DisplayColor>DarkGreen</gpxx:DisplayColor></gpxx:TrackExtension></extensions><trkseg><trkpt lat="59.0924119949" lon="29.9877405167"><time>2026-04-19T17:42:10Z</time></trkpt><trkpt lat="59.0923905373" lon="29.9877190590"><time>2026-04-22T08:53:57Z</time></trkpt><trkpt lat="59.0923690796" lon="29.9877405167"><time>2026-04-22T08:54:03Z</time></trkpt><trkpt lat="59.0923905373" lon="29.9877190590"><time>2026-04-22T08:54:06Z</time></trkpt><trkpt lat="59.0923905373" lon="29.9876976013"><time>2026-04-22T08:54:08Z</time></trkpt><trkpt lat="59.0923905373" lon="29.9876976013"><time>2026-04-22T08:54:10Z</time></trkpt><trkpt lat="59.0923905373" lon="29.9876761436"><time>2026-04-22T08:54:13Z</time></trkpt><trkpt lat="59.0923905373" lon="29.9876976013"><time>2026-04-22T08:54:15Z</time></trkpt><trkpt lat="59.0923905373" lon="29.9876976013"><time>2026-04-22T08:54:18Z</time></trkpt><trkpt lat="59.0923905373" lon="29.9876976013"><time>2026-04-22T08:54:20Z</time></trkpt><trkpt lat="59.0923690796" lon="29.9876976013"><time>2026-04-22T08:54:23Z</time></trkpt><trkpt lat="59.0923690796" lon="29.9876761436"><time>2026-04-22T08:54:25Z</time></trkpt><trkpt lat="59.0923905373" lon="29.9876332283"><time>2026-04-22T08:54:28Z</time></trkpt><trkpt lat="59.0923905373" lon="29.9876332283"><time>2026-04-22T08:54:30Z</time></trkpt><trkpt lat="59.0923905373" lon="29.9876546860"><time>2026-04-22T08:54:40Z</time></trkpt><trkpt lat="59.0923905373" lon="29.9876332283"><time>2026-04-22T08:54:43Z</time></trkpt><trkpt lat="59.0923905373" lon="29.9876332283"><time>2026-04-22T08:54:45Z</time></trkpt><trkpt lat="59.0923905373" lon="29.9876546860"><time>2026-04-22T08:54:48Z</time></trkpt><trkpt lat="59.0923905373" lon="29.9876332283"><time>2026-04-22T08:54:50Z</time></trkpt><trkpt lat="59.0923690796" lon="29.9876332283"><time>2026-04-22T08:54:53Z</time></trkpt><trkpt lat="59.0923905373" lon="29.9876117706"><time>2026-04-22T08:54:55Z</time></trkpt><trkpt lat="59.0923905373" lon="29.9876117706"><time>2026-04-22T08:54:58Z</time></trkpt><trkpt lat="59.0923905373" lon="29.9876117706"><time>2026-04-22T08:55:00Z</time></trkpt><trkpt lat="59.0924119949" lon="29.9876332283"><time>2026-04-22T08:55:03Z</time></trkpt><trkpt lat="59.0924119949" lon="29.9876332283"><time>2026-04-22T08:55:05Z</time></trkpt><trkpt lat="59.0924119949" lon="29.9876117706"><time>2026-04-22T08:55:08Z</time></trkpt><trkpt lat="59.0924119949" lon="29.9876117706"><time>2026-04-22T08:55:10Z</time></trkpt><trkpt lat="59.0924119949" lon="29.9876332283"><time>2026-04-22T08:55:13Z</time></trkpt><trkpt lat="59.0924334526" lon="29.9876332283"><time>2026-04-22T08:55:15Z</time></trkpt><trkpt lat="59.0924119949" lon="29.9876332283"><time>2026-04-22T08:55:18Z</time></trkpt><trkpt lat="59.0924119949" lon="29.9876546860"><time>2026-04-22T08:55:20Z</time></trkpt><trkpt lat="59.0924119949" lon="29.9876332283"><time>2026-04-22T08:55:23Z</time></trkpt><trkpt lat="59.0924119949" lon="29.9876332283"><time>2026-04-22T08:55:25Z</time></trkpt><trkpt lat="59.0924119949" lon="29.9876332283"><time>2026-04-22T08:55:28Z</time></trkpt><trkpt lat="59.0924119949" lon="29.9876332283"><time>2026-04-22T08:55:30Z</time></trkpt><trkpt lat="59.0924119949" lon="29.9876332283"><time>2026-04-22T08:55:33Z</time></trkpt><trkpt lat="59.0924119949" lon="29.9876332283"><time>2026-04-22T08:55:35Z</time></trkpt><trkpt lat="59.0924119949" lon="29.9876332283"><time>2026-04-22T08:55:38Z</time></trkpt><trkpt lat="59.0924119949" lon="29.9876332283"><time>2026-04-22T08:55:40Z</time></trkpt><trkpt lat="59.0924119949" lon="29.9876332283"><time>2026-04-22T08:55:43Z</time></trkpt><trkpt lat="59.0924119949" lon="29.9876332283"><time>2026-04-22T08:55:45Z</time></trkpt><trkpt lat="59.0924119949" lon="29.9876332283"><time>2026-04-22T08:55:48Z</time></trkpt><trkpt lat="59.0924119949" lon="29.9876546860"><time>2026-04-22T08:55:50Z</time></trkpt><trkpt lat="59.0924119949" lon="29.9876546860"><time>2026-04-22T08:55:53Z</time></trkpt><trkpt lat="59.0924119949" lon="29.9876546860"><time>2026-04-22T08:55:55Z</time></trkpt><trkpt lat="59.0924119949" lon="29.9876546860"><time>2026-04-22T08:55:58Z</time></trkpt><trkpt lat="59.0924119949" lon="29.9876546860"><time>2026-04-22T08:56:00Z</time></trkpt><trkpt lat="59.0924119949" lon="29.9876546860"><time>2026-04-22T08:56:03Z</time></trkpt><trkpt lat="59.0924119949" lon="29.9876546860"><time>2026-04-22T08:56:05Z</time></trkpt><trkpt lat="59.0924119949" lon="29.9876546860"><time>2026-04-22T08:56:08Z</time></trkpt><trkpt lat="59.0924119949" lon="29.9876546860"><time>2026-04-22T08:56:10Z</time></trkpt><trkpt lat="59.0924119949" lon="29.9876546860"><time>2026-04-22T08:56:13Z</time></trkpt><trkpt lat="59.0924119949" lon="29.9876546860"><time>2026-04-22T08:56:15Z</time></trkpt><trkpt lat="59.0924119949" lon="29.9876546860"><time>2026-04-22T08:56:18Z</time></trkpt><trkpt lat="59.0924119949" lon="29.9876546860"><time>2026-04-22T08:56:20Z</time></trkpt><trkpt lat="59.0924119949" lon="29.9876546860"><time>2026-04-22T08:56:23Z</time></trkpt><trkpt lat="59.0924119949" lon="29.9876546860"><time>2026-04-22T08:56:25Z</time></trkpt><trkpt lat="59.0924119949" lon="29.9876546860"><time>2026-04-22T08:56:28Z</time></trkpt><trkpt lat="59.0924119949" lon="29.9876546860"><time>2026-04-22T08:56:30Z</time></trkpt><trkpt lat="59.0924119949" lon="29.9876546860"><time>2026-04-22T08:56:33Z</time></trkpt><trkpt lat="59.0924119949" lon="29.9876546860"><time>2026-04-22T08:56:35Z</time></trkpt><trkpt lat="59.0924119949" lon="29.9876546860"><time>2026-04-22T08:56:38Z</time></trkpt><trkpt lat="59.0924119949" lon="29.9876546860"><time>2026-04-22T08:56:40Z</time></trkpt><trkpt lat="59.0924119949" lon="29.9876546860"><time>2026-04-22T08:56:43Z</time></trkpt><trkpt lat="59.0924119949" lon="29.9876546860"><time>2026-04-22T08:56:45Z</time></trkpt><trkpt lat="59.0924119949" lon="29.9876546860"><time>2026-04-22T08:56:48Z</time></trkpt><trkpt lat="59.0924119949" lon="29.9876546860"><time>2026-04-22T08:56:50Z</time></trkpt><trkpt lat="59.0924119949" lon="29.9876546860"><time>2026-04-22T08:56:53Z</time></trkpt><trkpt lat="59.0924119949" lon="29.9876546860"><time>2026-04-22T08:56:55Z</time></trkpt><trkpt lat="59.0924119949" lon="29.9876546860"><time>2026-04-22T08:56:58Z</time></trkpt><trkpt lat="59.0924334526" lon="29.9877190590"><time>2026-04-22T08:57:00Z</time></trkpt><trkpt lat="59.0924119949" lon="29.9877405167"><time>2026-04-22T08:57:03Z</time></trkpt><trkpt lat="59.0923905373" lon="29.9876546860"><time>2026-04-22T08:57:05Z</time></trkpt><trkpt lat="59.0923905373" lon="29.9876332283"><time>2026-04-22T08:57:08Z</time></trkpt><trkpt lat="59.0924119949" lon="29.9876117706"><time>2026-04-22T08:57:10Z</time></trkpt><trkpt lat="59.0924119949" lon="29.9876117706"><time>2026-04-22T08:57:13Z</time></trkpt><trkpt lat="59.0924119949" lon="29.9876117706"><time>2026-04-22T08:57:15Z</time></trkpt><trkpt lat="59.0924119949" lon="29.9876117706"><time>2026-04-22T08:57:18Z</time></trkpt><trkpt lat="59.0924119949" lon="29.9876117706"><time>2026-04-22T08:57:20Z</time></trkpt><trkpt lat="59.0924119949" lon="29.9876117706"><time>2026-04-22T08:57:23Z</time></trkpt><trkpt lat="59.0924119949" lon="29.9876332283"><time>2026-04-22T08:57:25Z</time></trkpt><trkpt lat="59.0924334526" lon="29.9876546860"><time>2026-04-22T08:57:28Z</time></trkpt><trkpt lat="59.0924119949" lon="29.9876117706"><time>2026-04-22T08:57:30Z</time></trkpt><trkpt lat="59.0924119949" lon="29.9876117706"><time>2026-04-22T08:57:33Z</time></trkpt><trkpt lat="59.0924119949" lon="29.9876117706"><time>2026-04-22T08:57:35Z</time></trkpt><trkpt lat="59.0924334526" lon="29.9876332283"><time>2026-04-22T08:57:38Z</time></trkpt><trkpt lat="59.0924334526" lon="29.9876546860"><time>2026-04-22T08:57:40Z</time></trkpt><trkpt lat="59.0924334526" lon="29.9876546860"><time>2026-04-22T08:57:43Z</time></trkpt><trkpt lat="59.0924334526" lon="29.9876761436"><time>2026-04-22T08:57:45Z</time></trkpt><trkpt lat="59.0924334526" lon="29.9876976013"><time>2026-04-22T08:57:48Z</time></trkpt><trkpt lat="59.0924334526" lon="29.9876976013"><time>2026-04-22T08:57:50Z</time></trkpt><trkpt lat="59.0924334526" lon="29.9876976013"><time>2026-04-22T08:57:53Z</time></trkpt><trkpt lat="59.0924334526" lon="29.9876976013"><time>2026-04-22T08:57:55Z</time></trkpt><trkpt lat="59.0924334526" lon="29.9876976013"><time>2026-04-22T08:57:58Z</time></trkpt><trkpt lat="59.0924334526" lon="29.9876976013"><time>2026-04-22T08:58:00Z</time></trkpt><trkpt lat="59.0924334526" lon="29.9876976013"><time>2026-04-22T08:58:03Z</time></trkpt><trkpt lat="59.0924334526" lon="29.9876976013"><time>2026-04-22T08:58:05Z</time></trkpt><trkpt lat="59.0924334526" lon="29.9876976013"><time>2026-04-22T08:58:08Z</time></trkpt><trkpt lat="59.0924334526" lon="29.9876976013"><time>2026-04-22T08:58:10Z</time></trkpt><trkpt lat="59.0924334526" lon="29.9876976013"><time>2026-04-22T08:58:13Z</time></trkpt><trkpt lat="59.0924334526" lon="29.9876976013"><time>2026-04-22T08:58:15Z</time></trkpt><trkpt lat="59.0924334526" lon="29.9876976013"><time>2026-04-22T08:58:18Z</time></trkpt><trkpt lat="59.0924334526" lon="29.9876976013"><time>2026-04-22T08:58:20Z</time></trkpt><trkpt lat="59.0924334526" lon="29.9876976013"><time>2026-04-22T08:58:23Z</time></trkpt><trkpt lat="59.0924334526" lon="29.9876976013"><time>2026-04-22T08:58:25Z</time></trkpt><trkpt lat="59.0924334526" lon="29.9876976013"><time>2026-04-22T08:58:28Z</time></trkpt><trkpt lat="59.0924334526" lon="29.9876761436"><time>2026-04-22T08:58:30Z</time></trkpt><trkpt lat="59.0924334526" lon="29.9876761436"><time>2026-04-22T08:58:33Z</time></trkpt><trkpt lat="59.0924334526" lon="29.9876761436"><time>2026-04-22T08:58:35Z</time></trkpt><trkpt lat="59.0924334526" lon="29.9876761436"><time>2026-04-22T08:58:38Z</time></trkpt><trkpt lat="59.0924334526" lon="29.9876761436"><time>2026-04-22T08:58:40Z</time></trkpt><trkpt lat="59.0924334526" lon="29.9876761436"><time>2026-04-22T08:58:43Z</time></trkpt><trkpt lat="59.0924334526" lon="29.9876976013"><time>2026-04-22T08:58:45Z</time></trkpt><trkpt lat="59.0924334526" lon="29.9876976013"><time>2026-04-22T08:58:48Z</time></trkpt><trkpt lat="59.0924334526" lon="29.9876976013"><time>2026-04-22T08:58:50Z</time></trkpt><trkpt lat="59.0924119949" lon="29.9876332283"><time>2026-04-22T08:58:53Z</time></trkpt><trkpt lat="59.0924119949" lon="29.9876332283"><time>2026-04-22T08:58:55Z</time></trkpt><trkpt lat="59.0923905373" lon="29.9876117706"><time>2026-04-22T08:58:58Z</time></trkpt><trkpt lat="59.0923905373" lon="29.9876117706"><time>2026-04-22T08:59:00Z</time></trkpt><trkpt lat="59.0923905373" lon="29.9876117706"><time>2026-04-22T08:59:03Z</time></trkpt><trkpt lat="59.0923905373" lon="29.9876117706"><time>2026-04-22T08:59:05Z</time></trkpt><trkpt lat="59.0923905373" lon="29.9876117706"><time>2026-04-22T08:59:08Z</time></trkpt><trkpt lat="59.0923905373" lon="29.9876117706"><time>2026-04-22T08:59:10Z</time></trkpt><trkpt lat="59.0923905373" lon="29.9876117706"><time>2026-04-22T08:59:13Z</time></trkpt><trkpt lat="59.0923905373" lon="29.9876117706"><time>2026-04-22T08:59:15Z</time></trkpt><trkpt lat="59.0923905373" lon="29.9876117706"><time>2026-04-22T08:59:18Z</time></trkpt><trkpt lat="59.0924119949" lon="29.9875688553"><time>2026-04-22T08:59:20Z</time></trkpt><trkpt lat="59.0924119949" lon="29.9874830246"><time>2026-04-22T08:59:23Z</time></trkpt><trkpt lat="59.0923905373" lon="29.9874186516"><time>2026-04-22T08:59:25Z</time></trkpt><trkpt lat="59.0923905373" lon="29.9873971939"><time>2026-04-22T08:59:28Z</time></trkpt><trkpt lat="59.0923905373" lon="29.9873757362"><time>2026-04-22T08:59:30Z</time></trkpt><trkpt lat="59.0923905373" lon="29.9873757362"><time>2026-04-22T08:59:33Z</time></trkpt><trkpt lat="59.0923905373" lon="29.9873757362"><time>2026-04-22T08:59:35Z</time></trkpt><trkpt lat="59.0923905373" lon="29.9873971939"><time>2026-04-22T08:59:38Z</time></trkpt><trkpt lat="59.0923476219" lon="29.9874615669"><time>2026-04-22T08:59:40Z</time></trkpt><trkpt lat="59.0923476219" lon="29.9874615669"><time>2026-04-22T08:59:43Z</time></trkpt><trkpt lat="59.0923476219" lon="29.9874830246"><time>2026-04-22T08:59:45Z</time></trkpt><trkpt lat="59.0923476219" lon="29.9875259399"><time>2026-04-22T08:59:48Z</time></trkpt><trkpt lat="59.0923690796" lon="29.9876117706"><time>2026-04-22T08:59:50Z</time></trkpt><trkpt lat="59.0923905373" lon="29.9876761436"><time>2026-04-22T08:59:53Z</time></trkpt><trkpt lat="59.0924119949" lon="29.9876976013"><time>2026-04-22T08:59:55Z</time></trkpt><trkpt lat="59.0924334526" lon="29.9876976013"><time>2026-04-22T08:59:58Z</time></trkpt><trkpt lat="59.0924119949" lon="29.9877190590"><time>2026-04-22T09:00:00Z</time></trkpt><trkpt lat="59.0924119949" lon="29.9877834320"><time>2026-04-22T09:00:03Z</time></trkpt><trkpt lat="59.0924119949" lon="29.9878048897"><time>2026-04-22T09:00:05Z</time></trkpt><trkpt lat="59.0923905373" lon="29.9878048897"><time>2026-04-22T09:00:08Z</time></trkpt><trkpt lat="59.0923905373" lon="29.9878048897"><time>2026-04-22T09:00:10Z</time></trkpt><trkpt lat="59.0923905373" lon="29.9878048897"><time>2026-04-22T09:00:13Z</time></trkpt><trkpt lat="59.0923905373" lon="29.9878048897"><time>2026-04-22T09:00:15Z</time></trkpt><trkpt lat="59.0923905373" lon="29.9878263474"><time>2026-04-22T09:00:18Z</time></trkpt><trkpt lat="59.0923905373" lon="29.9878048897"><time>2026-04-22T09:00:20Z</time></trkpt><trkpt lat="59.0923905373" lon="29.9878048897"><time>2026-04-22T09:00:23Z</time></trkpt><trkpt lat="59.0923905373" lon="29.9878263474"><time>2026-04-22T09:00:25Z</time></trkpt><trkpt lat="59.0923905373" lon="29.9878263474"><time>2026-04-22T09:00:28Z</time></trkpt><trkpt lat="59.0923905373" lon="29.9878478050"><time>2026-04-22T09:00:30Z</time></trkpt><trkpt lat="59.0923905373" lon="29.9878478050"><time>2026-04-22T09:00:33Z</time></trkpt><trkpt lat="59.0923905373" lon="29.9878478050"><time>2026-04-22T09:00:36Z</time></trkpt><trkpt lat="59.0923905373" lon="29.9878907204"><time>2026-04-22T09:00:38Z</time></trkpt><trkpt lat="59.0923905373" lon="29.9879121780"><time>2026-04-22T09:00:40Z</time></trkpt><trkpt lat="59.0923905373" lon="29.9879121780"><time>2026-04-22T09:00:43Z</time></trkpt><trkpt lat="59.0923905373" lon="29.9878907204"><time>2026-04-22T09:00:45Z</time></trkpt><trkpt lat="59.0923905373" lon="29.9878907204"><time>2026-04-22T09:00:48Z</time></trkpt><trkpt lat="59.0923905373" lon="29.9877834320"><time>2026-04-22T09:00:50Z</time></trkpt><trkpt lat="59.0923690796" lon="29.9877405167"><time>2026-04-22T09:00:53Z</time></trkpt><trkpt lat="59.0923905373" lon="29.9877405167"><time>2026-04-22T09:00:55Z</time></trkpt><trkpt lat="59.0924334526" lon="29.9878048897"><time>2026-04-22T09:00:58Z</time></trkpt><trkpt lat="59.0924549103" lon="29.9879336357"><time>2026-04-22T09:01:00Z</time></trkpt><trkpt lat="59.0924549103" lon="29.9879765511"><time>2026-04-22T09:01:03Z</time></trkpt><trkpt lat="59.0924549103" lon="29.9879765511"><time>2026-04-22T09:01:05Z</time></trkpt><trkpt lat="59.0924549103" lon="29.9879765511"><time>2026-04-22T09:01:08Z</time></trkpt><trkpt lat="59.0924334526" lon="29.9878692627"><time>2026-04-22T09:01:10Z</time></trkpt><trkpt lat="59.0924334526" lon="29.9877619743"><time>2026-04-22T09:01:13Z</time></trkpt><trkpt lat="59.0924334526" lon="29.9877405167"><time>2026-04-22T09:01:15Z</time></trkpt><trkpt lat="59.0924334526" lon="29.9877619743"><time>2026-04-22T09:01:18Z</time></trkpt><trkpt lat="59.0924334526" lon="29.9877834320"><time>2026-04-22T09:01:20Z</time></trkpt><trkpt lat="59.0924549103" lon="29.9877834320"><time>2026-04-22T09:01:23Z</time></trkpt><trkpt lat="59.0924549103" lon="29.9878692627"><time>2026-04-22T09:01:25Z</time></trkpt><trkpt lat="59.0924549103" lon="29.9879336357"><time>2026-04-22T09:01:28Z</time></trkpt><trkpt lat="59.0924334526" lon="29.9879980087"><time>2026-04-22T09:01:30Z</time></trkpt><trkpt lat="59.0924334526" lon="29.9879980087"><time>2026-04-22T09:01:33Z</time></trkpt><trkpt lat="59.0924549103" lon="29.9879765511"><time>2026-04-22T09:01:35Z</time></trkpt><trkpt lat="59.0924549103" lon="29.9880623817"><time>2026-04-22T09:01:38Z</time></trkpt><trkpt lat="59.0924549103" lon="29.9880838394"><time>2026-04-22T09:01:40Z</time></trkpt><trkpt lat="59.0924549103" lon="29.9880838394"><time>2026-04-22T09:01:43Z</time></trkpt><trkpt lat="59.0924763680" lon="29.9881267548"><time>2026-04-22T09:01:45Z</time></trkpt><trkpt lat="59.0924763680" lon="29.9881482124"><time>2026-04-22T09:01:48Z</time></trkpt><trkpt lat="59.0925192833" lon="29.9881482124"><time>2026-04-22T09:01:50Z</time></trkpt><trkpt lat="59.0925192833" lon="29.9881482124"><time>2026-04-22T09:01:53Z</time></trkpt><trkpt lat="59.0925192833" lon="29.9881482124"><time>2026-04-22T09:01:55Z</time></trkpt><trkpt lat="59.0925192833" lon="29.9881482124"><time>2026-04-22T09:01:58Z</time></trkpt><trkpt lat="59.0925192833" lon="29.9881482124"><time>2026-04-22T09:02:00Z</time></trkpt><trkpt lat="59.0925192833" lon="29.9882125854"><time>2026-04-22T09:02:03Z</time></trkpt><trkpt lat="59.0925407410" lon="29.9883413315"><time>2026-04-22T09:02:05Z</time></trkpt><trkpt lat="59.0925407410" lon="29.9883198738"><time>2026-04-22T09:02:08Z</time></trkpt><trkpt lat="59.0925192833" lon="29.9882769585"><time>2026-04-22T09:02:10Z</time></trkpt><trkpt lat="59.0925192833" lon="29.9882769585"><time>2026-04-22T09:02:13Z</time></trkpt><trkpt lat="59.0925192833" lon="29.9882769585"><time>2026-04-22T09:02:15Z</time></trkpt><trkpt lat="59.0925407410" lon="29.9884057045"><time>2026-04-22T09:02:18Z</time></trkpt><trkpt lat="59.0925836563" lon="29.9886846542"><time>2026-04-22T09:02:20Z</time></trkpt><trkpt lat="59.0925836563" lon="29.9888348579"><time>2026-04-22T09:02:23Z</time></trkpt><trkpt lat="59.0925836563" lon="29.9888563156"><time>2026-04-22T09:02:25Z</time></trkpt><trkpt lat="59.0926051140" lon="29.9888992310"><time>2026-04-22T09:02:28Z</time></trkpt><trkpt lat="59.0926265717" lon="29.9890279770"><time>2026-04-22T09:02:30Z</time></trkpt><trkpt lat="59.0926265717" lon="29.9891352654"><time>2026-04-22T09:02:33Z</time></trkpt><trkpt lat="59.0926909447" lon="29.9891567230"><time>2026-04-22T09:02:35Z</time></trkpt><trkpt lat="59.0926909447" lon="29.9890708923"><time>2026-04-22T09:02:38Z</time></trkpt><trkpt lat="59.0926694870" lon="29.9889850616"><time>2026-04-22T09:02:40Z</time></trkpt><trkpt lat="59.0926480293" lon="29.9889636040"><time>2026-04-22T09:02:43Z</time></trkpt><trkpt lat="59.0926480293" lon="29.9889636040"><time>2026-04-22T09:02:45Z</time></trkpt><trkpt lat="59.0926694870" lon="29.9890065193"><time>2026-04-22T09:02:48Z</time></trkpt><trkpt lat="59.0926909447" lon="29.9890708923"><time>2026-04-22T09:02:50Z</time></trkpt><trkpt lat="59.0926909447" lon="29.9891138077"><time>2026-04-22T09:02:53Z</time></trkpt><trkpt lat="59.0926909447" lon="29.9891138077"><time>2026-04-22T09:02:55Z</time></trkpt><trkpt lat="59.0926909447" lon="29.9891138077"><time>2026-04-22T09:02:58Z</time></trkpt><trkpt lat="59.0926909447" lon="29.9891352654"><time>2026-04-22T09:03:00Z</time></trkpt><trkpt lat="59.0926909447" lon="29.9891352654"><time>2026-04-22T09:03:03Z</time></trkpt><trkpt lat="59.0926909447" lon="29.9891352654"><time>2026-04-22T09:03:05Z</time></trkpt><trkpt lat="59.0926909447" lon="29.9891352654"><time>2026-04-22T09:03:08Z</time></trkpt><trkpt lat="59.0926909447" lon="29.9891567230"><time>2026-04-22T09:03:10Z</time></trkpt><trkpt lat="59.0927124023" lon="29.9892210960"><time>2026-04-22T09:03:13Z</time></trkpt><trkpt lat="59.0927124023" lon="29.9893069267"><time>2026-04-22T09:03:15Z</time></trkpt><trkpt lat="59.0927124023" lon="29.9894142151"><time>2026-04-22T09:03:18Z</time></trkpt><trkpt lat="59.0927553177" lon="29.9895644188"><time>2026-04-22T09:03:20Z</time></trkpt><trkpt lat="59.0927553177" lon="29.9896502495"><time>2026-04-22T09:03:23Z</time></trkpt><trkpt lat="59.0927767754" lon="29.9897575378"><time>2026-04-22T09:03:25Z</time></trkpt><trkpt lat="59.0927982330" lon="29.9898219109"><time>2026-04-22T09:03:28Z</time></trkpt><trkpt lat="59.0927982330" lon="29.9898648262"><time>2026-04-22T09:03:30Z</time></trkpt><trkpt lat="59.0928196907" lon="29.9898648262"><time>2026-04-22T09:03:33Z</time></trkpt><trkpt lat="59.0928196907" lon="29.9898648262"><time>2026-04-22T09:03:36Z</time></trkpt><trkpt lat="59.0928196907" lon="29.9898648262"><time>2026-04-22T09:03:38Z</time></trkpt><trkpt lat="59.0928196907" lon="29.9898648262"><time>2026-04-22T09:03:40Z</time></trkpt><trkpt lat="59.0928196907" lon="29.9898648262"><time>2026-04-22T09:03:43Z</time></trkpt><trkpt lat="59.0928196907" lon="29.9899721146"><time>2026-04-22T09:03:45Z</time></trkpt><trkpt lat="59.0928411484" lon="29.9900364876"><time>2026-04-22T09:03:48Z</time></trkpt><trkpt lat="59.0928411484" lon="29.9901437759"><time>2026-04-22T09:03:50Z</time></trkpt><trkpt lat="59.0928411484" lon="29.9901652336"><time>2026-04-22T09:03:53Z</time></trkpt><trkpt lat="59.0928411484" lon="29.9901866913"><time>2026-04-22T09:03:55Z</time></trkpt><trkpt lat="59.0928411484" lon="29.9902081490"><time>2026-04-22T09:03:58Z</time></trkpt><trkpt lat="59.0928626060" lon="29.9903154373"><time>2026-04-22T09:04:00Z</time></trkpt><trkpt lat="59.0928840637" lon="29.9903798103"><time>2026-04-22T09:04:03Z</time></trkpt><trkpt lat="59.0928840637" lon="29.9904012680"><time>2026-04-22T09:04:05Z</time></trkpt><trkpt lat="59.0928840637" lon="29.9903368950"><time>2026-04-22T09:04:08Z</time></trkpt><trkpt lat="59.0928626060" lon="29.9902939796"><time>2026-04-22T09:04:10Z</time></trkpt><trkpt lat="59.0928626060" lon="29.9902725220"><time>2026-04-22T09:04:13Z</time></trkpt><trkpt lat="59.0928626060" lon="29.9902510643"><time>2026-04-22T09:04:15Z</time></trkpt><trkpt lat="59.0928626060" lon="29.9902725220"><time>2026-04-22T09:04:18Z</time></trkpt><trkpt lat="59.0928840637" lon="29.9903368950"><time>2026-04-22T09:04:20Z</time></trkpt><trkpt lat="59.0929055214" lon="29.9904227257"><time>2026-04-22T09:04:23Z</time></trkpt><trkpt lat="59.0929055214" lon="29.9905085564"><time>2026-04-22T09:04:25Z</time></trkpt><trkpt lat="59.0928840637" lon="29.9905729294"><time>2026-04-22T09:04:28Z</time></trkpt><trkpt lat="59.0928840637" lon="29.9905729294"><time>2026-04-22T09:04:30Z</time></trkpt><trkpt lat="59.0928840637" lon="29.9905729294"><time>2026-04-22T09:04:33Z</time></trkpt><trkpt lat="59.0929269791" lon="29.9906373024"><time>2026-04-22T09:04:35Z</time></trkpt><trkpt lat="59.0929484367" lon="29.9906587601"><time>2026-04-22T09:04:38Z</time></trkpt><trkpt lat="59.0929484367" lon="29.9906373024"><time>2026-04-22T09:04:40Z</time></trkpt><trkpt lat="59.0929484367" lon="29.9906373024"><time>2026-04-22T09:04:43Z</time></trkpt><trkpt lat="59.0929484367" lon="29.9906373024"><time>2026-04-22T09:04:45Z</time></trkpt><trkpt lat="59.0929698944" lon="29.9907660484"><time>2026-04-22T09:04:48Z</time></trkpt><trkpt lat="59.0929913521" lon="29.9909162521"><time>2026-04-22T09:04:50Z</time></trkpt><trkpt lat="59.0929913521" lon="29.9909377098"><time>2026-04-22T09:04:53Z</time></trkpt><trkpt lat="59.0930128098" lon="29.9910664558"><time>2026-04-22T09:04:55Z</time></trkpt><trkpt lat="59.0930342674" lon="29.9911093712"><time>2026-04-22T09:04:58Z</time></trkpt><trkpt lat="59.0930342674" lon="29.9911522865"><time>2026-04-22T09:05:00Z</time></trkpt><trkpt lat="59.0930557251" lon="29.9911737442"><time>2026-04-22T09:05:03Z</time></trkpt><trkpt lat="59.0930557251" lon="29.9912166595"><time>2026-04-22T09:05:05Z</time></trkpt><trkpt lat="59.0930557251" lon="29.9912810326"><time>2026-04-22T09:05:08Z</time></trkpt><trkpt lat="59.0930771828" lon="29.9913239479"><time>2026-04-22T09:05:10Z</time></trkpt><trkpt lat="59.0930557251" lon="29.9913668633"><time>2026-04-22T09:05:13Z</time></trkpt><trkpt lat="59.0930771828" lon="29.9914741516"><time>2026-04-22T09:05:15Z</time></trkpt><trkpt lat="59.0930557251" lon="29.9914956093"><time>2026-04-22T09:05:18Z</time></trkpt><trkpt lat="59.0930557251" lon="29.9915385246"><time>2026-04-22T09:05:20Z</time></trkpt><trkpt lat="59.0930986404" lon="29.9916028976"><time>2026-04-22T09:05:23Z</time></trkpt><trkpt lat="59.0931200981" lon="29.9917101860"><time>2026-04-22T09:05:25Z</time></trkpt><trkpt lat="59.0931200981" lon="29.9917316437"><time>2026-04-22T09:05:28Z</time></trkpt><trkpt lat="59.0931200981" lon="29.9917531013"><time>2026-04-22T09:05:30Z</time></trkpt><trkpt lat="59.0931415558" lon="29.9918389320"><time>2026-04-22T09:05:33Z</time></trkpt><trkpt lat="59.0931844711" lon="29.9919676781"><time>2026-04-22T09:05:35Z</time></trkpt><trkpt lat="59.0931844711" lon="29.9919891357"><time>2026-04-22T09:05:38Z</time></trkpt><trkpt lat="59.0931844711" lon="29.9919891357"><time>2026-04-22T09:05:40Z</time></trkpt><trkpt lat="59.0932059288" lon="29.9920535088"><time>2026-04-22T09:05:43Z</time></trkpt><trkpt lat="59.0932273865" lon="29.9921607971"><time>2026-04-22T09:05:45Z</time></trkpt><trkpt lat="59.0932273865" lon="29.9922251701"><time>2026-04-22T09:05:48Z</time></trkpt><trkpt lat="59.0932273865" lon="29.9922466278"><time>2026-04-22T09:05:50Z</time></trkpt><trkpt lat="59.0932488441" lon="29.9923110008"><time>2026-04-22T09:05:53Z</time></trkpt><trkpt lat="59.0932703018" lon="29.9923968315"><time>2026-04-22T09:05:55Z</time></trkpt><trkpt lat="59.0932703018" lon="29.9924612045"><time>2026-04-22T09:05:58Z</time></trkpt><trkpt lat="59.0932703018" lon="29.9924612045"><time>2026-04-22T09:06:00Z</time></trkpt><trkpt lat="59.0932703018" lon="29.9924826622"><time>2026-04-22T09:06:03Z</time></trkpt><trkpt lat="59.0932917595" lon="29.9925899506"><time>2026-04-22T09:06:05Z</time></trkpt><trkpt lat="59.0932917595" lon="29.9926328659"><time>2026-04-22T09:06:08Z</time></trkpt><trkpt lat="59.0933132172" lon="29.9927401543"><time>2026-04-22T09:06:10Z</time></trkpt><trkpt lat="59.0933346748" lon="29.9927830696"><time>2026-04-22T09:06:13Z</time></trkpt><trkpt lat="59.0933346748" lon="29.9928259850"><time>2026-04-22T09:06:15Z</time></trkpt><trkpt lat="59.0933346748" lon="29.9928259850"><time>2026-04-22T09:06:18Z</time></trkpt><trkpt lat="59.0933346748" lon="29.9929761887"><time>2026-04-22T09:06:20Z</time></trkpt><trkpt lat="59.0933561325" lon="29.9930620193"><time>2026-04-22T09:06:23Z</time></trkpt><trkpt lat="59.0933775902" lon="29.9932122231"><time>2026-04-22T09:06:25Z</time></trkpt><trkpt lat="59.0933990479" lon="29.9932551384"><time>2026-04-22T09:06:28Z</time></trkpt><trkpt lat="59.0934205055" lon="29.9932980537"><time>2026-04-22T09:06:30Z</time></trkpt><trkpt lat="59.0934205055" lon="29.9932980537"><time>2026-04-22T09:06:33Z</time></trkpt><trkpt lat="59.0934205055" lon="29.9933624268"><time>2026-04-22T09:06:35Z</time></trkpt><trkpt lat="59.0934205055" lon="29.9933624268"><time>2026-04-22T09:06:38Z</time></trkpt><trkpt lat="59.0934205055" lon="29.9933624268"><time>2026-04-22T09:06:40Z</time></trkpt><trkpt lat="59.0934205055" lon="29.9933838844"><time>2026-04-22T09:06:43Z</time></trkpt><trkpt lat="59.0934205055" lon="29.9934697151"><time>2026-04-22T09:06:45Z</time></trkpt><trkpt lat="59.0934419632" lon="29.9935126305"><time>2026-04-22T09:06:48Z</time></trkpt><trkpt lat="59.0934848785" lon="29.9935984612"><time>2026-04-22T09:06:50Z</time></trkpt><trkpt lat="59.0934848785" lon="29.9936628342"><time>2026-04-22T09:06:53Z</time></trkpt><trkpt lat="59.0935063362" lon="29.9937486649"><time>2026-04-22T09:06:55Z</time></trkpt><trkpt lat="59.0935063362" lon="29.9937915802"><time>2026-04-22T09:06:58Z</time></trkpt><trkpt lat="59.0935277939" lon="29.9938130379"><time>2026-04-22T09:07:00Z</time></trkpt><trkpt lat="59.0935277939" lon="29.9937915802"><time>2026-04-22T09:07:03Z</time></trkpt><trkpt lat="59.0935277939" lon="29.9937701225"><time>2026-04-22T09:07:05Z</time></trkpt><trkpt lat="59.0935492516" lon="29.9938344955"><time>2026-04-22T09:07:08Z</time></trkpt><trkpt lat="59.0935277939" lon="29.9938559532"><time>2026-04-22T09:07:10Z</time></trkpt><trkpt lat="59.0935277939" lon="29.9938559532"><time>2026-04-22T09:07:13Z</time></trkpt><trkpt lat="59.0935707092" lon="29.9939632416"><time>2026-04-22T09:07:15Z</time></trkpt><trkpt lat="59.0935707092" lon="29.9940061569"><time>2026-04-22T09:07:18Z</time></trkpt><trkpt lat="59.0935921669" lon="29.9940705299"><time>2026-04-22T09:07:20Z</time></trkpt><trkpt lat="59.0935921669" lon="29.9941134453"><time>2026-04-22T09:07:23Z</time></trkpt><trkpt lat="59.0936136246" lon="29.9941349030"><time>2026-04-22T09:07:25Z</time></trkpt><trkpt lat="59.0936136246" lon="29.9941778183"><time>2026-04-22T09:07:28Z</time></trkpt><trkpt lat="59.0936136246" lon="29.9943494797"><time>2026-04-22T09:07:30Z</time></trkpt><trkpt lat="59.0936136246" lon="29.9944138527"><time>2026-04-22T09:07:33Z</time></trkpt><trkpt lat="59.0936350822" lon="29.9944138527"><time>2026-04-22T09:07:35Z</time></trkpt><trkpt lat="59.0936565399" lon="29.9943923950"><time>2026-04-22T09:07:38Z</time></trkpt><trkpt lat="59.0936565399" lon="29.9943923950"><time>2026-04-22T09:07:40Z</time></trkpt><trkpt lat="59.0936350822" lon="29.9944567680"><time>2026-04-22T09:07:43Z</time></trkpt><trkpt lat="59.0935707092" lon="29.9945211411"><time>2026-04-22T09:07:45Z</time></trkpt><trkpt lat="59.0935277939" lon="29.9945425987"><time>2026-04-22T09:07:48Z</time></trkpt><trkpt lat="59.0935063362" lon="29.9946069717"><time>2026-04-22T09:07:50Z</time></trkpt><trkpt lat="59.0934848785" lon="29.9946069717"><time>2026-04-22T09:07:53Z</time></trkpt><trkpt lat="59.0934634209" lon="29.9946069717"><time>2026-04-22T09:07:55Z</time></trkpt><trkpt lat="59.0934634209" lon="29.9946069717"><time>2026-04-22T09:07:58Z</time></trkpt><trkpt lat="59.0934419632" lon="29.9945640564"><time>2026-04-22T09:08:00Z</time></trkpt><trkpt lat="59.0934205055" lon="29.9945640564"><time>2026-04-22T09:08:03Z</time></trkpt><trkpt lat="59.0934205055" lon="29.9945640564"><time>2026-04-22T09:08:05Z</time></trkpt><trkpt lat="59.0934205055" lon="29.9945640564"><time>2026-04-22T09:08:08Z</time></trkpt><trkpt lat="59.0934205055" lon="29.9945640564"><time>2026-04-22T09:08:10Z</time></trkpt><trkpt lat="59.0933561325" lon="29.9945640564"><time>2026-04-22T09:08:13Z</time></trkpt><trkpt lat="59.0932703018" lon="29.9945211411"><time>2026-04-22T09:08:15Z</time></trkpt><trkpt lat="59.0932273865" lon="29.9945425987"><time>2026-04-22T09:08:18Z</time></trkpt><trkpt lat="59.0931630135" lon="29.9945425987"><time>2026-04-22T09:08:20Z</time></trkpt><trkpt lat="59.0931630135" lon="29.9944996834"><time>2026-04-22T09:08:23Z</time></trkpt><trkpt lat="59.0931415558" lon="29.9944567680"><time>2026-04-22T09:08:25Z</time></trkpt><trkpt lat="59.0931415558" lon="29.9944567680"><time>2026-04-22T09:08:28Z</time></trkpt><trkpt lat="59.0930986404" lon="29.9944567680"><time>2026-04-22T09:08:30Z</time></trkpt><trkpt lat="59.0930557251" lon="29.9944782257"><time>2026-04-22T09:08:33Z</time></trkpt><trkpt lat="59.0930342674" lon="29.9944353104"><time>2026-04-22T09:08:35Z</time></trkpt><trkpt lat="59.0930342674" lon="29.9944353104"><time>2026-04-22T09:08:38Z</time></trkpt><trkpt lat="59.0929698944" lon="29.9943923950"><time>2026-04-22T09:08:40Z</time></trkpt><trkpt lat="59.0929484367" lon="29.9943709373"><time>2026-04-22T09:08:43Z</time></trkpt><trkpt lat="59.0929269791" lon="29.9943709373"><time>2026-04-22T09:08:45Z</time></trkpt><trkpt lat="59.0929269791" lon="29.9943709373"><time>2026-04-22T09:08:48Z</time></trkpt><trkpt lat="59.0929269791" lon="29.9943923950"><time>2026-04-22T09:08:50Z</time></trkpt><trkpt lat="59.0929269791" lon="29.9943923950"><time>2026-04-22T09:08:53Z</time></trkpt><trkpt lat="59.0929055214" lon="29.9943923950"><time>2026-04-22T09:08:55Z</time></trkpt><trkpt lat="59.0928411484" lon="29.9943709373"><time>2026-04-22T09:08:58Z</time></trkpt><trkpt lat="59.0927553177" lon="29.9943280220"><time>2026-04-22T09:09:00Z</time></trkpt><trkpt lat="59.0927338600" lon="29.9942851067"><time>2026-04-22T09:09:03Z</time></trkpt><trkpt lat="59.0926909447" lon="29.9942636490"><time>2026-04-22T09:09:05Z</time></trkpt><trkpt lat="59.0926480293" lon="29.9942636490"><time>2026-04-22T09:09:08Z</time></trkpt><trkpt lat="59.0926051140" lon="29.9942421913"><time>2026-04-22T09:09:10Z</time></trkpt><trkpt lat="59.0925836563" lon="29.9942851067"><time>2026-04-22T09:09:15Z</time></trkpt><trkpt lat="59.0925836563" lon="29.9942851067"><time>2026-04-22T09:09:18Z</time></trkpt><trkpt lat="59.0925836563" lon="29.9942851067"><time>2026-04-22T09:09:20Z</time></trkpt><trkpt lat="59.0925621986" lon="29.9942851067"><time>2026-04-22T09:09:23Z</time></trkpt><trkpt lat="59.0925192833" lon="29.9943065643"><time>2026-04-22T09:09:25Z</time></trkpt><trkpt lat="59.0924978256" lon="29.9942851067"><time>2026-04-22T09:09:28Z</time></trkpt><trkpt lat="59.0924978256" lon="29.9942851067"><time>2026-04-22T09:09:30Z</time></trkpt><trkpt lat="59.0924978256" lon="29.9942851067"><time>2026-04-22T09:09:33Z</time></trkpt><trkpt lat="59.0924763680" lon="29.9942636490"><time>2026-04-22T09:09:35Z</time></trkpt><trkpt lat="59.0924549103" lon="29.9942207336"><time>2026-04-22T09:09:38Z</time></trkpt><trkpt lat="59.0924119949" lon="29.9942421913"><time>2026-04-22T09:09:40Z</time></trkpt><trkpt lat="59.0923905373" lon="29.9942207336"><time>2026-04-22T09:09:43Z</time></trkpt><trkpt lat="59.0923690796" lon="29.9942636490"><time>2026-04-22T09:09:45Z</time></trkpt><trkpt lat="59.0923476219" lon="29.9942636490"><time>2026-04-22T09:09:48Z</time></trkpt><trkpt lat="59.0923476219" lon="29.9942636490"><time>2026-04-22T09:09:50Z</time></trkpt><trkpt lat="59.0923261642" lon="29.9942207336"><time>2026-04-22T09:09:53Z</time></trkpt><trkpt lat="59.0922617912" lon="29.9941349030"><time>2026-04-22T09:09:55Z</time></trkpt><trkpt lat="59.0922188759" lon="29.9941134453"><time>2026-04-22T09:09:58Z</time></trkpt><trkpt lat="59.0921759605" lon="29.9940919876"><time>2026-04-22T09:10:00Z</time></trkpt><trkpt lat="59.0921759605" lon="29.9941134453"><time>2026-04-22T09:10:03Z</time></trkpt><trkpt lat="59.0921759605" lon="29.9941134453"><time>2026-04-22T09:10:05Z</time></trkpt><trkpt lat="59.0921759605" lon="29.9941134453"><time>2026-04-22T09:10:10Z</time></trkpt><trkpt lat="59.0921545029" lon="29.9940919876"><time>2026-04-22T09:10:13Z</time></trkpt><trkpt lat="59.0921115875" lon="29.9940705299"><time>2026-04-22T09:10:15Z</time></trkpt><trkpt lat="59.0920472145" lon="29.9940705299"><time>2026-04-22T09:10:18Z</time></trkpt><trkpt lat="59.0919613838" lon="29.9940490723"><time>2026-04-22T09:10:20Z</time></trkpt><trkpt lat="59.0919184685" lon="29.9940061569"><time>2026-04-22T09:10:23Z</time></trkpt><trkpt lat="59.0918540955" lon="29.9939846992"><time>2026-04-22T09:10:25Z</time></trkpt><trkpt lat="59.0918540955" lon="29.9939846992"><time>2026-04-22T09:10:30Z</time></trkpt><trkpt lat="59.0918540955" lon="29.9939846992"><time>2026-04-22T09:10:33Z</time></trkpt><trkpt lat="59.0918540955" lon="29.9939846992"><time>2026-04-22T09:10:35Z</time></trkpt><trkpt lat="59.0918540955" lon="29.9939846992"><time>2026-04-22T09:10:38Z</time></trkpt><trkpt lat="59.0918540955" lon="29.9939846992"><time>2026-04-22T09:10:40Z</time></trkpt><trkpt lat="59.0918326378" lon="29.9939846992"><time>2026-04-22T09:10:43Z</time></trkpt><trkpt lat="59.0918111801" lon="29.9939632416"><time>2026-04-22T09:10:45Z</time></trkpt><trkpt lat="59.0917897224" lon="29.9939417839"><time>2026-04-22T09:10:48Z</time></trkpt><trkpt lat="59.0917468071" lon="29.9939632416"><time>2026-04-22T09:10:50Z</time></trkpt><trkpt lat="59.0916609764" lon="29.9939632416"><time>2026-04-22T09:10:55Z</time></trkpt><trkpt lat="59.0916609764" lon="29.9939632416"><time>2026-04-22T09:10:58Z</time></trkpt><trkpt lat="59.0916180611" lon="29.9939203262"><time>2026-04-22T09:11:00Z</time></trkpt><trkpt lat="59.0915751457" lon="29.9938988686"><time>2026-04-22T09:11:03Z</time></trkpt><trkpt lat="59.0915107727" lon="29.9938774109"><time>2026-04-22T09:11:05Z</time></trkpt><trkpt lat="59.0915107727" lon="29.9938988686"><time>2026-04-22T09:11:08Z</time></trkpt><trkpt lat="59.0915107727" lon="29.9938988686"><time>2026-04-22T09:11:10Z</time></trkpt><trkpt lat="59.0915107727" lon="29.9938988686"><time>2026-04-22T09:11:13Z</time></trkpt><trkpt lat="59.0915107727" lon="29.9938988686"><time>2026-04-22T09:11:15Z</time></trkpt><trkpt lat="59.0914893150" lon="29.9938774109"><time>2026-04-22T09:11:18Z</time></trkpt><trkpt lat="59.0914249420" lon="29.9938559532"><time>2026-04-22T09:11:20Z</time></trkpt><trkpt lat="59.0913820267" lon="29.9938344955"><time>2026-04-22T09:11:23Z</time></trkpt><trkpt lat="59.0913820267" lon="29.9938130379"><time>2026-04-22T09:11:25Z</time></trkpt><trkpt lat="59.0913820267" lon="29.9938130379"><time>2026-04-22T09:11:28Z</time></trkpt><trkpt lat="59.0913176537" lon="29.9938130379"><time>2026-04-22T09:11:30Z</time></trkpt><trkpt lat="59.0912961960" lon="29.9938130379"><time>2026-04-22T09:11:33Z</time></trkpt><trkpt lat="59.0912747383" lon="29.9938344955"><time>2026-04-22T09:11:35Z</time></trkpt><trkpt lat="59.0912532806" lon="29.9938130379"><time>2026-04-22T09:11:38Z</time></trkpt><trkpt lat="59.0912318230" lon="29.9938344955"><time>2026-04-22T09:11:40Z</time></trkpt><trkpt lat="59.0912318230" lon="29.9938344955"><time>2026-04-22T09:11:43Z</time></trkpt><trkpt lat="59.0911889076" lon="29.9938130379"><time>2026-04-22T09:11:45Z</time></trkpt><trkpt lat="59.0911674500" lon="29.9937486649"><time>2026-04-22T09:11:48Z</time></trkpt><trkpt lat="59.0911245346" lon="29.9937272072"><time>2026-04-22T09:11:50Z</time></trkpt><trkpt lat="59.0911245346" lon="29.9937272072"><time>2026-04-22T09:11:53Z</time></trkpt><trkpt lat="59.0910816193" lon="29.9937057495"><time>2026-04-22T09:11:55Z</time></trkpt><trkpt lat="59.0910172462" lon="29.9936628342"><time>2026-04-22T09:11:58Z</time></trkpt><trkpt lat="59.0909743309" lon="29.9936199188"><time>2026-04-22T09:12:00Z</time></trkpt><trkpt lat="59.0909743309" lon="29.9936199188"><time>2026-04-22T09:12:03Z</time></trkpt><trkpt lat="59.0909528732" lon="29.9936413765"><time>2026-04-22T09:12:05Z</time></trkpt><trkpt lat="59.0909314156" lon="29.9936413765"><time>2026-04-22T09:12:08Z</time></trkpt><trkpt lat="59.0908885002" lon="29.9936199188"><time>2026-04-22T09:12:10Z</time></trkpt><trkpt lat="59.0908670425" lon="29.9935984612"><time>2026-04-22T09:12:13Z</time></trkpt><trkpt lat="59.0908455849" lon="29.9935984612"><time>2026-04-22T09:12:15Z</time></trkpt><trkpt lat="59.0908455849" lon="29.9935984612"><time>2026-04-22T09:12:18Z</time></trkpt><trkpt lat="59.0908026695" lon="29.9935984612"><time>2026-04-22T09:12:20Z</time></trkpt><trkpt lat="59.0907812119" lon="29.9935770035"><time>2026-04-22T09:12:23Z</time></trkpt><trkpt lat="59.0907597542" lon="29.9935770035"><time>2026-04-22T09:12:25Z</time></trkpt><trkpt lat="59.0907382965" lon="29.9935770035"><time>2026-04-22T09:12:28Z</time></trkpt><trkpt lat="59.0906524658" lon="29.9935126305"><time>2026-04-22T09:12:33Z</time></trkpt><trkpt lat="59.0906095505" lon="29.9934911728"><time>2026-04-22T09:12:35Z</time></trkpt><trkpt lat="59.0906095505" lon="29.9934911728"><time>2026-04-22T09:12:38Z</time></trkpt><trkpt lat="59.0906095505" lon="29.9934911728"><time>2026-04-22T09:12:40Z</time></trkpt><trkpt lat="59.0906095505" lon="29.9934911728"><time>2026-04-22T09:12:43Z</time></trkpt><trkpt lat="59.0905451775" lon="29.9934482574"><time>2026-04-22T09:12:45Z</time></trkpt><trkpt lat="59.0905022621" lon="29.9934267998"><time>2026-04-22T09:12:48Z</time></trkpt><trkpt lat="59.0904808044" lon="29.9934053421"><time>2026-04-22T09:12:50Z</time></trkpt><trkpt lat="59.0904593468" lon="29.9933838844"><time>2026-04-22T09:12:53Z</time></trkpt><trkpt lat="59.0904593468" lon="29.9933838844"><time>2026-04-22T09:12:55Z</time></trkpt><trkpt lat="59.0904593468" lon="29.9933838844"><time>2026-04-22T09:12:58Z</time></trkpt><trkpt lat="59.0904164314" lon="29.9933624268"><time>2026-04-22T09:13:00Z</time></trkpt><trkpt lat="59.0903735161" lon="29.9933409691"><time>2026-04-22T09:13:03Z</time></trkpt><trkpt lat="59.0903735161" lon="29.9933624268"><time>2026-04-22T09:13:05Z</time></trkpt><trkpt lat="59.0903520584" lon="29.9933624268"><time>2026-04-22T09:13:08Z</time></trkpt><trkpt lat="59.0903306007" lon="29.9933624268"><time>2026-04-22T09:13:10Z</time></trkpt><trkpt lat="59.0903091431" lon="29.9933409691"><time>2026-04-22T09:13:13Z</time></trkpt><trkpt lat="59.0902662277" lon="29.9933195114"><time>2026-04-22T09:13:15Z</time></trkpt><trkpt lat="59.0902447701" lon="29.9933409691"><time>2026-04-22T09:13:18Z</time></trkpt><trkpt lat="59.0902233124" lon="29.9933195114"><time>2026-04-22T09:13:20Z</time></trkpt><trkpt lat="59.0901160240" lon="29.9933409691"><time>2026-04-22T09:13:25Z</time></trkpt><trkpt lat="59.0900945663" lon="29.9933409691"><time>2026-04-22T09:13:28Z</time></trkpt><trkpt lat="59.0900516510" lon="29.9933195114"><time>2026-04-22T09:13:30Z</time></trkpt><trkpt lat="59.0900516510" lon="29.9932980537"><time>2026-04-22T09:13:33Z</time></trkpt><trkpt lat="59.0900301933" lon="29.9932980537"><time>2026-04-22T09:13:35Z</time></trkpt><trkpt lat="59.0900301933" lon="29.9932980537"><time>2026-04-22T09:13:38Z</time></trkpt><trkpt lat="59.0900301933" lon="29.9932980537"><time>2026-04-22T09:13:40Z</time></trkpt><trkpt lat="59.0900301933" lon="29.9932980537"><time>2026-04-22T09:13:43Z</time></trkpt><trkpt lat="59.0900301933" lon="29.9932765961"><time>2026-04-22T09:13:45Z</time></trkpt><trkpt lat="59.0899872780" lon="29.9932336807"><time>2026-04-22T09:13:48Z</time></trkpt><trkpt lat="59.0899229050" lon="29.9931693077"><time>2026-04-22T09:13:50Z</time></trkpt><trkpt lat="59.0899229050" lon="29.9931907654"><time>2026-04-22T09:13:53Z</time></trkpt><trkpt lat="59.0899229050" lon="29.9931907654"><time>2026-04-22T09:13:55Z</time></trkpt><trkpt lat="59.0899229050" lon="29.9932122231"><time>2026-04-22T09:13:58Z</time></trkpt><trkpt lat="59.0899014473" lon="29.9931907654"><time>2026-04-22T09:14:00Z</time></trkpt><trkpt lat="59.0898585320" lon="29.9931693077"><time>2026-04-22T09:14:03Z</time></trkpt><trkpt lat="59.0897727013" lon="29.9931263924"><time>2026-04-22T09:14:05Z</time></trkpt><trkpt lat="59.0897727013" lon="29.9931263924"><time>2026-04-22T09:14:08Z</time></trkpt><trkpt lat="59.0897727013" lon="29.9931263924"><time>2026-04-22T09:14:10Z</time></trkpt><trkpt lat="59.0897727013" lon="29.9931263924"><time>2026-04-22T09:14:13Z</time></trkpt><trkpt lat="59.0897512436" lon="29.9931049347"><time>2026-04-22T09:14:15Z</time></trkpt><trkpt lat="59.0897512436" lon="29.9931049347"><time>2026-04-22T09:14:18Z</time></trkpt><trkpt lat="59.0897083282" lon="29.9931049347"><time>2026-04-22T09:14:20Z</time></trkpt><trkpt lat="59.0896868706" lon="29.9930834770"><time>2026-04-22T09:14:23Z</time></trkpt><trkpt lat="59.0896654129" lon="29.9930834770"><time>2026-04-22T09:14:25Z</time></trkpt><trkpt lat="59.0896654129" lon="29.9930620193"><time>2026-04-22T09:14:28Z</time></trkpt><trkpt lat="59.0896224976" lon="29.9930405617"><time>2026-04-22T09:14:30Z</time></trkpt><trkpt lat="59.0895795822" lon="29.9930405617"><time>2026-04-22T09:14:33Z</time></trkpt><trkpt lat="59.0895366669" lon="29.9930405617"><time>2026-04-22T09:14:35Z</time></trkpt><trkpt lat="59.0894937515" lon="29.9930620193"><time>2026-04-22T09:14:38Z</time></trkpt><trkpt lat="59.0894937515" lon="29.9930405617"><time>2026-04-22T09:14:40Z</time></trkpt><trkpt lat="59.0894937515" lon="29.9930405617"><time>2026-04-22T09:14:43Z</time></trkpt><trkpt lat="59.0894937515" lon="29.9930405617"><time>2026-04-22T09:14:45Z</time></trkpt><trkpt lat="59.0894508362" lon="29.9930834770"><time>2026-04-22T09:14:48Z</time></trkpt><trkpt lat="59.0893864632" lon="29.9931263924"><time>2026-04-22T09:14:50Z</time></trkpt><trkpt lat="59.0893650055" lon="29.9931049347"><time>2026-04-22T09:14:53Z</time></trkpt><trkpt lat="59.0893650055" lon="29.9931049347"><time>2026-04-22T09:14:55Z</time></trkpt><trkpt lat="59.0893435478" lon="29.9930834770"><time>2026-04-22T09:14:58Z</time></trkpt><trkpt lat="59.0892577171" lon="29.9930405617"><time>2026-04-22T09:15:00Z</time></trkpt><trkpt lat="59.0892362595" lon="29.9930191040"><time>2026-04-22T09:15:03Z</time></trkpt><trkpt lat="59.0892148018" lon="29.9929761887"><time>2026-04-22T09:15:05Z</time></trkpt><trkpt lat="59.0892148018" lon="29.9929761887"><time>2026-04-22T09:15:08Z</time></trkpt><trkpt lat="59.0891933441" lon="29.9929761887"><time>2026-04-22T09:15:10Z</time></trkpt><trkpt lat="59.0891504288" lon="29.9928903580"><time>2026-04-22T09:15:13Z</time></trkpt><trkpt lat="59.0891504288" lon="29.9927830696"><time>2026-04-22T09:15:15Z</time></trkpt><trkpt lat="59.0891504288" lon="29.9927830696"><time>2026-04-22T09:15:18Z</time></trkpt><trkpt lat="59.0891504288" lon="29.9927830696"><time>2026-04-22T09:15:20Z</time></trkpt><trkpt lat="59.0891289711" lon="29.9928474426"><time>2026-04-22T09:15:23Z</time></trkpt><trkpt lat="59.0890645981" lon="29.9928903580"><time>2026-04-22T09:15:25Z</time></trkpt><trkpt lat="59.0890216827" lon="29.9928474426"><time>2026-04-22T09:15:28Z</time></trkpt><trkpt lat="59.0889787674" lon="29.9928689003"><time>2026-04-22T09:15:30Z</time></trkpt><trkpt lat="59.0889787674" lon="29.9928689003"><time>2026-04-22T09:15:33Z</time></trkpt><trkpt lat="59.0889787674" lon="29.9928689003"><time>2026-04-22T09:15:35Z</time></trkpt><trkpt lat="59.0889573097" lon="29.9928474426"><time>2026-04-22T09:15:38Z</time></trkpt><trkpt lat="59.0889143944" lon="29.9928474426"><time>2026-04-22T09:15:40Z</time></trkpt><trkpt lat="59.0889143944" lon="29.9928474426"><time>2026-04-22T09:15:43Z</time></trkpt><trkpt lat="59.0888929367" lon="29.9928474426"><time>2026-04-22T09:15:45Z</time></trkpt><trkpt lat="59.0888500214" lon="29.9928474426"><time>2026-04-22T09:15:48Z</time></trkpt><trkpt lat="59.0888071060" lon="29.9928474426"><time>2026-04-22T09:15:50Z</time></trkpt><trkpt lat="59.0887856483" lon="29.9928259850"><time>2026-04-22T09:15:53Z</time></trkpt><trkpt lat="59.0887856483" lon="29.9928259850"><time>2026-04-22T09:15:55Z</time></trkpt><trkpt lat="59.0887856483" lon="29.9928259850"><time>2026-04-22T09:15:58Z</time></trkpt><trkpt lat="59.0887641907" lon="29.9928045273"><time>2026-04-22T09:16:00Z</time></trkpt><trkpt lat="59.0887427330" lon="29.9927830696"><time>2026-04-22T09:16:03Z</time></trkpt><trkpt lat="59.0886783600" lon="29.9927616119"><time>2026-04-22T09:16:05Z</time></trkpt><trkpt lat="59.0886569023" lon="29.9927186966"><time>2026-04-22T09:16:08Z</time></trkpt><trkpt lat="59.0886569023" lon="29.9927186966"><time>2026-04-22T09:16:10Z</time></trkpt><trkpt lat="59.0886354446" lon="29.9927401543"><time>2026-04-22T09:16:13Z</time></trkpt><trkpt lat="59.0885925293" lon="29.9927186966"><time>2026-04-22T09:16:15Z</time></trkpt><trkpt lat="59.0885925293" lon="29.9926972389"><time>2026-04-22T09:16:18Z</time></trkpt><trkpt lat="59.0885496140" lon="29.9926757813"><time>2026-04-22T09:16:20Z</time></trkpt><trkpt lat="59.0885281563" lon="29.9926543236"><time>2026-04-22T09:16:23Z</time></trkpt><trkpt lat="59.0885066986" lon="29.9926328659"><time>2026-04-22T09:16:25Z</time></trkpt><trkpt lat="59.0884637833" lon="29.9926114082"><time>2026-04-22T09:16:28Z</time></trkpt><trkpt lat="59.0884208679" lon="29.9925899506"><time>2026-04-22T09:16:30Z</time></trkpt><trkpt lat="59.0883994102" lon="29.9925899506"><time>2026-04-22T09:16:33Z</time></trkpt><trkpt lat="59.0883564949" lon="29.9925684929"><time>2026-04-22T09:16:35Z</time></trkpt><trkpt lat="59.0883350372" lon="29.9925899506"><time>2026-04-22T09:16:38Z</time></trkpt><trkpt lat="59.0883350372" lon="29.9925899506"><time>2026-04-22T09:16:40Z</time></trkpt><trkpt lat="59.0883135796" lon="29.9925899506"><time>2026-04-22T09:16:43Z</time></trkpt><trkpt lat="59.0883135796" lon="29.9925899506"><time>2026-04-22T09:16:45Z</time></trkpt><trkpt lat="59.0882706642" lon="29.9925684929"><time>2026-04-22T09:16:48Z</time></trkpt><trkpt lat="59.0882277489" lon="29.9925684929"><time>2026-04-22T09:16:50Z</time></trkpt><trkpt lat="59.0882062912" lon="29.9925470352"><time>2026-04-22T09:16:53Z</time></trkpt><trkpt lat="59.0881848335" lon="29.9925470352"><time>2026-04-22T09:16:55Z</time></trkpt><trkpt lat="59.0881633759" lon="29.9925255775"><time>2026-04-22T09:16:58Z</time></trkpt><trkpt lat="59.0881419182" lon="29.9925255775"><time>2026-04-22T09:17:00Z</time></trkpt><trkpt lat="59.0881204605" lon="29.9925255775"><time>2026-04-22T09:17:03Z</time></trkpt><trkpt lat="59.0880775452" lon="29.9925041199"><time>2026-04-22T09:17:05Z</time></trkpt><trkpt lat="59.0880775452" lon="29.9925041199"><time>2026-04-22T09:17:08Z</time></trkpt><trkpt lat="59.0880775452" lon="29.9925041199"><time>2026-04-22T09:17:10Z</time></trkpt><trkpt lat="59.0880560875" lon="29.9925255775"><time>2026-04-22T09:17:13Z</time></trkpt><trkpt lat="59.0880346298" lon="29.9925255775"><time>2026-04-22T09:17:15Z</time></trkpt><trkpt lat="59.0880131721" lon="29.9925041199"><time>2026-04-22T09:17:18Z</time></trkpt><trkpt lat="59.0879917145" lon="29.9925041199"><time>2026-04-22T09:17:20Z</time></trkpt><trkpt lat="59.0879702568" lon="29.9924826622"><time>2026-04-22T09:17:23Z</time></trkpt><trkpt lat="59.0879487991" lon="29.9925041199"><time>2026-04-22T09:17:25Z</time></trkpt><trkpt lat="59.0879058838" lon="29.9924612045"><time>2026-04-22T09:17:28Z</time></trkpt><trkpt lat="59.0878629684" lon="29.9924612045"><time>2026-04-22T09:17:30Z</time></trkpt><trkpt lat="59.0878629684" lon="29.9924612045"><time>2026-04-22T09:17:33Z</time></trkpt><trkpt lat="59.0878629684" lon="29.9924612045"><time>2026-04-22T09:17:35Z</time></trkpt><trkpt lat="59.0878629684" lon="29.9924612045"><time>2026-04-22T09:17:38Z</time></trkpt><trkpt lat="59.0877985954" lon="29.9924397469"><time>2026-04-22T09:17:40Z</time></trkpt><trkpt lat="59.0877771378" lon="29.9924182892"><time>2026-04-22T09:17:43Z</time></trkpt><trkpt lat="59.0877771378" lon="29.9924397469"><time>2026-04-22T09:17:45Z</time></trkpt><trkpt lat="59.0877771378" lon="29.9924612045"><time>2026-04-22T09:17:48Z</time></trkpt><trkpt lat="59.0877342224" lon="29.9924397469"><time>2026-04-22T09:17:50Z</time></trkpt><trkpt lat="59.0877342224" lon="29.9924182892"><time>2026-04-22T09:17:53Z</time></trkpt><trkpt lat="59.0876913071" lon="29.9923968315"><time>2026-04-22T09:17:55Z</time></trkpt><trkpt lat="59.0876698494" lon="29.9923968315"><time>2026-04-22T09:17:58Z</time></trkpt><trkpt lat="59.0876483917" lon="29.9923968315"><time>2026-04-22T09:18:00Z</time></trkpt><trkpt lat="59.0876054764" lon="29.9923753738"><time>2026-04-22T09:18:05Z</time></trkpt><trkpt lat="59.0875840187" lon="29.9923753738"><time>2026-04-22T09:18:08Z</time></trkpt><trkpt lat="59.0875625610" lon="29.9923753738"><time>2026-04-22T09:18:10Z</time></trkpt><trkpt lat="59.0875196457" lon="29.9923753738"><time>2026-04-22T09:18:13Z</time></trkpt><trkpt lat="59.0874981880" lon="29.9923539162"><time>2026-04-22T09:18:15Z</time></trkpt><trkpt lat="59.0874767303" lon="29.9923539162"><time>2026-04-22T09:18:18Z</time></trkpt><trkpt lat="59.0874338150" lon="29.9923324585"><time>2026-04-22T09:18:20Z</time></trkpt><trkpt lat="59.0874338150" lon="29.9923110008"><time>2026-04-22T09:18:23Z</time></trkpt><trkpt lat="59.0873908997" lon="29.9923110008"><time>2026-04-22T09:18:25Z</time></trkpt><trkpt lat="59.0873479843" lon="29.9922680855"><time>2026-04-22T09:18:30Z</time></trkpt><trkpt lat="59.0873050690" lon="29.9922895432"><time>2026-04-22T09:18:33Z</time></trkpt><trkpt lat="59.0872836113" lon="29.9922895432"><time>2026-04-22T09:18:35Z</time></trkpt><trkpt lat="59.0872621536" lon="29.9922895432"><time>2026-04-22T09:18:38Z</time></trkpt><trkpt lat="59.0872406960" lon="29.9922680855"><time>2026-04-22T09:18:40Z</time></trkpt><trkpt lat="59.0872192383" lon="29.9922895432"><time>2026-04-22T09:18:43Z</time></trkpt><trkpt lat="59.0872192383" lon="29.9923110008"><time>2026-04-22T09:18:45Z</time></trkpt><trkpt lat="59.0872192383" lon="29.9923110008"><time>2026-04-22T09:18:48Z</time></trkpt><trkpt lat="59.0872192383" lon="29.9923324585"><time>2026-04-22T09:18:50Z</time></trkpt><trkpt lat="59.0872406960" lon="29.9923539162"><time>2026-04-22T09:18:53Z</time></trkpt><trkpt lat="59.0872406960" lon="29.9923753738"><time>2026-04-22T09:18:55Z</time></trkpt><trkpt lat="59.0872406960" lon="29.9923753738"><time>2026-04-22T09:18:58Z</time></trkpt><trkpt lat="59.0872192383" lon="29.9923539162"><time>2026-04-22T09:19:00Z</time></trkpt><trkpt lat="59.0871763229" lon="29.9922895432"><time>2026-04-22T09:19:03Z</time></trkpt><trkpt lat="59.0870690346" lon="29.9922466278"><time>2026-04-22T09:19:05Z</time></trkpt><trkpt lat="59.0869832039" lon="29.9922251701"><time>2026-04-22T09:19:08Z</time></trkpt><trkpt lat="59.0869402885" lon="29.9921822548"><time>2026-04-22T09:19:10Z</time></trkpt><trkpt lat="59.0869402885" lon="29.9921822548"><time>2026-04-22T09:19:13Z</time></trkpt><trkpt lat="59.0869188309" lon="29.9921822548"><time>2026-04-22T09:19:15Z</time></trkpt><trkpt lat="59.0868973732" lon="29.9922037125"><time>2026-04-22T09:19:18Z</time></trkpt><trkpt lat="59.0868973732" lon="29.9922037125"><time>2026-04-22T09:19:20Z</time></trkpt><trkpt lat="59.0868973732" lon="29.9922037125"><time>2026-04-22T09:19:23Z</time></trkpt><trkpt lat="59.0868544579" lon="29.9921607971"><time>2026-04-22T09:19:25Z</time></trkpt><trkpt lat="59.0868115425" lon="29.9921393394"><time>2026-04-22T09:19:28Z</time></trkpt><trkpt lat="59.0867471695" lon="29.9921178818"><time>2026-04-22T09:19:30Z</time></trkpt><trkpt lat="59.0867257118" lon="29.9921178818"><time>2026-04-22T09:19:33Z</time></trkpt><trkpt lat="59.0867257118" lon="29.9921178818"><time>2026-04-22T09:19:35Z</time></trkpt><trkpt lat="59.0867257118" lon="29.9921178818"><time>2026-04-22T09:19:38Z</time></trkpt><trkpt lat="59.0866827965" lon="29.9920964241"><time>2026-04-22T09:19:40Z</time></trkpt><trkpt lat="59.0866827965" lon="29.9920964241"><time>2026-04-22T09:19:43Z</time></trkpt><trkpt lat="59.0866184235" lon="29.9920964241"><time>2026-04-22T09:19:45Z</time></trkpt><trkpt lat="59.0865969658" lon="29.9920964241"><time>2026-04-22T09:19:48Z</time></trkpt><trkpt lat="59.0865540504" lon="29.9920749664"><time>2026-04-22T09:19:50Z</time></trkpt><trkpt lat="59.0865540504" lon="29.9920749664"><time>2026-04-22T09:19:53Z</time></trkpt><trkpt lat="59.0865325928" lon="29.9920749664"><time>2026-04-22T09:19:55Z</time></trkpt><trkpt lat="59.0865111351" lon="29.9920964241"><time>2026-04-22T09:19:58Z</time></trkpt><trkpt lat="59.0864682198" lon="29.9920749664"><time>2026-04-22T09:20:00Z</time></trkpt><trkpt lat="59.0864467621" lon="29.9920749664"><time>2026-04-22T09:20:03Z</time></trkpt><trkpt lat="59.0864253044" lon="29.9920320511"><time>2026-04-22T09:20:05Z</time></trkpt><trkpt lat="59.0864038467" lon="29.9920105934"><time>2026-04-22T09:20:08Z</time></trkpt><trkpt lat="59.0863394737" lon="29.9919891357"><time>2026-04-22T09:20:10Z</time></trkpt><trkpt lat="59.0863180161" lon="29.9920105934"><time>2026-04-22T09:20:13Z</time></trkpt><trkpt lat="59.0862751007" lon="29.9920105934"><time>2026-04-22T09:20:15Z</time></trkpt><trkpt lat="59.0862536430" lon="29.9920105934"><time>2026-04-22T09:20:18Z</time></trkpt><trkpt lat="59.0862321854" lon="29.9920105934"><time>2026-04-22T09:20:20Z</time></trkpt><trkpt lat="59.0862321854" lon="29.9920105934"><time>2026-04-22T09:20:23Z</time></trkpt><trkpt lat="59.0861678123" lon="29.9919891357"><time>2026-04-22T09:20:25Z</time></trkpt><trkpt lat="59.0861248970" lon="29.9919676781"><time>2026-04-22T09:20:28Z</time></trkpt><trkpt lat="59.0860819817" lon="29.9919462204"><time>2026-04-22T09:20:30Z</time></trkpt><trkpt lat="59.0860605240" lon="29.9919462204"><time>2026-04-22T09:20:33Z</time></trkpt><trkpt lat="59.0860390663" lon="29.9919676781"><time>2026-04-22T09:20:35Z</time></trkpt><trkpt lat="59.0860390663" lon="29.9919676781"><time>2026-04-22T09:20:38Z</time></trkpt><trkpt lat="59.0860390663" lon="29.9919676781"><time>2026-04-22T09:20:40Z</time></trkpt><trkpt lat="59.0860176086" lon="29.9919247627"><time>2026-04-22T09:20:43Z</time></trkpt><trkpt lat="59.0859961510" lon="29.9919033051"><time>2026-04-22T09:20:45Z</time></trkpt><trkpt lat="59.0859961510" lon="29.9918818474"><time>2026-04-22T09:20:48Z</time></trkpt><trkpt lat="59.0859532356" lon="29.9918389320"><time>2026-04-22T09:20:50Z</time></trkpt><trkpt lat="59.0859532356" lon="29.9918174744"><time>2026-04-22T09:20:53Z</time></trkpt><trkpt lat="59.0859317780" lon="29.9918174744"><time>2026-04-22T09:20:55Z</time></trkpt><trkpt lat="59.0859317780" lon="29.9918174744"><time>2026-04-22T09:20:58Z</time></trkpt><trkpt lat="59.0859317780" lon="29.9918174744"><time>2026-04-22T09:21:00Z</time></trkpt><trkpt lat="59.0859103203" lon="29.9918389320"><time>2026-04-22T09:21:03Z</time></trkpt><trkpt lat="59.0858674049" lon="29.9918389320"><time>2026-04-22T09:21:05Z</time></trkpt><trkpt lat="59.0858244896" lon="29.9918174744"><time>2026-04-22T09:21:08Z</time></trkpt><trkpt lat="59.0857601166" lon="29.9917960167"><time>2026-04-22T09:21:10Z</time></trkpt><trkpt lat="59.0857386589" lon="29.9917745590"><time>2026-04-22T09:21:13Z</time></trkpt><trkpt lat="59.0856957436" lon="29.9917531013"><time>2026-04-22T09:21:15Z</time></trkpt><trkpt lat="59.0856528282" lon="29.9917316437"><time>2026-04-22T09:21:18Z</time></trkpt><trkpt lat="59.0856313705" lon="29.9917316437"><time>2026-04-22T09:21:20Z</time></trkpt><trkpt lat="59.0856099129" lon="29.9917316437"><time>2026-04-22T09:21:23Z</time></trkpt><trkpt lat="59.0855884552" lon="29.9917316437"><time>2026-04-22T09:21:25Z</time></trkpt><trkpt lat="59.0855884552" lon="29.9917316437"><time>2026-04-22T09:21:28Z</time></trkpt><trkpt lat="59.0855669975" lon="29.9917316437"><time>2026-04-22T09:21:30Z</time></trkpt><trkpt lat="59.0855455399" lon="29.9917101860"><time>2026-04-22T09:21:33Z</time></trkpt><trkpt lat="59.0855026245" lon="29.9917101860"><time>2026-04-22T09:21:35Z</time></trkpt><trkpt lat="59.0854811668" lon="29.9917101860"><time>2026-04-22T09:21:38Z</time></trkpt><trkpt lat="59.0854382515" lon="29.9917101860"><time>2026-04-22T09:21:40Z</time></trkpt><trkpt lat="59.0854382515" lon="29.9917101860"><time>2026-04-22T09:21:43Z</time></trkpt><trkpt lat="59.0853953362" lon="29.9916887283"><time>2026-04-22T09:21:45Z</time></trkpt><trkpt lat="59.0853738785" lon="29.9917316437"><time>2026-04-22T09:21:48Z</time></trkpt><trkpt lat="59.0853524208" lon="29.9917531013"><time>2026-04-22T09:21:50Z</time></trkpt><trkpt lat="59.0853524208" lon="29.9917745590"><time>2026-04-22T09:21:53Z</time></trkpt><trkpt lat="59.0853524208" lon="29.9917960167"><time>2026-04-22T09:21:55Z</time></trkpt><trkpt lat="59.0853309631" lon="29.9917316437"><time>2026-04-22T09:21:58Z</time></trkpt><trkpt lat="59.0852451324" lon="29.9916672707"><time>2026-04-22T09:22:00Z</time></trkpt><trkpt lat="59.0852236748" lon="29.9916672707"><time>2026-04-22T09:22:03Z</time></trkpt><trkpt lat="59.0852236748" lon="29.9916672707"><time>2026-04-22T09:22:05Z</time></trkpt><trkpt lat="59.0852236748" lon="29.9916672707"><time>2026-04-22T09:22:08Z</time></trkpt><trkpt lat="59.0852022171" lon="29.9916672707"><time>2026-04-22T09:22:10Z</time></trkpt><trkpt lat="59.0852022171" lon="29.9916672707"><time>2026-04-22T09:22:13Z</time></trkpt><trkpt lat="59.0851593018" lon="29.9916672707"><time>2026-04-22T09:22:15Z</time></trkpt><trkpt lat="59.0851163864" lon="29.9916458130"><time>2026-04-22T09:22:18Z</time></trkpt><trkpt lat="59.0850305557" lon="29.9916028976"><time>2026-04-22T09:22:20Z</time></trkpt><trkpt lat="59.0849876404" lon="29.9916028976"><time>2026-04-22T09:22:23Z</time></trkpt><trkpt lat="59.0849661827" lon="29.9916028976"><time>2026-04-22T09:22:25Z</time></trkpt><trkpt lat="59.0849661827" lon="29.9916028976"><time>2026-04-22T09:22:28Z</time></trkpt><trkpt lat="59.0849661827" lon="29.9916028976"><time>2026-04-22T09:22:30Z</time></trkpt><trkpt lat="59.0849447250" lon="29.9915814400"><time>2026-04-22T09:22:35Z</time></trkpt><trkpt lat="59.0849018097" lon="29.9915599823"><time>2026-04-22T09:22:38Z</time></trkpt><trkpt lat="59.0848803520" lon="29.9915599823"><time>2026-04-22T09:22:40Z</time></trkpt><trkpt lat="59.0848588943" lon="29.9915599823"><time>2026-04-22T09:22:43Z</time></trkpt><trkpt lat="59.0848588943" lon="29.9915599823"><time>2026-04-22T09:22:45Z</time></trkpt><trkpt lat="59.0848588943" lon="29.9915599823"><time>2026-04-22T09:22:48Z</time></trkpt><trkpt lat="59.0848588943" lon="29.9915599823"><time>2026-04-22T09:22:50Z</time></trkpt><trkpt lat="59.0848588943" lon="29.9915599823"><time>2026-04-22T09:22:53Z</time></trkpt><trkpt lat="59.0848588943" lon="29.9915599823"><time>2026-04-22T09:22:55Z</time></trkpt><trkpt lat="59.0848803520" lon="29.9915599823"><time>2026-04-22T09:22:58Z</time></trkpt><trkpt lat="59.0849018097" lon="29.9915599823"><time>2026-04-22T09:23:00Z</time></trkpt><trkpt lat="59.0849018097" lon="29.9915599823"><time>2026-04-22T09:23:03Z</time></trkpt><trkpt lat="59.0849018097" lon="29.9915599823"><time>2026-04-22T09:23:05Z</time></trkpt><trkpt lat="59.0849232674" lon="29.9915599823"><time>2026-04-22T09:23:10Z</time></trkpt><trkpt lat="59.0849447250" lon="29.9915170670"><time>2026-04-22T09:23:13Z</time></trkpt><trkpt lat="59.0849447250" lon="29.9914741516"><time>2026-04-22T09:23:15Z</time></trkpt><trkpt lat="59.0849447250" lon="29.9914741516"><time>2026-04-22T09:23:18Z</time></trkpt><trkpt lat="59.0849447250" lon="29.9914526939"><time>2026-04-22T09:23:20Z</time></trkpt><trkpt lat="59.0849447250" lon="29.9914526939"><time>2026-04-22T09:23:23Z</time></trkpt><trkpt lat="59.0849447250" lon="29.9914526939"><time>2026-04-22T09:23:25Z</time></trkpt><trkpt lat="59.0849447250" lon="29.9914526939"><time>2026-04-22T09:23:28Z</time></trkpt><trkpt lat="59.0849447250" lon="29.9914956093"><time>2026-04-22T09:23:30Z</time></trkpt><trkpt lat="59.0849232674" lon="29.9915814400"><time>2026-04-22T09:23:33Z</time></trkpt><trkpt lat="59.0848803520" lon="29.9915599823"><time>2026-04-22T09:23:35Z</time></trkpt><trkpt lat="59.0848803520" lon="29.9915385246"><time>2026-04-22T09:23:38Z</time></trkpt><trkpt lat="59.0849018097" lon="29.9915814400"><time>2026-04-22T09:23:40Z</time></trkpt><trkpt lat="59.0849232674" lon="29.9916672707"><time>2026-04-22T09:23:43Z</time></trkpt><trkpt lat="59.0849447250" lon="29.9917745590"><time>2026-04-22T09:23:45Z</time></trkpt><trkpt lat="59.0849447250" lon="29.9918174744"><time>2026-04-22T09:23:50Z</time></trkpt><trkpt lat="59.0849447250" lon="29.9918389320"><time>2026-04-22T09:23:53Z</time></trkpt><trkpt lat="59.0849018097" lon="29.9918174744"><time>2026-04-22T09:23:55Z</time></trkpt><trkpt lat="59.0848374367" lon="29.9918174744"><time>2026-04-22T09:24:00Z</time></trkpt><trkpt lat="59.0847945213" lon="29.9918389320"><time>2026-04-22T09:24:03Z</time></trkpt><trkpt lat="59.0847516060" lon="29.9918389320"><time>2026-04-22T09:24:05Z</time></trkpt><trkpt lat="59.0847301483" lon="29.9918389320"><time>2026-04-22T09:24:08Z</time></trkpt><trkpt lat="59.0847301483" lon="29.9918174744"><time>2026-04-22T09:24:10Z</time></trkpt><trkpt lat="59.0847301483" lon="29.9917531013"><time>2026-04-22T09:24:13Z</time></trkpt><trkpt lat="59.0846872330" lon="29.9916887283"><time>2026-04-22T09:24:15Z</time></trkpt><trkpt lat="59.0846657753" lon="29.9916458130"><time>2026-04-22T09:24:18Z</time></trkpt><trkpt lat="59.0846657753" lon="29.9916887283"><time>2026-04-22T09:24:20Z</time></trkpt><trkpt lat="59.0846657753" lon="29.9916887283"><time>2026-04-22T09:24:23Z</time></trkpt><trkpt lat="59.0846443176" lon="29.9917101860"><time>2026-04-22T09:24:25Z</time></trkpt><trkpt lat="59.0846014023" lon="29.9917101860"><time>2026-04-22T09:24:28Z</time></trkpt><trkpt lat="59.0845370293" lon="29.9916672707"><time>2026-04-22T09:24:30Z</time></trkpt><trkpt lat="59.0844941139" lon="29.9916458130"><time>2026-04-22T09:24:33Z</time></trkpt><trkpt lat="59.0844297409" lon="29.9916458130"><time>2026-04-22T09:24:35Z</time></trkpt><trkpt lat="59.0844082832" lon="29.9916243553"><time>2026-04-22T09:24:38Z</time></trkpt><trkpt lat="59.0843868256" lon="29.9916243553"><time>2026-04-22T09:24:40Z</time></trkpt><trkpt lat="59.0843868256" lon="29.9916243553"><time>2026-04-22T09:24:43Z</time></trkpt><trkpt lat="59.0843439102" lon="29.9915814400"><time>2026-04-22T09:24:45Z</time></trkpt><trkpt lat="59.0843653679" lon="29.9915385246"><time>2026-04-22T09:24:48Z</time></trkpt><trkpt lat="59.0844082832" lon="29.9914526939"><time>2026-04-22T09:24:50Z</time></trkpt><trkpt lat="59.0844511986" lon="29.9914956093"><time>2026-04-22T09:24:53Z</time></trkpt><trkpt lat="59.0845155716" lon="29.9915599823"><time>2026-04-22T09:24:55Z</time></trkpt><trkpt lat="59.0845155716" lon="29.9916243553"><time>2026-04-22T09:24:58Z</time></trkpt><trkpt lat="59.0844941139" lon="29.9916458130"><time>2026-04-22T09:25:00Z</time></trkpt><trkpt lat="59.0844941139" lon="29.9916458130"><time>2026-04-22T09:25:03Z</time></trkpt><trkpt lat="59.0844726562" lon="29.9916672707"><time>2026-04-22T09:25:05Z</time></trkpt><trkpt lat="59.0844511986" lon="29.9916458130"><time>2026-04-22T09:25:08Z</time></trkpt><trkpt lat="59.0844297409" lon="29.9916458130"><time>2026-04-22T09:25:10Z</time></trkpt><trkpt lat="59.0844082832" lon="29.9916243553"><time>2026-04-22T09:25:13Z</time></trkpt><trkpt lat="59.0843868256" lon="29.9916028976"><time>2026-04-22T09:25:15Z</time></trkpt><trkpt lat="59.0843653679" lon="29.9916243553"><time>2026-04-22T09:25:18Z</time></trkpt><trkpt lat="59.0843653679" lon="29.9916243553"><time>2026-04-22T09:25:20Z</time></trkpt><trkpt lat="59.0843439102" lon="29.9916028976"><time>2026-04-22T09:25:23Z</time></trkpt><trkpt lat="59.0843009949" lon="29.9915814400"><time>2026-04-22T09:25:25Z</time></trkpt><trkpt lat="59.0842580795" lon="29.9915814400"><time>2026-04-22T09:25:28Z</time></trkpt><trkpt lat="59.0842366219" lon="29.9915814400"><time>2026-04-22T09:25:30Z</time></trkpt><trkpt lat="59.0842151642" lon="29.9915814400"><time>2026-04-22T09:25:33Z</time></trkpt><trkpt lat="59.0841937065" lon="29.9915814400"><time>2026-04-22T09:25:35Z</time></trkpt><trkpt lat="59.0841078758" lon="29.9915599823"><time>2026-04-22T09:25:40Z</time></trkpt><trkpt lat="59.0840864182" lon="29.9915385246"><time>2026-04-22T09:25:43Z</time></trkpt><trkpt lat="59.0840649605" lon="29.9915170670"><time>2026-04-22T09:25:45Z</time></trkpt><trkpt lat="59.0840649605" lon="29.9915170670"><time>2026-04-22T09:25:48Z</time></trkpt><trkpt lat="59.0840435028" lon="29.9915385246"><time>2026-04-22T09:25:50Z</time></trkpt><trkpt lat="59.0840220451" lon="29.9915814400"><time>2026-04-22T09:25:55Z</time></trkpt><trkpt lat="59.0839791298" lon="29.9915599823"><time>2026-04-22T09:25:58Z</time></trkpt><trkpt lat="59.0839362144" lon="29.9915385246"><time>2026-04-22T09:26:00Z</time></trkpt><trkpt lat="59.0839362144" lon="29.9915385246"><time>2026-04-22T09:26:03Z</time></trkpt><trkpt lat="59.0839147568" lon="29.9915385246"><time>2026-04-22T09:26:05Z</time></trkpt><trkpt lat="59.0839147568" lon="29.9915385246"><time>2026-04-22T09:26:08Z</time></trkpt><trkpt lat="59.0838718414" lon="29.9915170670"><time>2026-04-22T09:26:10Z</time></trkpt><trkpt lat="59.0838074684" lon="29.9914956093"><time>2026-04-22T09:26:13Z</time></trkpt><trkpt lat="59.0837645531" lon="29.9914741516"><time>2026-04-22T09:26:15Z</time></trkpt><trkpt lat="59.0837645531" lon="29.9914741516"><time>2026-04-22T09:26:18Z</time></trkpt><trkpt lat="59.0837645531" lon="29.9914741516"><time>2026-04-22T09:26:20Z</time></trkpt><trkpt lat="59.0837430954" lon="29.9914526939"><time>2026-04-22T09:26:23Z</time></trkpt><trkpt lat="59.0837216377" lon="29.9914312363"><time>2026-04-22T09:26:25Z</time></trkpt><trkpt lat="59.0837216377" lon="29.9914312363"><time>2026-04-22T09:26:28Z</time></trkpt><trkpt lat="59.0837001801" lon="29.9914097786"><time>2026-04-22T09:26:30Z</time></trkpt><trkpt lat="59.0837001801" lon="29.9914097786"><time>2026-04-22T09:26:33Z</time></trkpt><trkpt lat="59.0837001801" lon="29.9914097786"><time>2026-04-22T09:26:35Z</time></trkpt><trkpt lat="59.0837001801" lon="29.9914097786"><time>2026-04-22T09:26:38Z</time></trkpt><trkpt lat="59.0837001801" lon="29.9914097786"><time>2026-04-22T09:26:40Z</time></trkpt><trkpt lat="59.0837001801" lon="29.9914097786"><time>2026-04-22T09:26:43Z</time></trkpt><trkpt lat="59.0837001801" lon="29.9914097786"><time>2026-04-22T09:26:45Z</time></trkpt><trkpt lat="59.0837001801" lon="29.9914097786"><time>2026-04-22T09:26:48Z</time></trkpt><trkpt lat="59.0836787224" lon="29.9913883209"><time>2026-04-22T09:26:50Z</time></trkpt><trkpt lat="59.0836358070" lon="29.9913883209"><time>2026-04-22T09:26:53Z</time></trkpt><trkpt lat="59.0835928917" lon="29.9913883209"><time>2026-04-22T09:26:55Z</time></trkpt><trkpt lat="59.0836143494" lon="29.9913883209"><time>2026-04-22T09:26:58Z</time></trkpt><trkpt lat="59.0836358070" lon="29.9914097786"><time>2026-04-22T09:27:00Z</time></trkpt><trkpt lat="59.0836358070" lon="29.9914312363"><time>2026-04-22T09:27:03Z</time></trkpt><trkpt lat="59.0835714340" lon="29.9914312363"><time>2026-04-22T09:27:05Z</time></trkpt><trkpt lat="59.0835285187" lon="29.9914526939"><time>2026-04-22T09:27:08Z</time></trkpt><trkpt lat="59.0834856033" lon="29.9914526939"><time>2026-04-22T09:27:10Z</time></trkpt><trkpt lat="59.0834856033" lon="29.9914097786"><time>2026-04-22T09:27:13Z</time></trkpt><trkpt lat="59.0834212303" lon="29.9914097786"><time>2026-04-22T09:27:15Z</time></trkpt><trkpt lat="59.0833997726" lon="29.9914097786"><time>2026-04-22T09:27:18Z</time></trkpt><trkpt lat="59.0833997726" lon="29.9914312363"><time>2026-04-22T09:27:20Z</time></trkpt><trkpt lat="59.0834212303" lon="29.9914741516"><time>2026-04-22T09:27:23Z</time></trkpt><trkpt lat="59.0833997726" lon="29.9914956093"><time>2026-04-22T09:27:25Z</time></trkpt><trkpt lat="59.0833997726" lon="29.9914741516"><time>2026-04-22T09:27:28Z</time></trkpt><trkpt lat="59.0833997726" lon="29.9913883209"><time>2026-04-22T09:27:30Z</time></trkpt><trkpt lat="59.0833783150" lon="29.9913454056"><time>2026-04-22T09:27:33Z</time></trkpt><trkpt lat="59.0833568573" lon="29.9913239479"><time>2026-04-22T09:27:35Z</time></trkpt><trkpt lat="59.0833139420" lon="29.9913024902"><time>2026-04-22T09:27:38Z</time></trkpt><trkpt lat="59.0832924843" lon="29.9912810326"><time>2026-04-22T09:27:40Z</time></trkpt><trkpt lat="59.0832710266" lon="29.9912595749"><time>2026-04-22T09:27:43Z</time></trkpt><trkpt lat="59.0832710266" lon="29.9912595749"><time>2026-04-22T09:27:45Z</time></trkpt><trkpt lat="59.0832710266" lon="29.9912381172"><time>2026-04-22T09:27:48Z</time></trkpt><trkpt lat="59.0832495689" lon="29.9911952019"><time>2026-04-22T09:27:50Z</time></trkpt><trkpt lat="59.0832281113" lon="29.9912166595"><time>2026-04-22T09:27:53Z</time></trkpt><trkpt lat="59.0832281113" lon="29.9912166595"><time>2026-04-22T09:27:55Z</time></trkpt><trkpt lat="59.0831851959" lon="29.9911737442"><time>2026-04-22T09:27:58Z</time></trkpt><trkpt lat="59.0831637383" lon="29.9911522865"><time>2026-04-22T09:28:00Z</time></trkpt><trkpt lat="59.0831637383" lon="29.9911522865"><time>2026-04-22T09:28:03Z</time></trkpt><trkpt lat="59.0831637383" lon="29.9911522865"><time>2026-04-22T09:28:05Z</time></trkpt><trkpt lat="59.0831637383" lon="29.9911737442"><time>2026-04-22T09:28:08Z</time></trkpt><trkpt lat="59.0831208229" lon="29.9911522865"><time>2026-04-22T09:28:10Z</time></trkpt><trkpt lat="59.0830779076" lon="29.9911093712"><time>2026-04-22T09:28:13Z</time></trkpt><trkpt lat="59.0830349922" lon="29.9910449982"><time>2026-04-22T09:28:15Z</time></trkpt><trkpt lat="59.0829920769" lon="29.9910449982"><time>2026-04-22T09:28:18Z</time></trkpt><trkpt lat="59.0829491615" lon="29.9910020828"><time>2026-04-22T09:28:20Z</time></trkpt><trkpt lat="59.0829491615" lon="29.9910020828"><time>2026-04-22T09:28:23Z</time></trkpt><trkpt lat="59.0829491615" lon="29.9910020828"><time>2026-04-22T09:28:25Z</time></trkpt><trkpt lat="59.0829491615" lon="29.9910020828"><time>2026-04-22T09:28:28Z</time></trkpt><trkpt lat="59.0829491615" lon="29.9910020828"><time>2026-04-22T09:28:30Z</time></trkpt><trkpt lat="59.0829920769" lon="29.9910020828"><time>2026-04-22T09:28:33Z</time></trkpt><trkpt lat="59.0829706192" lon="29.9909806252"><time>2026-04-22T09:28:35Z</time></trkpt><trkpt lat="59.0829491615" lon="29.9909806252"><time>2026-04-22T09:28:38Z</time></trkpt><trkpt lat="59.0829706192" lon="29.9909377098"><time>2026-04-22T09:28:40Z</time></trkpt><trkpt lat="59.0830135345" lon="29.9908733368"><time>2026-04-22T09:28:43Z</time></trkpt><trkpt lat="59.0830349922" lon="29.9908518791"><time>2026-04-22T09:28:45Z</time></trkpt><trkpt lat="59.0829706192" lon="29.9908304214"><time>2026-04-22T09:28:48Z</time></trkpt><trkpt lat="59.0829062462" lon="29.9907875061"><time>2026-04-22T09:28:50Z</time></trkpt><trkpt lat="59.0829062462" lon="29.9907875061"><time>2026-04-22T09:28:53Z</time></trkpt><trkpt lat="59.0828847885" lon="29.9908518791"><time>2026-04-22T09:28:55Z</time></trkpt><trkpt lat="59.0828633308" lon="29.9909591675"><time>2026-04-22T09:28:58Z</time></trkpt><trkpt lat="59.0828204155" lon="29.9909591675"><time>2026-04-22T09:29:00Z</time></trkpt><trkpt lat="59.0827989578" lon="29.9909591675"><time>2026-04-22T09:29:03Z</time></trkpt><trkpt lat="59.0827560425" lon="29.9909591675"><time>2026-04-22T09:29:05Z</time></trkpt><trkpt lat="59.0827345848" lon="29.9909806252"><time>2026-04-22T09:29:08Z</time></trkpt><trkpt lat="59.0827345848" lon="29.9909806252"><time>2026-04-22T09:29:10Z</time></trkpt><trkpt lat="59.0827131271" lon="29.9909591675"><time>2026-04-22T09:29:13Z</time></trkpt><trkpt lat="59.0826487541" lon="29.9908947945"><time>2026-04-22T09:29:15Z</time></trkpt><trkpt lat="59.0826058388" lon="29.9908304214"><time>2026-04-22T09:29:18Z</time></trkpt><trkpt lat="59.0825629234" lon="29.9907660484"><time>2026-04-22T09:29:20Z</time></trkpt><trkpt lat="59.0825629234" lon="29.9907445908"><time>2026-04-22T09:29:23Z</time></trkpt><trkpt lat="59.0825629234" lon="29.9907875061"><time>2026-04-22T09:29:25Z</time></trkpt><trkpt lat="59.0825414658" lon="29.9908518791"><time>2026-04-22T09:29:28Z</time></trkpt><trkpt lat="59.0825200081" lon="29.9908518791"><time>2026-04-22T09:29:30Z</time></trkpt><trkpt lat="59.0824985504" lon="29.9908518791"><time>2026-04-22T09:29:33Z</time></trkpt><trkpt lat="59.0824770927" lon="29.9908518791"><time>2026-04-22T09:29:35Z</time></trkpt><trkpt lat="59.0824556351" lon="29.9908518791"><time>2026-04-22T09:29:38Z</time></trkpt><trkpt lat="59.0824341774" lon="29.9908304214"><time>2026-04-22T09:29:40Z</time></trkpt><trkpt lat="59.0824127197" lon="29.9908304214"><time>2026-04-22T09:29:43Z</time></trkpt><trkpt lat="59.0823912621" lon="29.9908304214"><time>2026-04-22T09:29:45Z</time></trkpt><trkpt lat="59.0823698044" lon="29.9908089638"><time>2026-04-22T09:29:48Z</time></trkpt><trkpt lat="59.0823483467" lon="29.9908089638"><time>2026-04-22T09:29:50Z</time></trkpt><trkpt lat="59.0823483467" lon="29.9907660484"><time>2026-04-22T09:29:53Z</time></trkpt><trkpt lat="59.0823483467" lon="29.9906802177"><time>2026-04-22T09:29:55Z</time></trkpt><trkpt lat="59.0823483467" lon="29.9906802177"><time>2026-04-22T09:29:58Z</time></trkpt><trkpt lat="59.0823483467" lon="29.9907016754"><time>2026-04-22T09:30:00Z</time></trkpt><trkpt lat="59.0823483467" lon="29.9907016754"><time>2026-04-22T09:30:03Z</time></trkpt><trkpt lat="59.0823483467" lon="29.9907016754"><time>2026-04-22T09:30:05Z</time></trkpt><trkpt lat="59.0823483467" lon="29.9907016754"><time>2026-04-22T09:30:08Z</time></trkpt><trkpt lat="59.0823483467" lon="29.9907016754"><time>2026-04-22T09:30:10Z</time></trkpt><trkpt lat="59.0823483467" lon="29.9907016754"><time>2026-04-22T09:30:13Z</time></trkpt><trkpt lat="59.0823268890" lon="29.9907016754"><time>2026-04-22T09:30:15Z</time></trkpt><trkpt lat="59.0823054314" lon="29.9907231331"><time>2026-04-22T09:30:18Z</time></trkpt><trkpt lat="59.0822410583" lon="29.9907016754"><time>2026-04-22T09:30:20Z</time></trkpt><trkpt lat="59.0821981430" lon="29.9906802177"><time>2026-04-22T09:30:23Z</time></trkpt><trkpt lat="59.0821552277" lon="29.9906587601"><time>2026-04-22T09:30:25Z</time></trkpt><trkpt lat="59.0821552277" lon="29.9906802177"><time>2026-04-22T09:30:28Z</time></trkpt><trkpt lat="59.0821337700" lon="29.9907445908"><time>2026-04-22T09:30:30Z</time></trkpt><trkpt lat="59.0821123123" lon="29.9907660484"><time>2026-04-22T09:30:33Z</time></trkpt><trkpt lat="59.0820908546" lon="29.9907660484"><time>2026-04-22T09:30:35Z</time></trkpt><trkpt lat="59.0820693970" lon="29.9907660484"><time>2026-04-22T09:30:38Z</time></trkpt><trkpt lat="59.0820050240" lon="29.9907445908"><time>2026-04-22T09:30:40Z</time></trkpt><trkpt lat="59.0819835663" lon="29.9907445908"><time>2026-04-22T09:30:43Z</time></trkpt><trkpt lat="59.0819835663" lon="29.9907231331"><time>2026-04-22T09:30:45Z</time></trkpt><trkpt lat="59.0819621086" lon="29.9907231331"><time>2026-04-22T09:30:48Z</time></trkpt><trkpt lat="59.0819191933" lon="29.9907445908"><time>2026-04-22T09:30:50Z</time></trkpt><trkpt lat="59.0819191933" lon="29.9907660484"><time>2026-04-22T09:30:53Z</time></trkpt><trkpt lat="59.0818762779" lon="29.9907231331"><time>2026-04-22T09:30:55Z</time></trkpt><trkpt lat="59.0818762779" lon="29.9907231331"><time>2026-04-22T09:30:58Z</time></trkpt><trkpt lat="59.0818762779" lon="29.9907231331"><time>2026-04-22T09:31:00Z</time></trkpt><trkpt lat="59.0818548203" lon="29.9907016754"><time>2026-04-22T09:31:03Z</time></trkpt><trkpt lat="59.0818333626" lon="29.9907016754"><time>2026-04-22T09:31:05Z</time></trkpt><trkpt lat="59.0818119049" lon="29.9907016754"><time>2026-04-22T09:31:08Z</time></trkpt><trkpt lat="59.0818119049" lon="29.9906802177"><time>2026-04-22T09:31:10Z</time></trkpt><trkpt lat="59.0817904472" lon="29.9906587601"><time>2026-04-22T09:31:13Z</time></trkpt><trkpt lat="59.0817475319" lon="29.9906373024"><time>2026-04-22T09:31:15Z</time></trkpt><trkpt lat="59.0817260742" lon="29.9906373024"><time>2026-04-22T09:31:18Z</time></trkpt><trkpt lat="59.0816831589" lon="29.9906373024"><time>2026-04-22T09:31:20Z</time></trkpt><trkpt lat="59.0815973282" lon="29.9905943871"><time>2026-04-22T09:31:25Z</time></trkpt><trkpt lat="59.0815758705" lon="29.9905729294"><time>2026-04-22T09:31:28Z</time></trkpt><trkpt lat="59.0815758705" lon="29.9905729294"><time>2026-04-22T09:31:30Z</time></trkpt><trkpt lat="59.0815758705" lon="29.9905729294"><time>2026-04-22T09:31:33Z</time></trkpt><trkpt lat="59.0815758705" lon="29.9905729294"><time>2026-04-22T09:31:35Z</time></trkpt><trkpt lat="59.0815758705" lon="29.9905943871"><time>2026-04-22T09:31:38Z</time></trkpt><trkpt lat="59.0815544128" lon="29.9905729294"><time>2026-04-22T09:31:40Z</time></trkpt><trkpt lat="59.0815114975" lon="29.9905729294"><time>2026-04-22T09:31:45Z</time></trkpt><trkpt lat="59.0814685822" lon="29.9905514717"><time>2026-04-22T09:31:48Z</time></trkpt><trkpt lat="59.0814685822" lon="29.9905514717"><time>2026-04-22T09:31:50Z</time></trkpt><trkpt lat="59.0814685822" lon="29.9905300140"><time>2026-04-22T09:31:53Z</time></trkpt><trkpt lat="59.0814471245" lon="29.9904656410"><time>2026-04-22T09:31:55Z</time></trkpt><trkpt lat="59.0814471245" lon="29.9904012680"><time>2026-04-22T09:31:58Z</time></trkpt><trkpt lat="59.0814256668" lon="29.9903368950"><time>2026-04-22T09:32:00Z</time></trkpt><trkpt lat="59.0814471245" lon="29.9902939796"><time>2026-04-22T09:32:03Z</time></trkpt><trkpt lat="59.0814471245" lon="29.9902939796"><time>2026-04-22T09:32:05Z</time></trkpt><trkpt lat="59.0814471245" lon="29.9902939796"><time>2026-04-22T09:32:08Z</time></trkpt><trkpt lat="59.0814471245" lon="29.9902939796"><time>2026-04-22T09:32:10Z</time></trkpt><trkpt lat="59.0814471245" lon="29.9902939796"><time>2026-04-22T09:32:13Z</time></trkpt><trkpt lat="59.0814471245" lon="29.9902939796"><time>2026-04-22T09:32:15Z</time></trkpt><trkpt lat="59.0814471245" lon="29.9902939796"><time>2026-04-22T09:32:18Z</time></trkpt><trkpt lat="59.0814900398" lon="29.9903368950"><time>2026-04-22T09:32:20Z</time></trkpt><trkpt lat="59.0814900398" lon="29.9903368950"><time>2026-04-22T09:32:23Z</time></trkpt><trkpt lat="59.0814900398" lon="29.9903368950"><time>2026-04-22T09:32:25Z</time></trkpt><trkpt lat="59.0814900398" lon="29.9902725220"><time>2026-04-22T09:32:28Z</time></trkpt><trkpt lat="59.0814900398" lon="29.9902725220"><time>2026-04-22T09:32:30Z</time></trkpt><trkpt lat="59.0814900398" lon="29.9902725220"><time>2026-04-22T09:32:33Z</time></trkpt><trkpt lat="59.0815114975" lon="29.9902296066"><time>2026-04-22T09:32:35Z</time></trkpt><trkpt lat="59.0815114975" lon="29.9902081490"><time>2026-04-22T09:32:38Z</time></trkpt><trkpt lat="59.0815114975" lon="29.9902296066"><time>2026-04-22T09:32:40Z</time></trkpt><trkpt lat="59.0815114975" lon="29.9902296066"><time>2026-04-22T09:32:43Z</time></trkpt><trkpt lat="59.0815114975" lon="29.9902296066"><time>2026-04-22T09:32:45Z</time></trkpt><trkpt lat="59.0815114975" lon="29.9902081490"><time>2026-04-22T09:32:48Z</time></trkpt><trkpt lat="59.0815114975" lon="29.9902081490"><time>2026-04-22T09:32:50Z</time></trkpt><trkpt lat="59.0815114975" lon="29.9902081490"><time>2026-04-22T09:32:53Z</time></trkpt><trkpt lat="59.0815114975" lon="29.9902081490"><time>2026-04-22T09:32:55Z</time></trkpt><trkpt lat="59.0815114975" lon="29.9902081490"><time>2026-04-22T09:32:58Z</time></trkpt><trkpt lat="59.0815114975" lon="29.9902081490"><time>2026-04-22T09:33:00Z</time></trkpt><trkpt lat="59.0815114975" lon="29.9902081490"><time>2026-04-22T09:33:03Z</time></trkpt><trkpt lat="59.0815114975" lon="29.9902081490"><time>2026-04-22T09:33:05Z</time></trkpt><trkpt lat="59.0815114975" lon="29.9902081490"><time>2026-04-22T09:33:08Z</time></trkpt><trkpt lat="59.0815114975" lon="29.9902081490"><time>2026-04-22T09:33:10Z</time></trkpt><trkpt lat="59.0815114975" lon="29.9902081490"><time>2026-04-22T09:33:13Z</time></trkpt><trkpt lat="59.0815114975" lon="29.9902081490"><time>2026-04-22T09:33:15Z</time></trkpt><trkpt lat="59.0815114975" lon="29.9902081490"><time>2026-04-22T09:33:18Z</time></trkpt><trkpt lat="59.0815114975" lon="29.9902081490"><time>2026-04-22T09:33:20Z</time></trkpt><trkpt lat="59.0815114975" lon="29.9902081490"><time>2026-04-22T09:33:23Z</time></trkpt><trkpt lat="59.0815114975" lon="29.9902081490"><time>2026-04-22T09:33:25Z</time></trkpt><trkpt lat="59.0815114975" lon="29.9901866913"><time>2026-04-22T09:33:28Z</time></trkpt><trkpt lat="59.0815114975" lon="29.9901866913"><time>2026-04-22T09:33:30Z</time></trkpt><trkpt lat="59.0815114975" lon="29.9901866913"><time>2026-04-22T09:33:33Z</time></trkpt><trkpt lat="59.0815114975" lon="29.9901866913"><time>2026-04-22T09:33:35Z</time></trkpt><trkpt lat="59.0815114975" lon="29.9901866913"><time>2026-04-22T09:33:38Z</time></trkpt><trkpt lat="59.0815114975" lon="29.9901866913"><time>2026-04-22T09:33:40Z</time></trkpt><trkpt lat="59.0815114975" lon="29.9901866913"><time>2026-04-22T09:33:43Z</time></trkpt><trkpt lat="59.0815114975" lon="29.9901866913"><time>2026-04-22T09:33:45Z</time></trkpt><trkpt lat="59.0815114975" lon="29.9901866913"><time>2026-04-22T09:33:48Z</time></trkpt><trkpt lat="59.0815114975" lon="29.9901866913"><time>2026-04-22T09:33:50Z</time></trkpt><trkpt lat="59.0815114975" lon="29.9901866913"><time>2026-04-22T09:33:53Z</time></trkpt><trkpt lat="59.0815114975" lon="29.9901866913"><time>2026-04-22T09:33:55Z</time></trkpt><trkpt lat="59.0815114975" lon="29.9901866913"><time>2026-04-22T09:33:58Z</time></trkpt><trkpt lat="59.0815114975" lon="29.9901866913"><time>2026-04-22T09:34:00Z</time></trkpt><trkpt lat="59.0815114975" lon="29.9901866913"><time>2026-04-22T09:34:03Z</time></trkpt><trkpt lat="59.0815114975" lon="29.9901866913"><time>2026-04-22T09:34:05Z</time></trkpt><trkpt lat="59.0815329552" lon="29.9901866913"><time>2026-04-22T09:34:08Z</time></trkpt><trkpt lat="59.0815329552" lon="29.9901866913"><time>2026-04-22T09:34:10Z</time></trkpt><trkpt lat="59.0815329552" lon="29.9901866913"><time>2026-04-22T09:34:13Z</time></trkpt><trkpt lat="59.0815329552" lon="29.9901866913"><time>2026-04-22T09:34:15Z</time></trkpt><trkpt lat="59.0815329552" lon="29.9901866913"><time>2026-04-22T09:34:18Z</time></trkpt><trkpt lat="59.0815329552" lon="29.9901866913"><time>2026-04-22T09:34:20Z</time></trkpt><trkpt lat="59.0815329552" lon="29.9901652336"><time>2026-04-22T09:34:23Z</time></trkpt><trkpt lat="59.0815329552" lon="29.9901437759"><time>2026-04-22T09:34:25Z</time></trkpt><trkpt lat="59.0815114975" lon="29.9901008606"><time>2026-04-22T09:34:28Z</time></trkpt><trkpt lat="59.0814900398" lon="29.9900364876"><time>2026-04-22T09:34:30Z</time></trkpt><trkpt lat="59.0815114975" lon="29.9900150299"><time>2026-04-22T09:34:33Z</time></trkpt><trkpt lat="59.0815544128" lon="29.9900150299"><time>2026-04-22T09:34:35Z</time></trkpt><trkpt lat="59.0815329552" lon="29.9900150299"><time>2026-04-22T09:34:38Z</time></trkpt><trkpt lat="59.0815329552" lon="29.9900150299"><time>2026-04-22T09:34:40Z</time></trkpt><trkpt lat="59.0815973282" lon="29.9900150299"><time>2026-04-22T09:34:43Z</time></trkpt><trkpt lat="59.0816402435" lon="29.9899721146"><time>2026-04-22T09:34:45Z</time></trkpt><trkpt lat="59.0816402435" lon="29.9899506569"><time>2026-04-22T09:34:48Z</time></trkpt><trkpt lat="59.0816617012" lon="29.9899077415"><time>2026-04-22T09:34:50Z</time></trkpt><trkpt lat="59.0816617012" lon="29.9898648262"><time>2026-04-22T09:34:53Z</time></trkpt><trkpt lat="59.0816617012" lon="29.9898433685"><time>2026-04-22T09:34:55Z</time></trkpt><trkpt lat="59.0816831589" lon="29.9897789955"><time>2026-04-22T09:34:58Z</time></trkpt><trkpt lat="59.0816831589" lon="29.9897575378"><time>2026-04-22T09:35:00Z</time></trkpt><trkpt lat="59.0817046165" lon="29.9897146225"><time>2026-04-22T09:35:03Z</time></trkpt><trkpt lat="59.0817689896" lon="29.9897146225"><time>2026-04-22T09:35:05Z</time></trkpt><trkpt lat="59.0817689896" lon="29.9896717072"><time>2026-04-22T09:35:08Z</time></trkpt><trkpt lat="59.0817904472" lon="29.9895644188"><time>2026-04-22T09:35:10Z</time></trkpt><trkpt lat="59.0818119049" lon="29.9895000458"><time>2026-04-22T09:35:13Z</time></trkpt><trkpt lat="59.0818119049" lon="29.9894785881"><time>2026-04-22T09:35:15Z</time></trkpt><trkpt lat="59.0818119049" lon="29.9894785881"><time>2026-04-22T09:35:18Z</time></trkpt><trkpt lat="59.0818119049" lon="29.9894785881"><time>2026-04-22T09:35:20Z</time></trkpt><trkpt lat="59.0818119049" lon="29.9894785881"><time>2026-04-22T09:35:23Z</time></trkpt><trkpt lat="59.0817904472" lon="29.9895644188"><time>2026-04-22T09:35:25Z</time></trkpt><trkpt lat="59.0817689896" lon="29.9895858765"><time>2026-04-22T09:35:28Z</time></trkpt><trkpt lat="59.0817689896" lon="29.9896502495"><time>2026-04-22T09:35:30Z</time></trkpt><trkpt lat="59.0817475319" lon="29.9897146225"><time>2026-04-22T09:35:33Z</time></trkpt><trkpt lat="59.0817260742" lon="29.9897789955"><time>2026-04-22T09:35:36Z</time></trkpt><trkpt lat="59.0817260742" lon="29.9898219109"><time>2026-04-22T09:35:38Z</time></trkpt><trkpt lat="59.0817475319" lon="29.9898648262"><time>2026-04-22T09:35:40Z</time></trkpt><trkpt lat="59.0817475319" lon="29.9898648262"><time>2026-04-22T09:35:43Z</time></trkpt><trkpt lat="59.0817475319" lon="29.9898648262"><time>2026-04-22T09:35:45Z</time></trkpt><trkpt lat="59.0817475319" lon="29.9898648262"><time>2026-04-22T09:35:48Z</time></trkpt><trkpt lat="59.0817475319" lon="29.9898648262"><time>2026-04-22T09:35:50Z</time></trkpt><trkpt lat="59.0817475319" lon="29.9897360802"><time>2026-04-22T09:35:53Z</time></trkpt><trkpt lat="59.0817689896" lon="29.9895429611"><time>2026-04-22T09:35:55Z</time></trkpt><trkpt lat="59.0817689896" lon="29.9894785881"><time>2026-04-22T09:35:58Z</time></trkpt><trkpt lat="59.0817689896" lon="29.9894785881"><time>2026-04-22T09:36:00Z</time></trkpt><trkpt lat="59.0817689896" lon="29.9894785881"><time>2026-04-22T09:36:03Z</time></trkpt><trkpt lat="59.0817689896" lon="29.9894142151"><time>2026-04-22T09:36:05Z</time></trkpt><trkpt lat="59.0817689896" lon="29.9893927574"><time>2026-04-22T09:36:08Z</time></trkpt><trkpt lat="59.0817689896" lon="29.9893498421"><time>2026-04-22T09:36:10Z</time></trkpt><trkpt lat="59.0817689896" lon="29.9892854691"><time>2026-04-22T09:36:13Z</time></trkpt><trkpt lat="59.0817689896" lon="29.9892640114"><time>2026-04-22T09:36:15Z</time></trkpt><trkpt lat="59.0817689896" lon="29.9892640114"><time>2026-04-22T09:36:18Z</time></trkpt><trkpt lat="59.0817689896" lon="29.9892425537"><time>2026-04-22T09:36:20Z</time></trkpt><trkpt lat="59.0817689896" lon="29.9892210960"><time>2026-04-22T09:36:23Z</time></trkpt><trkpt lat="59.0817689896" lon="29.9891781807"><time>2026-04-22T09:36:25Z</time></trkpt><trkpt lat="59.0817904472" lon="29.9891781807"><time>2026-04-22T09:36:28Z</time></trkpt><trkpt lat="59.0817904472" lon="29.9891781807"><time>2026-04-22T09:36:30Z</time></trkpt><trkpt lat="59.0817904472" lon="29.9891781807"><time>2026-04-22T09:36:33Z</time></trkpt><trkpt lat="59.0817904472" lon="29.9891781807"><time>2026-04-22T09:36:35Z</time></trkpt><trkpt lat="59.0817904472" lon="29.9891781807"><time>2026-04-22T09:36:38Z</time></trkpt><trkpt lat="59.0817904472" lon="29.9891781807"><time>2026-04-22T09:36:40Z</time></trkpt><trkpt lat="59.0817904472" lon="29.9891781807"><time>2026-04-22T09:36:43Z</time></trkpt><trkpt lat="59.0817904472" lon="29.9891781807"><time>2026-04-22T09:36:45Z</time></trkpt><trkpt lat="59.0817904472" lon="29.9891781807"><time>2026-04-22T09:36:48Z</time></trkpt><trkpt lat="59.0817904472" lon="29.9891781807"><time>2026-04-22T09:36:50Z</time></trkpt><trkpt lat="59.0817904472" lon="29.9891781807"><time>2026-04-22T09:36:53Z</time></trkpt><trkpt lat="59.0817904472" lon="29.9891781807"><time>2026-04-22T09:36:55Z</time></trkpt><trkpt lat="59.0817904472" lon="29.9891781807"><time>2026-04-22T09:36:58Z</time></trkpt><trkpt lat="59.0817904472" lon="29.9892425537"><time>2026-04-22T09:37:00Z</time></trkpt><trkpt lat="59.0817904472" lon="29.9892425537"><time>2026-04-22T09:37:03Z</time></trkpt><trkpt lat="59.0817904472" lon="29.9892425537"><time>2026-04-22T09:37:05Z</time></trkpt><trkpt lat="59.0817904472" lon="29.9892425537"><time>2026-04-22T09:37:08Z</time></trkpt><trkpt lat="59.0817904472" lon="29.9892425537"><time>2026-04-22T09:37:10Z</time></trkpt><trkpt lat="59.0817689896" lon="29.9892425537"><time>2026-04-22T09:37:13Z</time></trkpt><trkpt lat="59.0817689896" lon="29.9892210960"><time>2026-04-22T09:37:15Z</time></trkpt><trkpt lat="59.0817689896" lon="29.9891996384"><time>2026-04-22T09:37:18Z</time></trkpt><trkpt lat="59.0817689896" lon="29.9891781807"><time>2026-04-22T09:37:20Z</time></trkpt><trkpt lat="59.0817689896" lon="29.9891996384"><time>2026-04-22T09:37:23Z</time></trkpt><trkpt lat="59.0817904472" lon="29.9891996384"><time>2026-04-22T09:37:25Z</time></trkpt><trkpt lat="59.0818119049" lon="29.9892210960"><time>2026-04-22T09:37:28Z</time></trkpt><trkpt lat="59.0818548203" lon="29.9892425537"><time>2026-04-22T09:37:30Z</time></trkpt><trkpt lat="59.0818762779" lon="29.9892210960"><time>2026-04-22T09:37:33Z</time></trkpt><trkpt lat="59.0818762779" lon="29.9892210960"><time>2026-04-22T09:37:35Z</time></trkpt><trkpt lat="59.0819191933" lon="29.9891996384"><time>2026-04-22T09:37:38Z</time></trkpt><trkpt lat="59.0819406509" lon="29.9892210960"><time>2026-04-22T09:37:40Z</time></trkpt><trkpt lat="59.0819621086" lon="29.9892210960"><time>2026-04-22T09:37:43Z</time></trkpt><trkpt lat="59.0819835663" lon="29.9892425537"><time>2026-04-22T09:37:45Z</time></trkpt><trkpt lat="59.0820050240" lon="29.9892425537"><time>2026-04-22T09:37:48Z</time></trkpt><trkpt lat="59.0820264816" lon="29.9892425537"><time>2026-04-22T09:37:50Z</time></trkpt><trkpt lat="59.0820479393" lon="29.9892425537"><time>2026-04-22T09:37:53Z</time></trkpt><trkpt lat="59.0821123123" lon="29.9892425537"><time>2026-04-22T09:37:55Z</time></trkpt><trkpt lat="59.0821552277" lon="29.9892425537"><time>2026-04-22T09:37:58Z</time></trkpt><trkpt lat="59.0821981430" lon="29.9892640114"><time>2026-04-22T09:38:00Z</time></trkpt><trkpt lat="59.0821981430" lon="29.9892854691"><time>2026-04-22T09:38:03Z</time></trkpt><trkpt lat="59.0821981430" lon="29.9892854691"><time>2026-04-22T09:38:05Z</time></trkpt><trkpt lat="59.0821981430" lon="29.9892854691"><time>2026-04-22T09:38:08Z</time></trkpt><trkpt lat="59.0821981430" lon="29.9892854691"><time>2026-04-22T09:38:10Z</time></trkpt><trkpt lat="59.0821981430" lon="29.9892854691"><time>2026-04-22T09:38:13Z</time></trkpt><trkpt lat="59.0822410583" lon="29.9892854691"><time>2026-04-22T09:38:15Z</time></trkpt><trkpt lat="59.0822625160" lon="29.9893283844"><time>2026-04-22T09:38:18Z</time></trkpt><trkpt lat="59.0823268890" lon="29.9893498421"><time>2026-04-22T09:38:20Z</time></trkpt><trkpt lat="59.0823483467" lon="29.9893712997"><time>2026-04-22T09:38:23Z</time></trkpt><trkpt lat="59.0823483467" lon="29.9893712997"><time>2026-04-22T09:38:25Z</time></trkpt><trkpt lat="59.0823483467" lon="29.9893712997"><time>2026-04-22T09:38:28Z</time></trkpt><trkpt lat="59.0823698044" lon="29.9893498421"><time>2026-04-22T09:38:30Z</time></trkpt><trkpt lat="59.0824127197" lon="29.9893283844"><time>2026-04-22T09:38:33Z</time></trkpt><trkpt lat="59.0824341774" lon="29.9893498421"><time>2026-04-22T09:38:35Z</time></trkpt><trkpt lat="59.0824341774" lon="29.9893498421"><time>2026-04-22T09:38:38Z</time></trkpt><trkpt lat="59.0824770927" lon="29.9893498421"><time>2026-04-22T09:38:40Z</time></trkpt><trkpt lat="59.0824985504" lon="29.9893283844"><time>2026-04-22T09:38:43Z</time></trkpt><trkpt lat="59.0825200081" lon="29.9893283844"><time>2026-04-22T09:38:45Z</time></trkpt><trkpt lat="59.0825414658" lon="29.9893283844"><time>2026-04-22T09:38:48Z</time></trkpt><trkpt lat="59.0825629234" lon="29.9893069267"><time>2026-04-22T09:38:50Z</time></trkpt><trkpt lat="59.0825843811" lon="29.9893283844"><time>2026-04-22T09:38:53Z</time></trkpt><trkpt lat="59.0826058388" lon="29.9893283844"><time>2026-04-22T09:38:55Z</time></trkpt><trkpt lat="59.0826058388" lon="29.9893283844"><time>2026-04-22T09:38:58Z</time></trkpt><trkpt lat="59.0826487541" lon="29.9893283844"><time>2026-04-22T09:39:00Z</time></trkpt><trkpt lat="59.0826702118" lon="29.9893069267"><time>2026-04-22T09:39:03Z</time></trkpt><trkpt lat="59.0826702118" lon="29.9893283844"><time>2026-04-22T09:39:05Z</time></trkpt><trkpt lat="59.0826916695" lon="29.9893712997"><time>2026-04-22T09:39:08Z</time></trkpt><trkpt lat="59.0826916695" lon="29.9893712997"><time>2026-04-22T09:39:10Z</time></trkpt><trkpt lat="59.0827131271" lon="29.9893927574"><time>2026-04-22T09:39:13Z</time></trkpt><trkpt lat="59.0827560425" lon="29.9893927574"><time>2026-04-22T09:39:15Z</time></trkpt><trkpt lat="59.0827775002" lon="29.9893927574"><time>2026-04-22T09:39:18Z</time></trkpt><trkpt lat="59.0828204155" lon="29.9894142151"><time>2026-04-22T09:39:20Z</time></trkpt><trkpt lat="59.0828418732" lon="29.9894356728"><time>2026-04-22T09:39:23Z</time></trkpt><trkpt lat="59.0828418732" lon="29.9894356728"><time>2026-04-22T09:39:25Z</time></trkpt><trkpt lat="59.0828633308" lon="29.9894571304"><time>2026-04-22T09:39:28Z</time></trkpt><trkpt lat="59.0828633308" lon="29.9894571304"><time>2026-04-22T09:39:30Z</time></trkpt><trkpt lat="59.0828847885" lon="29.9895000458"><time>2026-04-22T09:39:33Z</time></trkpt><trkpt lat="59.0828847885" lon="29.9895000458"><time>2026-04-22T09:39:35Z</time></trkpt><trkpt lat="59.0829062462" lon="29.9895000458"><time>2026-04-22T09:39:38Z</time></trkpt><trkpt lat="59.0829491615" lon="29.9895000458"><time>2026-04-22T09:39:40Z</time></trkpt><trkpt lat="59.0829706192" lon="29.9895000458"><time>2026-04-22T09:39:43Z</time></trkpt><trkpt lat="59.0829920769" lon="29.9895429611"><time>2026-04-22T09:39:45Z</time></trkpt><trkpt lat="59.0830135345" lon="29.9895429611"><time>2026-04-22T09:39:48Z</time></trkpt><trkpt lat="59.0830564499" lon="29.9895644188"><time>2026-04-22T09:39:50Z</time></trkpt><trkpt lat="59.0830993652" lon="29.9895644188"><time>2026-04-22T09:39:53Z</time></trkpt><trkpt lat="59.0830993652" lon="29.9895644188"><time>2026-04-22T09:39:55Z</time></trkpt><trkpt lat="59.0830993652" lon="29.9895644188"><time>2026-04-22T09:39:58Z</time></trkpt><trkpt lat="59.0830993652" lon="29.9895644188"><time>2026-04-22T09:40:00Z</time></trkpt><trkpt lat="59.0830993652" lon="29.9895644188"><time>2026-04-22T09:40:03Z</time></trkpt><trkpt lat="59.0830993652" lon="29.9895644188"><time>2026-04-22T09:40:06Z</time></trkpt><trkpt lat="59.0830993652" lon="29.9895644188"><time>2026-04-22T09:40:08Z</time></trkpt><trkpt lat="59.0830993652" lon="29.9895644188"><time>2026-04-22T09:40:10Z</time></trkpt><trkpt lat="59.0831422806" lon="29.9895644188"><time>2026-04-22T09:40:13Z</time></trkpt><trkpt lat="59.0831851959" lon="29.9895858765"><time>2026-04-22T09:40:15Z</time></trkpt><trkpt lat="59.0832281113" lon="29.9896073341"><time>2026-04-22T09:40:18Z</time></trkpt><trkpt lat="59.0832281113" lon="29.9896073341"><time>2026-04-22T09:40:20Z</time></trkpt><trkpt lat="59.0832281113" lon="29.9896287918"><time>2026-04-22T09:40:23Z</time></trkpt><trkpt lat="59.0832495689" lon="29.9896502495"><time>2026-04-22T09:40:25Z</time></trkpt><trkpt lat="59.0832710266" lon="29.9896717072"><time>2026-04-22T09:40:28Z</time></trkpt><trkpt lat="59.0832924843" lon="29.9896717072"><time>2026-04-22T09:40:30Z</time></trkpt><trkpt lat="59.0832924843" lon="29.9896717072"><time>2026-04-22T09:40:33Z</time></trkpt><trkpt lat="59.0833139420" lon="29.9896717072"><time>2026-04-22T09:40:35Z</time></trkpt><trkpt lat="59.0833139420" lon="29.9896717072"><time>2026-04-22T09:40:38Z</time></trkpt><trkpt lat="59.0832924843" lon="29.9896717072"><time>2026-04-22T09:40:40Z</time></trkpt><trkpt lat="59.0833139420" lon="29.9896502495"><time>2026-04-22T09:40:43Z</time></trkpt><trkpt lat="59.0833139420" lon="29.9896502495"><time>2026-04-22T09:40:45Z</time></trkpt><trkpt lat="59.0832924843" lon="29.9896717072"><time>2026-04-22T09:40:48Z</time></trkpt><trkpt lat="59.0833139420" lon="29.9896502495"><time>2026-04-22T09:40:50Z</time></trkpt><trkpt lat="59.0833139420" lon="29.9896502495"><time>2026-04-22T09:40:53Z</time></trkpt><trkpt lat="59.0833139420" lon="29.9896502495"><time>2026-04-22T09:40:55Z</time></trkpt><trkpt lat="59.0833139420" lon="29.9896502495"><time>2026-04-22T09:40:58Z</time></trkpt><trkpt lat="59.0833139420" lon="29.9896502495"><time>2026-04-22T09:41:00Z</time></trkpt><trkpt lat="59.0833139420" lon="29.9896502495"><time>2026-04-22T09:41:03Z</time></trkpt><trkpt lat="59.0833139420" lon="29.9896502495"><time>2026-04-22T09:41:05Z</time></trkpt><trkpt lat="59.0833139420" lon="29.9896502495"><time>2026-04-22T09:41:08Z</time></trkpt><trkpt lat="59.0833139420" lon="29.9896502495"><time>2026-04-22T09:41:10Z</time></trkpt><trkpt lat="59.0833139420" lon="29.9896502495"><time>2026-04-22T09:41:13Z</time></trkpt><trkpt lat="59.0833139420" lon="29.9896502495"><time>2026-04-22T09:41:15Z</time></trkpt><trkpt lat="59.0833139420" lon="29.9896502495"><time>2026-04-22T09:41:18Z</time></trkpt><trkpt lat="59.0833139420" lon="29.9896502495"><time>2026-04-22T09:41:20Z</time></trkpt><trkpt lat="59.0832924843" lon="29.9896502495"><time>2026-04-22T09:41:23Z</time></trkpt><trkpt lat="59.0832924843" lon="29.9896502495"><time>2026-04-22T09:41:25Z</time></trkpt><trkpt lat="59.0832924843" lon="29.9896502495"><time>2026-04-22T09:41:28Z</time></trkpt><trkpt lat="59.0832924843" lon="29.9896502495"><time>2026-04-22T09:41:30Z</time></trkpt><trkpt lat="59.0832924843" lon="29.9896502495"><time>2026-04-22T09:41:33Z</time></trkpt><trkpt lat="59.0832924843" lon="29.9896502495"><time>2026-04-22T09:41:35Z</time></trkpt><trkpt lat="59.0832924843" lon="29.9896502495"><time>2026-04-22T09:41:38Z</time></trkpt><trkpt lat="59.0832924843" lon="29.9896502495"><time>2026-04-22T09:41:40Z</time></trkpt><trkpt lat="59.0832924843" lon="29.9896502495"><time>2026-04-22T09:41:43Z</time></trkpt><trkpt lat="59.0832924843" lon="29.9896502495"><time>2026-04-22T09:41:45Z</time></trkpt><trkpt lat="59.0832924843" lon="29.9896502495"><time>2026-04-22T09:41:48Z</time></trkpt><trkpt lat="59.0832924843" lon="29.9896502495"><time>2026-04-22T09:41:50Z</time></trkpt><trkpt lat="59.0832924843" lon="29.9896502495"><time>2026-04-22T09:41:53Z</time></trkpt><trkpt lat="59.0832924843" lon="29.9896502495"><time>2026-04-22T09:41:55Z</time></trkpt><trkpt lat="59.0832924843" lon="29.9896502495"><time>2026-04-22T09:41:58Z</time></trkpt><trkpt lat="59.0832924843" lon="29.9896502495"><time>2026-04-22T09:42:00Z</time></trkpt><trkpt lat="59.0832924843" lon="29.9896287918"><time>2026-04-22T09:42:03Z</time></trkpt><trkpt lat="59.0832924843" lon="29.9896287918"><time>2026-04-22T09:42:05Z</time></trkpt><trkpt lat="59.0832924843" lon="29.9896287918"><time>2026-04-22T09:42:08Z</time></trkpt><trkpt lat="59.0832924843" lon="29.9896287918"><time>2026-04-22T09:42:10Z</time></trkpt><trkpt lat="59.0832924843" lon="29.9896287918"><time>2026-04-22T09:42:13Z</time></trkpt><trkpt lat="59.0832924843" lon="29.9896287918"><time>2026-04-22T09:42:15Z</time></trkpt><trkpt lat="59.0832924843" lon="29.9896287918"><time>2026-04-22T09:42:18Z</time></trkpt><trkpt lat="59.0832924843" lon="29.9896287918"><time>2026-04-22T09:42:20Z</time></trkpt><trkpt lat="59.0832924843" lon="29.9896287918"><time>2026-04-22T09:42:23Z</time></trkpt><trkpt lat="59.0832924843" lon="29.9896287918"><time>2026-04-22T09:42:25Z</time></trkpt><trkpt lat="59.0832924843" lon="29.9896287918"><time>2026-04-22T09:42:28Z</time></trkpt><trkpt lat="59.0832924843" lon="29.9896287918"><time>2026-04-22T09:42:30Z</time></trkpt><trkpt lat="59.0832924843" lon="29.9896287918"><time>2026-04-22T09:42:33Z</time></trkpt><trkpt lat="59.0832924843" lon="29.9896287918"><time>2026-04-22T09:42:35Z</time></trkpt><trkpt lat="59.0832924843" lon="29.9896287918"><time>2026-04-22T09:42:38Z</time></trkpt><trkpt lat="59.0832924843" lon="29.9896287918"><time>2026-04-22T09:42:40Z</time></trkpt><trkpt lat="59.0832924843" lon="29.9896287918"><time>2026-04-22T09:42:43Z</time></trkpt><trkpt lat="59.0832924843" lon="29.9896287918"><time>2026-04-22T09:42:45Z</time></trkpt><trkpt lat="59.0832924843" lon="29.9896287918"><time>2026-04-22T09:42:48Z</time></trkpt><trkpt lat="59.0832924843" lon="29.9896287918"><time>2026-04-22T09:42:50Z</time></trkpt><trkpt lat="59.0832924843" lon="29.9896287918"><time>2026-04-22T09:42:53Z</time></trkpt><trkpt lat="59.0832924843" lon="29.9896287918"><time>2026-04-22T09:42:55Z</time></trkpt><trkpt lat="59.0833139420" lon="29.9896287918"><time>2026-04-22T09:42:58Z</time></trkpt><trkpt lat="59.0833139420" lon="29.9896502495"><time>2026-04-22T09:43:00Z</time></trkpt><trkpt lat="59.0833139420" lon="29.9896502495"><time>2026-04-22T09:43:03Z</time></trkpt><trkpt lat="59.0833139420" lon="29.9896502495"><time>2026-04-22T09:43:05Z</time></trkpt><trkpt lat="59.0833139420" lon="29.9896502495"><time>2026-04-22T09:43:08Z</time></trkpt><trkpt lat="59.0833139420" lon="29.9896502495"><time>2026-04-22T09:43:10Z</time></trkpt><trkpt lat="59.0833139420" lon="29.9896502495"><time>2026-04-22T09:43:13Z</time></trkpt><trkpt lat="59.0833139420" lon="29.9896502495"><time>2026-04-22T09:43:15Z</time></trkpt><trkpt lat="59.0833139420" lon="29.9896502495"><time>2026-04-22T09:43:18Z</time></trkpt><trkpt lat="59.0833139420" lon="29.9896502495"><time>2026-04-22T09:43:20Z</time></trkpt><trkpt lat="59.0833139420" lon="29.9896502495"><time>2026-04-22T09:43:23Z</time></trkpt><trkpt lat="59.0833139420" lon="29.9896502495"><time>2026-04-22T09:43:25Z</time></trkpt><trkpt lat="59.0833139420" lon="29.9896502495"><time>2026-04-22T09:43:28Z</time></trkpt><trkpt lat="59.0833139420" lon="29.9896502495"><time>2026-04-22T09:43:30Z</time></trkpt><trkpt lat="59.0833139420" lon="29.9896502495"><time>2026-04-22T09:43:33Z</time></trkpt><trkpt lat="59.0833139420" lon="29.9896502495"><time>2026-04-22T09:43:35Z</time></trkpt><trkpt lat="59.0833139420" lon="29.9896502495"><time>2026-04-22T09:43:38Z</time></trkpt><trkpt lat="59.0833139420" lon="29.9896502495"><time>2026-04-22T09:43:40Z</time></trkpt><trkpt lat="59.0833139420" lon="29.9896502495"><time>2026-04-22T09:43:43Z</time></trkpt><trkpt lat="59.0832924843" lon="29.9896717072"><time>2026-04-22T09:43:45Z</time></trkpt><trkpt lat="59.0832924843" lon="29.9896717072"><time>2026-04-22T09:43:48Z</time></trkpt><trkpt lat="59.0832924843" lon="29.9896717072"><time>2026-04-22T09:43:50Z</time></trkpt><trkpt lat="59.0832924843" lon="29.9896717072"><time>2026-04-22T09:43:53Z</time></trkpt><trkpt lat="59.0832924843" lon="29.9896717072"><time>2026-04-22T09:43:55Z</time></trkpt><trkpt lat="59.0832924843" lon="29.9896717072"><time>2026-04-22T09:43:58Z</time></trkpt><trkpt lat="59.0832924843" lon="29.9896717072"><time>2026-04-22T09:44:00Z</time></trkpt><trkpt lat="59.0832924843" lon="29.9896717072"><time>2026-04-22T09:44:03Z</time></trkpt><trkpt lat="59.0832924843" lon="29.9896717072"><time>2026-04-22T09:44:05Z</time></trkpt><trkpt lat="59.0832924843" lon="29.9896717072"><time>2026-04-22T09:44:08Z</time></trkpt><trkpt lat="59.0832924843" lon="29.9896717072"><time>2026-04-22T09:44:10Z</time></trkpt><trkpt lat="59.0832924843" lon="29.9896717072"><time>2026-04-22T09:44:13Z</time></trkpt><trkpt lat="59.0832924843" lon="29.9896717072"><time>2026-04-22T09:44:15Z</time></trkpt><trkpt lat="59.0832924843" lon="29.9896717072"><time>2026-04-22T09:44:18Z</time></trkpt><trkpt lat="59.0832924843" lon="29.9896717072"><time>2026-04-22T09:44:20Z</time></trkpt><trkpt lat="59.0832924843" lon="29.9896717072"><time>2026-04-22T09:44:23Z</time></trkpt><trkpt lat="59.0832924843" lon="29.9896717072"><time>2026-04-22T09:44:25Z</time></trkpt><trkpt lat="59.0832924843" lon="29.9896717072"><time>2026-04-22T09:44:28Z</time></trkpt><trkpt lat="59.0832924843" lon="29.9896717072"><time>2026-04-22T09:44:30Z</time></trkpt><trkpt lat="59.0832924843" lon="29.9896717072"><time>2026-04-22T09:44:33Z</time></trkpt><trkpt lat="59.0832924843" lon="29.9896717072"><time>2026-04-22T09:44:35Z</time></trkpt><trkpt lat="59.0832924843" lon="29.9896717072"><time>2026-04-22T09:44:38Z</time></trkpt><trkpt lat="59.0832924843" lon="29.9896717072"><time>2026-04-22T09:44:40Z</time></trkpt><trkpt lat="59.0832924843" lon="29.9896717072"><time>2026-04-22T09:44:43Z</time></trkpt><trkpt lat="59.0832924843" lon="29.9896717072"><time>2026-04-22T09:44:45Z</time></trkpt><trkpt lat="59.0832924843" lon="29.9896717072"><time>2026-04-22T09:44:48Z</time></trkpt><trkpt lat="59.0832924843" lon="29.9896717072"><time>2026-04-22T09:44:50Z</time></trkpt><trkpt lat="59.0832924843" lon="29.9896717072"><time>2026-04-22T09:44:53Z</time></trkpt><trkpt lat="59.0832924843" lon="29.9896717072"><time>2026-04-22T09:44:55Z</time></trkpt><trkpt lat="59.0832924843" lon="29.9896717072"><time>2026-04-22T09:44:58Z</time></trkpt><trkpt lat="59.0832924843" lon="29.9896717072"><time>2026-04-22T09:45:00Z</time></trkpt><trkpt lat="59.0832924843" lon="29.9896717072"><time>2026-04-22T09:45:03Z</time></trkpt><trkpt lat="59.0832924843" lon="29.9896717072"><time>2026-04-22T09:45:05Z</time></trkpt><trkpt lat="59.0832924843" lon="29.9896717072"><time>2026-04-22T09:45:08Z</time></trkpt><trkpt lat="59.0832924843" lon="29.9896717072"><time>2026-04-22T09:45:10Z</time></trkpt><trkpt lat="59.0832924843" lon="29.9896717072"><time>2026-04-22T09:45:13Z</time></trkpt><trkpt lat="59.0832924843" lon="29.9896717072"><time>2026-04-22T09:45:15Z</time></trkpt><trkpt lat="59.0832924843" lon="29.9896717072"><time>2026-04-22T09:45:18Z</time></trkpt><trkpt lat="59.0832924843" lon="29.9896717072"><time>2026-04-22T09:45:20Z</time></trkpt><trkpt lat="59.0832924843" lon="29.9896717072"><time>2026-04-22T09:45:23Z</time></trkpt><trkpt lat="59.0832924843" lon="29.9896717072"><time>2026-04-22T09:45:25Z</time></trkpt><trkpt lat="59.0832924843" lon="29.9896717072"><time>2026-04-22T09:45:28Z</time></trkpt><trkpt lat="59.0833139420" lon="29.9896717072"><time>2026-04-22T09:45:30Z</time></trkpt><trkpt lat="59.0833353996" lon="29.9896931648"><time>2026-04-22T09:45:33Z</time></trkpt><trkpt lat="59.0833353996" lon="29.9896717072"><time>2026-04-22T09:45:35Z</time></trkpt><trkpt lat="59.0833353996" lon="29.9896717072"><time>2026-04-22T09:45:38Z</time></trkpt><trkpt lat="59.0833353996" lon="29.9896717072"><time>2026-04-22T09:45:40Z</time></trkpt><trkpt lat="59.0833353996" lon="29.9896717072"><time>2026-04-22T09:45:43Z</time></trkpt><trkpt lat="59.0833997726" lon="29.9896717072"><time>2026-04-22T09:45:45Z</time></trkpt><trkpt lat="59.0834641457" lon="29.9896717072"><time>2026-04-22T09:45:48Z</time></trkpt><trkpt lat="59.0835070610" lon="29.9896931648"><time>2026-04-22T09:45:50Z</time></trkpt><trkpt lat="59.0835285187" lon="29.9897146225"><time>2026-04-22T09:45:53Z</time></trkpt><trkpt lat="59.0835714340" lon="29.9897146225"><time>2026-04-22T09:45:55Z</time></trkpt><trkpt lat="59.0835928917" lon="29.9897146225"><time>2026-04-22T09:45:58Z</time></trkpt><trkpt lat="59.0835928917" lon="29.9897146225"><time>2026-04-22T09:46:00Z</time></trkpt><trkpt lat="59.0835928917" lon="29.9897146225"><time>2026-04-22T09:46:03Z</time></trkpt><trkpt lat="59.0835714340" lon="29.9896931648"><time>2026-04-22T09:46:05Z</time></trkpt><trkpt lat="59.0835499763" lon="29.9896931648"><time>2026-04-22T09:46:08Z</time></trkpt><trkpt lat="59.0835499763" lon="29.9896931648"><time>2026-04-22T09:46:10Z</time></trkpt><trkpt lat="59.0835499763" lon="29.9896931648"><time>2026-04-22T09:46:13Z</time></trkpt><trkpt lat="59.0835499763" lon="29.9896931648"><time>2026-04-22T09:46:15Z</time></trkpt><trkpt lat="59.0835499763" lon="29.9896931648"><time>2026-04-22T09:46:18Z</time></trkpt><trkpt lat="59.0835499763" lon="29.9896931648"><time>2026-04-22T09:46:20Z</time></trkpt><trkpt lat="59.0835499763" lon="29.9896931648"><time>2026-04-22T09:46:23Z</time></trkpt><trkpt lat="59.0835499763" lon="29.9896931648"><time>2026-04-22T09:46:25Z</time></trkpt><trkpt lat="59.0835499763" lon="29.9896931648"><time>2026-04-22T09:46:28Z</time></trkpt><trkpt lat="59.0835499763" lon="29.9896931648"><time>2026-04-22T09:46:30Z</time></trkpt><trkpt lat="59.0835499763" lon="29.9896931648"><time>2026-04-22T09:46:33Z</time></trkpt><trkpt lat="59.0835499763" lon="29.9896931648"><time>2026-04-22T09:46:35Z</time></trkpt><trkpt lat="59.0835499763" lon="29.9896931648"><time>2026-04-22T09:46:38Z</time></trkpt><trkpt lat="59.0835499763" lon="29.9896931648"><time>2026-04-22T09:46:40Z</time></trkpt><trkpt lat="59.0835499763" lon="29.9896931648"><time>2026-04-22T09:46:43Z</time></trkpt><trkpt lat="59.0835499763" lon="29.9896931648"><time>2026-04-22T09:46:45Z</time></trkpt><trkpt lat="59.0835499763" lon="29.9896931648"><time>2026-04-22T09:46:48Z</time></trkpt><trkpt lat="59.0835499763" lon="29.9896931648"><time>2026-04-22T09:46:50Z</time></trkpt><trkpt lat="59.0835499763" lon="29.9896931648"><time>2026-04-22T09:46:53Z</time></trkpt><trkpt lat="59.0835499763" lon="29.9896931648"><time>2026-04-22T09:46:55Z</time></trkpt><trkpt lat="59.0835499763" lon="29.9896931648"><time>2026-04-22T09:46:58Z</time></trkpt><trkpt lat="59.0835499763" lon="29.9896931648"><time>2026-04-22T09:47:00Z</time></trkpt><trkpt lat="59.0835499763" lon="29.9896931648"><time>2026-04-22T09:47:03Z</time></trkpt><trkpt lat="59.0835499763" lon="29.9896931648"><time>2026-04-22T09:47:05Z</time></trkpt><trkpt lat="59.0835499763" lon="29.9896931648"><time>2026-04-22T09:47:08Z</time></trkpt><trkpt lat="59.0835499763" lon="29.9896931648"><time>2026-04-22T09:47:10Z</time></trkpt><trkpt lat="59.0835499763" lon="29.9896931648"><time>2026-04-22T09:47:13Z</time></trkpt><trkpt lat="59.0835499763" lon="29.9896931648"><time>2026-04-22T09:47:15Z</time></trkpt><trkpt lat="59.0835499763" lon="29.9896931648"><time>2026-04-22T09:47:18Z</time></trkpt><trkpt lat="59.0835499763" lon="29.9896931648"><time>2026-04-22T09:47:20Z</time></trkpt><trkpt lat="59.0835499763" lon="29.9896931648"><time>2026-04-22T09:47:23Z</time></trkpt><trkpt lat="59.0835499763" lon="29.9896931648"><time>2026-04-22T09:47:25Z</time></trkpt><trkpt lat="59.0835499763" lon="29.9896931648"><time>2026-04-22T09:47:28Z</time></trkpt><trkpt lat="59.0835499763" lon="29.9896931648"><time>2026-04-22T09:47:30Z</time></trkpt><trkpt lat="59.0835285187" lon="29.9896931648"><time>2026-04-22T09:47:33Z</time></trkpt><trkpt lat="59.0835285187" lon="29.9896717072"><time>2026-04-22T09:47:35Z</time></trkpt><trkpt lat="59.0835285187" lon="29.9896717072"><time>2026-04-22T09:47:38Z</time></trkpt><trkpt lat="59.0835285187" lon="29.9896717072"><time>2026-04-22T09:47:40Z</time></trkpt><trkpt lat="59.0835285187" lon="29.9896717072"><time>2026-04-22T09:47:43Z</time></trkpt><trkpt lat="59.0835070610" lon="29.9896717072"><time>2026-04-22T09:47:45Z</time></trkpt><trkpt lat="59.0834641457" lon="29.9896287918"><time>2026-04-22T09:47:48Z</time></trkpt><trkpt lat="59.0834641457" lon="29.9896502495"><time>2026-04-22T09:47:50Z</time></trkpt><trkpt lat="59.0834641457" lon="29.9896502495"><time>2026-04-22T09:47:53Z</time></trkpt><trkpt lat="59.0834641457" lon="29.9896502495"><time>2026-04-22T09:47:55Z</time></trkpt><trkpt lat="59.0834641457" lon="29.9896502495"><time>2026-04-22T09:47:58Z</time></trkpt><trkpt lat="59.0834426880" lon="29.9896502495"><time>2026-04-22T09:48:00Z</time></trkpt><trkpt lat="59.0834426880" lon="29.9896287918"><time>2026-04-22T09:48:03Z</time></trkpt><trkpt lat="59.0834426880" lon="29.9896073341"><time>2026-04-22T09:48:05Z</time></trkpt><trkpt lat="59.0834641457" lon="29.9895644188"><time>2026-04-22T09:48:08Z</time></trkpt><trkpt lat="59.0834641457" lon="29.9895429611"><time>2026-04-22T09:48:10Z</time></trkpt><trkpt lat="59.0834641457" lon="29.9895215034"><time>2026-04-22T09:48:13Z</time></trkpt><trkpt lat="59.0834641457" lon="29.9895215034"><time>2026-04-22T09:48:15Z</time></trkpt><trkpt lat="59.0834641457" lon="29.9895215034"><time>2026-04-22T09:48:18Z</time></trkpt><trkpt lat="59.0834641457" lon="29.9895215034"><time>2026-04-22T09:48:20Z</time></trkpt><trkpt lat="59.0834641457" lon="29.9895215034"><time>2026-04-22T09:48:23Z</time></trkpt><trkpt lat="59.0834426880" lon="29.9895000458"><time>2026-04-22T09:48:25Z</time></trkpt><trkpt lat="59.0834426880" lon="29.9894356728"><time>2026-04-22T09:48:28Z</time></trkpt><trkpt lat="59.0834426880" lon="29.9894142151"><time>2026-04-22T09:48:30Z</time></trkpt><trkpt lat="59.0834426880" lon="29.9894142151"><time>2026-04-22T09:48:33Z</time></trkpt><trkpt lat="59.0834426880" lon="29.9893712997"><time>2026-04-22T09:48:35Z</time></trkpt><trkpt lat="59.0834426880" lon="29.9893069267"><time>2026-04-22T09:48:38Z</time></trkpt><trkpt lat="59.0833997726" lon="29.9892640114"><time>2026-04-22T09:48:40Z</time></trkpt><trkpt lat="59.0833997726" lon="29.9891996384"><time>2026-04-22T09:48:43Z</time></trkpt><trkpt lat="59.0834212303" lon="29.9891138077"><time>2026-04-22T09:48:45Z</time></trkpt><trkpt lat="59.0833997726" lon="29.9890494347"><time>2026-04-22T09:48:48Z</time></trkpt><trkpt lat="59.0834212303" lon="29.9890065193"><time>2026-04-22T09:48:50Z</time></trkpt><trkpt lat="59.0834212303" lon="29.9889421463"><time>2026-04-22T09:48:53Z</time></trkpt><trkpt lat="59.0834212303" lon="29.9889206886"><time>2026-04-22T09:48:55Z</time></trkpt><trkpt lat="59.0833997726" lon="29.9889206886"><time>2026-04-22T09:48:58Z</time></trkpt><trkpt lat="59.0833783150" lon="29.9888992310"><time>2026-04-22T09:49:00Z</time></trkpt><trkpt lat="59.0833568573" lon="29.9888992310"><time>2026-04-22T09:49:03Z</time></trkpt><trkpt lat="59.0833139420" lon="29.9888563156"><time>2026-04-22T09:49:05Z</time></trkpt><trkpt lat="59.0833139420" lon="29.9888563156"><time>2026-04-22T09:49:08Z</time></trkpt><trkpt lat="59.0833139420" lon="29.9888563156"><time>2026-04-22T09:49:10Z</time></trkpt><trkpt lat="59.0833139420" lon="29.9888348579"><time>2026-04-22T09:49:13Z</time></trkpt><trkpt lat="59.0832924843" lon="29.9888134003"><time>2026-04-22T09:49:15Z</time></trkpt><trkpt lat="59.0832710266" lon="29.9888134003"><time>2026-04-22T09:49:18Z</time></trkpt><trkpt lat="59.0832710266" lon="29.9887919426"><time>2026-04-22T09:49:20Z</time></trkpt><trkpt lat="59.0832710266" lon="29.9887490273"><time>2026-04-22T09:49:23Z</time></trkpt><trkpt lat="59.0832710266" lon="29.9887275696"><time>2026-04-22T09:49:25Z</time></trkpt><trkpt lat="59.0832710266" lon="29.9886846542"><time>2026-04-22T09:49:28Z</time></trkpt><trkpt lat="59.0832710266" lon="29.9886202812"><time>2026-04-22T09:49:30Z</time></trkpt><trkpt lat="59.0832710266" lon="29.9885988235"><time>2026-04-22T09:49:33Z</time></trkpt><trkpt lat="59.0832710266" lon="29.9885988235"><time>2026-04-22T09:49:35Z</time></trkpt><trkpt lat="59.0832495689" lon="29.9885773659"><time>2026-04-22T09:49:38Z</time></trkpt><trkpt lat="59.0832281113" lon="29.9885344505"><time>2026-04-22T09:49:40Z</time></trkpt><trkpt lat="59.0832281113" lon="29.9885129929"><time>2026-04-22T09:49:43Z</time></trkpt><trkpt lat="59.0832281113" lon="29.9885129929"><time>2026-04-22T09:49:45Z</time></trkpt><trkpt lat="59.0832066536" lon="29.9884915352"><time>2026-04-22T09:49:48Z</time></trkpt><trkpt lat="59.0832066536" lon="29.9884486198"><time>2026-04-22T09:49:50Z</time></trkpt><trkpt lat="59.0832066536" lon="29.9884057045"><time>2026-04-22T09:49:53Z</time></trkpt><trkpt lat="59.0832281113" lon="29.9883842468"><time>2026-04-22T09:49:55Z</time></trkpt><trkpt lat="59.0832281113" lon="29.9883627892"><time>2026-04-22T09:49:58Z</time></trkpt><trkpt lat="59.0832495689" lon="29.9883198738"><time>2026-04-22T09:50:00Z</time></trkpt><trkpt lat="59.0832495689" lon="29.9883198738"><time>2026-04-22T09:50:03Z</time></trkpt><trkpt lat="59.0832495689" lon="29.9883198738"><time>2026-04-22T09:50:05Z</time></trkpt><trkpt lat="59.0832495689" lon="29.9883198738"><time>2026-04-22T09:50:08Z</time></trkpt><trkpt lat="59.0832495689" lon="29.9883198738"><time>2026-04-22T09:50:10Z</time></trkpt><trkpt lat="59.0832495689" lon="29.9883198738"><time>2026-04-22T09:50:13Z</time></trkpt><trkpt lat="59.0832495689" lon="29.9883198738"><time>2026-04-22T09:50:15Z</time></trkpt><trkpt lat="59.0832495689" lon="29.9883198738"><time>2026-04-22T09:50:18Z</time></trkpt><trkpt lat="59.0832924843" lon="29.9883198738"><time>2026-04-22T09:50:20Z</time></trkpt><trkpt lat="59.0833353996" lon="29.9882984161"><time>2026-04-22T09:50:23Z</time></trkpt><trkpt lat="59.0833783150" lon="29.9882769585"><time>2026-04-22T09:50:25Z</time></trkpt><trkpt lat="59.0833997726" lon="29.9882769585"><time>2026-04-22T09:50:28Z</time></trkpt><trkpt lat="59.0833997726" lon="29.9882555008"><time>2026-04-22T09:50:30Z</time></trkpt><trkpt lat="59.0833997726" lon="29.9882555008"><time>2026-04-22T09:50:33Z</time></trkpt><trkpt lat="59.0833997726" lon="29.9882555008"><time>2026-04-22T09:50:35Z</time></trkpt><trkpt lat="59.0834212303" lon="29.9882555008"><time>2026-04-22T09:50:38Z</time></trkpt><trkpt lat="59.0834426880" lon="29.9882340431"><time>2026-04-22T09:50:40Z</time></trkpt><trkpt lat="59.0834641457" lon="29.9881696701"><time>2026-04-22T09:50:43Z</time></trkpt><trkpt lat="59.0834641457" lon="29.9881482124"><time>2026-04-22T09:50:45Z</time></trkpt><trkpt lat="59.0834641457" lon="29.9881482124"><time>2026-04-22T09:50:48Z</time></trkpt><trkpt lat="59.0835070610" lon="29.9882125854"><time>2026-04-22T09:50:50Z</time></trkpt><trkpt lat="59.0835285187" lon="29.9882769585"><time>2026-04-22T09:50:53Z</time></trkpt><trkpt lat="59.0835714340" lon="29.9882984161"><time>2026-04-22T09:50:55Z</time></trkpt><trkpt lat="59.0836143494" lon="29.9883198738"><time>2026-04-22T09:50:58Z</time></trkpt><trkpt lat="59.0836572647" lon="29.9883198738"><time>2026-04-22T09:51:00Z</time></trkpt><trkpt lat="59.0836572647" lon="29.9883198738"><time>2026-04-22T09:51:03Z</time></trkpt><trkpt lat="59.0836572647" lon="29.9883198738"><time>2026-04-22T09:51:05Z</time></trkpt><trkpt lat="59.0836572647" lon="29.9883198738"><time>2026-04-22T09:51:08Z</time></trkpt><trkpt lat="59.0836787224" lon="29.9883198738"><time>2026-04-22T09:51:10Z</time></trkpt><trkpt lat="59.0836787224" lon="29.9883198738"><time>2026-04-22T09:51:13Z</time></trkpt><trkpt lat="59.0837216377" lon="29.9883198738"><time>2026-04-22T09:51:15Z</time></trkpt><trkpt lat="59.0837430954" lon="29.9883198738"><time>2026-04-22T09:51:18Z</time></trkpt><trkpt lat="59.0837860107" lon="29.9883198738"><time>2026-04-22T09:51:20Z</time></trkpt><trkpt lat="59.0838289261" lon="29.9883198738"><time>2026-04-22T09:51:23Z</time></trkpt><trkpt lat="59.0838289261" lon="29.9882984161"><time>2026-04-22T09:51:25Z</time></trkpt><trkpt lat="59.0838289261" lon="29.9882984161"><time>2026-04-22T09:51:28Z</time></trkpt><trkpt lat="59.0838289261" lon="29.9882984161"><time>2026-04-22T09:51:30Z</time></trkpt><trkpt lat="59.0838503838" lon="29.9882984161"><time>2026-04-22T09:51:33Z</time></trkpt><trkpt lat="59.0838932991" lon="29.9882984161"><time>2026-04-22T09:51:35Z</time></trkpt><trkpt lat="59.0839147568" lon="29.9882984161"><time>2026-04-22T09:51:38Z</time></trkpt><trkpt lat="59.0839576721" lon="29.9882769585"><time>2026-04-22T09:51:40Z</time></trkpt><trkpt lat="59.0839576721" lon="29.9882769585"><time>2026-04-22T09:51:43Z</time></trkpt><trkpt lat="59.0839576721" lon="29.9882769585"><time>2026-04-22T09:51:45Z</time></trkpt><trkpt lat="59.0839576721" lon="29.9882769585"><time>2026-04-22T09:51:48Z</time></trkpt><trkpt lat="59.0839576721" lon="29.9882769585"><time>2026-04-22T09:51:50Z</time></trkpt><trkpt lat="59.0839576721" lon="29.9882769585"><time>2026-04-22T09:51:53Z</time></trkpt><trkpt lat="59.0839576721" lon="29.9882769585"><time>2026-04-22T09:51:55Z</time></trkpt><trkpt lat="59.0839576721" lon="29.9882769585"><time>2026-04-22T09:51:58Z</time></trkpt><trkpt lat="59.0839362144" lon="29.9882769585"><time>2026-04-22T09:52:00Z</time></trkpt><trkpt lat="59.0839362144" lon="29.9882769585"><time>2026-04-22T09:52:03Z</time></trkpt><trkpt lat="59.0839362144" lon="29.9882769585"><time>2026-04-22T09:52:05Z</time></trkpt><trkpt lat="59.0839147568" lon="29.9882769585"><time>2026-04-22T09:52:08Z</time></trkpt><trkpt lat="59.0839147568" lon="29.9882984161"><time>2026-04-22T09:52:10Z</time></trkpt><trkpt lat="59.0839147568" lon="29.9882984161"><time>2026-04-22T09:52:13Z</time></trkpt><trkpt lat="59.0839147568" lon="29.9882984161"><time>2026-04-22T09:52:15Z</time></trkpt><trkpt lat="59.0839147568" lon="29.9882984161"><time>2026-04-22T09:52:18Z</time></trkpt><trkpt lat="59.0839147568" lon="29.9882984161"><time>2026-04-22T09:52:20Z</time></trkpt><trkpt lat="59.0839147568" lon="29.9882984161"><time>2026-04-22T09:52:23Z</time></trkpt><trkpt lat="59.0839147568" lon="29.9882984161"><time>2026-04-22T09:52:25Z</time></trkpt><trkpt lat="59.0839147568" lon="29.9882984161"><time>2026-04-22T09:52:28Z</time></trkpt><trkpt lat="59.0839147568" lon="29.9882984161"><time>2026-04-22T09:52:30Z</time></trkpt><trkpt lat="59.0839576721" lon="29.9883198738"><time>2026-04-22T09:52:33Z</time></trkpt><trkpt lat="59.0840005875" lon="29.9883627892"><time>2026-04-22T09:52:35Z</time></trkpt><trkpt lat="59.0840005875" lon="29.9884057045"><time>2026-04-22T09:52:38Z</time></trkpt><trkpt lat="59.0840220451" lon="29.9884271622"><time>2026-04-22T09:52:40Z</time></trkpt><trkpt lat="59.0840220451" lon="29.9884271622"><time>2026-04-22T09:52:43Z</time></trkpt><trkpt lat="59.0840220451" lon="29.9884271622"><time>2026-04-22T09:52:45Z</time></trkpt><trkpt lat="59.0840435028" lon="29.9884271622"><time>2026-04-22T09:52:48Z</time></trkpt><trkpt lat="59.0840649605" lon="29.9884271622"><time>2026-04-22T09:52:50Z</time></trkpt><trkpt lat="59.0840649605" lon="29.9884057045"><time>2026-04-22T09:52:53Z</time></trkpt><trkpt lat="59.0840649605" lon="29.9883627892"><time>2026-04-22T09:52:55Z</time></trkpt><trkpt lat="59.0840649605" lon="29.9883413315"><time>2026-04-22T09:52:58Z</time></trkpt><trkpt lat="59.0840864182" lon="29.9883413315"><time>2026-04-22T09:53:00Z</time></trkpt><trkpt lat="59.0841078758" lon="29.9883198738"><time>2026-04-22T09:53:05Z</time></trkpt><trkpt lat="59.0841722488" lon="29.9883198738"><time>2026-04-22T09:53:10Z</time></trkpt><trkpt lat="59.0841937065" lon="29.9882984161"><time>2026-04-22T09:53:13Z</time></trkpt><trkpt lat="59.0842366219" lon="29.9883198738"><time>2026-04-22T09:53:15Z</time></trkpt><trkpt lat="59.0842366219" lon="29.9883413315"><time>2026-04-22T09:53:18Z</time></trkpt><trkpt lat="59.0842580795" lon="29.9883842468"><time>2026-04-22T09:53:20Z</time></trkpt><trkpt lat="59.0843009949" lon="29.9884057045"><time>2026-04-22T09:53:23Z</time></trkpt><trkpt lat="59.0843224525" lon="29.9884057045"><time>2026-04-22T09:53:25Z</time></trkpt><trkpt lat="59.0843224525" lon="29.9884057045"><time>2026-04-22T09:53:28Z</time></trkpt><trkpt lat="59.0843439102" lon="29.9884271622"><time>2026-04-22T09:53:30Z</time></trkpt><trkpt lat="59.0843868256" lon="29.9884271622"><time>2026-04-22T09:53:33Z</time></trkpt><trkpt lat="59.0843868256" lon="29.9884271622"><time>2026-04-22T09:53:35Z</time></trkpt><trkpt lat="59.0843868256" lon="29.9884271622"><time>2026-04-22T09:53:38Z</time></trkpt><trkpt lat="59.0843868256" lon="29.9884271622"><time>2026-04-22T09:53:40Z</time></trkpt><trkpt lat="59.0843868256" lon="29.9884271622"><time>2026-04-22T09:53:43Z</time></trkpt><trkpt lat="59.0843868256" lon="29.9884271622"><time>2026-04-22T09:53:45Z</time></trkpt><trkpt lat="59.0843868256" lon="29.9884271622"><time>2026-04-22T09:53:48Z</time></trkpt><trkpt lat="59.0843868256" lon="29.9884271622"><time>2026-04-22T09:53:50Z</time></trkpt><trkpt lat="59.0843868256" lon="29.9884486198"><time>2026-04-22T09:53:53Z</time></trkpt><trkpt lat="59.0844511986" lon="29.9884486198"><time>2026-04-22T09:53:55Z</time></trkpt><trkpt lat="59.0844511986" lon="29.9884486198"><time>2026-04-22T09:53:58Z</time></trkpt><trkpt lat="59.0844511986" lon="29.9884486198"><time>2026-04-22T09:54:00Z</time></trkpt><trkpt lat="59.0844726562" lon="29.9884271622"><time>2026-04-22T09:54:03Z</time></trkpt><trkpt lat="59.0844726562" lon="29.9884271622"><time>2026-04-22T09:54:05Z</time></trkpt><trkpt lat="59.0844726562" lon="29.9884271622"><time>2026-04-22T09:54:08Z</time></trkpt><trkpt lat="59.0844726562" lon="29.9884271622"><time>2026-04-22T09:54:10Z</time></trkpt><trkpt lat="59.0844726562" lon="29.9884271622"><time>2026-04-22T09:54:13Z</time></trkpt><trkpt lat="59.0844726562" lon="29.9884271622"><time>2026-04-22T09:54:15Z</time></trkpt><trkpt lat="59.0844726562" lon="29.9884271622"><time>2026-04-22T09:54:18Z</time></trkpt><trkpt lat="59.0844726562" lon="29.9884486198"><time>2026-04-22T09:54:20Z</time></trkpt><trkpt lat="59.0844941139" lon="29.9885129929"><time>2026-04-22T09:54:23Z</time></trkpt><trkpt lat="59.0845370293" lon="29.9885773659"><time>2026-04-22T09:54:25Z</time></trkpt><trkpt lat="59.0845799446" lon="29.9885988235"><time>2026-04-22T09:54:28Z</time></trkpt><trkpt lat="59.0846228600" lon="29.9886202812"><time>2026-04-22T09:54:30Z</time></trkpt><trkpt lat="59.0846228600" lon="29.9886202812"><time>2026-04-22T09:54:33Z</time></trkpt><trkpt lat="59.0846228600" lon="29.9886202812"><time>2026-04-22T09:54:35Z</time></trkpt><trkpt lat="59.0846228600" lon="29.9886202812"><time>2026-04-22T09:54:38Z</time></trkpt><trkpt lat="59.0846228600" lon="29.9886202812"><time>2026-04-22T09:54:40Z</time></trkpt><trkpt lat="59.0846228600" lon="29.9886202812"><time>2026-04-22T09:54:43Z</time></trkpt><trkpt lat="59.0846228600" lon="29.9886202812"><time>2026-04-22T09:54:45Z</time></trkpt><trkpt lat="59.0846443176" lon="29.9886631966"><time>2026-04-22T09:54:48Z</time></trkpt><trkpt lat="59.0846872330" lon="29.9887704849"><time>2026-04-22T09:54:50Z</time></trkpt><trkpt lat="59.0847086906" lon="29.9887919426"><time>2026-04-22T09:54:53Z</time></trkpt><trkpt lat="59.0847301483" lon="29.9888134003"><time>2026-04-22T09:54:55Z</time></trkpt><trkpt lat="59.0847516060" lon="29.9888134003"><time>2026-04-22T09:54:58Z</time></trkpt><trkpt lat="59.0847945213" lon="29.9888348579"><time>2026-04-22T09:55:00Z</time></trkpt><trkpt lat="59.0848159790" lon="29.9888348579"><time>2026-04-22T09:55:03Z</time></trkpt><trkpt lat="59.0848159790" lon="29.9888348579"><time>2026-04-22T09:55:05Z</time></trkpt><trkpt lat="59.0848159790" lon="29.9888348579"><time>2026-04-22T09:55:08Z</time></trkpt><trkpt lat="59.0848159790" lon="29.9888348579"><time>2026-04-22T09:55:10Z</time></trkpt><trkpt lat="59.0848159790" lon="29.9888348579"><time>2026-04-22T09:55:13Z</time></trkpt><trkpt lat="59.0848588943" lon="29.9888134003"><time>2026-04-22T09:55:15Z</time></trkpt><trkpt lat="59.0848803520" lon="29.9888134003"><time>2026-04-22T09:55:20Z</time></trkpt><trkpt lat="59.0848803520" lon="29.9887919426"><time>2026-04-22T09:55:23Z</time></trkpt><trkpt lat="59.0848803520" lon="29.9887919426"><time>2026-04-22T09:55:25Z</time></trkpt><trkpt lat="59.0848803520" lon="29.9887919426"><time>2026-04-22T09:55:28Z</time></trkpt><trkpt lat="59.0849018097" lon="29.9888134003"><time>2026-04-22T09:55:30Z</time></trkpt><trkpt lat="59.0849232674" lon="29.9887919426"><time>2026-04-22T09:55:33Z</time></trkpt><trkpt lat="59.0849661827" lon="29.9887704849"><time>2026-04-22T09:55:35Z</time></trkpt><trkpt lat="59.0849661827" lon="29.9887704849"><time>2026-04-22T09:55:38Z</time></trkpt><trkpt lat="59.0849876404" lon="29.9887704849"><time>2026-04-22T09:55:40Z</time></trkpt><trkpt lat="59.0850305557" lon="29.9887704849"><time>2026-04-22T09:55:43Z</time></trkpt><trkpt lat="59.0850305557" lon="29.9887704849"><time>2026-04-22T09:55:45Z</time></trkpt><trkpt lat="59.0850305557" lon="29.9887704849"><time>2026-04-22T09:55:48Z</time></trkpt><trkpt lat="59.0850305557" lon="29.9887704849"><time>2026-04-22T09:55:50Z</time></trkpt><trkpt lat="59.0850734711" lon="29.9887704849"><time>2026-04-22T09:55:53Z</time></trkpt><trkpt lat="59.0851378441" lon="29.9887704849"><time>2026-04-22T09:55:55Z</time></trkpt><trkpt lat="59.0851807594" lon="29.9887704849"><time>2026-04-22T09:55:58Z</time></trkpt><trkpt lat="59.0852022171" lon="29.9887490273"><time>2026-04-22T09:56:00Z</time></trkpt><trkpt lat="59.0852022171" lon="29.9887490273"><time>2026-04-22T09:56:03Z</time></trkpt><trkpt lat="59.0852022171" lon="29.9887490273"><time>2026-04-22T09:56:05Z</time></trkpt><trkpt lat="59.0852236748" lon="29.9887275696"><time>2026-04-22T09:56:08Z</time></trkpt><trkpt lat="59.0852880478" lon="29.9887275696"><time>2026-04-22T09:56:10Z</time></trkpt><trkpt lat="59.0853309631" lon="29.9887275696"><time>2026-04-22T09:56:13Z</time></trkpt><trkpt lat="59.0853953362" lon="29.9887919426"><time>2026-04-22T09:56:15Z</time></trkpt><trkpt lat="59.0853953362" lon="29.9888348579"><time>2026-04-22T09:56:18Z</time></trkpt><trkpt lat="59.0854167938" lon="29.9889206886"><time>2026-04-22T09:56:20Z</time></trkpt><trkpt lat="59.0854382515" lon="29.9889850616"><time>2026-04-22T09:56:23Z</time></trkpt><trkpt lat="59.0854597092" lon="29.9890923500"><time>2026-04-22T09:56:25Z</time></trkpt><trkpt lat="59.0854597092" lon="29.9891352654"><time>2026-04-22T09:56:28Z</time></trkpt><trkpt lat="59.0854597092" lon="29.9891352654"><time>2026-04-22T09:56:30Z</time></trkpt><trkpt lat="59.0854382515" lon="29.9891138077"><time>2026-04-22T09:56:33Z</time></trkpt><trkpt lat="59.0854167938" lon="29.9890494347"><time>2026-04-22T09:56:35Z</time></trkpt><trkpt lat="59.0853953362" lon="29.9890065193"><time>2026-04-22T09:56:38Z</time></trkpt><trkpt lat="59.0853738785" lon="29.9889636040"><time>2026-04-22T09:56:40Z</time></trkpt><trkpt lat="59.0853953362" lon="29.9889421463"><time>2026-04-22T09:56:43Z</time></trkpt><trkpt lat="59.0853953362" lon="29.9889421463"><time>2026-04-22T09:56:45Z</time></trkpt><trkpt lat="59.0853953362" lon="29.9889421463"><time>2026-04-22T09:56:48Z</time></trkpt><trkpt lat="59.0853953362" lon="29.9889421463"><time>2026-04-22T09:56:50Z</time></trkpt><trkpt lat="59.0853953362" lon="29.9889421463"><time>2026-04-22T09:56:53Z</time></trkpt><trkpt lat="59.0853953362" lon="29.9889421463"><time>2026-04-22T09:56:55Z</time></trkpt><trkpt lat="59.0853953362" lon="29.9889421463"><time>2026-04-22T09:56:58Z</time></trkpt><trkpt lat="59.0853953362" lon="29.9889421463"><time>2026-04-22T09:57:00Z</time></trkpt><trkpt lat="59.0853953362" lon="29.9889421463"><time>2026-04-22T09:57:03Z</time></trkpt><trkpt lat="59.0854167938" lon="29.9889206886"><time>2026-04-22T09:57:05Z</time></trkpt><trkpt lat="59.0854382515" lon="29.9889636040"><time>2026-04-22T09:57:10Z</time></trkpt><trkpt lat="59.0854811668" lon="29.9890065193"><time>2026-04-22T09:57:15Z</time></trkpt><trkpt lat="59.0854811668" lon="29.9890065193"><time>2026-04-22T09:57:18Z</time></trkpt><trkpt lat="59.0854811668" lon="29.9890065193"><time>2026-04-22T09:57:20Z</time></trkpt><trkpt lat="59.0854811668" lon="29.9890065193"><time>2026-04-22T09:57:23Z</time></trkpt><trkpt lat="59.0854811668" lon="29.9890065193"><time>2026-04-22T09:57:25Z</time></trkpt><trkpt lat="59.0854811668" lon="29.9890065193"><time>2026-04-22T09:57:28Z</time></trkpt><trkpt lat="59.0854811668" lon="29.9890065193"><time>2026-04-22T09:57:30Z</time></trkpt><trkpt lat="59.0854811668" lon="29.9890065193"><time>2026-04-22T09:57:33Z</time></trkpt><trkpt lat="59.0854811668" lon="29.9890065193"><time>2026-04-22T09:57:35Z</time></trkpt><trkpt lat="59.0854811668" lon="29.9890065193"><time>2026-04-22T09:57:38Z</time></trkpt><trkpt lat="59.0854811668" lon="29.9890065193"><time>2026-04-22T09:57:40Z</time></trkpt><trkpt lat="59.0854811668" lon="29.9890065193"><time>2026-04-22T09:57:43Z</time></trkpt><trkpt lat="59.0854811668" lon="29.9890065193"><time>2026-04-22T09:57:45Z</time></trkpt><trkpt lat="59.0854811668" lon="29.9890065193"><time>2026-04-22T09:57:48Z</time></trkpt><trkpt lat="59.0854811668" lon="29.9890065193"><time>2026-04-22T09:57:50Z</time></trkpt><trkpt lat="59.0854811668" lon="29.9890065193"><time>2026-04-22T09:57:53Z</time></trkpt><trkpt lat="59.0854811668" lon="29.9890065193"><time>2026-04-22T09:57:55Z</time></trkpt><trkpt lat="59.0854811668" lon="29.9890065193"><time>2026-04-22T09:58:00Z</time></trkpt><trkpt lat="59.0854811668" lon="29.9890065193"><time>2026-04-22T09:58:03Z</time></trkpt><trkpt lat="59.0854811668" lon="29.9890065193"><time>2026-04-22T09:58:05Z</time></trkpt><trkpt lat="59.0854811668" lon="29.9890065193"><time>2026-04-22T09:58:08Z</time></trkpt><trkpt lat="59.0854811668" lon="29.9890065193"><time>2026-04-22T09:58:10Z</time></trkpt><trkpt lat="59.0854811668" lon="29.9890065193"><time>2026-04-22T09:58:13Z</time></trkpt><trkpt lat="59.0854811668" lon="29.9890065193"><time>2026-04-22T09:58:15Z</time></trkpt><trkpt lat="59.0854811668" lon="29.9890065193"><time>2026-04-22T09:58:18Z</time></trkpt><trkpt lat="59.0854811668" lon="29.9890065193"><time>2026-04-22T09:58:20Z</time></trkpt><trkpt lat="59.0854811668" lon="29.9890065193"><time>2026-04-22T09:58:23Z</time></trkpt><trkpt lat="59.0854811668" lon="29.9890065193"><time>2026-04-22T09:58:25Z</time></trkpt><trkpt lat="59.0854811668" lon="29.9890065193"><time>2026-04-22T09:58:28Z</time></trkpt><trkpt lat="59.0854811668" lon="29.9890065193"><time>2026-04-22T09:58:30Z</time></trkpt><trkpt lat="59.0854811668" lon="29.9890065193"><time>2026-04-22T09:58:33Z</time></trkpt><trkpt lat="59.0854811668" lon="29.9890065193"><time>2026-04-22T09:58:35Z</time></trkpt><trkpt lat="59.0854811668" lon="29.9890065193"><time>2026-04-22T09:58:38Z</time></trkpt><trkpt lat="59.0854811668" lon="29.9890065193"><time>2026-04-22T09:58:40Z</time></trkpt><trkpt lat="59.0854811668" lon="29.9890065193"><time>2026-04-22T09:58:43Z</time></trkpt><trkpt lat="59.0854811668" lon="29.9890065193"><time>2026-04-22T09:58:45Z</time></trkpt><trkpt lat="59.0854811668" lon="29.9890065193"><time>2026-04-22T09:58:48Z</time></trkpt><trkpt lat="59.0854811668" lon="29.9890065193"><time>2026-04-22T09:58:50Z</time></trkpt><trkpt lat="59.0854811668" lon="29.9890065193"><time>2026-04-22T09:58:53Z</time></trkpt><trkpt lat="59.0854811668" lon="29.9890065193"><time>2026-04-22T09:58:55Z</time></trkpt><trkpt lat="59.0854811668" lon="29.9890065193"><time>2026-04-22T09:58:58Z</time></trkpt><trkpt lat="59.0854811668" lon="29.9890065193"><time>2026-04-22T09:59:00Z</time></trkpt><trkpt lat="59.0854811668" lon="29.9890065193"><time>2026-04-22T09:59:03Z</time></trkpt><trkpt lat="59.0854811668" lon="29.9890065193"><time>2026-04-22T09:59:05Z</time></trkpt><trkpt lat="59.0854811668" lon="29.9890065193"><time>2026-04-22T09:59:08Z</time></trkpt><trkpt lat="59.0854811668" lon="29.9890065193"><time>2026-04-22T09:59:10Z</time></trkpt><trkpt lat="59.0854811668" lon="29.9890065193"><time>2026-04-22T09:59:13Z</time></trkpt><trkpt lat="59.0854811668" lon="29.9890065193"><time>2026-04-22T09:59:15Z</time></trkpt><trkpt lat="59.0854811668" lon="29.9890494347"><time>2026-04-22T09:59:18Z</time></trkpt><trkpt lat="59.0855026245" lon="29.9890279770"><time>2026-04-22T09:59:20Z</time></trkpt><trkpt lat="59.0855240822" lon="29.9890494347"><time>2026-04-22T09:59:23Z</time></trkpt><trkpt lat="59.0855669975" lon="29.9890923500"><time>2026-04-22T09:59:25Z</time></trkpt><trkpt lat="59.0855884552" lon="29.9890923500"><time>2026-04-22T09:59:28Z</time></trkpt><trkpt lat="59.0855884552" lon="29.9890923500"><time>2026-04-22T09:59:30Z</time></trkpt><trkpt lat="59.0855884552" lon="29.9890923500"><time>2026-04-22T09:59:33Z</time></trkpt><trkpt lat="59.0855884552" lon="29.9890923500"><time>2026-04-22T09:59:35Z</time></trkpt><trkpt lat="59.0855884552" lon="29.9890923500"><time>2026-04-22T09:59:38Z</time></trkpt><trkpt lat="59.0856313705" lon="29.9890708923"><time>2026-04-22T09:59:40Z</time></trkpt><trkpt lat="59.0856528282" lon="29.9890708923"><time>2026-04-22T09:59:43Z</time></trkpt><trkpt lat="59.0857172012" lon="29.9890279770"><time>2026-04-22T09:59:45Z</time></trkpt><trkpt lat="59.0857386589" lon="29.9890279770"><time>2026-04-22T09:59:48Z</time></trkpt><trkpt lat="59.0857815742" lon="29.9890494347"><time>2026-04-22T09:59:50Z</time></trkpt><trkpt lat="59.0858030319" lon="29.9890279770"><time>2026-04-22T09:59:53Z</time></trkpt><trkpt lat="59.0858244896" lon="29.9890279770"><time>2026-04-22T09:59:55Z</time></trkpt><trkpt lat="59.0858244896" lon="29.9890279770"><time>2026-04-22T09:59:58Z</time></trkpt><trkpt lat="59.0858244896" lon="29.9890279770"><time>2026-04-22T10:00:00Z</time></trkpt><trkpt lat="59.0858244896" lon="29.9890279770"><time>2026-04-22T10:00:03Z</time></trkpt><trkpt lat="59.0858888626" lon="29.9890494347"><time>2026-04-22T10:00:05Z</time></trkpt><trkpt lat="59.0859103203" lon="29.9890279770"><time>2026-04-22T10:00:08Z</time></trkpt><trkpt lat="59.0859532356" lon="29.9890279770"><time>2026-04-22T10:00:10Z</time></trkpt><trkpt lat="59.0859532356" lon="29.9890279770"><time>2026-04-22T10:00:13Z</time></trkpt><trkpt lat="59.0859532356" lon="29.9890279770"><time>2026-04-22T10:00:15Z</time></trkpt><trkpt lat="59.0859532356" lon="29.9890279770"><time>2026-04-22T10:00:18Z</time></trkpt><trkpt lat="59.0859532356" lon="29.9890279770"><time>2026-04-22T10:00:20Z</time></trkpt><trkpt lat="59.0859532356" lon="29.9890279770"><time>2026-04-22T10:00:23Z</time></trkpt><trkpt lat="59.0859532356" lon="29.9890279770"><time>2026-04-22T10:00:25Z</time></trkpt><trkpt lat="59.0859532356" lon="29.9890279770"><time>2026-04-22T10:00:28Z</time></trkpt><trkpt lat="59.0859532356" lon="29.9890279770"><time>2026-04-22T10:00:30Z</time></trkpt><trkpt lat="59.0859746933" lon="29.9890494347"><time>2026-04-22T10:00:33Z</time></trkpt><trkpt lat="59.0859961510" lon="29.9890494347"><time>2026-04-22T10:00:35Z</time></trkpt><trkpt lat="59.0859961510" lon="29.9890494347"><time>2026-04-22T10:00:38Z</time></trkpt><trkpt lat="59.0860390663" lon="29.9890494347"><time>2026-04-22T10:00:40Z</time></trkpt><trkpt lat="59.0860605240" lon="29.9890494347"><time>2026-04-22T10:00:43Z</time></trkpt><trkpt lat="59.0861248970" lon="29.9890923500"><time>2026-04-22T10:00:46Z</time></trkpt><trkpt lat="59.0861463547" lon="29.9891138077"><time>2026-04-22T10:00:48Z</time></trkpt><trkpt lat="59.0861678123" lon="29.9891781807"><time>2026-04-22T10:00:50Z</time></trkpt><trkpt lat="59.0861892700" lon="29.9891781807"><time>2026-04-22T10:00:53Z</time></trkpt><trkpt lat="59.0861892700" lon="29.9891781807"><time>2026-04-22T10:00:55Z</time></trkpt><trkpt lat="59.0861892700" lon="29.9891781807"><time>2026-04-22T10:00:58Z</time></trkpt><trkpt lat="59.0861892700" lon="29.9891781807"><time>2026-04-22T10:01:00Z</time></trkpt><trkpt lat="59.0862107277" lon="29.9891781807"><time>2026-04-22T10:01:03Z</time></trkpt><trkpt lat="59.0862321854" lon="29.9891781807"><time>2026-04-22T10:01:05Z</time></trkpt><trkpt lat="59.0862321854" lon="29.9891996384"><time>2026-04-22T10:01:08Z</time></trkpt><trkpt lat="59.0862536430" lon="29.9892425537"><time>2026-04-22T10:01:10Z</time></trkpt><trkpt lat="59.0862536430" lon="29.9892425537"><time>2026-04-22T10:01:13Z</time></trkpt><trkpt lat="59.0862536430" lon="29.9892425537"><time>2026-04-22T10:01:15Z</time></trkpt><trkpt lat="59.0862536430" lon="29.9892425537"><time>2026-04-22T10:01:18Z</time></trkpt><trkpt lat="59.0862751007" lon="29.9892425537"><time>2026-04-22T10:01:20Z</time></trkpt><trkpt lat="59.0863180161" lon="29.9892425537"><time>2026-04-22T10:01:23Z</time></trkpt><trkpt lat="59.0863609314" lon="29.9892425537"><time>2026-04-22T10:01:25Z</time></trkpt><trkpt lat="59.0863823891" lon="29.9892640114"><time>2026-04-22T10:01:28Z</time></trkpt><trkpt lat="59.0864038467" lon="29.9893069267"><time>2026-04-22T10:01:30Z</time></trkpt><trkpt lat="59.0864467621" lon="29.9893498421"><time>2026-04-22T10:01:33Z</time></trkpt><trkpt lat="59.0864467621" lon="29.9893712997"><time>2026-04-22T10:01:35Z</time></trkpt><trkpt lat="59.0864467621" lon="29.9893712997"><time>2026-04-22T10:01:38Z</time></trkpt><trkpt lat="59.0864467621" lon="29.9893712997"><time>2026-04-22T10:01:40Z</time></trkpt><trkpt lat="59.0864682198" lon="29.9893927574"><time>2026-04-22T10:01:43Z</time></trkpt><trkpt lat="59.0864896774" lon="29.9894142151"><time>2026-04-22T10:01:45Z</time></trkpt><trkpt lat="59.0865111351" lon="29.9894356728"><time>2026-04-22T10:01:48Z</time></trkpt><trkpt lat="59.0865111351" lon="29.9894571304"><time>2026-04-22T10:01:50Z</time></trkpt><trkpt lat="59.0865325928" lon="29.9894571304"><time>2026-04-22T10:01:53Z</time></trkpt><trkpt lat="59.0865540504" lon="29.9894571304"><time>2026-04-22T10:01:55Z</time></trkpt><trkpt lat="59.0865540504" lon="29.9894571304"><time>2026-04-22T10:01:58Z</time></trkpt><trkpt lat="59.0865755081" lon="29.9894571304"><time>2026-04-22T10:02:00Z</time></trkpt><trkpt lat="59.0865755081" lon="29.9894571304"><time>2026-04-22T10:02:03Z</time></trkpt><trkpt lat="59.0865755081" lon="29.9894571304"><time>2026-04-22T10:02:05Z</time></trkpt><trkpt lat="59.0865755081" lon="29.9894571304"><time>2026-04-22T10:02:08Z</time></trkpt><trkpt lat="59.0866184235" lon="29.9894356728"><time>2026-04-22T10:02:10Z</time></trkpt><trkpt lat="59.0867042542" lon="29.9893927574"><time>2026-04-22T10:02:15Z</time></trkpt><trkpt lat="59.0867042542" lon="29.9893927574"><time>2026-04-22T10:02:18Z</time></trkpt><trkpt lat="59.0867471695" lon="29.9894142151"><time>2026-04-22T10:02:20Z</time></trkpt><trkpt lat="59.0867686272" lon="29.9894356728"><time>2026-04-22T10:02:23Z</time></trkpt><trkpt lat="59.0867686272" lon="29.9894356728"><time>2026-04-22T10:02:25Z</time></trkpt><trkpt lat="59.0867686272" lon="29.9894356728"><time>2026-04-22T10:02:28Z</time></trkpt><trkpt lat="59.0867686272" lon="29.9894356728"><time>2026-04-22T10:02:30Z</time></trkpt><trkpt lat="59.0867686272" lon="29.9894356728"><time>2026-04-22T10:02:33Z</time></trkpt><trkpt lat="59.0867900848" lon="29.9894571304"><time>2026-04-22T10:02:35Z</time></trkpt><trkpt lat="59.0867900848" lon="29.9894571304"><time>2026-04-22T10:02:38Z</time></trkpt><trkpt lat="59.0867900848" lon="29.9894571304"><time>2026-04-22T10:02:40Z</time></trkpt><trkpt lat="59.0867900848" lon="29.9894571304"><time>2026-04-22T10:02:43Z</time></trkpt><trkpt lat="59.0867900848" lon="29.9894571304"><time>2026-04-22T10:02:45Z</time></trkpt><trkpt lat="59.0867900848" lon="29.9894571304"><time>2026-04-22T10:02:48Z</time></trkpt><trkpt lat="59.0867900848" lon="29.9894571304"><time>2026-04-22T10:02:50Z</time></trkpt><trkpt lat="59.0867900848" lon="29.9894571304"><time>2026-04-22T10:02:53Z</time></trkpt><trkpt lat="59.0867900848" lon="29.9894571304"><time>2026-04-22T10:02:55Z</time></trkpt><trkpt lat="59.0868115425" lon="29.9894571304"><time>2026-04-22T10:02:58Z</time></trkpt><trkpt lat="59.0868544579" lon="29.9894785881"><time>2026-04-22T10:03:00Z</time></trkpt><trkpt lat="59.0868759155" lon="29.9894785881"><time>2026-04-22T10:03:03Z</time></trkpt><trkpt lat="59.0868973732" lon="29.9895000458"><time>2026-04-22T10:03:05Z</time></trkpt><trkpt lat="59.0868973732" lon="29.9895000458"><time>2026-04-22T10:03:08Z</time></trkpt><trkpt lat="59.0868973732" lon="29.9895000458"><time>2026-04-22T10:03:10Z</time></trkpt><trkpt lat="59.0868973732" lon="29.9895000458"><time>2026-04-22T10:03:13Z</time></trkpt><trkpt lat="59.0868973732" lon="29.9895000458"><time>2026-04-22T10:03:15Z</time></trkpt><trkpt lat="59.0868973732" lon="29.9895000458"><time>2026-04-22T10:03:18Z</time></trkpt><trkpt lat="59.0869188309" lon="29.9894785881"><time>2026-04-22T10:03:20Z</time></trkpt><trkpt lat="59.0869402885" lon="29.9894571304"><time>2026-04-22T10:03:23Z</time></trkpt><trkpt lat="59.0870046616" lon="29.9894356728"><time>2026-04-22T10:03:25Z</time></trkpt><trkpt lat="59.0870261192" lon="29.9894356728"><time>2026-04-22T10:03:28Z</time></trkpt><trkpt lat="59.0870475769" lon="29.9894356728"><time>2026-04-22T10:03:30Z</time></trkpt><trkpt lat="59.0870475769" lon="29.9894356728"><time>2026-04-22T10:03:33Z</time></trkpt><trkpt lat="59.0870475769" lon="29.9894356728"><time>2026-04-22T10:03:35Z</time></trkpt><trkpt lat="59.0870475769" lon="29.9894356728"><time>2026-04-22T10:03:38Z</time></trkpt><trkpt lat="59.0870475769" lon="29.9894356728"><time>2026-04-22T10:03:40Z</time></trkpt><trkpt lat="59.0870475769" lon="29.9894356728"><time>2026-04-22T10:03:43Z</time></trkpt><trkpt lat="59.0870475769" lon="29.9894356728"><time>2026-04-22T10:03:45Z</time></trkpt><trkpt lat="59.0870475769" lon="29.9894356728"><time>2026-04-22T10:03:48Z</time></trkpt><trkpt lat="59.0870475769" lon="29.9894356728"><time>2026-04-22T10:03:50Z</time></trkpt><trkpt lat="59.0870475769" lon="29.9894356728"><time>2026-04-22T10:03:53Z</time></trkpt><trkpt lat="59.0870475769" lon="29.9894356728"><time>2026-04-22T10:03:55Z</time></trkpt><trkpt lat="59.0870475769" lon="29.9894356728"><time>2026-04-22T10:03:58Z</time></trkpt><trkpt lat="59.0870475769" lon="29.9894356728"><time>2026-04-22T10:04:00Z</time></trkpt><trkpt lat="59.0870475769" lon="29.9894356728"><time>2026-04-22T10:04:03Z</time></trkpt><trkpt lat="59.0870475769" lon="29.9894356728"><time>2026-04-22T10:04:05Z</time></trkpt><trkpt lat="59.0870475769" lon="29.9894356728"><time>2026-04-22T10:04:08Z</time></trkpt><trkpt lat="59.0871119499" lon="29.9894142151"><time>2026-04-22T10:04:10Z</time></trkpt><trkpt lat="59.0871763229" lon="29.9894142151"><time>2026-04-22T10:04:13Z</time></trkpt><trkpt lat="59.0871977806" lon="29.9893927574"><time>2026-04-22T10:04:15Z</time></trkpt><trkpt lat="59.0871977806" lon="29.9893927574"><time>2026-04-22T10:04:18Z</time></trkpt><trkpt lat="59.0872192383" lon="29.9894356728"><time>2026-04-22T10:04:20Z</time></trkpt><trkpt lat="59.0872192383" lon="29.9894785881"><time>2026-04-22T10:04:23Z</time></trkpt><trkpt lat="59.0872192383" lon="29.9895000458"><time>2026-04-22T10:04:25Z</time></trkpt><trkpt lat="59.0872192383" lon="29.9895000458"><time>2026-04-22T10:04:28Z</time></trkpt><trkpt lat="59.0872192383" lon="29.9895000458"><time>2026-04-22T10:04:30Z</time></trkpt><trkpt lat="59.0872192383" lon="29.9895000458"><time>2026-04-22T10:04:33Z</time></trkpt><trkpt lat="59.0872192383" lon="29.9895000458"><time>2026-04-22T10:04:35Z</time></trkpt><trkpt lat="59.0872192383" lon="29.9895000458"><time>2026-04-22T10:04:38Z</time></trkpt><trkpt lat="59.0872192383" lon="29.9895000458"><time>2026-04-22T10:04:40Z</time></trkpt><trkpt lat="59.0872192383" lon="29.9895000458"><time>2026-04-22T10:04:43Z</time></trkpt><trkpt lat="59.0872192383" lon="29.9895000458"><time>2026-04-22T10:04:45Z</time></trkpt><trkpt lat="59.0872192383" lon="29.9895000458"><time>2026-04-22T10:04:48Z</time></trkpt><trkpt lat="59.0872192383" lon="29.9895000458"><time>2026-04-22T10:04:50Z</time></trkpt><trkpt lat="59.0872406960" lon="29.9895215034"><time>2026-04-22T10:04:53Z</time></trkpt><trkpt lat="59.0872621536" lon="29.9895429611"><time>2026-04-22T10:04:55Z</time></trkpt><trkpt lat="59.0872621536" lon="29.9895429611"><time>2026-04-22T10:04:58Z</time></trkpt><trkpt lat="59.0872836113" lon="29.9895644188"><time>2026-04-22T10:05:00Z</time></trkpt><trkpt lat="59.0873265266" lon="29.9896073341"><time>2026-04-22T10:05:03Z</time></trkpt><trkpt lat="59.0873265266" lon="29.9896287918"><time>2026-04-22T10:05:05Z</time></trkpt><trkpt lat="59.0873265266" lon="29.9896287918"><time>2026-04-22T10:05:08Z</time></trkpt><trkpt lat="59.0873265266" lon="29.9896287918"><time>2026-04-22T10:05:10Z</time></trkpt><trkpt lat="59.0873265266" lon="29.9896287918"><time>2026-04-22T10:05:13Z</time></trkpt><trkpt lat="59.0873265266" lon="29.9896287918"><time>2026-04-22T10:05:15Z</time></trkpt><trkpt lat="59.0873265266" lon="29.9896287918"><time>2026-04-22T10:05:18Z</time></trkpt><trkpt lat="59.0873265266" lon="29.9896287918"><time>2026-04-22T10:05:20Z</time></trkpt><trkpt lat="59.0873265266" lon="29.9896287918"><time>2026-04-22T10:05:23Z</time></trkpt><trkpt lat="59.0873265266" lon="29.9896287918"><time>2026-04-22T10:05:25Z</time></trkpt><trkpt lat="59.0873265266" lon="29.9896287918"><time>2026-04-22T10:05:28Z</time></trkpt><trkpt lat="59.0873694420" lon="29.9896073341"><time>2026-04-22T10:05:30Z</time></trkpt><trkpt lat="59.0873694420" lon="29.9896073341"><time>2026-04-22T10:05:33Z</time></trkpt><trkpt lat="59.0873694420" lon="29.9896073341"><time>2026-04-22T10:05:35Z</time></trkpt><trkpt lat="59.0873694420" lon="29.9896073341"><time>2026-04-22T10:05:38Z</time></trkpt><trkpt lat="59.0873694420" lon="29.9896073341"><time>2026-04-22T10:05:40Z</time></trkpt><trkpt lat="59.0873694420" lon="29.9896073341"><time>2026-04-22T10:05:43Z</time></trkpt><trkpt lat="59.0873694420" lon="29.9896073341"><time>2026-04-22T10:05:45Z</time></trkpt><trkpt lat="59.0873694420" lon="29.9896073341"><time>2026-04-22T10:05:48Z</time></trkpt><trkpt lat="59.0873694420" lon="29.9896073341"><time>2026-04-22T10:05:50Z</time></trkpt><trkpt lat="59.0874552727" lon="29.9896073341"><time>2026-04-22T10:05:53Z</time></trkpt><trkpt lat="59.0876483917" lon="29.9896073341"><time>2026-04-22T10:05:55Z</time></trkpt><trkpt lat="59.0877556801" lon="29.9896073341"><time>2026-04-22T10:05:58Z</time></trkpt><trkpt lat="59.0879273415" lon="29.9896717072"><time>2026-04-22T10:06:00Z</time></trkpt><trkpt lat="59.0880131721" lon="29.9897146225"><time>2026-04-22T10:06:03Z</time></trkpt><trkpt lat="59.0881204605" lon="29.9897575378"><time>2026-04-22T10:06:05Z</time></trkpt><trkpt lat="59.0881848335" lon="29.9898004532"><time>2026-04-22T10:06:08Z</time></trkpt><trkpt lat="59.0882062912" lon="29.9898433685"><time>2026-04-22T10:06:10Z</time></trkpt><trkpt lat="59.0882062912" lon="29.9898433685"><time>2026-04-22T10:06:13Z</time></trkpt><trkpt lat="59.0882492065" lon="29.9898862839"><time>2026-04-22T10:06:15Z</time></trkpt><trkpt lat="59.0882706642" lon="29.9899077415"><time>2026-04-22T10:06:18Z</time></trkpt><trkpt lat="59.0882706642" lon="29.9899077415"><time>2026-04-22T10:06:20Z</time></trkpt><trkpt lat="59.0882706642" lon="29.9899077415"><time>2026-04-22T10:06:23Z</time></trkpt><trkpt lat="59.0882706642" lon="29.9899291992"><time>2026-04-22T10:06:25Z</time></trkpt><trkpt lat="59.0882706642" lon="29.9899291992"><time>2026-04-22T10:06:28Z</time></trkpt><trkpt lat="59.0883135796" lon="29.9900150299"><time>2026-04-22T10:06:30Z</time></trkpt><trkpt lat="59.0883350372" lon="29.9900579453"><time>2026-04-22T10:06:33Z</time></trkpt><trkpt lat="59.0883779526" lon="29.9901008606"><time>2026-04-22T10:06:35Z</time></trkpt><trkpt lat="59.0883779526" lon="29.9901008606"><time>2026-04-22T10:06:38Z</time></trkpt><trkpt lat="59.0883779526" lon="29.9901008606"><time>2026-04-22T10:06:40Z</time></trkpt><trkpt lat="59.0883779526" lon="29.9901008606"><time>2026-04-22T10:06:43Z</time></trkpt><trkpt lat="59.0883994102" lon="29.9901008606"><time>2026-04-22T10:06:45Z</time></trkpt><trkpt lat="59.0884208679" lon="29.9901223183"><time>2026-04-22T10:06:48Z</time></trkpt><trkpt lat="59.0884637833" lon="29.9901437759"><time>2026-04-22T10:06:50Z</time></trkpt><trkpt lat="59.0884637833" lon="29.9901437759"><time>2026-04-22T10:06:53Z</time></trkpt><trkpt lat="59.0884637833" lon="29.9901437759"><time>2026-04-22T10:06:55Z</time></trkpt><trkpt lat="59.0884637833" lon="29.9901437759"><time>2026-04-22T10:06:58Z</time></trkpt><trkpt lat="59.0884637833" lon="29.9901437759"><time>2026-04-22T10:07:00Z</time></trkpt><trkpt lat="59.0884637833" lon="29.9901437759"><time>2026-04-22T10:07:03Z</time></trkpt><trkpt lat="59.0884637833" lon="29.9901437759"><time>2026-04-22T10:07:05Z</time></trkpt><trkpt lat="59.0884637833" lon="29.9901437759"><time>2026-04-22T10:07:08Z</time></trkpt><trkpt lat="59.0885066986" lon="29.9901437759"><time>2026-04-22T10:07:10Z</time></trkpt><trkpt lat="59.0885281563" lon="29.9901223183"><time>2026-04-22T10:07:13Z</time></trkpt><trkpt lat="59.0885710716" lon="29.9901437759"><time>2026-04-22T10:07:15Z</time></trkpt><trkpt lat="59.0886139870" lon="29.9901652336"><time>2026-04-22T10:07:18Z</time></trkpt><trkpt lat="59.0886354446" lon="29.9901866913"><time>2026-04-22T10:07:20Z</time></trkpt><trkpt lat="59.0886569023" lon="29.9901866913"><time>2026-04-22T10:07:23Z</time></trkpt><trkpt lat="59.0886569023" lon="29.9901866913"><time>2026-04-22T10:07:25Z</time></trkpt><trkpt lat="59.0886569023" lon="29.9901866913"><time>2026-04-22T10:07:28Z</time></trkpt><trkpt lat="59.0886569023" lon="29.9901866913"><time>2026-04-22T10:07:30Z</time></trkpt><trkpt lat="59.0886569023" lon="29.9901866913"><time>2026-04-22T10:07:33Z</time></trkpt><trkpt lat="59.0886998177" lon="29.9902081490"><time>2026-04-22T10:07:35Z</time></trkpt><trkpt lat="59.0886998177" lon="29.9902081490"><time>2026-04-22T10:07:38Z</time></trkpt><trkpt lat="59.0886998177" lon="29.9902081490"><time>2026-04-22T10:07:40Z</time></trkpt><trkpt lat="59.0887212753" lon="29.9901866913"><time>2026-04-22T10:07:43Z</time></trkpt><trkpt lat="59.0887641907" lon="29.9901437759"><time>2026-04-22T10:07:45Z</time></trkpt><trkpt lat="59.0888071060" lon="29.9901223183"><time>2026-04-22T10:07:48Z</time></trkpt><trkpt lat="59.0888285637" lon="29.9901223183"><time>2026-04-22T10:07:50Z</time></trkpt><trkpt lat="59.0888285637" lon="29.9901223183"><time>2026-04-22T10:07:53Z</time></trkpt><trkpt lat="59.0888285637" lon="29.9901223183"><time>2026-04-22T10:07:55Z</time></trkpt><trkpt lat="59.0888285637" lon="29.9901223183"><time>2026-04-22T10:07:58Z</time></trkpt><trkpt lat="59.0888285637" lon="29.9901223183"><time>2026-04-22T10:08:00Z</time></trkpt><trkpt lat="59.0888285637" lon="29.9901223183"><time>2026-04-22T10:08:03Z</time></trkpt><trkpt lat="59.0888285637" lon="29.9901223183"><time>2026-04-22T10:08:05Z</time></trkpt><trkpt lat="59.0888285637" lon="29.9901223183"><time>2026-04-22T10:08:08Z</time></trkpt><trkpt lat="59.0888285637" lon="29.9901223183"><time>2026-04-22T10:08:10Z</time></trkpt><trkpt lat="59.0888929367" lon="29.9901008606"><time>2026-04-22T10:08:15Z</time></trkpt><trkpt lat="59.0889358521" lon="29.9901223183"><time>2026-04-22T10:08:18Z</time></trkpt><trkpt lat="59.0889573097" lon="29.9901223183"><time>2026-04-22T10:08:20Z</time></trkpt><trkpt lat="59.0889573097" lon="29.9901223183"><time>2026-04-22T10:08:23Z</time></trkpt><trkpt lat="59.0889573097" lon="29.9901223183"><time>2026-04-22T10:08:25Z</time></trkpt><trkpt lat="59.0889573097" lon="29.9901223183"><time>2026-04-22T10:08:28Z</time></trkpt><trkpt lat="59.0889573097" lon="29.9901223183"><time>2026-04-22T10:08:30Z</time></trkpt><trkpt lat="59.0889573097" lon="29.9901223183"><time>2026-04-22T10:08:33Z</time></trkpt><trkpt lat="59.0889573097" lon="29.9901223183"><time>2026-04-22T10:08:35Z</time></trkpt><trkpt lat="59.0889573097" lon="29.9901223183"><time>2026-04-22T10:08:38Z</time></trkpt><trkpt lat="59.0889573097" lon="29.9901223183"><time>2026-04-22T10:08:40Z</time></trkpt><trkpt lat="59.0889787674" lon="29.9901223183"><time>2026-04-22T10:08:43Z</time></trkpt><trkpt lat="59.0890216827" lon="29.9901437759"><time>2026-04-22T10:08:45Z</time></trkpt><trkpt lat="59.0890216827" lon="29.9901437759"><time>2026-04-22T10:08:48Z</time></trkpt><trkpt lat="59.0890431404" lon="29.9901437759"><time>2026-04-22T10:08:50Z</time></trkpt><trkpt lat="59.0890860558" lon="29.9901652336"><time>2026-04-22T10:08:53Z</time></trkpt><trkpt lat="59.0891075134" lon="29.9901866913"><time>2026-04-22T10:08:55Z</time></trkpt><trkpt lat="59.0891075134" lon="29.9901652336"><time>2026-04-22T10:08:58Z</time></trkpt><trkpt lat="59.0891289711" lon="29.9901866913"><time>2026-04-22T10:09:00Z</time></trkpt><trkpt lat="59.0891718864" lon="29.9902081490"><time>2026-04-22T10:09:03Z</time></trkpt><trkpt lat="59.0891933441" lon="29.9902296066"><time>2026-04-22T10:09:05Z</time></trkpt><trkpt lat="59.0892148018" lon="29.9902939796"><time>2026-04-22T10:09:08Z</time></trkpt><trkpt lat="59.0892577171" lon="29.9903583527"><time>2026-04-22T10:09:10Z</time></trkpt><trkpt lat="59.0892791748" lon="29.9904012680"><time>2026-04-22T10:09:13Z</time></trkpt><trkpt lat="59.0893220901" lon="29.9904227257"><time>2026-04-22T10:09:15Z</time></trkpt><trkpt lat="59.0893220901" lon="29.9904227257"><time>2026-04-22T10:09:18Z</time></trkpt><trkpt lat="59.0893220901" lon="29.9904227257"><time>2026-04-22T10:09:20Z</time></trkpt><trkpt lat="59.0893220901" lon="29.9904227257"><time>2026-04-22T10:09:23Z</time></trkpt><trkpt lat="59.0893435478" lon="29.9904227257"><time>2026-04-22T10:09:25Z</time></trkpt><trkpt lat="59.0893650055" lon="29.9904227257"><time>2026-04-22T10:09:28Z</time></trkpt><trkpt lat="59.0893650055" lon="29.9904227257"><time>2026-04-22T10:09:30Z</time></trkpt><trkpt lat="59.0893650055" lon="29.9904227257"><time>2026-04-22T10:09:33Z</time></trkpt><trkpt lat="59.0893650055" lon="29.9904227257"><time>2026-04-22T10:09:35Z</time></trkpt><trkpt lat="59.0893650055" lon="29.9903798103"><time>2026-04-22T10:09:38Z</time></trkpt><trkpt lat="59.0893650055" lon="29.9903583527"><time>2026-04-22T10:09:40Z</time></trkpt><trkpt lat="59.0893864632" lon="29.9903583527"><time>2026-04-22T10:09:43Z</time></trkpt><trkpt lat="59.0894079208" lon="29.9903798103"><time>2026-04-22T10:09:45Z</time></trkpt><trkpt lat="59.0894293785" lon="29.9903798103"><time>2026-04-22T10:09:48Z</time></trkpt><trkpt lat="59.0894508362" lon="29.9904012680"><time>2026-04-22T10:09:50Z</time></trkpt><trkpt lat="59.0894722939" lon="29.9904012680"><time>2026-04-22T10:09:53Z</time></trkpt><trkpt lat="59.0894937515" lon="29.9903154373"><time>2026-04-22T10:09:55Z</time></trkpt><trkpt lat="59.0895152092" lon="29.9902296066"><time>2026-04-22T10:09:58Z</time></trkpt><trkpt lat="59.0895366669" lon="29.9901223183"><time>2026-04-22T10:10:00Z</time></trkpt><trkpt lat="59.0895581245" lon="29.9900794029"><time>2026-04-22T10:10:03Z</time></trkpt><trkpt lat="59.0895581245" lon="29.9901008606"><time>2026-04-22T10:10:05Z</time></trkpt><trkpt lat="59.0895581245" lon="29.9901008606"><time>2026-04-22T10:10:08Z</time></trkpt><trkpt lat="59.0895795822" lon="29.9901437759"><time>2026-04-22T10:10:10Z</time></trkpt><trkpt lat="59.0896010399" lon="29.9902296066"><time>2026-04-22T10:10:13Z</time></trkpt><trkpt lat="59.0895795822" lon="29.9902939796"><time>2026-04-22T10:10:15Z</time></trkpt><trkpt lat="59.0895795822" lon="29.9903154373"><time>2026-04-22T10:10:18Z</time></trkpt><trkpt lat="59.0895795822" lon="29.9903368950"><time>2026-04-22T10:10:20Z</time></trkpt><trkpt lat="59.0895795822" lon="29.9903368950"><time>2026-04-22T10:10:23Z</time></trkpt><trkpt lat="59.0895795822" lon="29.9903583527"><time>2026-04-22T10:10:25Z</time></trkpt><trkpt lat="59.0895795822" lon="29.9903583527"><time>2026-04-22T10:10:28Z</time></trkpt><trkpt lat="59.0895795822" lon="29.9904227257"><time>2026-04-22T10:10:30Z</time></trkpt><trkpt lat="59.0895795822" lon="29.9904227257"><time>2026-04-22T10:10:33Z</time></trkpt><trkpt lat="59.0896224976" lon="29.9904227257"><time>2026-04-22T10:10:35Z</time></trkpt><trkpt lat="59.0896439552" lon="29.9904870987"><time>2026-04-22T10:10:38Z</time></trkpt><trkpt lat="59.0896439552" lon="29.9905085564"><time>2026-04-22T10:10:40Z</time></trkpt><trkpt lat="59.0896439552" lon="29.9905085564"><time>2026-04-22T10:10:43Z</time></trkpt><trkpt lat="59.0896439552" lon="29.9905085564"><time>2026-04-22T10:10:45Z</time></trkpt><trkpt lat="59.0896439552" lon="29.9905085564"><time>2026-04-22T10:10:48Z</time></trkpt><trkpt lat="59.0896439552" lon="29.9905514717"><time>2026-04-22T10:10:50Z</time></trkpt><trkpt lat="59.0896654129" lon="29.9905943871"><time>2026-04-22T10:10:53Z</time></trkpt><trkpt lat="59.0896654129" lon="29.9905729294"><time>2026-04-22T10:10:55Z</time></trkpt><trkpt lat="59.0896868706" lon="29.9905514717"><time>2026-04-22T10:10:58Z</time></trkpt><trkpt lat="59.0896868706" lon="29.9905300140"><time>2026-04-22T10:11:00Z</time></trkpt><trkpt lat="59.0896868706" lon="29.9905300140"><time>2026-04-22T10:11:03Z</time></trkpt><trkpt lat="59.0896868706" lon="29.9905300140"><time>2026-04-22T10:11:05Z</time></trkpt><trkpt lat="59.0896868706" lon="29.9905300140"><time>2026-04-22T10:11:08Z</time></trkpt><trkpt lat="59.0897083282" lon="29.9905300140"><time>2026-04-22T10:11:10Z</time></trkpt><trkpt lat="59.0897083282" lon="29.9905300140"><time>2026-04-22T10:11:13Z</time></trkpt><trkpt lat="59.0897297859" lon="29.9905300140"><time>2026-04-22T10:11:15Z</time></trkpt><trkpt lat="59.0897297859" lon="29.9905300140"><time>2026-04-22T10:11:18Z</time></trkpt><trkpt lat="59.0897297859" lon="29.9905300140"><time>2026-04-22T10:11:20Z</time></trkpt><trkpt lat="59.0897297859" lon="29.9905300140"><time>2026-04-22T10:11:23Z</time></trkpt><trkpt lat="59.0897297859" lon="29.9905300140"><time>2026-04-22T10:11:25Z</time></trkpt><trkpt lat="59.0897297859" lon="29.9905300140"><time>2026-04-22T10:11:28Z</time></trkpt><trkpt lat="59.0897297859" lon="29.9905300140"><time>2026-04-22T10:11:30Z</time></trkpt><trkpt lat="59.0897297859" lon="29.9905300140"><time>2026-04-22T10:11:33Z</time></trkpt><trkpt lat="59.0897512436" lon="29.9905300140"><time>2026-04-22T10:11:35Z</time></trkpt><trkpt lat="59.0897727013" lon="29.9905300140"><time>2026-04-22T10:11:38Z</time></trkpt><trkpt lat="59.0897727013" lon="29.9905300140"><time>2026-04-22T10:11:40Z</time></trkpt><trkpt lat="59.0897727013" lon="29.9905300140"><time>2026-04-22T10:11:43Z</time></trkpt><trkpt lat="59.0897727013" lon="29.9905300140"><time>2026-04-22T10:11:45Z</time></trkpt><trkpt lat="59.0897727013" lon="29.9905300140"><time>2026-04-22T10:11:48Z</time></trkpt><trkpt lat="59.0897727013" lon="29.9905300140"><time>2026-04-22T10:11:50Z</time></trkpt><trkpt lat="59.0897727013" lon="29.9905300140"><time>2026-04-22T10:11:55Z</time></trkpt><trkpt lat="59.0897727013" lon="29.9905300140"><time>2026-04-22T10:11:58Z</time></trkpt><trkpt lat="59.0897727013" lon="29.9905300140"><time>2026-04-22T10:12:00Z</time></trkpt><trkpt lat="59.0897727013" lon="29.9905300140"><time>2026-04-22T10:12:03Z</time></trkpt><trkpt lat="59.0897727013" lon="29.9905300140"><time>2026-04-22T10:12:05Z</time></trkpt><trkpt lat="59.0897727013" lon="29.9905300140"><time>2026-04-22T10:12:08Z</time></trkpt><trkpt lat="59.0897727013" lon="29.9905300140"><time>2026-04-22T10:12:10Z</time></trkpt><trkpt lat="59.0897727013" lon="29.9905300140"><time>2026-04-22T10:12:13Z</time></trkpt><trkpt lat="59.0897727013" lon="29.9905300140"><time>2026-04-22T10:12:15Z</time></trkpt><trkpt lat="59.0897727013" lon="29.9905300140"><time>2026-04-22T10:12:18Z</time></trkpt><trkpt lat="59.0897727013" lon="29.9905300140"><time>2026-04-22T10:12:20Z</time></trkpt><trkpt lat="59.0897727013" lon="29.9905300140"><time>2026-04-22T10:12:23Z</time></trkpt><trkpt lat="59.0897727013" lon="29.9905300140"><time>2026-04-22T10:12:25Z</time></trkpt><trkpt lat="59.0897727013" lon="29.9905300140"><time>2026-04-22T10:12:28Z</time></trkpt><trkpt lat="59.0897727013" lon="29.9905300140"><time>2026-04-22T10:12:30Z</time></trkpt><trkpt lat="59.0897727013" lon="29.9905300140"><time>2026-04-22T10:12:33Z</time></trkpt><trkpt lat="59.0897727013" lon="29.9905300140"><time>2026-04-22T10:12:36Z</time></trkpt><trkpt lat="59.0897727013" lon="29.9905300140"><time>2026-04-22T10:12:38Z</time></trkpt><trkpt lat="59.0897727013" lon="29.9905300140"><time>2026-04-22T10:12:40Z</time></trkpt><trkpt lat="59.0897727013" lon="29.9905300140"><time>2026-04-22T10:12:43Z</time></trkpt><trkpt lat="59.0897727013" lon="29.9905300140"><time>2026-04-22T10:12:45Z</time></trkpt><trkpt lat="59.0897727013" lon="29.9905300140"><time>2026-04-22T10:12:48Z</time></trkpt><trkpt lat="59.0897727013" lon="29.9905300140"><time>2026-04-22T10:12:50Z</time></trkpt><trkpt lat="59.0897727013" lon="29.9905300140"><time>2026-04-22T10:12:53Z</time></trkpt><trkpt lat="59.0897727013" lon="29.9905300140"><time>2026-04-22T10:12:55Z</time></trkpt><trkpt lat="59.0897727013" lon="29.9905300140"><time>2026-04-22T10:12:58Z</time></trkpt><trkpt lat="59.0897727013" lon="29.9905300140"><time>2026-04-22T10:13:00Z</time></trkpt><trkpt lat="59.0897727013" lon="29.9905514717"><time>2026-04-22T10:13:05Z</time></trkpt><trkpt lat="59.0897727013" lon="29.9905514717"><time>2026-04-22T10:13:08Z</time></trkpt><trkpt lat="59.0897727013" lon="29.9905514717"><time>2026-04-22T10:13:10Z</time></trkpt><trkpt lat="59.0897727013" lon="29.9905514717"><time>2026-04-22T10:13:13Z</time></trkpt><trkpt lat="59.0897727013" lon="29.9905514717"><time>2026-04-22T10:13:15Z</time></trkpt><trkpt lat="59.0897727013" lon="29.9905514717"><time>2026-04-22T10:13:18Z</time></trkpt><trkpt lat="59.0897727013" lon="29.9905514717"><time>2026-04-22T10:13:20Z</time></trkpt><trkpt lat="59.0897727013" lon="29.9905300140"><time>2026-04-22T10:13:23Z</time></trkpt><trkpt lat="59.0897727013" lon="29.9905300140"><time>2026-04-22T10:13:25Z</time></trkpt><trkpt lat="59.0897727013" lon="29.9905300140"><time>2026-04-22T10:13:28Z</time></trkpt><trkpt lat="59.0897727013" lon="29.9905085564"><time>2026-04-22T10:13:30Z</time></trkpt><trkpt lat="59.0897727013" lon="29.9905085564"><time>2026-04-22T10:13:33Z</time></trkpt><trkpt lat="59.0897727013" lon="29.9905085564"><time>2026-04-22T10:13:35Z</time></trkpt><trkpt lat="59.0897727013" lon="29.9905085564"><time>2026-04-22T10:13:38Z</time></trkpt><trkpt lat="59.0897727013" lon="29.9905085564"><time>2026-04-22T10:13:40Z</time></trkpt><trkpt lat="59.0897727013" lon="29.9905085564"><time>2026-04-22T10:13:43Z</time></trkpt><trkpt lat="59.0897727013" lon="29.9905085564"><time>2026-04-22T10:13:45Z</time></trkpt><trkpt lat="59.0897727013" lon="29.9905085564"><time>2026-04-22T10:13:48Z</time></trkpt><trkpt lat="59.0897727013" lon="29.9905085564"><time>2026-04-22T10:13:50Z</time></trkpt><trkpt lat="59.0897727013" lon="29.9905085564"><time>2026-04-22T10:13:53Z</time></trkpt><trkpt lat="59.0897727013" lon="29.9905085564"><time>2026-04-22T10:13:55Z</time></trkpt><trkpt lat="59.0897727013" lon="29.9905085564"><time>2026-04-22T10:13:58Z</time></trkpt><trkpt lat="59.0897727013" lon="29.9905085564"><time>2026-04-22T10:14:00Z</time></trkpt><trkpt lat="59.0897727013" lon="29.9905085564"><time>2026-04-22T10:14:03Z</time></trkpt><trkpt lat="59.0897727013" lon="29.9905085564"><time>2026-04-22T10:14:05Z</time></trkpt><trkpt lat="59.0897727013" lon="29.9905085564"><time>2026-04-22T10:14:08Z</time></trkpt><trkpt lat="59.0897941589" lon="29.9904870987"><time>2026-04-22T10:14:10Z</time></trkpt><trkpt lat="59.0897941589" lon="29.9904870987"><time>2026-04-22T10:14:13Z</time></trkpt><trkpt lat="59.0897941589" lon="29.9904870987"><time>2026-04-22T10:14:15Z</time></trkpt><trkpt lat="59.0897941589" lon="29.9904870987"><time>2026-04-22T10:14:18Z</time></trkpt><trkpt lat="59.0897941589" lon="29.9904870987"><time>2026-04-22T10:14:20Z</time></trkpt><trkpt lat="59.0897941589" lon="29.9904870987"><time>2026-04-22T10:14:23Z</time></trkpt><trkpt lat="59.0897941589" lon="29.9904870987"><time>2026-04-22T10:14:25Z</time></trkpt><trkpt lat="59.0897941589" lon="29.9904870987"><time>2026-04-22T10:14:28Z</time></trkpt><trkpt lat="59.0897941589" lon="29.9904870987"><time>2026-04-22T10:14:30Z</time></trkpt><trkpt lat="59.0897941589" lon="29.9904870987"><time>2026-04-22T10:14:33Z</time></trkpt><trkpt lat="59.0897941589" lon="29.9904870987"><time>2026-04-22T10:14:35Z</time></trkpt><trkpt lat="59.0897941589" lon="29.9904870987"><time>2026-04-22T10:14:38Z</time></trkpt><trkpt lat="59.0897941589" lon="29.9904870987"><time>2026-04-22T10:14:40Z</time></trkpt><trkpt lat="59.0897941589" lon="29.9904870987"><time>2026-04-22T10:14:43Z</time></trkpt><trkpt lat="59.0897941589" lon="29.9904870987"><time>2026-04-22T10:14:45Z</time></trkpt><trkpt lat="59.0897941589" lon="29.9904870987"><time>2026-04-22T10:14:48Z</time></trkpt><trkpt lat="59.0897941589" lon="29.9904870987"><time>2026-04-22T10:14:50Z</time></trkpt><trkpt lat="59.0897941589" lon="29.9904870987"><time>2026-04-22T10:14:53Z</time></trkpt><trkpt lat="59.0898156166" lon="29.9904656410"><time>2026-04-22T10:14:55Z</time></trkpt><trkpt lat="59.0898156166" lon="29.9904656410"><time>2026-04-22T10:14:58Z</time></trkpt><trkpt lat="59.0898156166" lon="29.9904441833"><time>2026-04-22T10:15:00Z</time></trkpt><trkpt lat="59.0898370743" lon="29.9904227257"><time>2026-04-22T10:15:03Z</time></trkpt><trkpt lat="59.0898370743" lon="29.9904012680"><time>2026-04-22T10:15:05Z</time></trkpt><trkpt lat="59.0898370743" lon="29.9904012680"><time>2026-04-22T10:15:08Z</time></trkpt><trkpt lat="59.0898585320" lon="29.9904012680"><time>2026-04-22T10:15:10Z</time></trkpt><trkpt lat="59.0898585320" lon="29.9903798103"><time>2026-04-22T10:15:13Z</time></trkpt><trkpt lat="59.0898799896" lon="29.9903154373"><time>2026-04-22T10:15:15Z</time></trkpt><trkpt lat="59.0899014473" lon="29.9903154373"><time>2026-04-22T10:15:18Z</time></trkpt><trkpt lat="59.0899014473" lon="29.9903154373"><time>2026-04-22T10:15:20Z</time></trkpt><trkpt lat="59.0899229050" lon="29.9903154373"><time>2026-04-22T10:15:23Z</time></trkpt><trkpt lat="59.0899229050" lon="29.9903154373"><time>2026-04-22T10:15:25Z</time></trkpt><trkpt lat="59.0899229050" lon="29.9903154373"><time>2026-04-22T10:15:28Z</time></trkpt><trkpt lat="59.0899229050" lon="29.9903154373"><time>2026-04-22T10:15:30Z</time></trkpt><trkpt lat="59.0899229050" lon="29.9903154373"><time>2026-04-22T10:15:33Z</time></trkpt><trkpt lat="59.0899658203" lon="29.9902939796"><time>2026-04-22T10:15:35Z</time></trkpt><trkpt lat="59.0899872780" lon="29.9902725220"><time>2026-04-22T10:15:38Z</time></trkpt><trkpt lat="59.0899872780" lon="29.9902510643"><time>2026-04-22T10:15:40Z</time></trkpt><trkpt lat="59.0900087357" lon="29.9901866913"><time>2026-04-22T10:15:43Z</time></trkpt><trkpt lat="59.0900087357" lon="29.9901008606"><time>2026-04-22T10:15:45Z</time></trkpt><trkpt lat="59.0900301933" lon="29.9900579453"><time>2026-04-22T10:15:48Z</time></trkpt><trkpt lat="59.0900301933" lon="29.9900364876"><time>2026-04-22T10:15:50Z</time></trkpt><trkpt lat="59.0900516510" lon="29.9900364876"><time>2026-04-22T10:15:53Z</time></trkpt><trkpt lat="59.0900516510" lon="29.9900364876"><time>2026-04-22T10:15:55Z</time></trkpt><trkpt lat="59.0900516510" lon="29.9900364876"><time>2026-04-22T10:15:58Z</time></trkpt><trkpt lat="59.0900516510" lon="29.9900364876"><time>2026-04-22T10:16:00Z</time></trkpt><trkpt lat="59.0900516510" lon="29.9900364876"><time>2026-04-22T10:16:03Z</time></trkpt><trkpt lat="59.0900516510" lon="29.9900364876"><time>2026-04-22T10:16:05Z</time></trkpt><trkpt lat="59.0900516510" lon="29.9899935722"><time>2026-04-22T10:16:08Z</time></trkpt><trkpt lat="59.0900301933" lon="29.9899506569"><time>2026-04-22T10:16:10Z</time></trkpt><trkpt lat="59.0900301933" lon="29.9899291992"><time>2026-04-22T10:16:13Z</time></trkpt><trkpt lat="59.0900301933" lon="29.9899077415"><time>2026-04-22T10:16:15Z</time></trkpt><trkpt lat="59.0900301933" lon="29.9899077415"><time>2026-04-22T10:16:18Z</time></trkpt><trkpt lat="59.0900087357" lon="29.9898433685"><time>2026-04-22T10:16:20Z</time></trkpt><trkpt lat="59.0900087357" lon="29.9898004532"><time>2026-04-22T10:16:23Z</time></trkpt><trkpt lat="59.0900301933" lon="29.9897575378"><time>2026-04-22T10:16:25Z</time></trkpt><trkpt lat="59.0900087357" lon="29.9897360802"><time>2026-04-22T10:16:28Z</time></trkpt><trkpt lat="59.0900087357" lon="29.9897146225"><time>2026-04-22T10:16:30Z</time></trkpt><trkpt lat="59.0900087357" lon="29.9897146225"><time>2026-04-22T10:16:33Z</time></trkpt><trkpt lat="59.0900087357" lon="29.9896502495"><time>2026-04-22T10:16:38Z</time></trkpt><trkpt lat="59.0900087357" lon="29.9895644188"><time>2026-04-22T10:16:40Z</time></trkpt><trkpt lat="59.0900087357" lon="29.9895644188"><time>2026-04-22T10:16:43Z</time></trkpt><trkpt lat="59.0900087357" lon="29.9895429611"><time>2026-04-22T10:16:45Z</time></trkpt><trkpt lat="59.0899872780" lon="29.9895215034"><time>2026-04-22T10:16:48Z</time></trkpt><trkpt lat="59.0899872780" lon="29.9894785881"><time>2026-04-22T10:16:50Z</time></trkpt><trkpt lat="59.0899658203" lon="29.9893927574"><time>2026-04-22T10:16:53Z</time></trkpt><trkpt lat="59.0899658203" lon="29.9892854691"><time>2026-04-22T10:16:55Z</time></trkpt><trkpt lat="59.0899658203" lon="29.9892425537"><time>2026-04-22T10:16:58Z</time></trkpt><trkpt lat="59.0899443626" lon="29.9892210960"><time>2026-04-22T10:17:00Z</time></trkpt><trkpt lat="59.0899443626" lon="29.9892210960"><time>2026-04-22T10:17:03Z</time></trkpt><trkpt lat="59.0899443626" lon="29.9892210960"><time>2026-04-22T10:17:05Z</time></trkpt><trkpt lat="59.0899443626" lon="29.9892210960"><time>2026-04-22T10:17:08Z</time></trkpt><trkpt lat="59.0899443626" lon="29.9892210960"><time>2026-04-22T10:17:10Z</time></trkpt><trkpt lat="59.0899443626" lon="29.9891996384"><time>2026-04-22T10:17:13Z</time></trkpt><trkpt lat="59.0899658203" lon="29.9891352654"><time>2026-04-22T10:17:15Z</time></trkpt><trkpt lat="59.0899443626" lon="29.9890923500"><time>2026-04-22T10:17:18Z</time></trkpt><trkpt lat="59.0899443626" lon="29.9890708923"><time>2026-04-22T10:17:20Z</time></trkpt><trkpt lat="59.0899443626" lon="29.9890708923"><time>2026-04-22T10:17:23Z</time></trkpt><trkpt lat="59.0899443626" lon="29.9890494347"><time>2026-04-22T10:17:25Z</time></trkpt><trkpt lat="59.0899229050" lon="29.9889850616"><time>2026-04-22T10:17:30Z</time></trkpt><trkpt lat="59.0898799896" lon="29.9889850616"><time>2026-04-22T10:17:33Z</time></trkpt><trkpt lat="59.0898799896" lon="29.9889636040"><time>2026-04-22T10:17:35Z</time></trkpt><trkpt lat="59.0898799896" lon="29.9889636040"><time>2026-04-22T10:17:38Z</time></trkpt><trkpt lat="59.0898799896" lon="29.9889636040"><time>2026-04-22T10:17:40Z</time></trkpt><trkpt lat="59.0898799896" lon="29.9889636040"><time>2026-04-22T10:17:43Z</time></trkpt><trkpt lat="59.0898585320" lon="29.9889850616"><time>2026-04-22T10:17:45Z</time></trkpt><trkpt lat="59.0898585320" lon="29.9889850616"><time>2026-04-22T10:17:48Z</time></trkpt><trkpt lat="59.0898585320" lon="29.9889850616"><time>2026-04-22T10:17:50Z</time></trkpt><trkpt lat="59.0898585320" lon="29.9889850616"><time>2026-04-22T10:17:53Z</time></trkpt><trkpt lat="59.0898585320" lon="29.9889850616"><time>2026-04-22T10:17:55Z</time></trkpt><trkpt lat="59.0898585320" lon="29.9889850616"><time>2026-04-22T10:17:58Z</time></trkpt><trkpt lat="59.0898370743" lon="29.9889850616"><time>2026-04-22T10:18:00Z</time></trkpt><trkpt lat="59.0898370743" lon="29.9889850616"><time>2026-04-22T10:18:03Z</time></trkpt><trkpt lat="59.0898370743" lon="29.9889421463"><time>2026-04-22T10:18:05Z</time></trkpt><trkpt lat="59.0898156166" lon="29.9889206886"><time>2026-04-22T10:18:08Z</time></trkpt><trkpt lat="59.0898156166" lon="29.9889206886"><time>2026-04-22T10:18:10Z</time></trkpt><trkpt lat="59.0898156166" lon="29.9889206886"><time>2026-04-22T10:18:13Z</time></trkpt><trkpt lat="59.0898156166" lon="29.9889206886"><time>2026-04-22T10:18:15Z</time></trkpt><trkpt lat="59.0897941589" lon="29.9889421463"><time>2026-04-22T10:18:18Z</time></trkpt><trkpt lat="59.0897727013" lon="29.9889421463"><time>2026-04-22T10:18:20Z</time></trkpt><trkpt lat="59.0897727013" lon="29.9889636040"><time>2026-04-22T10:18:23Z</time></trkpt><trkpt lat="59.0897727013" lon="29.9889636040"><time>2026-04-22T10:18:25Z</time></trkpt><trkpt lat="59.0897727013" lon="29.9889850616"><time>2026-04-22T10:18:28Z</time></trkpt><trkpt lat="59.0897727013" lon="29.9889850616"><time>2026-04-22T10:18:30Z</time></trkpt><trkpt lat="59.0897512436" lon="29.9889850616"><time>2026-04-22T10:18:33Z</time></trkpt><trkpt lat="59.0897512436" lon="29.9889850616"><time>2026-04-22T10:18:35Z</time></trkpt><trkpt lat="59.0897512436" lon="29.9889850616"><time>2026-04-22T10:18:38Z</time></trkpt><trkpt lat="59.0897512436" lon="29.9889850616"><time>2026-04-22T10:18:40Z</time></trkpt><trkpt lat="59.0897512436" lon="29.9889636040"><time>2026-04-22T10:18:43Z</time></trkpt><trkpt lat="59.0897512436" lon="29.9889636040"><time>2026-04-22T10:18:45Z</time></trkpt><trkpt lat="59.0897297859" lon="29.9889421463"><time>2026-04-22T10:18:48Z</time></trkpt><trkpt lat="59.0897297859" lon="29.9889421463"><time>2026-04-22T10:18:50Z</time></trkpt><trkpt lat="59.0897297859" lon="29.9889421463"><time>2026-04-22T10:18:53Z</time></trkpt><trkpt lat="59.0897083282" lon="29.9889421463"><time>2026-04-22T10:18:55Z</time></trkpt><trkpt lat="59.0897083282" lon="29.9889421463"><time>2026-04-22T10:18:58Z</time></trkpt><trkpt lat="59.0896868706" lon="29.9889206886"><time>2026-04-22T10:19:00Z</time></trkpt><trkpt lat="59.0896439552" lon="29.9889421463"><time>2026-04-22T10:19:03Z</time></trkpt><trkpt lat="59.0896439552" lon="29.9889421463"><time>2026-04-22T10:19:05Z</time></trkpt><trkpt lat="59.0896439552" lon="29.9889421463"><time>2026-04-22T10:19:08Z</time></trkpt><trkpt lat="59.0896010399" lon="29.9888992310"><time>2026-04-22T10:19:10Z</time></trkpt><trkpt lat="59.0896010399" lon="29.9889206886"><time>2026-04-22T10:19:13Z</time></trkpt><trkpt lat="59.0895795822" lon="29.9889421463"><time>2026-04-22T10:19:15Z</time></trkpt><trkpt lat="59.0895795822" lon="29.9889421463"><time>2026-04-22T10:19:18Z</time></trkpt><trkpt lat="59.0895581245" lon="29.9888992310"><time>2026-04-22T10:19:20Z</time></trkpt><trkpt lat="59.0895581245" lon="29.9888563156"><time>2026-04-22T10:19:23Z</time></trkpt><trkpt lat="59.0895366669" lon="29.9888134003"><time>2026-04-22T10:19:25Z</time></trkpt><trkpt lat="59.0895366669" lon="29.9888134003"><time>2026-04-22T10:19:28Z</time></trkpt><trkpt lat="59.0895581245" lon="29.9888134003"><time>2026-04-22T10:19:30Z</time></trkpt><trkpt lat="59.0895581245" lon="29.9888134003"><time>2026-04-22T10:19:33Z</time></trkpt><trkpt lat="59.0895366669" lon="29.9888134003"><time>2026-04-22T10:19:35Z</time></trkpt><trkpt lat="59.0895152092" lon="29.9887919426"><time>2026-04-22T10:19:38Z</time></trkpt><trkpt lat="59.0894937515" lon="29.9887490273"><time>2026-04-22T10:19:40Z</time></trkpt><trkpt lat="59.0894937515" lon="29.9887275696"><time>2026-04-22T10:19:43Z</time></trkpt><trkpt lat="59.0894937515" lon="29.9887061119"><time>2026-04-22T10:19:45Z</time></trkpt><trkpt lat="59.0894937515" lon="29.9887061119"><time>2026-04-22T10:19:48Z</time></trkpt><trkpt lat="59.0894937515" lon="29.9887061119"><time>2026-04-22T10:19:50Z</time></trkpt><trkpt lat="59.0894937515" lon="29.9887061119"><time>2026-04-22T10:19:53Z</time></trkpt><trkpt lat="59.0894937515" lon="29.9887061119"><time>2026-04-22T10:19:55Z</time></trkpt><trkpt lat="59.0894937515" lon="29.9887061119"><time>2026-04-22T10:19:58Z</time></trkpt><trkpt lat="59.0894937515" lon="29.9887061119"><time>2026-04-22T10:20:00Z</time></trkpt><trkpt lat="59.0894722939" lon="29.9887275696"><time>2026-04-22T10:20:03Z</time></trkpt><trkpt lat="59.0894508362" lon="29.9887490273"><time>2026-04-22T10:20:05Z</time></trkpt><trkpt lat="59.0894508362" lon="29.9887704849"><time>2026-04-22T10:20:08Z</time></trkpt><trkpt lat="59.0893864632" lon="29.9888134003"><time>2026-04-22T10:20:10Z</time></trkpt><trkpt lat="59.0893864632" lon="29.9888134003"><time>2026-04-22T10:20:13Z</time></trkpt><trkpt lat="59.0893864632" lon="29.9888134003"><time>2026-04-22T10:20:15Z</time></trkpt><trkpt lat="59.0893864632" lon="29.9888134003"><time>2026-04-22T10:20:18Z</time></trkpt><trkpt lat="59.0893864632" lon="29.9888134003"><time>2026-04-22T10:20:20Z</time></trkpt><trkpt lat="59.0893864632" lon="29.9888134003"><time>2026-04-22T10:20:23Z</time></trkpt><trkpt lat="59.0893864632" lon="29.9888134003"><time>2026-04-22T10:20:25Z</time></trkpt><trkpt lat="59.0893650055" lon="29.9888348579"><time>2026-04-22T10:20:28Z</time></trkpt><trkpt lat="59.0893435478" lon="29.9888563156"><time>2026-04-22T10:20:30Z</time></trkpt><trkpt lat="59.0893006325" lon="29.9888563156"><time>2026-04-22T10:20:33Z</time></trkpt><trkpt lat="59.0893006325" lon="29.9888563156"><time>2026-04-22T10:20:35Z</time></trkpt><trkpt lat="59.0893006325" lon="29.9888348579"><time>2026-04-22T10:20:38Z</time></trkpt><trkpt lat="59.0892791748" lon="29.9888134003"><time>2026-04-22T10:20:40Z</time></trkpt><trkpt lat="59.0892791748" lon="29.9888134003"><time>2026-04-22T10:20:43Z</time></trkpt><trkpt lat="59.0892791748" lon="29.9888134003"><time>2026-04-22T10:20:45Z</time></trkpt><trkpt lat="59.0892791748" lon="29.9888134003"><time>2026-04-22T10:20:48Z</time></trkpt><trkpt lat="59.0892791748" lon="29.9888134003"><time>2026-04-22T10:20:50Z</time></trkpt><trkpt lat="59.0892791748" lon="29.9888134003"><time>2026-04-22T10:20:53Z</time></trkpt><trkpt lat="59.0892791748" lon="29.9888134003"><time>2026-04-22T10:20:55Z</time></trkpt><trkpt lat="59.0892791748" lon="29.9888134003"><time>2026-04-22T10:20:58Z</time></trkpt><trkpt lat="59.0892791748" lon="29.9888134003"><time>2026-04-22T10:21:00Z</time></trkpt><trkpt lat="59.0892577171" lon="29.9888563156"><time>2026-04-22T10:21:03Z</time></trkpt><trkpt lat="59.0892577171" lon="29.9888777733"><time>2026-04-22T10:21:05Z</time></trkpt><trkpt lat="59.0892362595" lon="29.9888992310"><time>2026-04-22T10:21:08Z</time></trkpt><trkpt lat="59.0892362595" lon="29.9888992310"><time>2026-04-22T10:21:10Z</time></trkpt><trkpt lat="59.0892362595" lon="29.9888992310"><time>2026-04-22T10:21:13Z</time></trkpt><trkpt lat="59.0892362595" lon="29.9888992310"><time>2026-04-22T10:21:15Z</time></trkpt><trkpt lat="59.0892362595" lon="29.9888992310"><time>2026-04-22T10:21:18Z</time></trkpt><trkpt lat="59.0892362595" lon="29.9888992310"><time>2026-04-22T10:21:20Z</time></trkpt><trkpt lat="59.0892362595" lon="29.9888992310"><time>2026-04-22T10:21:23Z</time></trkpt><trkpt lat="59.0892362595" lon="29.9888992310"><time>2026-04-22T10:21:25Z</time></trkpt><trkpt lat="59.0892362595" lon="29.9888992310"><time>2026-04-22T10:21:28Z</time></trkpt><trkpt lat="59.0892362595" lon="29.9888992310"><time>2026-04-22T10:21:30Z</time></trkpt><trkpt lat="59.0892362595" lon="29.9888992310"><time>2026-04-22T10:21:33Z</time></trkpt><trkpt lat="59.0892362595" lon="29.9888992310"><time>2026-04-22T10:21:35Z</time></trkpt><trkpt lat="59.0892362595" lon="29.9888992310"><time>2026-04-22T10:21:38Z</time></trkpt><trkpt lat="59.0892362595" lon="29.9889206886"><time>2026-04-22T10:21:40Z</time></trkpt><trkpt lat="59.0892362595" lon="29.9889421463"><time>2026-04-22T10:21:43Z</time></trkpt><trkpt lat="59.0892362595" lon="29.9889421463"><time>2026-04-22T10:21:45Z</time></trkpt><trkpt lat="59.0892362595" lon="29.9889421463"><time>2026-04-22T10:21:48Z</time></trkpt><trkpt lat="59.0892362595" lon="29.9889421463"><time>2026-04-22T10:21:50Z</time></trkpt><trkpt lat="59.0892362595" lon="29.9889421463"><time>2026-04-22T10:21:53Z</time></trkpt><trkpt lat="59.0892148018" lon="29.9889206886"><time>2026-04-22T10:21:55Z</time></trkpt><trkpt lat="59.0892148018" lon="29.9889206886"><time>2026-04-22T10:21:58Z</time></trkpt><trkpt lat="59.0892148018" lon="29.9889206886"><time>2026-04-22T10:22:00Z</time></trkpt><trkpt lat="59.0891933441" lon="29.9889206886"><time>2026-04-22T10:22:03Z</time></trkpt><trkpt lat="59.0891933441" lon="29.9889206886"><time>2026-04-22T10:22:05Z</time></trkpt><trkpt lat="59.0891933441" lon="29.9889206886"><time>2026-04-22T10:22:08Z</time></trkpt><trkpt lat="59.0891933441" lon="29.9889206886"><time>2026-04-22T10:22:10Z</time></trkpt><trkpt lat="59.0891933441" lon="29.9889206886"><time>2026-04-22T10:22:13Z</time></trkpt><trkpt lat="59.0891718864" lon="29.9889206886"><time>2026-04-22T10:22:15Z</time></trkpt><trkpt lat="59.0891504288" lon="29.9889206886"><time>2026-04-22T10:22:18Z</time></trkpt><trkpt lat="59.0891504288" lon="29.9889206886"><time>2026-04-22T10:22:20Z</time></trkpt><trkpt lat="59.0891289711" lon="29.9888777733"><time>2026-04-22T10:22:23Z</time></trkpt><trkpt lat="59.0891075134" lon="29.9888777733"><time>2026-04-22T10:22:25Z</time></trkpt><trkpt lat="59.0891075134" lon="29.9888777733"><time>2026-04-22T10:22:28Z</time></trkpt><trkpt lat="59.0890645981" lon="29.9888563156"><time>2026-04-22T10:22:30Z</time></trkpt><trkpt lat="59.0890645981" lon="29.9888563156"><time>2026-04-22T10:22:33Z</time></trkpt><trkpt lat="59.0890431404" lon="29.9888563156"><time>2026-04-22T10:22:35Z</time></trkpt><trkpt lat="59.0890431404" lon="29.9888563156"><time>2026-04-22T10:22:38Z</time></trkpt><trkpt lat="59.0890431404" lon="29.9888563156"><time>2026-04-22T10:22:40Z</time></trkpt><trkpt lat="59.0890431404" lon="29.9888563156"><time>2026-04-22T10:22:43Z</time></trkpt><trkpt lat="59.0890431404" lon="29.9888563156"><time>2026-04-22T10:22:45Z</time></trkpt><trkpt lat="59.0890431404" lon="29.9888563156"><time>2026-04-22T10:22:48Z</time></trkpt><trkpt lat="59.0890431404" lon="29.9888563156"><time>2026-04-22T10:22:50Z</time></trkpt><trkpt lat="59.0890431404" lon="29.9888563156"><time>2026-04-22T10:22:53Z</time></trkpt><trkpt lat="59.0890431404" lon="29.9888563156"><time>2026-04-22T10:22:55Z</time></trkpt><trkpt lat="59.0890431404" lon="29.9888563156"><time>2026-04-22T10:22:58Z</time></trkpt><trkpt lat="59.0890431404" lon="29.9888563156"><time>2026-04-22T10:23:00Z</time></trkpt><trkpt lat="59.0890216827" lon="29.9888563156"><time>2026-04-22T10:23:05Z</time></trkpt><trkpt lat="59.0890216827" lon="29.9888563156"><time>2026-04-22T10:23:08Z</time></trkpt><trkpt lat="59.0890216827" lon="29.9888563156"><time>2026-04-22T10:23:10Z</time></trkpt><trkpt lat="59.0890002251" lon="29.9888348579"><time>2026-04-22T10:23:13Z</time></trkpt><trkpt lat="59.0889787674" lon="29.9887704849"><time>2026-04-22T10:23:15Z</time></trkpt><trkpt lat="59.0889573097" lon="29.9887490273"><time>2026-04-22T10:23:18Z</time></trkpt><trkpt lat="59.0889358521" lon="29.9887275696"><time>2026-04-22T10:23:20Z</time></trkpt><trkpt lat="59.0888929367" lon="29.9887061119"><time>2026-04-22T10:23:23Z</time></trkpt><trkpt lat="59.0888929367" lon="29.9887061119"><time>2026-04-22T10:23:25Z</time></trkpt><trkpt lat="59.0888929367" lon="29.9887061119"><time>2026-04-22T10:23:28Z</time></trkpt><trkpt lat="59.0888714790" lon="29.9887275696"><time>2026-04-22T10:23:30Z</time></trkpt><trkpt lat="59.0888714790" lon="29.9887275696"><time>2026-04-22T10:23:33Z</time></trkpt><trkpt lat="59.0888714790" lon="29.9887275696"><time>2026-04-22T10:23:35Z</time></trkpt><trkpt lat="59.0888714790" lon="29.9887275696"><time>2026-04-22T10:23:38Z</time></trkpt><trkpt lat="59.0888714790" lon="29.9887275696"><time>2026-04-22T10:23:40Z</time></trkpt><trkpt lat="59.0888714790" lon="29.9887275696"><time>2026-04-22T10:23:43Z</time></trkpt><trkpt lat="59.0888714790" lon="29.9887275696"><time>2026-04-22T10:23:45Z</time></trkpt><trkpt lat="59.0888714790" lon="29.9887275696"><time>2026-04-22T10:23:48Z</time></trkpt><trkpt lat="59.0888714790" lon="29.9887275696"><time>2026-04-22T10:23:50Z</time></trkpt><trkpt lat="59.0888714790" lon="29.9887275696"><time>2026-04-22T10:23:53Z</time></trkpt><trkpt lat="59.0888714790" lon="29.9887275696"><time>2026-04-22T10:23:55Z</time></trkpt><trkpt lat="59.0888714790" lon="29.9887275696"><time>2026-04-22T10:23:58Z</time></trkpt><trkpt lat="59.0888714790" lon="29.9887061119"><time>2026-04-22T10:24:00Z</time></trkpt><trkpt lat="59.0888714790" lon="29.9886846542"><time>2026-04-22T10:24:03Z</time></trkpt><trkpt lat="59.0888714790" lon="29.9886846542"><time>2026-04-22T10:24:05Z</time></trkpt><trkpt lat="59.0888714790" lon="29.9886846542"><time>2026-04-22T10:24:08Z</time></trkpt><trkpt lat="59.0888714790" lon="29.9886846542"><time>2026-04-22T10:24:10Z</time></trkpt><trkpt lat="59.0888714790" lon="29.9886846542"><time>2026-04-22T10:24:13Z</time></trkpt><trkpt lat="59.0888714790" lon="29.9886846542"><time>2026-04-22T10:24:15Z</time></trkpt><trkpt lat="59.0888714790" lon="29.9886846542"><time>2026-04-22T10:24:18Z</time></trkpt><trkpt lat="59.0888714790" lon="29.9886846542"><time>2026-04-22T10:24:20Z</time></trkpt><trkpt lat="59.0888714790" lon="29.9886846542"><time>2026-04-22T10:24:23Z</time></trkpt><trkpt lat="59.0888714790" lon="29.9886846542"><time>2026-04-22T10:24:25Z</time></trkpt><trkpt lat="59.0888714790" lon="29.9886846542"><time>2026-04-22T10:24:28Z</time></trkpt><trkpt lat="59.0888714790" lon="29.9886846542"><time>2026-04-22T10:24:30Z</time></trkpt><trkpt lat="59.0888500214" lon="29.9886631966"><time>2026-04-22T10:24:33Z</time></trkpt><trkpt lat="59.0888285637" lon="29.9885773659"><time>2026-04-22T10:24:35Z</time></trkpt><trkpt lat="59.0888071060" lon="29.9885559082"><time>2026-04-22T10:24:38Z</time></trkpt><trkpt lat="59.0887641907" lon="29.9884915352"><time>2026-04-22T10:24:40Z</time></trkpt><trkpt lat="59.0887641907" lon="29.9884915352"><time>2026-04-22T10:24:43Z</time></trkpt><trkpt lat="59.0887641907" lon="29.9884915352"><time>2026-04-22T10:24:45Z</time></trkpt><trkpt lat="59.0887427330" lon="29.9884486198"><time>2026-04-22T10:24:48Z</time></trkpt><trkpt lat="59.0887641907" lon="29.9884271622"><time>2026-04-22T10:24:50Z</time></trkpt><trkpt lat="59.0887856483" lon="29.9884271622"><time>2026-04-22T10:24:53Z</time></trkpt><trkpt lat="59.0887856483" lon="29.9883627892"><time>2026-04-22T10:24:55Z</time></trkpt><trkpt lat="59.0887856483" lon="29.9883198738"><time>2026-04-22T10:24:58Z</time></trkpt><trkpt lat="59.0887856483" lon="29.9882769585"><time>2026-04-22T10:25:00Z</time></trkpt><trkpt lat="59.0887856483" lon="29.9882555008"><time>2026-04-22T10:25:03Z</time></trkpt><trkpt lat="59.0887641907" lon="29.9881696701"><time>2026-04-22T10:25:05Z</time></trkpt><trkpt lat="59.0887641907" lon="29.9881696701"><time>2026-04-22T10:25:08Z</time></trkpt><trkpt lat="59.0887856483" lon="29.9881696701"><time>2026-04-22T10:25:10Z</time></trkpt><trkpt lat="59.0887856483" lon="29.9881911278"><time>2026-04-22T10:25:13Z</time></trkpt><trkpt lat="59.0887856483" lon="29.9881911278"><time>2026-04-22T10:25:15Z</time></trkpt><trkpt lat="59.0887856483" lon="29.9881911278"><time>2026-04-22T10:25:18Z</time></trkpt><trkpt lat="59.0887641907" lon="29.9881911278"><time>2026-04-22T10:25:20Z</time></trkpt><trkpt lat="59.0887641907" lon="29.9881911278"><time>2026-04-22T10:25:23Z</time></trkpt><trkpt lat="59.0887641907" lon="29.9882555008"><time>2026-04-22T10:25:25Z</time></trkpt><trkpt lat="59.0887641907" lon="29.9883198738"><time>2026-04-22T10:25:28Z</time></trkpt><trkpt lat="59.0887427330" lon="29.9883413315"><time>2026-04-22T10:25:30Z</time></trkpt><trkpt lat="59.0887427330" lon="29.9883198738"><time>2026-04-22T10:25:33Z</time></trkpt><trkpt lat="59.0887427330" lon="29.9883198738"><time>2026-04-22T10:25:35Z</time></trkpt><trkpt lat="59.0887427330" lon="29.9883198738"><time>2026-04-22T10:25:38Z</time></trkpt><trkpt lat="59.0887427330" lon="29.9883198738"><time>2026-04-22T10:25:40Z</time></trkpt><trkpt lat="59.0887427330" lon="29.9883198738"><time>2026-04-22T10:25:43Z</time></trkpt><trkpt lat="59.0887427330" lon="29.9883198738"><time>2026-04-22T10:25:45Z</time></trkpt><trkpt lat="59.0887427330" lon="29.9883198738"><time>2026-04-22T10:25:48Z</time></trkpt><trkpt lat="59.0887427330" lon="29.9883198738"><time>2026-04-22T10:25:50Z</time></trkpt><trkpt lat="59.0887641907" lon="29.9882769585"><time>2026-04-22T10:25:53Z</time></trkpt><trkpt lat="59.0887427330" lon="29.9882340431"><time>2026-04-22T10:25:55Z</time></trkpt><trkpt lat="59.0887427330" lon="29.9882340431"><time>2026-04-22T10:25:58Z</time></trkpt><trkpt lat="59.0887427330" lon="29.9882125854"><time>2026-04-22T10:26:00Z</time></trkpt><trkpt lat="59.0887212753" lon="29.9881911278"><time>2026-04-22T10:26:03Z</time></trkpt><trkpt lat="59.0886998177" lon="29.9881911278"><time>2026-04-22T10:26:05Z</time></trkpt><trkpt lat="59.0886783600" lon="29.9881482124"><time>2026-04-22T10:26:08Z</time></trkpt><trkpt lat="59.0886569023" lon="29.9880838394"><time>2026-04-22T10:26:10Z</time></trkpt><trkpt lat="59.0886354446" lon="29.9880194664"><time>2026-04-22T10:26:13Z</time></trkpt><trkpt lat="59.0885710716" lon="29.9879765511"><time>2026-04-22T10:26:15Z</time></trkpt><trkpt lat="59.0885066986" lon="29.9880409241"><time>2026-04-22T10:26:18Z</time></trkpt><trkpt lat="59.0884423256" lon="29.9880409241"><time>2026-04-22T10:26:20Z</time></trkpt><trkpt lat="59.0884208679" lon="29.9879550934"><time>2026-04-22T10:26:23Z</time></trkpt><trkpt lat="59.0883779526" lon="29.9880194664"><time>2026-04-22T10:26:25Z</time></trkpt><trkpt lat="59.0883564949" lon="29.9880409241"><time>2026-04-22T10:26:28Z</time></trkpt><trkpt lat="59.0883564949" lon="29.9879980087"><time>2026-04-22T10:26:30Z</time></trkpt><trkpt lat="59.0883564949" lon="29.9879980087"><time>2026-04-22T10:26:33Z</time></trkpt><trkpt lat="59.0883564949" lon="29.9879980087"><time>2026-04-22T10:26:35Z</time></trkpt><trkpt lat="59.0883350372" lon="29.9879336357"><time>2026-04-22T10:26:38Z</time></trkpt><trkpt lat="59.0883350372" lon="29.9878907204"><time>2026-04-22T10:26:40Z</time></trkpt><trkpt lat="59.0883350372" lon="29.9878478050"><time>2026-04-22T10:26:43Z</time></trkpt><trkpt lat="59.0883350372" lon="29.9878263474"><time>2026-04-22T10:26:45Z</time></trkpt><trkpt lat="59.0883350372" lon="29.9878263474"><time>2026-04-22T10:26:48Z</time></trkpt><trkpt lat="59.0883350372" lon="29.9878263474"><time>2026-04-22T10:26:50Z</time></trkpt><trkpt lat="59.0883350372" lon="29.9878263474"><time>2026-04-22T10:26:53Z</time></trkpt><trkpt lat="59.0883350372" lon="29.9878048897"><time>2026-04-22T10:26:55Z</time></trkpt><trkpt lat="59.0883350372" lon="29.9878048897"><time>2026-04-22T10:26:58Z</time></trkpt><trkpt lat="59.0883564949" lon="29.9877834320"><time>2026-04-22T10:27:00Z</time></trkpt><trkpt lat="59.0883564949" lon="29.9877619743"><time>2026-04-22T10:27:03Z</time></trkpt><trkpt lat="59.0884208679" lon="29.9877619743"><time>2026-04-22T10:27:05Z</time></trkpt><trkpt lat="59.0884423256" lon="29.9877619743"><time>2026-04-22T10:27:08Z</time></trkpt><trkpt lat="59.0884637833" lon="29.9877619743"><time>2026-04-22T10:27:10Z</time></trkpt><trkpt lat="59.0885066986" lon="29.9878263474"><time>2026-04-22T10:27:13Z</time></trkpt><trkpt lat="59.0885710716" lon="29.9879550934"><time>2026-04-22T10:27:15Z</time></trkpt><trkpt lat="59.0886139870" lon="29.9879980087"><time>2026-04-22T10:27:18Z</time></trkpt><trkpt lat="59.0886354446" lon="29.9880409241"><time>2026-04-22T10:27:20Z</time></trkpt><trkpt lat="59.0886354446" lon="29.9880623817"><time>2026-04-22T10:27:23Z</time></trkpt><trkpt lat="59.0886354446" lon="29.9880623817"><time>2026-04-22T10:27:25Z</time></trkpt><trkpt lat="59.0886354446" lon="29.9880623817"><time>2026-04-22T10:27:28Z</time></trkpt><trkpt lat="59.0886139870" lon="29.9880194664"><time>2026-04-22T10:27:30Z</time></trkpt><trkpt lat="59.0885710716" lon="29.9879765511"><time>2026-04-22T10:27:33Z</time></trkpt><trkpt lat="59.0885496140" lon="29.9879336357"><time>2026-04-22T10:27:35Z</time></trkpt><trkpt lat="59.0885496140" lon="29.9880194664"><time>2026-04-22T10:27:40Z</time></trkpt><trkpt lat="59.0885496140" lon="29.9880623817"><time>2026-04-22T10:27:43Z</time></trkpt><trkpt lat="59.0885281563" lon="29.9881696701"><time>2026-04-22T10:27:45Z</time></trkpt><trkpt lat="59.0884852409" lon="29.9882340431"><time>2026-04-22T10:27:48Z</time></trkpt><trkpt lat="59.0884423256" lon="29.9883198738"><time>2026-04-22T10:27:50Z</time></trkpt><trkpt lat="59.0883994102" lon="29.9882984161"><time>2026-04-22T10:27:53Z</time></trkpt><trkpt lat="59.0883135796" lon="29.9882984161"><time>2026-04-22T10:27:55Z</time></trkpt><trkpt lat="59.0882492065" lon="29.9882769585"><time>2026-04-22T10:27:58Z</time></trkpt><trkpt lat="59.0882062912" lon="29.9881696701"><time>2026-04-22T10:28:00Z</time></trkpt><trkpt lat="59.0882277489" lon="29.9880838394"><time>2026-04-22T10:28:03Z</time></trkpt><trkpt lat="59.0883564949" lon="29.9880409241"><time>2026-04-22T10:28:05Z</time></trkpt><trkpt lat="59.0884208679" lon="29.9879980087"><time>2026-04-22T10:28:08Z</time></trkpt><trkpt lat="59.0885066986" lon="29.9879765511"><time>2026-04-22T10:28:10Z</time></trkpt><trkpt lat="59.0885066986" lon="29.9879980087"><time>2026-04-22T10:28:13Z</time></trkpt><trkpt lat="59.0885281563" lon="29.9880409241"><time>2026-04-22T10:28:15Z</time></trkpt><trkpt lat="59.0885496140" lon="29.9880623817"><time>2026-04-22T10:28:18Z</time></trkpt><trkpt lat="59.0885710716" lon="29.9880838394"><time>2026-04-22T10:28:20Z</time></trkpt><trkpt lat="59.0885710716" lon="29.9880838394"><time>2026-04-22T10:28:23Z</time></trkpt><trkpt lat="59.0885710716" lon="29.9880838394"><time>2026-04-22T10:28:25Z</time></trkpt><trkpt lat="59.0885710716" lon="29.9880838394"><time>2026-04-22T10:28:28Z</time></trkpt><trkpt lat="59.0885710716" lon="29.9880838394"><time>2026-04-22T10:28:30Z</time></trkpt><trkpt lat="59.0885710716" lon="29.9880838394"><time>2026-04-22T10:28:33Z</time></trkpt><trkpt lat="59.0885710716" lon="29.9880838394"><time>2026-04-22T10:28:35Z</time></trkpt><trkpt lat="59.0885710716" lon="29.9880838394"><time>2026-04-22T10:28:38Z</time></trkpt><trkpt lat="59.0885710716" lon="29.9880838394"><time>2026-04-22T10:28:40Z</time></trkpt><trkpt lat="59.0885710716" lon="29.9880838394"><time>2026-04-22T10:28:43Z</time></trkpt><trkpt lat="59.0885710716" lon="29.9880838394"><time>2026-04-22T10:28:45Z</time></trkpt><trkpt lat="59.0885710716" lon="29.9881267548"><time>2026-04-22T10:28:48Z</time></trkpt><trkpt lat="59.0885710716" lon="29.9881267548"><time>2026-04-22T10:28:50Z</time></trkpt><trkpt lat="59.0885710716" lon="29.9881267548"><time>2026-04-22T10:28:53Z</time></trkpt><trkpt lat="59.0885710716" lon="29.9881267548"><time>2026-04-22T10:28:55Z</time></trkpt><trkpt lat="59.0885710716" lon="29.9881267548"><time>2026-04-22T10:28:58Z</time></trkpt><trkpt lat="59.0885710716" lon="29.9881267548"><time>2026-04-22T10:29:00Z</time></trkpt><trkpt lat="59.0885710716" lon="29.9881267548"><time>2026-04-22T10:29:03Z</time></trkpt><trkpt lat="59.0885710716" lon="29.9881267548"><time>2026-04-22T10:29:05Z</time></trkpt><trkpt lat="59.0885710716" lon="29.9881482124"><time>2026-04-22T10:29:08Z</time></trkpt><trkpt lat="59.0885710716" lon="29.9881482124"><time>2026-04-22T10:29:10Z</time></trkpt><trkpt lat="59.0885496140" lon="29.9881267548"><time>2026-04-22T10:29:13Z</time></trkpt><trkpt lat="59.0885066986" lon="29.9881482124"><time>2026-04-22T10:29:15Z</time></trkpt><trkpt lat="59.0884852409" lon="29.9881482124"><time>2026-04-22T10:29:18Z</time></trkpt><trkpt lat="59.0884852409" lon="29.9881696701"><time>2026-04-22T10:29:20Z</time></trkpt><trkpt lat="59.0884852409" lon="29.9881696701"><time>2026-04-22T10:29:23Z</time></trkpt><trkpt lat="59.0884852409" lon="29.9881696701"><time>2026-04-22T10:29:25Z</time></trkpt><trkpt lat="59.0884852409" lon="29.9881696701"><time>2026-04-22T10:29:28Z</time></trkpt><trkpt lat="59.0884852409" lon="29.9881696701"><time>2026-04-22T10:29:30Z</time></trkpt><trkpt lat="59.0884852409" lon="29.9881696701"><time>2026-04-22T10:29:33Z</time></trkpt><trkpt lat="59.0884852409" lon="29.9881696701"><time>2026-04-22T10:29:35Z</time></trkpt><trkpt lat="59.0884852409" lon="29.9881696701"><time>2026-04-22T10:29:38Z</time></trkpt><trkpt lat="59.0884852409" lon="29.9881696701"><time>2026-04-22T10:29:40Z</time></trkpt><trkpt lat="59.0884852409" lon="29.9881696701"><time>2026-04-22T10:29:43Z</time></trkpt><trkpt lat="59.0884852409" lon="29.9881696701"><time>2026-04-22T10:29:45Z</time></trkpt><trkpt lat="59.0884852409" lon="29.9881911278"><time>2026-04-22T10:29:50Z</time></trkpt><trkpt lat="59.0884852409" lon="29.9881911278"><time>2026-04-22T10:29:53Z</time></trkpt><trkpt lat="59.0884852409" lon="29.9881911278"><time>2026-04-22T10:29:55Z</time></trkpt><trkpt lat="59.0884852409" lon="29.9881911278"><time>2026-04-22T10:29:58Z</time></trkpt><trkpt lat="59.0884852409" lon="29.9881911278"><time>2026-04-22T10:30:00Z</time></trkpt><trkpt lat="59.0884852409" lon="29.9881911278"><time>2026-04-22T10:30:03Z</time></trkpt><trkpt lat="59.0884852409" lon="29.9881911278"><time>2026-04-22T10:30:05Z</time></trkpt><trkpt lat="59.0884852409" lon="29.9881911278"><time>2026-04-22T10:30:08Z</time></trkpt><trkpt lat="59.0884852409" lon="29.9881911278"><time>2026-04-22T10:30:10Z</time></trkpt><trkpt lat="59.0884852409" lon="29.9881911278"><time>2026-04-22T10:30:13Z</time></trkpt><trkpt lat="59.0884852409" lon="29.9881911278"><time>2026-04-22T10:30:15Z</time></trkpt><trkpt lat="59.0884852409" lon="29.9881911278"><time>2026-04-22T10:30:18Z</time></trkpt><trkpt lat="59.0884852409" lon="29.9881911278"><time>2026-04-22T10:30:20Z</time></trkpt><trkpt lat="59.0884852409" lon="29.9881911278"><time>2026-04-22T10:30:23Z</time></trkpt><trkpt lat="59.0884852409" lon="29.9881911278"><time>2026-04-22T10:30:25Z</time></trkpt><trkpt lat="59.0884852409" lon="29.9881696701"><time>2026-04-22T10:30:28Z</time></trkpt><trkpt lat="59.0884852409" lon="29.9881696701"><time>2026-04-22T10:30:30Z</time></trkpt><trkpt lat="59.0884852409" lon="29.9881696701"><time>2026-04-22T10:30:33Z</time></trkpt><trkpt lat="59.0884637833" lon="29.9881911278"><time>2026-04-22T10:30:35Z</time></trkpt><trkpt lat="59.0884423256" lon="29.9881696701"><time>2026-04-22T10:30:38Z</time></trkpt><trkpt lat="59.0883994102" lon="29.9881911278"><time>2026-04-22T10:30:40Z</time></trkpt><trkpt lat="59.0883779526" lon="29.9881911278"><time>2026-04-22T10:30:43Z</time></trkpt><trkpt lat="59.0883564949" lon="29.9882125854"><time>2026-04-22T10:30:45Z</time></trkpt><trkpt lat="59.0883564949" lon="29.9882125854"><time>2026-04-22T10:30:48Z</time></trkpt><trkpt lat="59.0883135796" lon="29.9882125854"><time>2026-04-22T10:30:50Z</time></trkpt><trkpt lat="59.0882921219" lon="29.9882340431"><time>2026-04-22T10:30:53Z</time></trkpt><trkpt lat="59.0882921219" lon="29.9882340431"><time>2026-04-22T10:30:55Z</time></trkpt><trkpt lat="59.0882921219" lon="29.9882340431"><time>2026-04-22T10:30:58Z</time></trkpt><trkpt lat="59.0882921219" lon="29.9882340431"><time>2026-04-22T10:31:00Z</time></trkpt><trkpt lat="59.0882921219" lon="29.9882340431"><time>2026-04-22T10:31:03Z</time></trkpt><trkpt lat="59.0882921219" lon="29.9882340431"><time>2026-04-22T10:31:05Z</time></trkpt><trkpt lat="59.0882921219" lon="29.9882340431"><time>2026-04-22T10:31:08Z</time></trkpt><trkpt lat="59.0882492065" lon="29.9882340431"><time>2026-04-22T10:31:10Z</time></trkpt><trkpt lat="59.0882062912" lon="29.9882340431"><time>2026-04-22T10:31:13Z</time></trkpt><trkpt lat="59.0881848335" lon="29.9882125854"><time>2026-04-22T10:31:15Z</time></trkpt><trkpt lat="59.0881419182" lon="29.9881696701"><time>2026-04-22T10:31:18Z</time></trkpt><trkpt lat="59.0881204605" lon="29.9881267548"><time>2026-04-22T10:31:20Z</time></trkpt><trkpt lat="59.0881204605" lon="29.9880838394"><time>2026-04-22T10:31:23Z</time></trkpt><trkpt lat="59.0880990028" lon="29.9880838394"><time>2026-04-22T10:31:25Z</time></trkpt><trkpt lat="59.0880990028" lon="29.9880838394"><time>2026-04-22T10:31:28Z</time></trkpt><trkpt lat="59.0880990028" lon="29.9880838394"><time>2026-04-22T10:31:30Z</time></trkpt><trkpt lat="59.0880990028" lon="29.9880838394"><time>2026-04-22T10:31:33Z</time></trkpt><trkpt lat="59.0880990028" lon="29.9880838394"><time>2026-04-22T10:31:35Z</time></trkpt><trkpt lat="59.0880990028" lon="29.9880838394"><time>2026-04-22T10:31:38Z</time></trkpt><trkpt lat="59.0880990028" lon="29.9880194664"><time>2026-04-22T10:31:40Z</time></trkpt><trkpt lat="59.0880775452" lon="29.9879980087"><time>2026-04-22T10:31:43Z</time></trkpt><trkpt lat="59.0880560875" lon="29.9879550934"><time>2026-04-22T10:31:45Z</time></trkpt><trkpt lat="59.0880560875" lon="29.9879336357"><time>2026-04-22T10:31:48Z</time></trkpt><trkpt lat="59.0880775452" lon="29.9879121780"><time>2026-04-22T10:31:50Z</time></trkpt><trkpt lat="59.0880775452" lon="29.9878907204"><time>2026-04-22T10:31:53Z</time></trkpt><trkpt lat="59.0880775452" lon="29.9878907204"><time>2026-04-22T10:31:55Z</time></trkpt><trkpt lat="59.0880775452" lon="29.9878907204"><time>2026-04-22T10:31:58Z</time></trkpt><trkpt lat="59.0880775452" lon="29.9879550934"><time>2026-04-22T10:32:00Z</time></trkpt><trkpt lat="59.0880775452" lon="29.9880194664"><time>2026-04-22T10:32:03Z</time></trkpt><trkpt lat="59.0880560875" lon="29.9880409241"><time>2026-04-22T10:32:05Z</time></trkpt><trkpt lat="59.0880560875" lon="29.9880409241"><time>2026-04-22T10:32:08Z</time></trkpt><trkpt lat="59.0880560875" lon="29.9880409241"><time>2026-04-22T10:32:10Z</time></trkpt><trkpt lat="59.0880560875" lon="29.9880409241"><time>2026-04-22T10:32:13Z</time></trkpt><trkpt lat="59.0880560875" lon="29.9880409241"><time>2026-04-22T10:32:15Z</time></trkpt><trkpt lat="59.0880560875" lon="29.9880409241"><time>2026-04-22T10:32:18Z</time></trkpt><trkpt lat="59.0880560875" lon="29.9880409241"><time>2026-04-22T10:32:20Z</time></trkpt><trkpt lat="59.0880560875" lon="29.9880409241"><time>2026-04-22T10:32:23Z</time></trkpt><trkpt lat="59.0880560875" lon="29.9880409241"><time>2026-04-22T10:32:25Z</time></trkpt><trkpt lat="59.0880560875" lon="29.9880409241"><time>2026-04-22T10:32:28Z</time></trkpt><trkpt lat="59.0880560875" lon="29.9880409241"><time>2026-04-22T10:32:30Z</time></trkpt><trkpt lat="59.0880560875" lon="29.9880409241"><time>2026-04-22T10:32:33Z</time></trkpt><trkpt lat="59.0880560875" lon="29.9880409241"><time>2026-04-22T10:32:35Z</time></trkpt><trkpt lat="59.0880560875" lon="29.9880409241"><time>2026-04-22T10:32:38Z</time></trkpt><trkpt lat="59.0880560875" lon="29.9880409241"><time>2026-04-22T10:32:40Z</time></trkpt><trkpt lat="59.0880560875" lon="29.9880409241"><time>2026-04-22T10:32:43Z</time></trkpt><trkpt lat="59.0880560875" lon="29.9880409241"><time>2026-04-22T10:32:45Z</time></trkpt><trkpt lat="59.0880560875" lon="29.9880409241"><time>2026-04-22T10:32:48Z</time></trkpt><trkpt lat="59.0880560875" lon="29.9880409241"><time>2026-04-22T10:32:50Z</time></trkpt><trkpt lat="59.0880560875" lon="29.9880623817"><time>2026-04-22T10:32:53Z</time></trkpt><trkpt lat="59.0880560875" lon="29.9880623817"><time>2026-04-22T10:32:55Z</time></trkpt><trkpt lat="59.0880560875" lon="29.9880623817"><time>2026-04-22T10:32:58Z</time></trkpt><trkpt lat="59.0880560875" lon="29.9880623817"><time>2026-04-22T10:33:00Z</time></trkpt><trkpt lat="59.0880560875" lon="29.9880623817"><time>2026-04-22T10:33:03Z</time></trkpt><trkpt lat="59.0880560875" lon="29.9880623817"><time>2026-04-22T10:33:05Z</time></trkpt><trkpt lat="59.0880560875" lon="29.9880623817"><time>2026-04-22T10:33:08Z</time></trkpt><trkpt lat="59.0880560875" lon="29.9880623817"><time>2026-04-22T10:33:10Z</time></trkpt><trkpt lat="59.0880346298" lon="29.9880409241"><time>2026-04-22T10:33:13Z</time></trkpt><trkpt lat="59.0880131721" lon="29.9880409241"><time>2026-04-22T10:33:15Z</time></trkpt><trkpt lat="59.0880131721" lon="29.9880194664"><time>2026-04-22T10:33:18Z</time></trkpt><trkpt lat="59.0880131721" lon="29.9880194664"><time>2026-04-22T10:33:20Z</time></trkpt><trkpt lat="59.0880131721" lon="29.9880194664"><time>2026-04-22T10:33:23Z</time></trkpt><trkpt lat="59.0880131721" lon="29.9880194664"><time>2026-04-22T10:33:25Z</time></trkpt><trkpt lat="59.0879917145" lon="29.9879980087"><time>2026-04-22T10:33:28Z</time></trkpt><trkpt lat="59.0879917145" lon="29.9879980087"><time>2026-04-22T10:33:30Z</time></trkpt><trkpt lat="59.0879702568" lon="29.9880194664"><time>2026-04-22T10:33:33Z</time></trkpt><trkpt lat="59.0879273415" lon="29.9880194664"><time>2026-04-22T10:33:35Z</time></trkpt><trkpt lat="59.0879273415" lon="29.9880194664"><time>2026-04-22T10:33:38Z</time></trkpt><trkpt lat="59.0879273415" lon="29.9880194664"><time>2026-04-22T10:33:40Z</time></trkpt><trkpt lat="59.0879058838" lon="29.9880194664"><time>2026-04-22T10:33:43Z</time></trkpt><trkpt lat="59.0878844261" lon="29.9880194664"><time>2026-04-22T10:33:45Z</time></trkpt><trkpt lat="59.0878844261" lon="29.9880194664"><time>2026-04-22T10:33:48Z</time></trkpt><trkpt lat="59.0878415108" lon="29.9880409241"><time>2026-04-22T10:33:50Z</time></trkpt><trkpt lat="59.0878415108" lon="29.9879980087"><time>2026-04-22T10:33:53Z</time></trkpt><trkpt lat="59.0877985954" lon="29.9879765511"><time>2026-04-22T10:33:55Z</time></trkpt><trkpt lat="59.0877771378" lon="29.9879765511"><time>2026-04-22T10:33:58Z</time></trkpt><trkpt lat="59.0877556801" lon="29.9879765511"><time>2026-04-22T10:34:00Z</time></trkpt><trkpt lat="59.0877556801" lon="29.9879980087"><time>2026-04-22T10:34:03Z</time></trkpt><trkpt lat="59.0877556801" lon="29.9879980087"><time>2026-04-22T10:34:05Z</time></trkpt><trkpt lat="59.0877556801" lon="29.9880194664"><time>2026-04-22T10:34:08Z</time></trkpt><trkpt lat="59.0877342224" lon="29.9880409241"><time>2026-04-22T10:34:10Z</time></trkpt><trkpt lat="59.0877342224" lon="29.9880409241"><time>2026-04-22T10:34:13Z</time></trkpt><trkpt lat="59.0877127647" lon="29.9881052971"><time>2026-04-22T10:34:15Z</time></trkpt><trkpt lat="59.0877127647" lon="29.9881696701"><time>2026-04-22T10:34:18Z</time></trkpt><trkpt lat="59.0876913071" lon="29.9882340431"><time>2026-04-22T10:34:20Z</time></trkpt><trkpt lat="59.0876913071" lon="29.9882769585"><time>2026-04-22T10:34:23Z</time></trkpt><trkpt lat="59.0876913071" lon="29.9884057045"><time>2026-04-22T10:34:25Z</time></trkpt><trkpt lat="59.0876913071" lon="29.9884700775"><time>2026-04-22T10:34:28Z</time></trkpt><trkpt lat="59.0876483917" lon="29.9884700775"><time>2026-04-22T10:34:30Z</time></trkpt><trkpt lat="59.0876483917" lon="29.9884486198"><time>2026-04-22T10:34:33Z</time></trkpt><trkpt lat="59.0876698494" lon="29.9884486198"><time>2026-04-22T10:34:35Z</time></trkpt><trkpt lat="59.0876483917" lon="29.9884486198"><time>2026-04-22T10:34:38Z</time></trkpt><trkpt lat="59.0876698494" lon="29.9885129929"><time>2026-04-22T10:34:40Z</time></trkpt><trkpt lat="59.0877127647" lon="29.9885344505"><time>2026-04-22T10:34:43Z</time></trkpt><trkpt lat="59.0876913071" lon="29.9884486198"><time>2026-04-22T10:34:45Z</time></trkpt><trkpt lat="59.0876913071" lon="29.9883627892"><time>2026-04-22T10:34:48Z</time></trkpt><trkpt lat="59.0877127647" lon="29.9882125854"><time>2026-04-22T10:34:50Z</time></trkpt><trkpt lat="59.0877127647" lon="29.9880838394"><time>2026-04-22T10:34:53Z</time></trkpt><trkpt lat="59.0876483917" lon="29.9879980087"><time>2026-04-22T10:34:55Z</time></trkpt><trkpt lat="59.0876054764" lon="29.9880194664"><time>2026-04-22T10:34:58Z</time></trkpt><trkpt lat="59.0875411034" lon="29.9879980087"><time>2026-04-22T10:35:00Z</time></trkpt><trkpt lat="59.0875196457" lon="29.9879765511"><time>2026-04-22T10:35:03Z</time></trkpt><trkpt lat="59.0874981880" lon="29.9879980087"><time>2026-04-22T10:35:05Z</time></trkpt><trkpt lat="59.0874552727" lon="29.9880194664"><time>2026-04-22T10:35:08Z</time></trkpt><trkpt lat="59.0874338150" lon="29.9879550934"><time>2026-04-22T10:35:10Z</time></trkpt><trkpt lat="59.0874552727" lon="29.9878907204"><time>2026-04-22T10:35:13Z</time></trkpt><trkpt lat="59.0874338150" lon="29.9878478050"><time>2026-04-22T10:35:15Z</time></trkpt><trkpt lat="59.0874338150" lon="29.9878478050"><time>2026-04-22T10:35:18Z</time></trkpt><trkpt lat="59.0874338150" lon="29.9878478050"><time>2026-04-22T10:35:20Z</time></trkpt><trkpt lat="59.0874338150" lon="29.9878478050"><time>2026-04-22T10:35:23Z</time></trkpt><trkpt lat="59.0874338150" lon="29.9878478050"><time>2026-04-22T10:35:25Z</time></trkpt><trkpt lat="59.0874338150" lon="29.9878478050"><time>2026-04-22T10:35:28Z</time></trkpt><trkpt lat="59.0873908997" lon="29.9878478050"><time>2026-04-22T10:35:30Z</time></trkpt><trkpt lat="59.0873908997" lon="29.9878478050"><time>2026-04-22T10:35:33Z</time></trkpt><trkpt lat="59.0873908997" lon="29.9878263474"><time>2026-04-22T10:35:35Z</time></trkpt><trkpt lat="59.0873908997" lon="29.9878048897"><time>2026-04-22T10:35:38Z</time></trkpt><trkpt lat="59.0873908997" lon="29.9878048897"><time>2026-04-22T10:35:40Z</time></trkpt><trkpt lat="59.0873908997" lon="29.9878048897"><time>2026-04-22T10:35:43Z</time></trkpt><trkpt lat="59.0873908997" lon="29.9878048897"><time>2026-04-22T10:35:45Z</time></trkpt><trkpt lat="59.0873908997" lon="29.9878048897"><time>2026-04-22T10:35:48Z</time></trkpt><trkpt lat="59.0873908997" lon="29.9878478050"><time>2026-04-22T10:35:50Z</time></trkpt><trkpt lat="59.0873694420" lon="29.9879336357"><time>2026-04-22T10:35:53Z</time></trkpt><trkpt lat="59.0873479843" lon="29.9879550934"><time>2026-04-22T10:35:55Z</time></trkpt><trkpt lat="59.0873479843" lon="29.9879550934"><time>2026-04-22T10:35:58Z</time></trkpt><trkpt lat="59.0873479843" lon="29.9879550934"><time>2026-04-22T10:36:00Z</time></trkpt><trkpt lat="59.0873479843" lon="29.9879550934"><time>2026-04-22T10:36:03Z</time></trkpt><trkpt lat="59.0873479843" lon="29.9879550934"><time>2026-04-22T10:36:05Z</time></trkpt><trkpt lat="59.0873479843" lon="29.9879550934"><time>2026-04-22T10:36:08Z</time></trkpt><trkpt lat="59.0873479843" lon="29.9879336357"><time>2026-04-22T10:36:10Z</time></trkpt><trkpt lat="59.0873479843" lon="29.9879550934"><time>2026-04-22T10:36:13Z</time></trkpt><trkpt lat="59.0873265266" lon="29.9880194664"><time>2026-04-22T10:36:15Z</time></trkpt><trkpt lat="59.0873265266" lon="29.9880194664"><time>2026-04-22T10:36:18Z</time></trkpt><trkpt lat="59.0873265266" lon="29.9880409241"><time>2026-04-22T10:36:20Z</time></trkpt><trkpt lat="59.0873265266" lon="29.9880409241"><time>2026-04-22T10:36:23Z</time></trkpt><trkpt lat="59.0873050690" lon="29.9880194664"><time>2026-04-22T10:36:25Z</time></trkpt><trkpt lat="59.0873050690" lon="29.9880194664"><time>2026-04-22T10:36:28Z</time></trkpt><trkpt lat="59.0873050690" lon="29.9880194664"><time>2026-04-22T10:36:30Z</time></trkpt><trkpt lat="59.0873050690" lon="29.9880194664"><time>2026-04-22T10:36:33Z</time></trkpt><trkpt lat="59.0873050690" lon="29.9880194664"><time>2026-04-22T10:36:35Z</time></trkpt><trkpt lat="59.0873050690" lon="29.9880194664"><time>2026-04-22T10:36:38Z</time></trkpt><trkpt lat="59.0873050690" lon="29.9880194664"><time>2026-04-22T10:36:40Z</time></trkpt><trkpt lat="59.0873050690" lon="29.9880194664"><time>2026-04-22T10:36:43Z</time></trkpt><trkpt lat="59.0873050690" lon="29.9880194664"><time>2026-04-22T10:36:45Z</time></trkpt><trkpt lat="59.0873050690" lon="29.9880194664"><time>2026-04-22T10:36:48Z</time></trkpt><trkpt lat="59.0873050690" lon="29.9880194664"><time>2026-04-22T10:36:50Z</time></trkpt><trkpt lat="59.0873050690" lon="29.9880194664"><time>2026-04-22T10:36:53Z</time></trkpt><trkpt lat="59.0873050690" lon="29.9880194664"><time>2026-04-22T10:36:55Z</time></trkpt><trkpt lat="59.0873050690" lon="29.9880194664"><time>2026-04-22T10:36:58Z</time></trkpt><trkpt lat="59.0873050690" lon="29.9880194664"><time>2026-04-22T10:37:00Z</time></trkpt><trkpt lat="59.0873050690" lon="29.9880194664"><time>2026-04-22T10:37:03Z</time></trkpt><trkpt lat="59.0873050690" lon="29.9880194664"><time>2026-04-22T10:37:05Z</time></trkpt><trkpt lat="59.0873050690" lon="29.9880194664"><time>2026-04-22T10:37:08Z</time></trkpt><trkpt lat="59.0873050690" lon="29.9880194664"><time>2026-04-22T10:37:10Z</time></trkpt><trkpt lat="59.0873050690" lon="29.9880194664"><time>2026-04-22T10:37:13Z</time></trkpt><trkpt lat="59.0873050690" lon="29.9880194664"><time>2026-04-22T10:37:15Z</time></trkpt><trkpt lat="59.0873050690" lon="29.9880194664"><time>2026-04-22T10:37:18Z</time></trkpt><trkpt lat="59.0873050690" lon="29.9879980087"><time>2026-04-22T10:37:20Z</time></trkpt><trkpt lat="59.0873050690" lon="29.9879980087"><time>2026-04-22T10:37:23Z</time></trkpt><trkpt lat="59.0872836113" lon="29.9878907204"><time>2026-04-22T10:37:25Z</time></trkpt><trkpt lat="59.0872836113" lon="29.9878263474"><time>2026-04-22T10:37:28Z</time></trkpt><trkpt lat="59.0872836113" lon="29.9876761436"><time>2026-04-22T10:37:30Z</time></trkpt><trkpt lat="59.0872836113" lon="29.9875903130"><time>2026-04-22T10:37:33Z</time></trkpt><trkpt lat="59.0872621536" lon="29.9874186516"><time>2026-04-22T10:37:35Z</time></trkpt><trkpt lat="59.0872836113" lon="29.9873113632"><time>2026-04-22T10:37:38Z</time></trkpt><trkpt lat="59.0873050690" lon="29.9872469902"><time>2026-04-22T10:37:40Z</time></trkpt><trkpt lat="59.0873265266" lon="29.9872255325"><time>2026-04-22T10:37:43Z</time></trkpt><trkpt lat="59.0873265266" lon="29.9872255325"><time>2026-04-22T10:37:45Z</time></trkpt><trkpt lat="59.0873265266" lon="29.9872255325"><time>2026-04-22T10:37:48Z</time></trkpt><trkpt lat="59.0873050690" lon="29.9872255325"><time>2026-04-22T10:37:50Z</time></trkpt><trkpt lat="59.0873050690" lon="29.9871826172"><time>2026-04-22T10:37:53Z</time></trkpt><trkpt lat="59.0873050690" lon="29.9871826172"><time>2026-04-22T10:37:55Z</time></trkpt><trkpt lat="59.0873050690" lon="29.9871826172"><time>2026-04-22T10:37:58Z</time></trkpt><trkpt lat="59.0873050690" lon="29.9871826172"><time>2026-04-22T10:38:00Z</time></trkpt><trkpt lat="59.0872836113" lon="29.9872255325"><time>2026-04-22T10:38:03Z</time></trkpt><trkpt lat="59.0872192383" lon="29.9873328209"><time>2026-04-22T10:38:05Z</time></trkpt><trkpt lat="59.0871763229" lon="29.9874186516"><time>2026-04-22T10:38:08Z</time></trkpt><trkpt lat="59.0871334076" lon="29.9875688553"><time>2026-04-22T10:38:10Z</time></trkpt><trkpt lat="59.0871334076" lon="29.9875903130"><time>2026-04-22T10:38:13Z</time></trkpt><trkpt lat="59.0871119499" lon="29.9876332283"><time>2026-04-22T10:38:15Z</time></trkpt><trkpt lat="59.0870904922" lon="29.9876546860"><time>2026-04-22T10:38:18Z</time></trkpt><trkpt lat="59.0870690346" lon="29.9876546860"><time>2026-04-22T10:38:20Z</time></trkpt><trkpt lat="59.0870475769" lon="29.9876332283"><time>2026-04-22T10:38:23Z</time></trkpt><trkpt lat="59.0870261192" lon="29.9876332283"><time>2026-04-22T10:38:25Z</time></trkpt><trkpt lat="59.0870046616" lon="29.9876117706"><time>2026-04-22T10:38:28Z</time></trkpt><trkpt lat="59.0869832039" lon="29.9876117706"><time>2026-04-22T10:38:30Z</time></trkpt><trkpt lat="59.0869832039" lon="29.9876117706"><time>2026-04-22T10:38:33Z</time></trkpt><trkpt lat="59.0869832039" lon="29.9876117706"><time>2026-04-22T10:38:35Z</time></trkpt><trkpt lat="59.0869832039" lon="29.9876117706"><time>2026-04-22T10:38:38Z</time></trkpt><trkpt lat="59.0869832039" lon="29.9876117706"><time>2026-04-22T10:38:40Z</time></trkpt><trkpt lat="59.0869832039" lon="29.9876117706"><time>2026-04-22T10:38:43Z</time></trkpt><trkpt lat="59.0869832039" lon="29.9876117706"><time>2026-04-22T10:38:45Z</time></trkpt><trkpt lat="59.0869832039" lon="29.9876117706"><time>2026-04-22T10:38:48Z</time></trkpt><trkpt lat="59.0869832039" lon="29.9876332283"><time>2026-04-22T10:38:50Z</time></trkpt><trkpt lat="59.0869832039" lon="29.9876332283"><time>2026-04-22T10:38:53Z</time></trkpt><trkpt lat="59.0869188309" lon="29.9876546860"><time>2026-04-22T10:38:55Z</time></trkpt><trkpt lat="59.0869188309" lon="29.9876761436"><time>2026-04-22T10:38:58Z</time></trkpt><trkpt lat="59.0868759155" lon="29.9876976013"><time>2026-04-22T10:39:00Z</time></trkpt><trkpt lat="59.0868759155" lon="29.9876976013"><time>2026-04-22T10:39:03Z</time></trkpt><trkpt lat="59.0868759155" lon="29.9876976013"><time>2026-04-22T10:39:05Z</time></trkpt><trkpt lat="59.0868759155" lon="29.9876976013"><time>2026-04-22T10:39:08Z</time></trkpt><trkpt lat="59.0868759155" lon="29.9876976013"><time>2026-04-22T10:39:10Z</time></trkpt><trkpt lat="59.0868759155" lon="29.9876976013"><time>2026-04-22T10:39:13Z</time></trkpt><trkpt lat="59.0868544579" lon="29.9876976013"><time>2026-04-22T10:39:15Z</time></trkpt><trkpt lat="59.0868330002" lon="29.9876976013"><time>2026-04-22T10:39:18Z</time></trkpt><trkpt lat="59.0867900848" lon="29.9876976013"><time>2026-04-22T10:39:20Z</time></trkpt><trkpt lat="59.0867686272" lon="29.9876976013"><time>2026-04-22T10:39:23Z</time></trkpt><trkpt lat="59.0867471695" lon="29.9876546860"><time>2026-04-22T10:39:25Z</time></trkpt><trkpt lat="59.0867257118" lon="29.9876332283"><time>2026-04-22T10:39:28Z</time></trkpt><trkpt lat="59.0867042542" lon="29.9876332283"><time>2026-04-22T10:39:30Z</time></trkpt><trkpt lat="59.0867042542" lon="29.9876332283"><time>2026-04-22T10:39:33Z</time></trkpt><trkpt lat="59.0866827965" lon="29.9876117706"><time>2026-04-22T10:39:35Z</time></trkpt><trkpt lat="59.0866827965" lon="29.9876117706"><time>2026-04-22T10:39:38Z</time></trkpt><trkpt lat="59.0866827965" lon="29.9875903130"><time>2026-04-22T10:39:40Z</time></trkpt><trkpt lat="59.0866613388" lon="29.9875473976"><time>2026-04-22T10:39:43Z</time></trkpt><trkpt lat="59.0866613388" lon="29.9875473976"><time>2026-04-22T10:39:45Z</time></trkpt><trkpt lat="59.0866613388" lon="29.9875473976"><time>2026-04-22T10:39:48Z</time></trkpt><trkpt lat="59.0866613388" lon="29.9875473976"><time>2026-04-22T10:39:50Z</time></trkpt><trkpt lat="59.0866613388" lon="29.9875473976"><time>2026-04-22T10:39:53Z</time></trkpt><trkpt lat="59.0866613388" lon="29.9875473976"><time>2026-04-22T10:39:55Z</time></trkpt><trkpt lat="59.0866613388" lon="29.9875473976"><time>2026-04-22T10:39:58Z</time></trkpt><trkpt lat="59.0866613388" lon="29.9875259399"><time>2026-04-22T10:40:00Z</time></trkpt><trkpt lat="59.0866613388" lon="29.9875259399"><time>2026-04-22T10:40:03Z</time></trkpt><trkpt lat="59.0865969658" lon="29.9875259399"><time>2026-04-22T10:40:05Z</time></trkpt><trkpt lat="59.0865755081" lon="29.9874830246"><time>2026-04-22T10:40:08Z</time></trkpt><trkpt lat="59.0865755081" lon="29.9874401093"><time>2026-04-22T10:40:10Z</time></trkpt><trkpt lat="59.0865755081" lon="29.9874401093"><time>2026-04-22T10:40:13Z</time></trkpt><trkpt lat="59.0865540504" lon="29.9874401093"><time>2026-04-22T10:40:15Z</time></trkpt><trkpt lat="59.0865325928" lon="29.9874186516"><time>2026-04-22T10:40:18Z</time></trkpt><trkpt lat="59.0865540504" lon="29.9873971939"><time>2026-04-22T10:40:20Z</time></trkpt><trkpt lat="59.0865540504" lon="29.9874186516"><time>2026-04-22T10:40:23Z</time></trkpt><trkpt lat="59.0865111351" lon="29.9874401093"><time>2026-04-22T10:40:25Z</time></trkpt><trkpt lat="59.0864896774" lon="29.9874186516"><time>2026-04-22T10:40:28Z</time></trkpt><trkpt lat="59.0864467621" lon="29.9873757362"><time>2026-04-22T10:40:30Z</time></trkpt><trkpt lat="59.0864253044" lon="29.9873542786"><time>2026-04-22T10:40:33Z</time></trkpt><trkpt lat="59.0864253044" lon="29.9873542786"><time>2026-04-22T10:40:35Z</time></trkpt><trkpt lat="59.0864253044" lon="29.9873328209"><time>2026-04-22T10:40:38Z</time></trkpt><trkpt lat="59.0864253044" lon="29.9873328209"><time>2026-04-22T10:40:40Z</time></trkpt><trkpt lat="59.0864253044" lon="29.9873328209"><time>2026-04-22T10:40:43Z</time></trkpt><trkpt lat="59.0864038467" lon="29.9873328209"><time>2026-04-22T10:40:45Z</time></trkpt><trkpt lat="59.0863823891" lon="29.9873542786"><time>2026-04-22T10:40:48Z</time></trkpt><trkpt lat="59.0863609314" lon="29.9873971939"><time>2026-04-22T10:40:50Z</time></trkpt><trkpt lat="59.0863609314" lon="29.9874186516"><time>2026-04-22T10:40:53Z</time></trkpt><trkpt lat="59.0863394737" lon="29.9874186516"><time>2026-04-22T10:40:55Z</time></trkpt><trkpt lat="59.0863180161" lon="29.9874401093"><time>2026-04-22T10:40:58Z</time></trkpt><trkpt lat="59.0862965584" lon="29.9874401093"><time>2026-04-22T10:41:00Z</time></trkpt><trkpt lat="59.0862965584" lon="29.9874186516"><time>2026-04-22T10:41:03Z</time></trkpt><trkpt lat="59.0862965584" lon="29.9873971939"><time>2026-04-22T10:41:05Z</time></trkpt><trkpt lat="59.0862965584" lon="29.9873542786"><time>2026-04-22T10:41:08Z</time></trkpt><trkpt lat="59.0862965584" lon="29.9873542786"><time>2026-04-22T10:41:10Z</time></trkpt><trkpt lat="59.0862965584" lon="29.9873542786"><time>2026-04-22T10:41:13Z</time></trkpt><trkpt lat="59.0862965584" lon="29.9873542786"><time>2026-04-22T10:41:15Z</time></trkpt><trkpt lat="59.0862965584" lon="29.9873542786"><time>2026-04-22T10:41:18Z</time></trkpt><trkpt lat="59.0862751007" lon="29.9873542786"><time>2026-04-22T10:41:20Z</time></trkpt><trkpt lat="59.0862536430" lon="29.9873113632"><time>2026-04-22T10:41:23Z</time></trkpt><trkpt lat="59.0862107277" lon="29.9873757362"><time>2026-04-22T10:41:25Z</time></trkpt><trkpt lat="59.0861678123" lon="29.9874401093"><time>2026-04-22T10:41:28Z</time></trkpt><trkpt lat="59.0861248970" lon="29.9874401093"><time>2026-04-22T10:41:30Z</time></trkpt><trkpt lat="59.0861248970" lon="29.9874401093"><time>2026-04-22T10:41:33Z</time></trkpt><trkpt lat="59.0861248970" lon="29.9874401093"><time>2026-04-22T10:41:35Z</time></trkpt><trkpt lat="59.0861248970" lon="29.9874401093"><time>2026-04-22T10:41:38Z</time></trkpt><trkpt lat="59.0861248970" lon="29.9874401093"><time>2026-04-22T10:41:40Z</time></trkpt><trkpt lat="59.0861034393" lon="29.9874615669"><time>2026-04-22T10:41:43Z</time></trkpt><trkpt lat="59.0860819817" lon="29.9875259399"><time>2026-04-22T10:41:45Z</time></trkpt><trkpt lat="59.0860605240" lon="29.9875473976"><time>2026-04-22T10:41:48Z</time></trkpt><trkpt lat="59.0860176086" lon="29.9875688553"><time>2026-04-22T10:41:50Z</time></trkpt><trkpt lat="59.0859961510" lon="29.9875903130"><time>2026-04-22T10:41:53Z</time></trkpt><trkpt lat="59.0859961510" lon="29.9875688553"><time>2026-04-22T10:41:55Z</time></trkpt><trkpt lat="59.0859746933" lon="29.9875688553"><time>2026-04-22T10:41:58Z</time></trkpt><trkpt lat="59.0859317780" lon="29.9875688553"><time>2026-04-22T10:42:00Z</time></trkpt><trkpt lat="59.0859317780" lon="29.9875688553"><time>2026-04-22T10:42:03Z</time></trkpt><trkpt lat="59.0859317780" lon="29.9875688553"><time>2026-04-22T10:42:05Z</time></trkpt><trkpt lat="59.0859317780" lon="29.9875688553"><time>2026-04-22T10:42:08Z</time></trkpt><trkpt lat="59.0859317780" lon="29.9875688553"><time>2026-04-22T10:42:10Z</time></trkpt><trkpt lat="59.0859317780" lon="29.9875688553"><time>2026-04-22T10:42:13Z</time></trkpt><trkpt lat="59.0859317780" lon="29.9875688553"><time>2026-04-22T10:42:15Z</time></trkpt><trkpt lat="59.0859317780" lon="29.9875688553"><time>2026-04-22T10:42:18Z</time></trkpt><trkpt lat="59.0859317780" lon="29.9875688553"><time>2026-04-22T10:42:20Z</time></trkpt><trkpt lat="59.0859317780" lon="29.9875688553"><time>2026-04-22T10:42:23Z</time></trkpt><trkpt lat="59.0859317780" lon="29.9875688553"><time>2026-04-22T10:42:25Z</time></trkpt><trkpt lat="59.0859317780" lon="29.9875688553"><time>2026-04-22T10:42:28Z</time></trkpt><trkpt lat="59.0859317780" lon="29.9875688553"><time>2026-04-22T10:42:30Z</time></trkpt><trkpt lat="59.0859317780" lon="29.9875688553"><time>2026-04-22T10:42:33Z</time></trkpt><trkpt lat="59.0859317780" lon="29.9875688553"><time>2026-04-22T10:42:35Z</time></trkpt><trkpt lat="59.0859103203" lon="29.9875903130"><time>2026-04-22T10:42:38Z</time></trkpt><trkpt lat="59.0858888626" lon="29.9876117706"><time>2026-04-22T10:42:40Z</time></trkpt><trkpt lat="59.0858888626" lon="29.9876332283"><time>2026-04-22T10:42:43Z</time></trkpt><trkpt lat="59.0858459473" lon="29.9875903130"><time>2026-04-22T10:42:45Z</time></trkpt><trkpt lat="59.0858244896" lon="29.9875688553"><time>2026-04-22T10:42:48Z</time></trkpt><trkpt lat="59.0858030319" lon="29.9875259399"><time>2026-04-22T10:42:50Z</time></trkpt><trkpt lat="59.0858030319" lon="29.9875259399"><time>2026-04-22T10:42:53Z</time></trkpt><trkpt lat="59.0858030319" lon="29.9875473976"><time>2026-04-22T10:42:55Z</time></trkpt><trkpt lat="59.0857815742" lon="29.9875473976"><time>2026-04-22T10:42:58Z</time></trkpt><trkpt lat="59.0857815742" lon="29.9875688553"><time>2026-04-22T10:43:00Z</time></trkpt><trkpt lat="59.0857815742" lon="29.9875688553"><time>2026-04-22T10:43:03Z</time></trkpt><trkpt lat="59.0857815742" lon="29.9875903130"><time>2026-04-22T10:43:05Z</time></trkpt><trkpt lat="59.0857815742" lon="29.9875903130"><time>2026-04-22T10:43:08Z</time></trkpt><trkpt lat="59.0857815742" lon="29.9875903130"><time>2026-04-22T10:43:10Z</time></trkpt><trkpt lat="59.0857815742" lon="29.9875903130"><time>2026-04-22T10:43:13Z</time></trkpt><trkpt lat="59.0857815742" lon="29.9875903130"><time>2026-04-22T10:43:15Z</time></trkpt><trkpt lat="59.0858030319" lon="29.9875688553"><time>2026-04-22T10:43:18Z</time></trkpt><trkpt lat="59.0858030319" lon="29.9875688553"><time>2026-04-22T10:43:20Z</time></trkpt><trkpt lat="59.0858030319" lon="29.9875688553"><time>2026-04-22T10:43:23Z</time></trkpt><trkpt lat="59.0858030319" lon="29.9875688553"><time>2026-04-22T10:43:25Z</time></trkpt><trkpt lat="59.0858030319" lon="29.9875688553"><time>2026-04-22T10:43:28Z</time></trkpt><trkpt lat="59.0858030319" lon="29.9875688553"><time>2026-04-22T10:43:30Z</time></trkpt><trkpt lat="59.0858030319" lon="29.9875688553"><time>2026-04-22T10:43:33Z</time></trkpt><trkpt lat="59.0858244896" lon="29.9875688553"><time>2026-04-22T10:43:35Z</time></trkpt><trkpt lat="59.0858244896" lon="29.9875259399"><time>2026-04-22T10:43:38Z</time></trkpt><trkpt lat="59.0858459473" lon="29.9874830246"><time>2026-04-22T10:43:40Z</time></trkpt><trkpt lat="59.0858459473" lon="29.9874830246"><time>2026-04-22T10:43:43Z</time></trkpt><trkpt lat="59.0858459473" lon="29.9874830246"><time>2026-04-22T10:43:45Z</time></trkpt><trkpt lat="59.0858459473" lon="29.9874615669"><time>2026-04-22T10:43:48Z</time></trkpt><trkpt lat="59.0858244896" lon="29.9874401093"><time>2026-04-22T10:43:50Z</time></trkpt><trkpt lat="59.0858244896" lon="29.9874186516"><time>2026-04-22T10:43:53Z</time></trkpt><trkpt lat="59.0858459473" lon="29.9873757362"><time>2026-04-22T10:43:55Z</time></trkpt><trkpt lat="59.0858244896" lon="29.9873113632"><time>2026-04-22T10:43:58Z</time></trkpt><trkpt lat="59.0858244896" lon="29.9872469902"><time>2026-04-22T10:44:00Z</time></trkpt><trkpt lat="59.0858244896" lon="29.9872040749"><time>2026-04-22T10:44:03Z</time></trkpt><trkpt lat="59.0858244896" lon="29.9872040749"><time>2026-04-22T10:44:05Z</time></trkpt><trkpt lat="59.0858244896" lon="29.9872040749"><time>2026-04-22T10:44:08Z</time></trkpt><trkpt lat="59.0858244896" lon="29.9872040749"><time>2026-04-22T10:44:10Z</time></trkpt><trkpt lat="59.0858244896" lon="29.9871826172"><time>2026-04-22T10:44:13Z</time></trkpt><trkpt lat="59.0858244896" lon="29.9871826172"><time>2026-04-22T10:44:15Z</time></trkpt><trkpt lat="59.0858244896" lon="29.9871826172"><time>2026-04-22T10:44:18Z</time></trkpt><trkpt lat="59.0858244896" lon="29.9871611595"><time>2026-04-22T10:44:20Z</time></trkpt><trkpt lat="59.0858244896" lon="29.9871397018"><time>2026-04-22T10:44:23Z</time></trkpt><trkpt lat="59.0858244896" lon="29.9870967865"><time>2026-04-22T10:44:25Z</time></trkpt><trkpt lat="59.0858244896" lon="29.9870538712"><time>2026-04-22T10:44:28Z</time></trkpt><trkpt lat="59.0858244896" lon="29.9870324135"><time>2026-04-22T10:44:30Z</time></trkpt><trkpt lat="59.0858244896" lon="29.9870324135"><time>2026-04-22T10:44:33Z</time></trkpt><trkpt lat="59.0858244896" lon="29.9870109558"><time>2026-04-22T10:44:35Z</time></trkpt><trkpt lat="59.0858459473" lon="29.9869680405"><time>2026-04-22T10:44:38Z</time></trkpt><trkpt lat="59.0858674049" lon="29.9869251251"><time>2026-04-22T10:44:40Z</time></trkpt><trkpt lat="59.0858888626" lon="29.9869251251"><time>2026-04-22T10:44:43Z</time></trkpt><trkpt lat="59.0859103203" lon="29.9869036674"><time>2026-04-22T10:44:45Z</time></trkpt><trkpt lat="59.0859317780" lon="29.9868607521"><time>2026-04-22T10:44:48Z</time></trkpt><trkpt lat="59.0859317780" lon="29.9867749214"><time>2026-04-22T10:44:50Z</time></trkpt><trkpt lat="59.0859746933" lon="29.9867105484"><time>2026-04-22T10:44:53Z</time></trkpt><trkpt lat="59.0859961510" lon="29.9867320061"><time>2026-04-22T10:44:55Z</time></trkpt><trkpt lat="59.0860176086" lon="29.9867749214"><time>2026-04-22T10:44:58Z</time></trkpt><trkpt lat="59.0860390663" lon="29.9867963791"><time>2026-04-22T10:45:00Z</time></trkpt><trkpt lat="59.0860390663" lon="29.9867749214"><time>2026-04-22T10:45:03Z</time></trkpt><trkpt lat="59.0860605240" lon="29.9866676331"><time>2026-04-22T10:45:05Z</time></trkpt><trkpt lat="59.0860390663" lon="29.9866032600"><time>2026-04-22T10:45:08Z</time></trkpt><trkpt lat="59.0859746933" lon="29.9865388870"><time>2026-04-22T10:45:10Z</time></trkpt><trkpt lat="59.0859317780" lon="29.9865388870"><time>2026-04-22T10:45:13Z</time></trkpt><trkpt lat="59.0858888626" lon="29.9865174294"><time>2026-04-22T10:45:15Z</time></trkpt><trkpt lat="59.0858674049" lon="29.9865174294"><time>2026-04-22T10:45:18Z</time></trkpt><trkpt lat="59.0858888626" lon="29.9864959717"><time>2026-04-22T10:45:20Z</time></trkpt><trkpt lat="59.0858674049" lon="29.9864745140"><time>2026-04-22T10:45:23Z</time></trkpt><trkpt lat="59.0858888626" lon="29.9864315987"><time>2026-04-22T10:45:25Z</time></trkpt><trkpt lat="59.0859103203" lon="29.9864315987"><time>2026-04-22T10:45:28Z</time></trkpt><trkpt lat="59.0859532356" lon="29.9864315987"><time>2026-04-22T10:45:30Z</time></trkpt><trkpt lat="59.0859746933" lon="29.9864315987"><time>2026-04-22T10:45:33Z</time></trkpt><trkpt lat="59.0859746933" lon="29.9864530563"><time>2026-04-22T10:45:35Z</time></trkpt><trkpt lat="59.0859961510" lon="29.9864745140"><time>2026-04-22T10:45:38Z</time></trkpt><trkpt lat="59.0859961510" lon="29.9864745140"><time>2026-04-22T10:45:40Z</time></trkpt><trkpt lat="59.0860176086" lon="29.9864530563"><time>2026-04-22T10:45:43Z</time></trkpt><trkpt lat="59.0860390663" lon="29.9864315987"><time>2026-04-22T10:45:45Z</time></trkpt><trkpt lat="59.0860176086" lon="29.9864315987"><time>2026-04-22T10:45:48Z</time></trkpt><trkpt lat="59.0859961510" lon="29.9864315987"><time>2026-04-22T10:45:50Z</time></trkpt><trkpt lat="59.0859961510" lon="29.9864315987"><time>2026-04-22T10:45:53Z</time></trkpt><trkpt lat="59.0859961510" lon="29.9864315987"><time>2026-04-22T10:45:55Z</time></trkpt><trkpt lat="59.0859961510" lon="29.9864315987"><time>2026-04-22T10:45:58Z</time></trkpt><trkpt lat="59.0860176086" lon="29.9864745140"><time>2026-04-22T10:46:00Z</time></trkpt><trkpt lat="59.0860176086" lon="29.9864745140"><time>2026-04-22T10:46:03Z</time></trkpt><trkpt lat="59.0860176086" lon="29.9865388870"><time>2026-04-22T10:46:05Z</time></trkpt><trkpt lat="59.0860390663" lon="29.9865388870"><time>2026-04-22T10:46:08Z</time></trkpt><trkpt lat="59.0860605240" lon="29.9865388870"><time>2026-04-22T10:46:10Z</time></trkpt><trkpt lat="59.0860605240" lon="29.9865388870"><time>2026-04-22T10:46:13Z</time></trkpt><trkpt lat="59.0860819817" lon="29.9865388870"><time>2026-04-22T10:46:15Z</time></trkpt><trkpt lat="59.0860819817" lon="29.9865174294"><time>2026-04-22T10:46:18Z</time></trkpt><trkpt lat="59.0860819817" lon="29.9865174294"><time>2026-04-22T10:46:20Z</time></trkpt><trkpt lat="59.0860819817" lon="29.9865174294"><time>2026-04-22T10:46:23Z</time></trkpt><trkpt lat="59.0860819817" lon="29.9865174294"><time>2026-04-22T10:46:25Z</time></trkpt><trkpt lat="59.0860819817" lon="29.9865174294"><time>2026-04-22T10:46:28Z</time></trkpt><trkpt lat="59.0860819817" lon="29.9865174294"><time>2026-04-22T10:46:30Z</time></trkpt><trkpt lat="59.0861034393" lon="29.9865174294"><time>2026-04-22T10:46:33Z</time></trkpt><trkpt lat="59.0861463547" lon="29.9865174294"><time>2026-04-22T10:46:35Z</time></trkpt><trkpt lat="59.0861463547" lon="29.9864959717"><time>2026-04-22T10:46:38Z</time></trkpt><trkpt lat="59.0861678123" lon="29.9864959717"><time>2026-04-22T10:46:40Z</time></trkpt><trkpt lat="59.0861892700" lon="29.9864959717"><time>2026-04-22T10:46:43Z</time></trkpt><trkpt lat="59.0862107277" lon="29.9864959717"><time>2026-04-22T10:46:45Z</time></trkpt><trkpt lat="59.0862107277" lon="29.9864959717"><time>2026-04-22T10:46:48Z</time></trkpt><trkpt lat="59.0862107277" lon="29.9864959717"><time>2026-04-22T10:46:50Z</time></trkpt><trkpt lat="59.0862107277" lon="29.9864959717"><time>2026-04-22T10:46:53Z</time></trkpt><trkpt lat="59.0862107277" lon="29.9864959717"><time>2026-04-22T10:46:55Z</time></trkpt><trkpt lat="59.0862107277" lon="29.9865174294"><time>2026-04-22T10:46:58Z</time></trkpt><trkpt lat="59.0862536430" lon="29.9864959717"><time>2026-04-22T10:47:00Z</time></trkpt><trkpt lat="59.0862751007" lon="29.9864530563"><time>2026-04-22T10:47:03Z</time></trkpt><trkpt lat="59.0863180161" lon="29.9864315987"><time>2026-04-22T10:47:05Z</time></trkpt><trkpt lat="59.0863180161" lon="29.9864101410"><time>2026-04-22T10:47:08Z</time></trkpt><trkpt lat="59.0863180161" lon="29.9864101410"><time>2026-04-22T10:47:10Z</time></trkpt><trkpt lat="59.0863180161" lon="29.9864101410"><time>2026-04-22T10:47:13Z</time></trkpt><trkpt lat="59.0863180161" lon="29.9864101410"><time>2026-04-22T10:47:15Z</time></trkpt><trkpt lat="59.0863180161" lon="29.9864101410"><time>2026-04-22T10:47:18Z</time></trkpt><trkpt lat="59.0863180161" lon="29.9864101410"><time>2026-04-22T10:47:20Z</time></trkpt><trkpt lat="59.0863180161" lon="29.9864101410"><time>2026-04-22T10:47:23Z</time></trkpt><trkpt lat="59.0863180161" lon="29.9864101410"><time>2026-04-22T10:47:25Z</time></trkpt><trkpt lat="59.0863180161" lon="29.9864101410"><time>2026-04-22T10:47:28Z</time></trkpt><trkpt lat="59.0863180161" lon="29.9864101410"><time>2026-04-22T10:47:30Z</time></trkpt><trkpt lat="59.0863180161" lon="29.9864101410"><time>2026-04-22T10:47:33Z</time></trkpt><trkpt lat="59.0863180161" lon="29.9864101410"><time>2026-04-22T10:47:35Z</time></trkpt><trkpt lat="59.0863180161" lon="29.9864101410"><time>2026-04-22T10:47:38Z</time></trkpt><trkpt lat="59.0863180161" lon="29.9864101410"><time>2026-04-22T10:47:40Z</time></trkpt><trkpt lat="59.0863394737" lon="29.9864101410"><time>2026-04-22T10:47:43Z</time></trkpt><trkpt lat="59.0864253044" lon="29.9863672256"><time>2026-04-22T10:47:45Z</time></trkpt><trkpt lat="59.0864896774" lon="29.9863028526"><time>2026-04-22T10:47:48Z</time></trkpt><trkpt lat="59.0865540504" lon="29.9862384796"><time>2026-04-22T10:47:50Z</time></trkpt><trkpt lat="59.0865755081" lon="29.9862170219"><time>2026-04-22T10:47:53Z</time></trkpt><trkpt lat="59.0865969658" lon="29.9861955643"><time>2026-04-22T10:47:55Z</time></trkpt><trkpt lat="59.0865969658" lon="29.9861955643"><time>2026-04-22T10:47:58Z</time></trkpt><trkpt lat="59.0866398811" lon="29.9861741066"><time>2026-04-22T10:48:00Z</time></trkpt><trkpt lat="59.0866827965" lon="29.9861955643"><time>2026-04-22T10:48:03Z</time></trkpt><trkpt lat="59.0867257118" lon="29.9862384796"><time>2026-04-22T10:48:05Z</time></trkpt><trkpt lat="59.0867471695" lon="29.9862384796"><time>2026-04-22T10:48:08Z</time></trkpt><trkpt lat="59.0867471695" lon="29.9862384796"><time>2026-04-22T10:48:10Z</time></trkpt><trkpt lat="59.0867471695" lon="29.9862384796"><time>2026-04-22T10:48:13Z</time></trkpt><trkpt lat="59.0867471695" lon="29.9862384796"><time>2026-04-22T10:48:15Z</time></trkpt><trkpt lat="59.0867471695" lon="29.9862384796"><time>2026-04-22T10:48:18Z</time></trkpt><trkpt lat="59.0867471695" lon="29.9862384796"><time>2026-04-22T10:48:20Z</time></trkpt><trkpt lat="59.0867471695" lon="29.9862384796"><time>2026-04-22T10:48:23Z</time></trkpt><trkpt lat="59.0867471695" lon="29.9862384796"><time>2026-04-22T10:48:25Z</time></trkpt><trkpt lat="59.0867471695" lon="29.9862384796"><time>2026-04-22T10:48:28Z</time></trkpt><trkpt lat="59.0867686272" lon="29.9862384796"><time>2026-04-22T10:48:30Z</time></trkpt><trkpt lat="59.0867900848" lon="29.9862599373"><time>2026-04-22T10:48:33Z</time></trkpt><trkpt lat="59.0868115425" lon="29.9863243103"><time>2026-04-22T10:48:35Z</time></trkpt><trkpt lat="59.0868115425" lon="29.9863243103"><time>2026-04-22T10:48:38Z</time></trkpt><trkpt lat="59.0868759155" lon="29.9864101410"><time>2026-04-22T10:48:40Z</time></trkpt><trkpt lat="59.0868973732" lon="29.9864530563"><time>2026-04-22T10:48:43Z</time></trkpt><trkpt lat="59.0869402885" lon="29.9864959717"><time>2026-04-22T10:48:45Z</time></trkpt><trkpt lat="59.0869617462" lon="29.9865174294"><time>2026-04-22T10:48:48Z</time></trkpt><trkpt lat="59.0869832039" lon="29.9865388870"><time>2026-04-22T10:48:50Z</time></trkpt><trkpt lat="59.0870046616" lon="29.9865603447"><time>2026-04-22T10:48:53Z</time></trkpt><trkpt lat="59.0870261192" lon="29.9866247177"><time>2026-04-22T10:48:55Z</time></trkpt><trkpt lat="59.0870261192" lon="29.9866676331"><time>2026-04-22T10:48:58Z</time></trkpt><trkpt lat="59.0870690346" lon="29.9867320061"><time>2026-04-22T10:49:00Z</time></trkpt><trkpt lat="59.0870904922" lon="29.9867534637"><time>2026-04-22T10:49:03Z</time></trkpt><trkpt lat="59.0870904922" lon="29.9867534637"><time>2026-04-22T10:49:05Z</time></trkpt><trkpt lat="59.0870904922" lon="29.9867320061"><time>2026-04-22T10:49:08Z</time></trkpt><trkpt lat="59.0871119499" lon="29.9867105484"><time>2026-04-22T10:49:10Z</time></trkpt><trkpt lat="59.0871334076" lon="29.9867105484"><time>2026-04-22T10:49:13Z</time></trkpt><trkpt lat="59.0871548653" lon="29.9867320061"><time>2026-04-22T10:49:15Z</time></trkpt><trkpt lat="59.0871763229" lon="29.9867320061"><time>2026-04-22T10:49:18Z</time></trkpt><trkpt lat="59.0872192383" lon="29.9867534637"><time>2026-04-22T10:49:20Z</time></trkpt><trkpt lat="59.0872406960" lon="29.9867749214"><time>2026-04-22T10:49:23Z</time></trkpt><trkpt lat="59.0872836113" lon="29.9867963791"><time>2026-04-22T10:49:25Z</time></trkpt><trkpt lat="59.0873050690" lon="29.9867534637"><time>2026-04-22T10:49:28Z</time></trkpt><trkpt lat="59.0873479843" lon="29.9867320061"><time>2026-04-22T10:49:30Z</time></trkpt><trkpt lat="59.0873908997" lon="29.9867320061"><time>2026-04-22T10:49:33Z</time></trkpt><trkpt lat="59.0874123573" lon="29.9867534637"><time>2026-04-22T10:49:35Z</time></trkpt><trkpt lat="59.0874338150" lon="29.9867534637"><time>2026-04-22T10:49:38Z</time></trkpt><trkpt lat="59.0874767303" lon="29.9867534637"><time>2026-04-22T10:49:40Z</time></trkpt><trkpt lat="59.0874981880" lon="29.9867534637"><time>2026-04-22T10:49:43Z</time></trkpt><trkpt lat="59.0874981880" lon="29.9867534637"><time>2026-04-22T10:49:45Z</time></trkpt><trkpt lat="59.0874981880" lon="29.9867534637"><time>2026-04-22T10:49:48Z</time></trkpt><trkpt lat="59.0874981880" lon="29.9867534637"><time>2026-04-22T10:49:50Z</time></trkpt><trkpt lat="59.0875196457" lon="29.9867749214"><time>2026-04-22T10:49:53Z</time></trkpt><trkpt lat="59.0875196457" lon="29.9867963791"><time>2026-04-22T10:49:55Z</time></trkpt><trkpt lat="59.0875196457" lon="29.9867963791"><time>2026-04-22T10:49:58Z</time></trkpt><trkpt lat="59.0875196457" lon="29.9867963791"><time>2026-04-22T10:50:00Z</time></trkpt><trkpt lat="59.0875196457" lon="29.9867963791"><time>2026-04-22T10:50:03Z</time></trkpt><trkpt lat="59.0875196457" lon="29.9867963791"><time>2026-04-22T10:50:05Z</time></trkpt><trkpt lat="59.0875196457" lon="29.9867963791"><time>2026-04-22T10:50:08Z</time></trkpt><trkpt lat="59.0875196457" lon="29.9867963791"><time>2026-04-22T10:50:10Z</time></trkpt><trkpt lat="59.0875196457" lon="29.9867963791"><time>2026-04-22T10:50:13Z</time></trkpt><trkpt lat="59.0875196457" lon="29.9867963791"><time>2026-04-22T10:50:15Z</time></trkpt><trkpt lat="59.0875196457" lon="29.9867749214"><time>2026-04-22T10:50:18Z</time></trkpt><trkpt lat="59.0875411034" lon="29.9867534637"><time>2026-04-22T10:50:20Z</time></trkpt><trkpt lat="59.0875625610" lon="29.9867320061"><time>2026-04-22T10:50:23Z</time></trkpt><trkpt lat="59.0875840187" lon="29.9867105484"><time>2026-04-22T10:50:25Z</time></trkpt><trkpt lat="59.0875840187" lon="29.9867105484"><time>2026-04-22T10:50:28Z</time></trkpt><trkpt lat="59.0875840187" lon="29.9867105484"><time>2026-04-22T10:50:30Z</time></trkpt><trkpt lat="59.0876054764" lon="29.9867105484"><time>2026-04-22T10:50:33Z</time></trkpt><trkpt lat="59.0876269341" lon="29.9867105484"><time>2026-04-22T10:50:35Z</time></trkpt><trkpt lat="59.0876269341" lon="29.9867105484"><time>2026-04-22T10:50:38Z</time></trkpt><trkpt lat="59.0876269341" lon="29.9867105484"><time>2026-04-22T10:50:40Z</time></trkpt><trkpt lat="59.0876483917" lon="29.9867320061"><time>2026-04-22T10:50:43Z</time></trkpt><trkpt lat="59.0877127647" lon="29.9867963791"><time>2026-04-22T10:50:45Z</time></trkpt><trkpt lat="59.0877556801" lon="29.9867963791"><time>2026-04-22T10:50:48Z</time></trkpt><trkpt lat="59.0877771378" lon="29.9867320061"><time>2026-04-22T10:50:50Z</time></trkpt><trkpt lat="59.0877985954" lon="29.9867105484"><time>2026-04-22T10:50:53Z</time></trkpt><trkpt lat="59.0878415108" lon="29.9867105484"><time>2026-04-22T10:50:55Z</time></trkpt><trkpt lat="59.0878844261" lon="29.9866461754"><time>2026-04-22T10:50:58Z</time></trkpt><trkpt lat="59.0879273415" lon="29.9865603447"><time>2026-04-22T10:51:00Z</time></trkpt><trkpt lat="59.0879487991" lon="29.9865174294"><time>2026-04-22T10:51:03Z</time></trkpt><trkpt lat="59.0879487991" lon="29.9864959717"><time>2026-04-22T10:51:05Z</time></trkpt><trkpt lat="59.0879487991" lon="29.9864959717"><time>2026-04-22T10:51:08Z</time></trkpt><trkpt lat="59.0879487991" lon="29.9865174294"><time>2026-04-22T10:51:10Z</time></trkpt><trkpt lat="59.0879487991" lon="29.9865174294"><time>2026-04-22T10:51:13Z</time></trkpt><trkpt lat="59.0879487991" lon="29.9865174294"><time>2026-04-22T10:51:15Z</time></trkpt><trkpt lat="59.0879487991" lon="29.9865174294"><time>2026-04-22T10:51:18Z</time></trkpt><trkpt lat="59.0879487991" lon="29.9865174294"><time>2026-04-22T10:51:20Z</time></trkpt><trkpt lat="59.0879487991" lon="29.9865388870"><time>2026-04-22T10:51:23Z</time></trkpt><trkpt lat="59.0879702568" lon="29.9865818024"><time>2026-04-22T10:51:25Z</time></trkpt><trkpt lat="59.0879702568" lon="29.9866247177"><time>2026-04-22T10:51:28Z</time></trkpt><trkpt lat="59.0879702568" lon="29.9867105484"><time>2026-04-22T10:51:30Z</time></trkpt><trkpt lat="59.0879702568" lon="29.9867534637"><time>2026-04-22T10:51:33Z</time></trkpt><trkpt lat="59.0879702568" lon="29.9867963791"><time>2026-04-22T10:51:35Z</time></trkpt><trkpt lat="59.0879917145" lon="29.9868607521"><time>2026-04-22T10:51:38Z</time></trkpt><trkpt lat="59.0880131721" lon="29.9869036674"><time>2026-04-22T10:51:40Z</time></trkpt><trkpt lat="59.0880346298" lon="29.9869036674"><time>2026-04-22T10:51:43Z</time></trkpt><trkpt lat="59.0880560875" lon="29.9869036674"><time>2026-04-22T10:51:45Z</time></trkpt><trkpt lat="59.0880560875" lon="29.9869036674"><time>2026-04-22T10:51:48Z</time></trkpt><trkpt lat="59.0880560875" lon="29.9869036674"><time>2026-04-22T10:51:50Z</time></trkpt><trkpt lat="59.0880560875" lon="29.9869036674"><time>2026-04-22T10:51:53Z</time></trkpt><trkpt lat="59.0880560875" lon="29.9869036674"><time>2026-04-22T10:51:55Z</time></trkpt><trkpt lat="59.0880560875" lon="29.9869036674"><time>2026-04-22T10:51:58Z</time></trkpt><trkpt lat="59.0880990028" lon="29.9869251251"><time>2026-04-22T10:52:00Z</time></trkpt><trkpt lat="59.0881204605" lon="29.9869680405"><time>2026-04-22T10:52:03Z</time></trkpt><trkpt lat="59.0881419182" lon="29.9869680405"><time>2026-04-22T10:52:05Z</time></trkpt><trkpt lat="59.0881633759" lon="29.9869680405"><time>2026-04-22T10:52:08Z</time></trkpt><trkpt lat="59.0881633759" lon="29.9869680405"><time>2026-04-22T10:52:10Z</time></trkpt><trkpt lat="59.0881633759" lon="29.9869680405"><time>2026-04-22T10:52:13Z</time></trkpt><trkpt lat="59.0881633759" lon="29.9869680405"><time>2026-04-22T10:52:15Z</time></trkpt><trkpt lat="59.0881633759" lon="29.9869680405"><time>2026-04-22T10:52:18Z</time></trkpt><trkpt lat="59.0881848335" lon="29.9869465828"><time>2026-04-22T10:52:20Z</time></trkpt><trkpt lat="59.0882062912" lon="29.9869465828"><time>2026-04-22T10:52:23Z</time></trkpt><trkpt lat="59.0882706642" lon="29.9869894981"><time>2026-04-22T10:52:25Z</time></trkpt><trkpt lat="59.0882706642" lon="29.9869680405"><time>2026-04-22T10:52:28Z</time></trkpt><trkpt lat="59.0882921219" lon="29.9869680405"><time>2026-04-22T10:52:30Z</time></trkpt><trkpt lat="59.0882921219" lon="29.9869465828"><time>2026-04-22T10:52:33Z</time></trkpt><trkpt lat="59.0883135796" lon="29.9869251251"><time>2026-04-22T10:52:35Z</time></trkpt><trkpt lat="59.0883350372" lon="29.9869036674"><time>2026-04-22T10:52:38Z</time></trkpt><trkpt lat="59.0883564949" lon="29.9868822098"><time>2026-04-22T10:52:40Z</time></trkpt><trkpt lat="59.0883564949" lon="29.9868822098"><time>2026-04-22T10:52:43Z</time></trkpt><trkpt lat="59.0883779526" lon="29.9869036674"><time>2026-04-22T10:52:45Z</time></trkpt><trkpt lat="59.0883994102" lon="29.9868822098"><time>2026-04-22T10:52:48Z</time></trkpt><trkpt lat="59.0884423256" lon="29.9869036674"><time>2026-04-22T10:52:50Z</time></trkpt><trkpt lat="59.0884423256" lon="29.9869036674"><time>2026-04-22T10:52:53Z</time></trkpt><trkpt lat="59.0884423256" lon="29.9869036674"><time>2026-04-22T10:52:55Z</time></trkpt><trkpt lat="59.0884423256" lon="29.9869036674"><time>2026-04-22T10:52:58Z</time></trkpt><trkpt lat="59.0884637833" lon="29.9868822098"><time>2026-04-22T10:53:00Z</time></trkpt><trkpt lat="59.0885066986" lon="29.9868822098"><time>2026-04-22T10:53:03Z</time></trkpt><trkpt lat="59.0885496140" lon="29.9868392944"><time>2026-04-22T10:53:05Z</time></trkpt><trkpt lat="59.0885710716" lon="29.9868392944"><time>2026-04-22T10:53:08Z</time></trkpt><trkpt lat="59.0885710716" lon="29.9868392944"><time>2026-04-22T10:53:10Z</time></trkpt><trkpt lat="59.0885710716" lon="29.9868392944"><time>2026-04-22T10:53:13Z</time></trkpt><trkpt lat="59.0885710716" lon="29.9868392944"><time>2026-04-22T10:53:15Z</time></trkpt><trkpt lat="59.0885710716" lon="29.9868392944"><time>2026-04-22T10:53:18Z</time></trkpt><trkpt lat="59.0885925293" lon="29.9868607521"><time>2026-04-22T10:53:20Z</time></trkpt><trkpt lat="59.0886139870" lon="29.9868822098"><time>2026-04-22T10:53:23Z</time></trkpt><trkpt lat="59.0886139870" lon="29.9868822098"><time>2026-04-22T10:53:25Z</time></trkpt><trkpt lat="59.0886139870" lon="29.9868822098"><time>2026-04-22T10:53:28Z</time></trkpt><trkpt lat="59.0886139870" lon="29.9868822098"><time>2026-04-22T10:53:30Z</time></trkpt><trkpt lat="59.0886139870" lon="29.9868822098"><time>2026-04-22T10:53:33Z</time></trkpt><trkpt lat="59.0886139870" lon="29.9868822098"><time>2026-04-22T10:53:35Z</time></trkpt><trkpt lat="59.0886139870" lon="29.9868822098"><time>2026-04-22T10:53:38Z</time></trkpt><trkpt lat="59.0886139870" lon="29.9868822098"><time>2026-04-22T10:53:40Z</time></trkpt><trkpt lat="59.0886139870" lon="29.9868822098"><time>2026-04-22T10:53:43Z</time></trkpt><trkpt lat="59.0886139870" lon="29.9868822098"><time>2026-04-22T10:53:45Z</time></trkpt><trkpt lat="59.0886139870" lon="29.9868822098"><time>2026-04-22T10:53:48Z</time></trkpt><trkpt lat="59.0886139870" lon="29.9868822098"><time>2026-04-22T10:53:50Z</time></trkpt><trkpt lat="59.0886139870" lon="29.9868822098"><time>2026-04-22T10:53:53Z</time></trkpt><trkpt lat="59.0886354446" lon="29.9869036674"><time>2026-04-22T10:53:55Z</time></trkpt><trkpt lat="59.0886354446" lon="29.9869036674"><time>2026-04-22T10:53:58Z</time></trkpt><trkpt lat="59.0886354446" lon="29.9869036674"><time>2026-04-22T10:54:00Z</time></trkpt><trkpt lat="59.0886354446" lon="29.9869036674"><time>2026-04-22T10:54:03Z</time></trkpt><trkpt lat="59.0886354446" lon="29.9869036674"><time>2026-04-22T10:54:05Z</time></trkpt><trkpt lat="59.0886569023" lon="29.9869036674"><time>2026-04-22T10:54:08Z</time></trkpt><trkpt lat="59.0886998177" lon="29.9869894981"><time>2026-04-22T10:54:10Z</time></trkpt><trkpt lat="59.0887427330" lon="29.9870324135"><time>2026-04-22T10:54:13Z</time></trkpt><trkpt lat="59.0887427330" lon="29.9870324135"><time>2026-04-22T10:54:15Z</time></trkpt><trkpt lat="59.0887427330" lon="29.9870324135"><time>2026-04-22T10:54:18Z</time></trkpt><trkpt lat="59.0887427330" lon="29.9870324135"><time>2026-04-22T10:54:20Z</time></trkpt><trkpt lat="59.0887427330" lon="29.9870324135"><time>2026-04-22T10:54:23Z</time></trkpt><trkpt lat="59.0887427330" lon="29.9870324135"><time>2026-04-22T10:54:25Z</time></trkpt><trkpt lat="59.0887427330" lon="29.9870324135"><time>2026-04-22T10:54:28Z</time></trkpt><trkpt lat="59.0887427330" lon="29.9869894981"><time>2026-04-22T10:54:30Z</time></trkpt><trkpt lat="59.0887427330" lon="29.9869894981"><time>2026-04-22T10:54:33Z</time></trkpt><trkpt lat="59.0887427330" lon="29.9869894981"><time>2026-04-22T10:54:35Z</time></trkpt><trkpt lat="59.0887427330" lon="29.9869894981"><time>2026-04-22T10:54:38Z</time></trkpt><trkpt lat="59.0887427330" lon="29.9869894981"><time>2026-04-22T10:54:40Z</time></trkpt><trkpt lat="59.0887427330" lon="29.9869894981"><time>2026-04-22T10:54:43Z</time></trkpt><trkpt lat="59.0887427330" lon="29.9869894981"><time>2026-04-22T10:54:45Z</time></trkpt><trkpt lat="59.0887427330" lon="29.9869894981"><time>2026-04-22T10:54:48Z</time></trkpt><trkpt lat="59.0887427330" lon="29.9869894981"><time>2026-04-22T10:54:50Z</time></trkpt><trkpt lat="59.0887427330" lon="29.9869894981"><time>2026-04-22T10:54:53Z</time></trkpt><trkpt lat="59.0887427330" lon="29.9869894981"><time>2026-04-22T10:54:55Z</time></trkpt><trkpt lat="59.0887427330" lon="29.9869894981"><time>2026-04-22T10:54:58Z</time></trkpt><trkpt lat="59.0887427330" lon="29.9869894981"><time>2026-04-22T10:55:00Z</time></trkpt><trkpt lat="59.0887427330" lon="29.9869894981"><time>2026-04-22T10:55:03Z</time></trkpt><trkpt lat="59.0887427330" lon="29.9869894981"><time>2026-04-22T10:55:05Z</time></trkpt><trkpt lat="59.0887427330" lon="29.9869894981"><time>2026-04-22T10:55:08Z</time></trkpt><trkpt lat="59.0887427330" lon="29.9869894981"><time>2026-04-22T10:55:10Z</time></trkpt><trkpt lat="59.0887641907" lon="29.9869894981"><time>2026-04-22T10:55:13Z</time></trkpt><trkpt lat="59.0887641907" lon="29.9869894981"><time>2026-04-22T10:55:15Z</time></trkpt><trkpt lat="59.0887641907" lon="29.9869894981"><time>2026-04-22T10:55:18Z</time></trkpt><trkpt lat="59.0887641907" lon="29.9869894981"><time>2026-04-22T10:55:20Z</time></trkpt><trkpt lat="59.0887641907" lon="29.9869894981"><time>2026-04-22T10:55:23Z</time></trkpt><trkpt lat="59.0887641907" lon="29.9869894981"><time>2026-04-22T10:55:25Z</time></trkpt><trkpt lat="59.0887641907" lon="29.9869894981"><time>2026-04-22T10:55:28Z</time></trkpt><trkpt lat="59.0887641907" lon="29.9869894981"><time>2026-04-22T10:55:30Z</time></trkpt><trkpt lat="59.0887641907" lon="29.9869894981"><time>2026-04-22T10:55:33Z</time></trkpt><trkpt lat="59.0887641907" lon="29.9869894981"><time>2026-04-22T10:55:35Z</time></trkpt><trkpt lat="59.0887641907" lon="29.9869894981"><time>2026-04-22T10:55:38Z</time></trkpt><trkpt lat="59.0887641907" lon="29.9869894981"><time>2026-04-22T10:55:40Z</time></trkpt><trkpt lat="59.0887641907" lon="29.9869894981"><time>2026-04-22T10:55:43Z</time></trkpt><trkpt lat="59.0887641907" lon="29.9869894981"><time>2026-04-22T10:55:45Z</time></trkpt><trkpt lat="59.0887641907" lon="29.9869894981"><time>2026-04-22T10:55:48Z</time></trkpt><trkpt lat="59.0887641907" lon="29.9869894981"><time>2026-04-22T10:55:50Z</time></trkpt><trkpt lat="59.0887641907" lon="29.9869894981"><time>2026-04-22T10:55:53Z</time></trkpt><trkpt lat="59.0887641907" lon="29.9869894981"><time>2026-04-22T10:55:55Z</time></trkpt><trkpt lat="59.0887641907" lon="29.9869894981"><time>2026-04-22T10:55:58Z</time></trkpt><trkpt lat="59.0887641907" lon="29.9869894981"><time>2026-04-22T10:56:00Z</time></trkpt><trkpt lat="59.0887641907" lon="29.9869894981"><time>2026-04-22T10:56:03Z</time></trkpt><trkpt lat="59.0887641907" lon="29.9869894981"><time>2026-04-22T10:56:05Z</time></trkpt><trkpt lat="59.0887641907" lon="29.9869894981"><time>2026-04-22T10:56:08Z</time></trkpt><trkpt lat="59.0887641907" lon="29.9869894981"><time>2026-04-22T10:56:10Z</time></trkpt><trkpt lat="59.0887641907" lon="29.9869894981"><time>2026-04-22T10:56:13Z</time></trkpt><trkpt lat="59.0887641907" lon="29.9869894981"><time>2026-04-22T10:56:15Z</time></trkpt><trkpt lat="59.0887641907" lon="29.9869894981"><time>2026-04-22T10:56:18Z</time></trkpt><trkpt lat="59.0887641907" lon="29.9869894981"><time>2026-04-22T10:56:20Z</time></trkpt><trkpt lat="59.0887641907" lon="29.9869894981"><time>2026-04-22T10:56:23Z</time></trkpt><trkpt lat="59.0887641907" lon="29.9869894981"><time>2026-04-22T10:56:25Z</time></trkpt><trkpt lat="59.0887641907" lon="29.9869894981"><time>2026-04-22T10:56:28Z</time></trkpt><trkpt lat="59.0887641907" lon="29.9869894981"><time>2026-04-22T10:56:30Z</time></trkpt><trkpt lat="59.0887641907" lon="29.9870109558"><time>2026-04-22T10:56:33Z</time></trkpt><trkpt lat="59.0887641907" lon="29.9870109558"><time>2026-04-22T10:56:35Z</time></trkpt><trkpt lat="59.0887641907" lon="29.9870109558"><time>2026-04-22T10:56:38Z</time></trkpt><trkpt lat="59.0887641907" lon="29.9870109558"><time>2026-04-22T10:56:40Z</time></trkpt><trkpt lat="59.0887641907" lon="29.9870109558"><time>2026-04-22T10:56:43Z</time></trkpt><trkpt lat="59.0887641907" lon="29.9870109558"><time>2026-04-22T10:56:45Z</time></trkpt><trkpt lat="59.0887641907" lon="29.9870109558"><time>2026-04-22T10:56:48Z</time></trkpt><trkpt lat="59.0887641907" lon="29.9870109558"><time>2026-04-22T10:56:50Z</time></trkpt><trkpt lat="59.0887641907" lon="29.9870109558"><time>2026-04-22T10:56:53Z</time></trkpt><trkpt lat="59.0887641907" lon="29.9870109558"><time>2026-04-22T10:56:55Z</time></trkpt><trkpt lat="59.0887641907" lon="29.9870109558"><time>2026-04-22T10:56:58Z</time></trkpt><trkpt lat="59.0887641907" lon="29.9870109558"><time>2026-04-22T10:57:00Z</time></trkpt><trkpt lat="59.0887641907" lon="29.9870109558"><time>2026-04-22T10:57:03Z</time></trkpt><trkpt lat="59.0887641907" lon="29.9870109558"><time>2026-04-22T10:57:05Z</time></trkpt><trkpt lat="59.0887641907" lon="29.9870109558"><time>2026-04-22T10:57:08Z</time></trkpt><trkpt lat="59.0887641907" lon="29.9870109558"><time>2026-04-22T10:57:10Z</time></trkpt><trkpt lat="59.0887641907" lon="29.9870109558"><time>2026-04-22T10:57:13Z</time></trkpt><trkpt lat="59.0887641907" lon="29.9870109558"><time>2026-04-22T10:57:15Z</time></trkpt><trkpt lat="59.0887641907" lon="29.9870109558"><time>2026-04-22T10:57:18Z</time></trkpt><trkpt lat="59.0887641907" lon="29.9870109558"><time>2026-04-22T10:57:20Z</time></trkpt><trkpt lat="59.0887641907" lon="29.9870109558"><time>2026-04-22T10:57:23Z</time></trkpt><trkpt lat="59.0887641907" lon="29.9870109558"><time>2026-04-22T10:57:25Z</time></trkpt><trkpt lat="59.0887641907" lon="29.9870109558"><time>2026-04-22T10:57:28Z</time></trkpt><trkpt lat="59.0887641907" lon="29.9870109558"><time>2026-04-22T10:57:30Z</time></trkpt><trkpt lat="59.0887641907" lon="29.9870109558"><time>2026-04-22T10:57:33Z</time></trkpt><trkpt lat="59.0887641907" lon="29.9870109558"><time>2026-04-22T10:57:35Z</time></trkpt><trkpt lat="59.0887641907" lon="29.9870109558"><time>2026-04-22T10:57:38Z</time></trkpt><trkpt lat="59.0887641907" lon="29.9870109558"><time>2026-04-22T10:57:40Z</time></trkpt><trkpt lat="59.0887641907" lon="29.9870109558"><time>2026-04-22T10:57:43Z</time></trkpt><trkpt lat="59.0887641907" lon="29.9870109558"><time>2026-04-22T10:57:45Z</time></trkpt><trkpt lat="59.0887641907" lon="29.9870109558"><time>2026-04-22T10:57:48Z</time></trkpt><trkpt lat="59.0887641907" lon="29.9870109558"><time>2026-04-22T10:57:50Z</time></trkpt><trkpt lat="59.0887641907" lon="29.9870109558"><time>2026-04-22T10:57:53Z</time></trkpt><trkpt lat="59.0887641907" lon="29.9870109558"><time>2026-04-22T10:57:55Z</time></trkpt><trkpt lat="59.0887641907" lon="29.9870109558"><time>2026-04-22T10:57:58Z</time></trkpt><trkpt lat="59.0887641907" lon="29.9870109558"><time>2026-04-22T10:58:00Z</time></trkpt><trkpt lat="59.0887641907" lon="29.9870109558"><time>2026-04-22T10:58:03Z</time></trkpt><trkpt lat="59.0887641907" lon="29.9870109558"><time>2026-04-22T10:58:05Z</time></trkpt><trkpt lat="59.0887641907" lon="29.9870109558"><time>2026-04-22T10:58:08Z</time></trkpt><trkpt lat="59.0887641907" lon="29.9870109558"><time>2026-04-22T10:58:10Z</time></trkpt><trkpt lat="59.0887641907" lon="29.9870109558"><time>2026-04-22T10:58:13Z</time></trkpt><trkpt lat="59.0887641907" lon="29.9870109558"><time>2026-04-22T10:58:15Z</time></trkpt><trkpt lat="59.0887641907" lon="29.9870109558"><time>2026-04-22T10:58:18Z</time></trkpt><trkpt lat="59.0887641907" lon="29.9870109558"><time>2026-04-22T10:58:20Z</time></trkpt><trkpt lat="59.0887641907" lon="29.9870109558"><time>2026-04-22T10:58:23Z</time></trkpt><trkpt lat="59.0887641907" lon="29.9870109558"><time>2026-04-22T10:58:25Z</time></trkpt><trkpt lat="59.0887641907" lon="29.9870109558"><time>2026-04-22T10:58:28Z</time></trkpt><trkpt lat="59.0887641907" lon="29.9870109558"><time>2026-04-22T10:58:30Z</time></trkpt><trkpt lat="59.0887641907" lon="29.9870109558"><time>2026-04-22T10:58:33Z</time></trkpt><trkpt lat="59.0887641907" lon="29.9870109558"><time>2026-04-22T10:58:35Z</time></trkpt><trkpt lat="59.0887641907" lon="29.9870109558"><time>2026-04-22T10:58:38Z</time></trkpt><trkpt lat="59.0887641907" lon="29.9870109558"><time>2026-04-22T10:58:40Z</time></trkpt><trkpt lat="59.0887641907" lon="29.9870109558"><time>2026-04-22T10:58:43Z</time></trkpt><trkpt lat="59.0887856483" lon="29.9870324135"><time>2026-04-22T10:58:45Z</time></trkpt><trkpt lat="59.0888071060" lon="29.9870753288"><time>2026-04-22T10:58:48Z</time></trkpt><trkpt lat="59.0888285637" lon="29.9871611595"><time>2026-04-22T10:58:50Z</time></trkpt><trkpt lat="59.0888500214" lon="29.9872040749"><time>2026-04-22T10:58:53Z</time></trkpt><trkpt lat="59.0888929367" lon="29.9872469902"><time>2026-04-22T10:58:55Z</time></trkpt><trkpt lat="59.0888929367" lon="29.9872469902"><time>2026-04-22T10:58:58Z</time></trkpt><trkpt lat="59.0888929367" lon="29.9872469902"><time>2026-04-22T10:59:00Z</time></trkpt><trkpt lat="59.0888929367" lon="29.9872469902"><time>2026-04-22T10:59:03Z</time></trkpt><trkpt lat="59.0889143944" lon="29.9872469902"><time>2026-04-22T10:59:05Z</time></trkpt><trkpt lat="59.0889358521" lon="29.9872469902"><time>2026-04-22T10:59:08Z</time></trkpt><trkpt lat="59.0889787674" lon="29.9872469902"><time>2026-04-22T10:59:10Z</time></trkpt><trkpt lat="59.0889787674" lon="29.9872469902"><time>2026-04-22T10:59:13Z</time></trkpt><trkpt lat="59.0889787674" lon="29.9872469902"><time>2026-04-22T10:59:15Z</time></trkpt><trkpt lat="59.0889787674" lon="29.9872469902"><time>2026-04-22T10:59:18Z</time></trkpt><trkpt lat="59.0889787674" lon="29.9872469902"><time>2026-04-22T10:59:20Z</time></trkpt><trkpt lat="59.0889787674" lon="29.9872469902"><time>2026-04-22T10:59:23Z</time></trkpt><trkpt lat="59.0889787674" lon="29.9872469902"><time>2026-04-22T10:59:25Z</time></trkpt><trkpt lat="59.0889787674" lon="29.9872469902"><time>2026-04-22T10:59:28Z</time></trkpt><trkpt lat="59.0890431404" lon="29.9873113632"><time>2026-04-22T10:59:30Z</time></trkpt><trkpt lat="59.0890860558" lon="29.9873113632"><time>2026-04-22T10:59:33Z</time></trkpt><trkpt lat="59.0891504288" lon="29.9873542786"><time>2026-04-22T10:59:35Z</time></trkpt><trkpt lat="59.0891718864" lon="29.9873757362"><time>2026-04-22T10:59:38Z</time></trkpt><trkpt lat="59.0891718864" lon="29.9873757362"><time>2026-04-22T10:59:40Z</time></trkpt><trkpt lat="59.0891718864" lon="29.9873757362"><time>2026-04-22T10:59:43Z</time></trkpt><trkpt lat="59.0891718864" lon="29.9873757362"><time>2026-04-22T10:59:45Z</time></trkpt><trkpt lat="59.0891718864" lon="29.9873757362"><time>2026-04-22T10:59:48Z</time></trkpt><trkpt lat="59.0891718864" lon="29.9873757362"><time>2026-04-22T10:59:50Z</time></trkpt><trkpt lat="59.0891718864" lon="29.9873757362"><time>2026-04-22T10:59:53Z</time></trkpt><trkpt lat="59.0891718864" lon="29.9873757362"><time>2026-04-22T10:59:55Z</time></trkpt><trkpt lat="59.0891718864" lon="29.9873757362"><time>2026-04-22T10:59:58Z</time></trkpt><trkpt lat="59.0891933441" lon="29.9873757362"><time>2026-04-22T11:00:00Z</time></trkpt><trkpt lat="59.0891933441" lon="29.9873971939"><time>2026-04-22T11:00:03Z</time></trkpt><trkpt lat="59.0891933441" lon="29.9873971939"><time>2026-04-22T11:00:05Z</time></trkpt><trkpt lat="59.0891933441" lon="29.9873971939"><time>2026-04-22T11:00:08Z</time></trkpt><trkpt lat="59.0891933441" lon="29.9873971939"><time>2026-04-22T11:00:10Z</time></trkpt><trkpt lat="59.0892148018" lon="29.9874186516"><time>2026-04-22T11:00:13Z</time></trkpt><trkpt lat="59.0892791748" lon="29.9874615669"><time>2026-04-22T11:00:15Z</time></trkpt><trkpt lat="59.0892791748" lon="29.9874615669"><time>2026-04-22T11:00:18Z</time></trkpt><trkpt lat="59.0892791748" lon="29.9874615669"><time>2026-04-22T11:00:20Z</time></trkpt><trkpt lat="59.0893006325" lon="29.9874401093"><time>2026-04-22T11:00:23Z</time></trkpt><trkpt lat="59.0893435478" lon="29.9873757362"><time>2026-04-22T11:00:25Z</time></trkpt><trkpt lat="59.0893650055" lon="29.9873328209"><time>2026-04-22T11:00:28Z</time></trkpt><trkpt lat="59.0893650055" lon="29.9872684479"><time>2026-04-22T11:00:30Z</time></trkpt><trkpt lat="59.0893650055" lon="29.9872684479"><time>2026-04-22T11:00:33Z</time></trkpt><trkpt lat="59.0893650055" lon="29.9872684479"><time>2026-04-22T11:00:35Z</time></trkpt><trkpt lat="59.0893650055" lon="29.9872684479"><time>2026-04-22T11:00:38Z</time></trkpt><trkpt lat="59.0894079208" lon="29.9872899055"><time>2026-04-22T11:00:40Z</time></trkpt><trkpt lat="59.0894293785" lon="29.9873113632"><time>2026-04-22T11:00:43Z</time></trkpt><trkpt lat="59.0894293785" lon="29.9873113632"><time>2026-04-22T11:00:45Z</time></trkpt><trkpt lat="59.0894293785" lon="29.9873113632"><time>2026-04-22T11:00:48Z</time></trkpt><trkpt lat="59.0894293785" lon="29.9873113632"><time>2026-04-22T11:00:50Z</time></trkpt><trkpt lat="59.0894293785" lon="29.9873113632"><time>2026-04-22T11:00:53Z</time></trkpt><trkpt lat="59.0894293785" lon="29.9873113632"><time>2026-04-22T11:00:55Z</time></trkpt><trkpt lat="59.0894293785" lon="29.9873113632"><time>2026-04-22T11:00:58Z</time></trkpt><trkpt lat="59.0894293785" lon="29.9873113632"><time>2026-04-22T11:01:00Z</time></trkpt><trkpt lat="59.0894293785" lon="29.9873113632"><time>2026-04-22T11:01:03Z</time></trkpt><trkpt lat="59.0894293785" lon="29.9873113632"><time>2026-04-22T11:01:05Z</time></trkpt><trkpt lat="59.0894293785" lon="29.9873113632"><time>2026-04-22T11:01:08Z</time></trkpt><trkpt lat="59.0894293785" lon="29.9873113632"><time>2026-04-22T11:01:10Z</time></trkpt><trkpt lat="59.0894293785" lon="29.9873113632"><time>2026-04-22T11:01:13Z</time></trkpt><trkpt lat="59.0894293785" lon="29.9873113632"><time>2026-04-22T11:01:15Z</time></trkpt><trkpt lat="59.0894293785" lon="29.9873113632"><time>2026-04-22T11:01:18Z</time></trkpt><trkpt lat="59.0894508362" lon="29.9872899055"><time>2026-04-22T11:01:20Z</time></trkpt><trkpt lat="59.0894722939" lon="29.9872899055"><time>2026-04-22T11:01:23Z</time></trkpt><trkpt lat="59.0894937515" lon="29.9872899055"><time>2026-04-22T11:01:25Z</time></trkpt><trkpt lat="59.0894937515" lon="29.9872899055"><time>2026-04-22T11:01:28Z</time></trkpt><trkpt lat="59.0894937515" lon="29.9872899055"><time>2026-04-22T11:01:30Z</time></trkpt><trkpt lat="59.0894937515" lon="29.9872899055"><time>2026-04-22T11:01:33Z</time></trkpt><trkpt lat="59.0894937515" lon="29.9872899055"><time>2026-04-22T11:01:35Z</time></trkpt><trkpt lat="59.0894937515" lon="29.9872899055"><time>2026-04-22T11:01:38Z</time></trkpt><trkpt lat="59.0894937515" lon="29.9872899055"><time>2026-04-22T11:01:40Z</time></trkpt><trkpt lat="59.0894937515" lon="29.9872899055"><time>2026-04-22T11:01:43Z</time></trkpt><trkpt lat="59.0894937515" lon="29.9872899055"><time>2026-04-22T11:01:45Z</time></trkpt><trkpt lat="59.0894937515" lon="29.9872899055"><time>2026-04-22T11:01:48Z</time></trkpt><trkpt lat="59.0894937515" lon="29.9872899055"><time>2026-04-22T11:01:50Z</time></trkpt><trkpt lat="59.0894937515" lon="29.9872899055"><time>2026-04-22T11:01:53Z</time></trkpt><trkpt lat="59.0894937515" lon="29.9872684479"><time>2026-04-22T11:01:55Z</time></trkpt><trkpt lat="59.0894937515" lon="29.9872469902"><time>2026-04-22T11:01:58Z</time></trkpt><trkpt lat="59.0894937515" lon="29.9872469902"><time>2026-04-22T11:02:00Z</time></trkpt><trkpt lat="59.0894937515" lon="29.9872469902"><time>2026-04-22T11:02:03Z</time></trkpt><trkpt lat="59.0894937515" lon="29.9872469902"><time>2026-04-22T11:02:05Z</time></trkpt><trkpt lat="59.0894937515" lon="29.9872469902"><time>2026-04-22T11:02:08Z</time></trkpt><trkpt lat="59.0894937515" lon="29.9872469902"><time>2026-04-22T11:02:10Z</time></trkpt><trkpt lat="59.0894937515" lon="29.9872469902"><time>2026-04-22T11:02:13Z</time></trkpt><trkpt lat="59.0894937515" lon="29.9872469902"><time>2026-04-22T11:02:15Z</time></trkpt><trkpt lat="59.0894937515" lon="29.9872469902"><time>2026-04-22T11:02:18Z</time></trkpt><trkpt lat="59.0894937515" lon="29.9872469902"><time>2026-04-22T11:02:20Z</time></trkpt><trkpt lat="59.0894937515" lon="29.9872469902"><time>2026-04-22T11:02:23Z</time></trkpt><trkpt lat="59.0894937515" lon="29.9872469902"><time>2026-04-22T11:02:25Z</time></trkpt><trkpt lat="59.0894937515" lon="29.9872469902"><time>2026-04-22T11:02:28Z</time></trkpt><trkpt lat="59.0894937515" lon="29.9872469902"><time>2026-04-22T11:02:30Z</time></trkpt><trkpt lat="59.0894937515" lon="29.9872469902"><time>2026-04-22T11:02:33Z</time></trkpt><trkpt lat="59.0894937515" lon="29.9872469902"><time>2026-04-22T11:02:35Z</time></trkpt><trkpt lat="59.0894937515" lon="29.9872469902"><time>2026-04-22T11:02:38Z</time></trkpt><trkpt lat="59.0894937515" lon="29.9872469902"><time>2026-04-22T11:02:40Z</time></trkpt><trkpt lat="59.0894937515" lon="29.9872469902"><time>2026-04-22T11:02:43Z</time></trkpt><trkpt lat="59.0894937515" lon="29.9872469902"><time>2026-04-22T11:02:45Z</time></trkpt><trkpt lat="59.0894937515" lon="29.9872469902"><time>2026-04-22T11:02:48Z</time></trkpt><trkpt lat="59.0894937515" lon="29.9872469902"><time>2026-04-22T11:02:50Z</time></trkpt><trkpt lat="59.0894937515" lon="29.9872469902"><time>2026-04-22T11:02:53Z</time></trkpt><trkpt lat="59.0894937515" lon="29.9872469902"><time>2026-04-22T11:02:55Z</time></trkpt><trkpt lat="59.0894937515" lon="29.9872469902"><time>2026-04-22T11:02:58Z</time></trkpt><trkpt lat="59.0894937515" lon="29.9872040749"><time>2026-04-22T11:03:00Z</time></trkpt><trkpt lat="59.0894937515" lon="29.9871611595"><time>2026-04-22T11:03:03Z</time></trkpt><trkpt lat="59.0894937515" lon="29.9871611595"><time>2026-04-22T11:03:05Z</time></trkpt><trkpt lat="59.0894722939" lon="29.9871397018"><time>2026-04-22T11:03:08Z</time></trkpt><trkpt lat="59.0894508362" lon="29.9870967865"><time>2026-04-22T11:03:10Z</time></trkpt><trkpt lat="59.0894508362" lon="29.9870753288"><time>2026-04-22T11:03:13Z</time></trkpt><trkpt lat="59.0894508362" lon="29.9870753288"><time>2026-04-22T11:03:15Z</time></trkpt><trkpt lat="59.0894508362" lon="29.9870753288"><time>2026-04-22T11:03:18Z</time></trkpt><trkpt lat="59.0894508362" lon="29.9870538712"><time>2026-04-22T11:03:20Z</time></trkpt><trkpt lat="59.0894508362" lon="29.9870538712"><time>2026-04-22T11:03:23Z</time></trkpt><trkpt lat="59.0894508362" lon="29.9870538712"><time>2026-04-22T11:03:25Z</time></trkpt><trkpt lat="59.0894508362" lon="29.9870538712"><time>2026-04-22T11:03:28Z</time></trkpt><trkpt lat="59.0894508362" lon="29.9870109558"><time>2026-04-22T11:03:30Z</time></trkpt><trkpt lat="59.0894722939" lon="29.9869680405"><time>2026-04-22T11:03:33Z</time></trkpt><trkpt lat="59.0894937515" lon="29.9869036674"><time>2026-04-22T11:03:35Z</time></trkpt><trkpt lat="59.0894937515" lon="29.9868392944"><time>2026-04-22T11:03:38Z</time></trkpt><trkpt lat="59.0894937515" lon="29.9867749214"><time>2026-04-22T11:03:40Z</time></trkpt><trkpt lat="59.0895152092" lon="29.9867534637"><time>2026-04-22T11:03:43Z</time></trkpt><trkpt lat="59.0895152092" lon="29.9867534637"><time>2026-04-22T11:03:45Z</time></trkpt><trkpt lat="59.0895152092" lon="29.9867534637"><time>2026-04-22T11:03:48Z</time></trkpt><trkpt lat="59.0895152092" lon="29.9867534637"><time>2026-04-22T11:03:50Z</time></trkpt><trkpt lat="59.0895152092" lon="29.9867534637"><time>2026-04-22T11:03:53Z</time></trkpt><trkpt lat="59.0895152092" lon="29.9867534637"><time>2026-04-22T11:03:55Z</time></trkpt><trkpt lat="59.0895152092" lon="29.9867534637"><time>2026-04-22T11:03:58Z</time></trkpt><trkpt lat="59.0895152092" lon="29.9867534637"><time>2026-04-22T11:04:00Z</time></trkpt><trkpt lat="59.0895152092" lon="29.9867320061"><time>2026-04-22T11:04:03Z</time></trkpt><trkpt lat="59.0895152092" lon="29.9866247177"><time>2026-04-22T11:04:05Z</time></trkpt><trkpt lat="59.0895152092" lon="29.9865603447"><time>2026-04-22T11:04:08Z</time></trkpt><trkpt lat="59.0894937515" lon="29.9864745140"><time>2026-04-22T11:04:10Z</time></trkpt><trkpt lat="59.0894937515" lon="29.9864530563"><time>2026-04-22T11:04:13Z</time></trkpt><trkpt lat="59.0894937515" lon="29.9864530563"><time>2026-04-22T11:04:15Z</time></trkpt><trkpt lat="59.0894937515" lon="29.9863886833"><time>2026-04-22T11:04:18Z</time></trkpt><trkpt lat="59.0894937515" lon="29.9862813950"><time>2026-04-22T11:04:20Z</time></trkpt><trkpt lat="59.0894937515" lon="29.9862170219"><time>2026-04-22T11:04:23Z</time></trkpt><trkpt lat="59.0894937515" lon="29.9861955643"><time>2026-04-22T11:04:25Z</time></trkpt><trkpt lat="59.0894937515" lon="29.9861955643"><time>2026-04-22T11:04:28Z</time></trkpt><trkpt lat="59.0894937515" lon="29.9861955643"><time>2026-04-22T11:04:30Z</time></trkpt><trkpt lat="59.0894937515" lon="29.9861955643"><time>2026-04-22T11:04:33Z</time></trkpt><trkpt lat="59.0894937515" lon="29.9861955643"><time>2026-04-22T11:04:35Z</time></trkpt><trkpt lat="59.0894937515" lon="29.9861955643"><time>2026-04-22T11:04:38Z</time></trkpt><trkpt lat="59.0894722939" lon="29.9861311913"><time>2026-04-22T11:04:40Z</time></trkpt><trkpt lat="59.0894722939" lon="29.9860453606"><time>2026-04-22T11:04:43Z</time></trkpt><trkpt lat="59.0894722939" lon="29.9859809875"><time>2026-04-22T11:04:45Z</time></trkpt><trkpt lat="59.0894722939" lon="29.9859809875"><time>2026-04-22T11:04:48Z</time></trkpt><trkpt lat="59.0894722939" lon="29.9859809875"><time>2026-04-22T11:04:50Z</time></trkpt><trkpt lat="59.0894722939" lon="29.9859809875"><time>2026-04-22T11:04:53Z</time></trkpt><trkpt lat="59.0894722939" lon="29.9859809875"><time>2026-04-22T11:04:55Z</time></trkpt><trkpt lat="59.0894508362" lon="29.9859595299"><time>2026-04-22T11:04:58Z</time></trkpt><trkpt lat="59.0894508362" lon="29.9858522415"><time>2026-04-22T11:05:00Z</time></trkpt><trkpt lat="59.0894293785" lon="29.9857878685"><time>2026-04-22T11:05:03Z</time></trkpt><trkpt lat="59.0894079208" lon="29.9857449532"><time>2026-04-22T11:05:05Z</time></trkpt><trkpt lat="59.0894079208" lon="29.9857449532"><time>2026-04-22T11:05:08Z</time></trkpt><trkpt lat="59.0894293785" lon="29.9857449532"><time>2026-04-22T11:05:10Z</time></trkpt><trkpt lat="59.0894293785" lon="29.9857020378"><time>2026-04-22T11:05:13Z</time></trkpt><trkpt lat="59.0894293785" lon="29.9856591225"><time>2026-04-22T11:05:15Z</time></trkpt><trkpt lat="59.0893864632" lon="29.9855947495"><time>2026-04-22T11:05:18Z</time></trkpt><trkpt lat="59.0893864632" lon="29.9855947495"><time>2026-04-22T11:05:20Z</time></trkpt><trkpt lat="59.0893864632" lon="29.9855947495"><time>2026-04-22T11:05:23Z</time></trkpt><trkpt lat="59.0893650055" lon="29.9855732918"><time>2026-04-22T11:05:25Z</time></trkpt><trkpt lat="59.0893435478" lon="29.9855518341"><time>2026-04-22T11:05:28Z</time></trkpt><trkpt lat="59.0893220901" lon="29.9855303764"><time>2026-04-22T11:05:30Z</time></trkpt><trkpt lat="59.0893006325" lon="29.9855303764"><time>2026-04-22T11:05:33Z</time></trkpt><trkpt lat="59.0892791748" lon="29.9855303764"><time>2026-04-22T11:05:35Z</time></trkpt><trkpt lat="59.0893006325" lon="29.9855303764"><time>2026-04-22T11:05:38Z</time></trkpt><trkpt lat="59.0893006325" lon="29.9855303764"><time>2026-04-22T11:05:40Z</time></trkpt><trkpt lat="59.0893006325" lon="29.9855303764"><time>2026-04-22T11:05:43Z</time></trkpt><trkpt lat="59.0892148018" lon="29.9855089188"><time>2026-04-22T11:05:45Z</time></trkpt><trkpt lat="59.0891718864" lon="29.9855303764"><time>2026-04-22T11:05:48Z</time></trkpt><trkpt lat="59.0891289711" lon="29.9855518341"><time>2026-04-22T11:05:50Z</time></trkpt><trkpt lat="59.0891075134" lon="29.9855518341"><time>2026-04-22T11:05:53Z</time></trkpt><trkpt lat="59.0891075134" lon="29.9855518341"><time>2026-04-22T11:05:55Z</time></trkpt><trkpt lat="59.0891075134" lon="29.9855518341"><time>2026-04-22T11:05:58Z</time></trkpt><trkpt lat="59.0890860558" lon="29.9855947495"><time>2026-04-22T11:06:00Z</time></trkpt><trkpt lat="59.0890645981" lon="29.9855947495"><time>2026-04-22T11:06:03Z</time></trkpt><trkpt lat="59.0890645981" lon="29.9855947495"><time>2026-04-22T11:06:05Z</time></trkpt><trkpt lat="59.0890431404" lon="29.9855732918"><time>2026-04-22T11:06:08Z</time></trkpt><trkpt lat="59.0890002251" lon="29.9855732918"><time>2026-04-22T11:06:10Z</time></trkpt><trkpt lat="59.0890002251" lon="29.9855732918"><time>2026-04-22T11:06:13Z</time></trkpt><trkpt lat="59.0890002251" lon="29.9855732918"><time>2026-04-22T11:06:15Z</time></trkpt><trkpt lat="59.0890002251" lon="29.9855732918"><time>2026-04-22T11:06:18Z</time></trkpt><trkpt lat="59.0890002251" lon="29.9855732918"><time>2026-04-22T11:06:20Z</time></trkpt><trkpt lat="59.0890002251" lon="29.9855732918"><time>2026-04-22T11:06:23Z</time></trkpt><trkpt lat="59.0890002251" lon="29.9855732918"><time>2026-04-22T11:06:25Z</time></trkpt><trkpt lat="59.0889787674" lon="29.9855518341"><time>2026-04-22T11:06:28Z</time></trkpt><trkpt lat="59.0889143944" lon="29.9855303764"><time>2026-04-22T11:06:30Z</time></trkpt><trkpt lat="59.0888714790" lon="29.9855089188"><time>2026-04-22T11:06:33Z</time></trkpt><trkpt lat="59.0888714790" lon="29.9855089188"><time>2026-04-22T11:06:35Z</time></trkpt><trkpt lat="59.0888714790" lon="29.9855089188"><time>2026-04-22T11:06:38Z</time></trkpt><trkpt lat="59.0888714790" lon="29.9855089188"><time>2026-04-22T11:06:40Z</time></trkpt><trkpt lat="59.0888714790" lon="29.9855089188"><time>2026-04-22T11:06:43Z</time></trkpt><trkpt lat="59.0888714790" lon="29.9855089188"><time>2026-04-22T11:06:45Z</time></trkpt><trkpt lat="59.0888714790" lon="29.9855089188"><time>2026-04-22T11:06:48Z</time></trkpt><trkpt lat="59.0888714790" lon="29.9855089188"><time>2026-04-22T11:06:50Z</time></trkpt><trkpt lat="59.0888714790" lon="29.9855089188"><time>2026-04-22T11:06:53Z</time></trkpt><trkpt lat="59.0888285637" lon="29.9854874611"><time>2026-04-22T11:06:55Z</time></trkpt><trkpt lat="59.0887856483" lon="29.9854874611"><time>2026-04-22T11:06:58Z</time></trkpt><trkpt lat="59.0887856483" lon="29.9854874611"><time>2026-04-22T11:07:00Z</time></trkpt><trkpt lat="59.0887427330" lon="29.9854660034"><time>2026-04-22T11:07:03Z</time></trkpt><trkpt lat="59.0887212753" lon="29.9854230881"><time>2026-04-22T11:07:05Z</time></trkpt><trkpt lat="59.0886998177" lon="29.9854016304"><time>2026-04-22T11:07:08Z</time></trkpt><trkpt lat="59.0886783600" lon="29.9853801727"><time>2026-04-22T11:07:10Z</time></trkpt><trkpt lat="59.0886569023" lon="29.9853587151"><time>2026-04-22T11:07:13Z</time></trkpt><trkpt lat="59.0886354446" lon="29.9853372574"><time>2026-04-22T11:07:15Z</time></trkpt><trkpt lat="59.0886139870" lon="29.9853372574"><time>2026-04-22T11:07:18Z</time></trkpt><trkpt lat="59.0885710716" lon="29.9852943420"><time>2026-04-22T11:07:20Z</time></trkpt><trkpt lat="59.0885281563" lon="29.9852943420"><time>2026-04-22T11:07:23Z</time></trkpt><trkpt lat="59.0884852409" lon="29.9853157997"><time>2026-04-22T11:07:25Z</time></trkpt><trkpt lat="59.0884637833" lon="29.9853157997"><time>2026-04-22T11:07:28Z</time></trkpt><trkpt lat="59.0884423256" lon="29.9852943420"><time>2026-04-22T11:07:30Z</time></trkpt><trkpt lat="59.0884423256" lon="29.9852943420"><time>2026-04-22T11:07:33Z</time></trkpt><trkpt lat="59.0884423256" lon="29.9853157997"><time>2026-04-22T11:07:35Z</time></trkpt><trkpt lat="59.0884423256" lon="29.9853157997"><time>2026-04-22T11:07:38Z</time></trkpt><trkpt lat="59.0884423256" lon="29.9853157997"><time>2026-04-22T11:07:40Z</time></trkpt><trkpt lat="59.0883994102" lon="29.9853157997"><time>2026-04-22T11:07:43Z</time></trkpt><trkpt lat="59.0883779526" lon="29.9853157997"><time>2026-04-22T11:07:45Z</time></trkpt><trkpt lat="59.0883779526" lon="29.9853157997"><time>2026-04-22T11:07:48Z</time></trkpt><trkpt lat="59.0883994102" lon="29.9853157997"><time>2026-04-22T11:07:50Z</time></trkpt><trkpt lat="59.0884208679" lon="29.9853157997"><time>2026-04-22T11:07:53Z</time></trkpt><trkpt lat="59.0884423256" lon="29.9852728844"><time>2026-04-22T11:07:55Z</time></trkpt><trkpt lat="59.0884423256" lon="29.9852514267"><time>2026-04-22T11:07:58Z</time></trkpt><trkpt lat="59.0884423256" lon="29.9852728844"><time>2026-04-22T11:08:00Z</time></trkpt><trkpt lat="59.0884423256" lon="29.9852728844"><time>2026-04-22T11:08:03Z</time></trkpt><trkpt lat="59.0884423256" lon="29.9852728844"><time>2026-04-22T11:08:05Z</time></trkpt><trkpt lat="59.0884423256" lon="29.9852728844"><time>2026-04-22T11:08:08Z</time></trkpt><trkpt lat="59.0884637833" lon="29.9852514267"><time>2026-04-22T11:08:10Z</time></trkpt><trkpt lat="59.0884637833" lon="29.9852514267"><time>2026-04-22T11:08:13Z</time></trkpt><trkpt lat="59.0884423256" lon="29.9852514267"><time>2026-04-22T11:08:15Z</time></trkpt><trkpt lat="59.0884637833" lon="29.9852514267"><time>2026-04-22T11:08:18Z</time></trkpt><trkpt lat="59.0885066986" lon="29.9852299690"><time>2026-04-22T11:08:20Z</time></trkpt><trkpt lat="59.0885281563" lon="29.9852299690"><time>2026-04-22T11:08:23Z</time></trkpt><trkpt lat="59.0885710716" lon="29.9852943420"><time>2026-04-22T11:08:25Z</time></trkpt><trkpt lat="59.0885925293" lon="29.9853372574"><time>2026-04-22T11:08:28Z</time></trkpt><trkpt lat="59.0886354446" lon="29.9853587151"><time>2026-04-22T11:08:30Z</time></trkpt><trkpt lat="59.0886354446" lon="29.9853372574"><time>2026-04-22T11:08:33Z</time></trkpt><trkpt lat="59.0886354446" lon="29.9853372574"><time>2026-04-22T11:08:35Z</time></trkpt><trkpt lat="59.0886783600" lon="29.9853587151"><time>2026-04-22T11:08:38Z</time></trkpt><trkpt lat="59.0887212753" lon="29.9854016304"><time>2026-04-22T11:08:40Z</time></trkpt><trkpt lat="59.0887427330" lon="29.9854445457"><time>2026-04-22T11:08:43Z</time></trkpt><trkpt lat="59.0887427330" lon="29.9854445457"><time>2026-04-22T11:08:45Z</time></trkpt><trkpt lat="59.0887427330" lon="29.9854230881"><time>2026-04-22T11:08:48Z</time></trkpt><trkpt lat="59.0887427330" lon="29.9854230881"><time>2026-04-22T11:08:50Z</time></trkpt><trkpt lat="59.0887427330" lon="29.9854230881"><time>2026-04-22T11:08:53Z</time></trkpt><trkpt lat="59.0887427330" lon="29.9854230881"><time>2026-04-22T11:08:55Z</time></trkpt><trkpt lat="59.0887427330" lon="29.9854230881"><time>2026-04-22T11:08:58Z</time></trkpt><trkpt lat="59.0887427330" lon="29.9854230881"><time>2026-04-22T11:09:00Z</time></trkpt><trkpt lat="59.0887427330" lon="29.9854230881"><time>2026-04-22T11:09:03Z</time></trkpt><trkpt lat="59.0887427330" lon="29.9854230881"><time>2026-04-22T11:09:05Z</time></trkpt><trkpt lat="59.0887427330" lon="29.9854230881"><time>2026-04-22T11:09:08Z</time></trkpt><trkpt lat="59.0887427330" lon="29.9854230881"><time>2026-04-22T11:09:10Z</time></trkpt><trkpt lat="59.0887427330" lon="29.9854230881"><time>2026-04-22T11:09:13Z</time></trkpt><trkpt lat="59.0887641907" lon="29.9854230881"><time>2026-04-22T11:09:15Z</time></trkpt><trkpt lat="59.0887856483" lon="29.9854660034"><time>2026-04-22T11:09:18Z</time></trkpt><trkpt lat="59.0888285637" lon="29.9854874611"><time>2026-04-22T11:09:20Z</time></trkpt><trkpt lat="59.0888500214" lon="29.9855303764"><time>2026-04-22T11:09:23Z</time></trkpt><trkpt lat="59.0888500214" lon="29.9855947495"><time>2026-04-22T11:09:25Z</time></trkpt><trkpt lat="59.0888714790" lon="29.9856162071"><time>2026-04-22T11:09:28Z</time></trkpt><trkpt lat="59.0888714790" lon="29.9856162071"><time>2026-04-22T11:09:30Z</time></trkpt><trkpt lat="59.0888714790" lon="29.9856162071"><time>2026-04-22T11:09:33Z</time></trkpt><trkpt lat="59.0888714790" lon="29.9856591225"><time>2026-04-22T11:09:35Z</time></trkpt><trkpt lat="59.0888714790" lon="29.9857020378"><time>2026-04-22T11:09:38Z</time></trkpt><trkpt lat="59.0888714790" lon="29.9857020378"><time>2026-04-22T11:09:40Z</time></trkpt><trkpt lat="59.0888714790" lon="29.9857234955"><time>2026-04-22T11:09:43Z</time></trkpt><trkpt lat="59.0888714790" lon="29.9858093262"><time>2026-04-22T11:09:45Z</time></trkpt><trkpt lat="59.0888929367" lon="29.9858522415"><time>2026-04-22T11:09:48Z</time></trkpt><trkpt lat="59.0889143944" lon="29.9859166145"><time>2026-04-22T11:09:50Z</time></trkpt><trkpt lat="59.0888929367" lon="29.9859809875"><time>2026-04-22T11:09:53Z</time></trkpt><trkpt lat="59.0888285637" lon="29.9859380722"><time>2026-04-22T11:09:55Z</time></trkpt><trkpt lat="59.0888714790" lon="29.9858307838"><time>2026-04-22T11:09:58Z</time></trkpt><trkpt lat="59.0889358521" lon="29.9856591225"><time>2026-04-22T11:10:00Z</time></trkpt><trkpt lat="59.0889787674" lon="29.9855947495"><time>2026-04-22T11:10:03Z</time></trkpt><trkpt lat="59.0890431404" lon="29.9855518341"><time>2026-04-22T11:10:05Z</time></trkpt><trkpt lat="59.0890645981" lon="29.9855089188"><time>2026-04-22T11:10:08Z</time></trkpt><trkpt lat="59.0890645981" lon="29.9854660034"><time>2026-04-22T11:10:10Z</time></trkpt><trkpt lat="59.0890645981" lon="29.9854874611"><time>2026-04-22T11:10:13Z</time></trkpt><trkpt lat="59.0890860558" lon="29.9854874611"><time>2026-04-22T11:10:15Z</time></trkpt><trkpt lat="59.0890860558" lon="29.9854874611"><time>2026-04-22T11:10:18Z</time></trkpt><trkpt lat="59.0890645981" lon="29.9855303764"><time>2026-04-22T11:10:20Z</time></trkpt><trkpt lat="59.0890645981" lon="29.9855303764"><time>2026-04-22T11:10:23Z</time></trkpt><trkpt lat="59.0890645981" lon="29.9855303764"><time>2026-04-22T11:10:25Z</time></trkpt><trkpt lat="59.0890645981" lon="29.9855303764"><time>2026-04-22T11:10:28Z</time></trkpt><trkpt lat="59.0890645981" lon="29.9855303764"><time>2026-04-22T11:10:30Z</time></trkpt><trkpt lat="59.0890645981" lon="29.9855303764"><time>2026-04-22T11:10:33Z</time></trkpt><trkpt lat="59.0890645981" lon="29.9855303764"><time>2026-04-22T11:10:35Z</time></trkpt><trkpt lat="59.0890645981" lon="29.9855303764"><time>2026-04-22T11:10:38Z</time></trkpt><trkpt lat="59.0890645981" lon="29.9855303764"><time>2026-04-22T11:10:40Z</time></trkpt><trkpt lat="59.0890645981" lon="29.9855303764"><time>2026-04-22T11:10:43Z</time></trkpt><trkpt lat="59.0890645981" lon="29.9855303764"><time>2026-04-22T11:10:45Z</time></trkpt><trkpt lat="59.0890645981" lon="29.9855303764"><time>2026-04-22T11:10:48Z</time></trkpt><trkpt lat="59.0890645981" lon="29.9855303764"><time>2026-04-22T11:10:50Z</time></trkpt><trkpt lat="59.0890645981" lon="29.9855303764"><time>2026-04-22T11:10:53Z</time></trkpt><trkpt lat="59.0890645981" lon="29.9855303764"><time>2026-04-22T11:10:55Z</time></trkpt><trkpt lat="59.0890645981" lon="29.9855303764"><time>2026-04-22T11:10:58Z</time></trkpt><trkpt lat="59.0890645981" lon="29.9855303764"><time>2026-04-22T11:11:00Z</time></trkpt><trkpt lat="59.0890645981" lon="29.9855303764"><time>2026-04-22T11:11:03Z</time></trkpt><trkpt lat="59.0890645981" lon="29.9855303764"><time>2026-04-22T11:11:05Z</time></trkpt><trkpt lat="59.0890645981" lon="29.9855303764"><time>2026-04-22T11:11:08Z</time></trkpt><trkpt lat="59.0890645981" lon="29.9855303764"><time>2026-04-22T11:11:10Z</time></trkpt><trkpt lat="59.0890645981" lon="29.9855303764"><time>2026-04-22T11:11:13Z</time></trkpt><trkpt lat="59.0890645981" lon="29.9855303764"><time>2026-04-22T11:11:15Z</time></trkpt><trkpt lat="59.0890645981" lon="29.9855303764"><time>2026-04-22T11:11:18Z</time></trkpt><trkpt lat="59.0890645981" lon="29.9855303764"><time>2026-04-22T11:11:20Z</time></trkpt><trkpt lat="59.0890645981" lon="29.9855303764"><time>2026-04-22T11:11:23Z</time></trkpt><trkpt lat="59.0890645981" lon="29.9855303764"><time>2026-04-22T11:11:25Z</time></trkpt><trkpt lat="59.0890645981" lon="29.9855303764"><time>2026-04-22T11:11:28Z</time></trkpt><trkpt lat="59.0890645981" lon="29.9855303764"><time>2026-04-22T11:11:30Z</time></trkpt><trkpt lat="59.0890645981" lon="29.9855303764"><time>2026-04-22T11:11:33Z</time></trkpt><trkpt lat="59.0890645981" lon="29.9855303764"><time>2026-04-22T11:11:35Z</time></trkpt><trkpt lat="59.0890645981" lon="29.9855303764"><time>2026-04-22T11:11:38Z</time></trkpt><trkpt lat="59.0890645981" lon="29.9855303764"><time>2026-04-22T11:11:40Z</time></trkpt><trkpt lat="59.0890645981" lon="29.9855303764"><time>2026-04-22T11:11:43Z</time></trkpt><trkpt lat="59.0890645981" lon="29.9855303764"><time>2026-04-22T11:11:45Z</time></trkpt><trkpt lat="59.0890645981" lon="29.9855303764"><time>2026-04-22T11:11:48Z</time></trkpt><trkpt lat="59.0890645981" lon="29.9855303764"><time>2026-04-22T11:11:50Z</time></trkpt><trkpt lat="59.0890645981" lon="29.9855303764"><time>2026-04-22T11:11:53Z</time></trkpt><trkpt lat="59.0890645981" lon="29.9855303764"><time>2026-04-22T11:11:55Z</time></trkpt><trkpt lat="59.0890645981" lon="29.9855303764"><time>2026-04-22T11:11:58Z</time></trkpt><trkpt lat="59.0890645981" lon="29.9855303764"><time>2026-04-22T11:12:00Z</time></trkpt><trkpt lat="59.0890645981" lon="29.9855303764"><time>2026-04-22T11:12:03Z</time></trkpt><trkpt lat="59.0890645981" lon="29.9855303764"><time>2026-04-22T11:12:05Z</time></trkpt><trkpt lat="59.0890645981" lon="29.9855303764"><time>2026-04-22T11:12:08Z</time></trkpt><trkpt lat="59.0890645981" lon="29.9855303764"><time>2026-04-22T11:12:10Z</time></trkpt><trkpt lat="59.0890645981" lon="29.9855303764"><time>2026-04-22T11:12:13Z</time></trkpt><trkpt lat="59.0890645981" lon="29.9855303764"><time>2026-04-22T11:12:15Z</time></trkpt><trkpt lat="59.0890645981" lon="29.9855303764"><time>2026-04-22T11:12:18Z</time></trkpt><trkpt lat="59.0890645981" lon="29.9855303764"><time>2026-04-22T11:12:20Z</time></trkpt><trkpt lat="59.0890860558" lon="29.9855518341"><time>2026-04-22T11:12:23Z</time></trkpt><trkpt lat="59.0890860558" lon="29.9855518341"><time>2026-04-22T11:12:25Z</time></trkpt><trkpt lat="59.0890645981" lon="29.9857020378"><time>2026-04-22T11:12:28Z</time></trkpt><trkpt lat="59.0890216827" lon="29.9859166145"><time>2026-04-22T11:12:30Z</time></trkpt><trkpt lat="59.0890002251" lon="29.9860239029"><time>2026-04-22T11:12:33Z</time></trkpt><trkpt lat="59.0890002251" lon="29.9860239029"><time>2026-04-22T11:12:35Z</time></trkpt><trkpt lat="59.0890002251" lon="29.9860453606"><time>2026-04-22T11:12:38Z</time></trkpt><trkpt lat="59.0889787674" lon="29.9861097336"><time>2026-04-22T11:12:40Z</time></trkpt><trkpt lat="59.0889787674" lon="29.9861097336"><time>2026-04-22T11:12:43Z</time></trkpt><trkpt lat="59.0890431404" lon="29.9860024452"><time>2026-04-22T11:12:45Z</time></trkpt><trkpt lat="59.0890645981" lon="29.9858522415"><time>2026-04-22T11:12:48Z</time></trkpt><trkpt lat="59.0891075134" lon="29.9856162071"><time>2026-04-22T11:12:50Z</time></trkpt><trkpt lat="59.0891289711" lon="29.9855303764"><time>2026-04-22T11:12:53Z</time></trkpt><trkpt lat="59.0891933441" lon="29.9855303764"><time>2026-04-22T11:12:55Z</time></trkpt><trkpt lat="59.0892362595" lon="29.9855089188"><time>2026-04-22T11:12:58Z</time></trkpt><trkpt lat="59.0892791748" lon="29.9855518341"><time>2026-04-22T11:13:00Z</time></trkpt><trkpt lat="59.0893006325" lon="29.9855732918"><time>2026-04-22T11:13:03Z</time></trkpt><trkpt lat="59.0893435478" lon="29.9856162071"><time>2026-04-22T11:13:05Z</time></trkpt><trkpt lat="59.0893650055" lon="29.9856591225"><time>2026-04-22T11:13:08Z</time></trkpt><trkpt lat="59.0893864632" lon="29.9856376648"><time>2026-04-22T11:13:10Z</time></trkpt><trkpt lat="59.0893864632" lon="29.9856591225"><time>2026-04-22T11:13:13Z</time></trkpt><trkpt lat="59.0893650055" lon="29.9856376648"><time>2026-04-22T11:13:15Z</time></trkpt><trkpt lat="59.0893650055" lon="29.9856376648"><time>2026-04-22T11:13:18Z</time></trkpt><trkpt lat="59.0894079208" lon="29.9857020378"><time>2026-04-22T11:13:20Z</time></trkpt><trkpt lat="59.0894293785" lon="29.9857234955"><time>2026-04-22T11:13:23Z</time></trkpt><trkpt lat="59.0894722939" lon="29.9857664108"><time>2026-04-22T11:13:25Z</time></trkpt><trkpt lat="59.0895152092" lon="29.9857878685"><time>2026-04-22T11:13:28Z</time></trkpt><trkpt lat="59.0895581245" lon="29.9858093262"><time>2026-04-22T11:13:30Z</time></trkpt><trkpt lat="59.0895795822" lon="29.9858307838"><time>2026-04-22T11:13:33Z</time></trkpt><trkpt lat="59.0896010399" lon="29.9858736992"><time>2026-04-22T11:13:35Z</time></trkpt><trkpt lat="59.0896010399" lon="29.9858736992"><time>2026-04-22T11:13:38Z</time></trkpt><trkpt lat="59.0896010399" lon="29.9858736992"><time>2026-04-22T11:13:40Z</time></trkpt><trkpt lat="59.0896224976" lon="29.9858951569"><time>2026-04-22T11:13:43Z</time></trkpt><trkpt lat="59.0896654129" lon="29.9859166145"><time>2026-04-22T11:13:45Z</time></trkpt><trkpt lat="59.0896868706" lon="29.9859166145"><time>2026-04-22T11:13:48Z</time></trkpt><trkpt lat="59.0897512436" lon="29.9859166145"><time>2026-04-22T11:13:50Z</time></trkpt><trkpt lat="59.0897512436" lon="29.9858951569"><time>2026-04-22T11:13:53Z</time></trkpt><trkpt lat="59.0897512436" lon="29.9858951569"><time>2026-04-22T11:13:55Z</time></trkpt><trkpt lat="59.0897512436" lon="29.9858951569"><time>2026-04-22T11:13:58Z</time></trkpt><trkpt lat="59.0897512436" lon="29.9858951569"><time>2026-04-22T11:14:00Z</time></trkpt><trkpt lat="59.0897083282" lon="29.9858951569"><time>2026-04-22T11:14:03Z</time></trkpt><trkpt lat="59.0896010399" lon="29.9858522415"><time>2026-04-22T11:14:05Z</time></trkpt><trkpt lat="59.0895795822" lon="29.9858522415"><time>2026-04-22T11:14:08Z</time></trkpt><trkpt lat="59.0896010399" lon="29.9858522415"><time>2026-04-22T11:14:10Z</time></trkpt><trkpt lat="59.0896010399" lon="29.9858736992"><time>2026-04-22T11:14:13Z</time></trkpt><trkpt lat="59.0896010399" lon="29.9858951569"><time>2026-04-22T11:14:15Z</time></trkpt><trkpt lat="59.0895795822" lon="29.9858307838"><time>2026-04-22T11:14:18Z</time></trkpt><trkpt lat="59.0895152092" lon="29.9857020378"><time>2026-04-22T11:14:20Z</time></trkpt><trkpt lat="59.0895152092" lon="29.9856376648"><time>2026-04-22T11:14:23Z</time></trkpt><trkpt lat="59.0895152092" lon="29.9855732918"><time>2026-04-22T11:14:25Z</time></trkpt><trkpt lat="59.0895366669" lon="29.9855089188"><time>2026-04-22T11:14:28Z</time></trkpt><trkpt lat="59.0895152092" lon="29.9855518341"><time>2026-04-22T11:14:30Z</time></trkpt><trkpt lat="59.0894508362" lon="29.9856591225"><time>2026-04-22T11:14:33Z</time></trkpt><trkpt lat="59.0894079208" lon="29.9856591225"><time>2026-04-22T11:14:35Z</time></trkpt><trkpt lat="59.0894079208" lon="29.9856376648"><time>2026-04-22T11:14:38Z</time></trkpt><trkpt lat="59.0894079208" lon="29.9856376648"><time>2026-04-22T11:14:40Z</time></trkpt><trkpt lat="59.0894079208" lon="29.9856376648"><time>2026-04-22T11:14:43Z</time></trkpt><trkpt lat="59.0894079208" lon="29.9856376648"><time>2026-04-22T11:14:45Z</time></trkpt><trkpt lat="59.0894079208" lon="29.9856376648"><time>2026-04-22T11:14:48Z</time></trkpt><trkpt lat="59.0894079208" lon="29.9856376648"><time>2026-04-22T11:14:50Z</time></trkpt><trkpt lat="59.0894079208" lon="29.9856376648"><time>2026-04-22T11:14:53Z</time></trkpt><trkpt lat="59.0894079208" lon="29.9856376648"><time>2026-04-22T11:14:55Z</time></trkpt><trkpt lat="59.0894079208" lon="29.9856376648"><time>2026-04-22T11:14:58Z</time></trkpt><trkpt lat="59.0894079208" lon="29.9856376648"><time>2026-04-22T11:15:00Z</time></trkpt><trkpt lat="59.0894079208" lon="29.9856376648"><time>2026-04-22T11:15:03Z</time></trkpt><trkpt lat="59.0894079208" lon="29.9856376648"><time>2026-04-22T11:15:05Z</time></trkpt><trkpt lat="59.0894079208" lon="29.9856376648"><time>2026-04-22T11:15:08Z</time></trkpt><trkpt lat="59.0894079208" lon="29.9856376648"><time>2026-04-22T11:15:10Z</time></trkpt><trkpt lat="59.0894079208" lon="29.9856376648"><time>2026-04-22T11:15:13Z</time></trkpt><trkpt lat="59.0894079208" lon="29.9856376648"><time>2026-04-22T11:15:15Z</time></trkpt><trkpt lat="59.0894079208" lon="29.9856591225"><time>2026-04-22T11:15:18Z</time></trkpt><trkpt lat="59.0894079208" lon="29.9856591225"><time>2026-04-22T11:15:20Z</time></trkpt><trkpt lat="59.0894079208" lon="29.9856591225"><time>2026-04-22T11:15:23Z</time></trkpt><trkpt lat="59.0894079208" lon="29.9856591225"><time>2026-04-22T11:15:25Z</time></trkpt><trkpt lat="59.0894079208" lon="29.9856591225"><time>2026-04-22T11:15:28Z</time></trkpt><trkpt lat="59.0894079208" lon="29.9856591225"><time>2026-04-22T11:15:30Z</time></trkpt><trkpt lat="59.0894079208" lon="29.9856591225"><time>2026-04-22T11:15:33Z</time></trkpt><trkpt lat="59.0894079208" lon="29.9856591225"><time>2026-04-22T11:15:35Z</time></trkpt><trkpt lat="59.0894079208" lon="29.9856591225"><time>2026-04-22T11:15:38Z</time></trkpt><trkpt lat="59.0894079208" lon="29.9856591225"><time>2026-04-22T11:15:40Z</time></trkpt><trkpt lat="59.0894079208" lon="29.9856591225"><time>2026-04-22T11:15:43Z</time></trkpt><trkpt lat="59.0894079208" lon="29.9856591225"><time>2026-04-22T11:15:45Z</time></trkpt><trkpt lat="59.0894079208" lon="29.9856591225"><time>2026-04-22T11:15:48Z</time></trkpt><trkpt lat="59.0894079208" lon="29.9856591225"><time>2026-04-22T11:15:50Z</time></trkpt><trkpt lat="59.0894079208" lon="29.9856591225"><time>2026-04-22T11:15:53Z</time></trkpt><trkpt lat="59.0894079208" lon="29.9856591225"><time>2026-04-22T11:15:55Z</time></trkpt><trkpt lat="59.0894079208" lon="29.9856591225"><time>2026-04-22T11:15:58Z</time></trkpt><trkpt lat="59.0894079208" lon="29.9856591225"><time>2026-04-22T11:16:00Z</time></trkpt><trkpt lat="59.0894079208" lon="29.9856591225"><time>2026-04-22T11:16:03Z</time></trkpt><trkpt lat="59.0894079208" lon="29.9856376648"><time>2026-04-22T11:16:05Z</time></trkpt><trkpt lat="59.0893864632" lon="29.9856376648"><time>2026-04-22T11:16:08Z</time></trkpt><trkpt lat="59.0893650055" lon="29.9856162071"><time>2026-04-22T11:16:10Z</time></trkpt><trkpt lat="59.0893435478" lon="29.9856162071"><time>2026-04-22T11:16:13Z</time></trkpt><trkpt lat="59.0893435478" lon="29.9856162071"><time>2026-04-22T11:16:15Z</time></trkpt><trkpt lat="59.0893220901" lon="29.9855732918"><time>2026-04-22T11:16:18Z</time></trkpt><trkpt lat="59.0892791748" lon="29.9855518341"><time>2026-04-22T11:16:20Z</time></trkpt><trkpt lat="59.0892362595" lon="29.9855518341"><time>2026-04-22T11:16:23Z</time></trkpt><trkpt lat="59.0892362595" lon="29.9855518341"><time>2026-04-22T11:16:25Z</time></trkpt><trkpt lat="59.0892362595" lon="29.9855518341"><time>2026-04-22T11:16:28Z</time></trkpt><trkpt lat="59.0891933441" lon="29.9855089188"><time>2026-04-22T11:16:30Z</time></trkpt><trkpt lat="59.0891933441" lon="29.9854874611"><time>2026-04-22T11:16:33Z</time></trkpt><trkpt lat="59.0891718864" lon="29.9854874611"><time>2026-04-22T11:16:35Z</time></trkpt><trkpt lat="59.0891718864" lon="29.9854874611"><time>2026-04-22T11:16:38Z</time></trkpt><trkpt lat="59.0891718864" lon="29.9855089188"><time>2026-04-22T11:16:40Z</time></trkpt><trkpt lat="59.0891718864" lon="29.9855089188"><time>2026-04-22T11:16:43Z</time></trkpt><trkpt lat="59.0891718864" lon="29.9855089188"><time>2026-04-22T11:16:45Z</time></trkpt><trkpt lat="59.0891718864" lon="29.9855089188"><time>2026-04-22T11:16:48Z</time></trkpt><trkpt lat="59.0891718864" lon="29.9855303764"><time>2026-04-22T11:16:50Z</time></trkpt><trkpt lat="59.0891718864" lon="29.9855732918"><time>2026-04-22T11:16:53Z</time></trkpt><trkpt lat="59.0891933441" lon="29.9856591225"><time>2026-04-22T11:16:55Z</time></trkpt><trkpt lat="59.0891933441" lon="29.9856805801"><time>2026-04-22T11:16:58Z</time></trkpt><trkpt lat="59.0891933441" lon="29.9857449532"><time>2026-04-22T11:17:00Z</time></trkpt><trkpt lat="59.0891933441" lon="29.9857449532"><time>2026-04-22T11:17:03Z</time></trkpt><trkpt lat="59.0892148018" lon="29.9857449532"><time>2026-04-22T11:17:05Z</time></trkpt><trkpt lat="59.0892148018" lon="29.9857234955"><time>2026-04-22T11:17:08Z</time></trkpt><trkpt lat="59.0892148018" lon="29.9857878685"><time>2026-04-22T11:17:10Z</time></trkpt><trkpt lat="59.0892148018" lon="29.9858093262"><time>2026-04-22T11:17:13Z</time></trkpt><trkpt lat="59.0892148018" lon="29.9858951569"><time>2026-04-22T11:17:15Z</time></trkpt><trkpt lat="59.0892148018" lon="29.9859380722"><time>2026-04-22T11:17:18Z</time></trkpt><trkpt lat="59.0892148018" lon="29.9859809875"><time>2026-04-22T11:17:20Z</time></trkpt><trkpt lat="59.0892148018" lon="29.9859809875"><time>2026-04-22T11:17:23Z</time></trkpt><trkpt lat="59.0892148018" lon="29.9859809875"><time>2026-04-22T11:17:25Z</time></trkpt><trkpt lat="59.0892148018" lon="29.9859809875"><time>2026-04-22T11:17:28Z</time></trkpt><trkpt lat="59.0892148018" lon="29.9860668182"><time>2026-04-22T11:17:30Z</time></trkpt><trkpt lat="59.0892148018" lon="29.9860882759"><time>2026-04-22T11:17:33Z</time></trkpt><trkpt lat="59.0892148018" lon="29.9861097336"><time>2026-04-22T11:17:35Z</time></trkpt><trkpt lat="59.0892148018" lon="29.9861097336"><time>2026-04-22T11:17:38Z</time></trkpt><trkpt lat="59.0892362595" lon="29.9861526489"><time>2026-04-22T11:17:40Z</time></trkpt><trkpt lat="59.0892362595" lon="29.9861955643"><time>2026-04-22T11:17:43Z</time></trkpt><trkpt lat="59.0892362595" lon="29.9861955643"><time>2026-04-22T11:17:45Z</time></trkpt><trkpt lat="59.0892577171" lon="29.9862170219"><time>2026-04-22T11:17:48Z</time></trkpt><trkpt lat="59.0892791748" lon="29.9863028526"><time>2026-04-22T11:17:53Z</time></trkpt><trkpt lat="59.0892791748" lon="29.9863028526"><time>2026-04-22T11:17:55Z</time></trkpt><trkpt lat="59.0892791748" lon="29.9863028526"><time>2026-04-22T11:17:58Z</time></trkpt><trkpt lat="59.0892791748" lon="29.9863028526"><time>2026-04-22T11:18:00Z</time></trkpt><trkpt lat="59.0892791748" lon="29.9863028526"><time>2026-04-22T11:18:03Z</time></trkpt><trkpt lat="59.0892791748" lon="29.9863028526"><time>2026-04-22T11:18:05Z</time></trkpt><trkpt lat="59.0892791748" lon="29.9863028526"><time>2026-04-22T11:18:08Z</time></trkpt><trkpt lat="59.0892791748" lon="29.9863028526"><time>2026-04-22T11:18:10Z</time></trkpt><trkpt lat="59.0892791748" lon="29.9863028526"><time>2026-04-22T11:18:13Z</time></trkpt><trkpt lat="59.0892791748" lon="29.9863028526"><time>2026-04-22T11:18:15Z</time></trkpt><trkpt lat="59.0892791748" lon="29.9863028526"><time>2026-04-22T11:18:18Z</time></trkpt><trkpt lat="59.0893006325" lon="29.9863243103"><time>2026-04-22T11:18:20Z</time></trkpt><trkpt lat="59.0893220901" lon="29.9863457680"><time>2026-04-22T11:18:23Z</time></trkpt><trkpt lat="59.0893435478" lon="29.9863672256"><time>2026-04-22T11:18:25Z</time></trkpt><trkpt lat="59.0893435478" lon="29.9863672256"><time>2026-04-22T11:18:28Z</time></trkpt><trkpt lat="59.0893435478" lon="29.9864101410"><time>2026-04-22T11:18:30Z</time></trkpt><trkpt lat="59.0893220901" lon="29.9864530563"><time>2026-04-22T11:18:33Z</time></trkpt><trkpt lat="59.0893220901" lon="29.9864959717"><time>2026-04-22T11:18:35Z</time></trkpt><trkpt lat="59.0893220901" lon="29.9864959717"><time>2026-04-22T11:18:38Z</time></trkpt><trkpt lat="59.0893220901" lon="29.9864959717"><time>2026-04-22T11:18:40Z</time></trkpt><trkpt lat="59.0893435478" lon="29.9865174294"><time>2026-04-22T11:18:43Z</time></trkpt><trkpt lat="59.0893650055" lon="29.9865174294"><time>2026-04-22T11:18:45Z</time></trkpt><trkpt lat="59.0893650055" lon="29.9865388870"><time>2026-04-22T11:18:48Z</time></trkpt><trkpt lat="59.0893864632" lon="29.9865603447"><time>2026-04-22T11:18:50Z</time></trkpt><trkpt lat="59.0893864632" lon="29.9865818024"><time>2026-04-22T11:18:53Z</time></trkpt><trkpt lat="59.0894508362" lon="29.9866890907"><time>2026-04-22T11:18:55Z</time></trkpt><trkpt lat="59.0894722939" lon="29.9867320061"><time>2026-04-22T11:18:58Z</time></trkpt><trkpt lat="59.0894722939" lon="29.9867320061"><time>2026-04-22T11:19:00Z</time></trkpt><trkpt lat="59.0894722939" lon="29.9867320061"><time>2026-04-22T11:19:03Z</time></trkpt><trkpt lat="59.0895152092" lon="29.9867749214"><time>2026-04-22T11:19:05Z</time></trkpt><trkpt lat="59.0895581245" lon="29.9868178368"><time>2026-04-22T11:19:08Z</time></trkpt><trkpt lat="59.0895795822" lon="29.9868392944"><time>2026-04-22T11:19:10Z</time></trkpt><trkpt lat="59.0895795822" lon="29.9868392944"><time>2026-04-22T11:19:13Z</time></trkpt><trkpt lat="59.0896010399" lon="29.9868822098"><time>2026-04-22T11:19:15Z</time></trkpt><trkpt lat="59.0896439552" lon="29.9869036674"><time>2026-04-22T11:19:18Z</time></trkpt><trkpt lat="59.0897083282" lon="29.9869036674"><time>2026-04-22T11:19:20Z</time></trkpt><trkpt lat="59.0897297859" lon="29.9869251251"><time>2026-04-22T11:19:23Z</time></trkpt><trkpt lat="59.0897297859" lon="29.9869251251"><time>2026-04-22T11:19:25Z</time></trkpt><trkpt lat="59.0897297859" lon="29.9869251251"><time>2026-04-22T11:19:28Z</time></trkpt><trkpt lat="59.0897297859" lon="29.9869251251"><time>2026-04-22T11:19:30Z</time></trkpt><trkpt lat="59.0897297859" lon="29.9869251251"><time>2026-04-22T11:19:33Z</time></trkpt><trkpt lat="59.0897297859" lon="29.9869251251"><time>2026-04-22T11:19:35Z</time></trkpt><trkpt lat="59.0897297859" lon="29.9869036674"><time>2026-04-22T11:19:38Z</time></trkpt><trkpt lat="59.0896654129" lon="29.9869036674"><time>2026-04-22T11:19:40Z</time></trkpt><trkpt lat="59.0896654129" lon="29.9869036674"><time>2026-04-22T11:19:43Z</time></trkpt><trkpt lat="59.0896654129" lon="29.9869036674"><time>2026-04-22T11:19:45Z</time></trkpt><trkpt lat="59.0896868706" lon="29.9869036674"><time>2026-04-22T11:19:48Z</time></trkpt><trkpt lat="59.0897512436" lon="29.9869036674"><time>2026-04-22T11:19:50Z</time></trkpt><trkpt lat="59.0897941589" lon="29.9869036674"><time>2026-04-22T11:19:53Z</time></trkpt><trkpt lat="59.0898156166" lon="29.9868822098"><time>2026-04-22T11:19:55Z</time></trkpt><trkpt lat="59.0898585320" lon="29.9868822098"><time>2026-04-22T11:19:58Z</time></trkpt><trkpt lat="59.0899229050" lon="29.9869036674"><time>2026-04-22T11:20:00Z</time></trkpt><trkpt lat="59.0899229050" lon="29.9869251251"><time>2026-04-22T11:20:03Z</time></trkpt><trkpt lat="59.0898799896" lon="29.9870109558"><time>2026-04-22T11:20:05Z</time></trkpt><trkpt lat="59.0898585320" lon="29.9870324135"><time>2026-04-22T11:20:08Z</time></trkpt><trkpt lat="59.0899014473" lon="29.9870538712"><time>2026-04-22T11:20:10Z</time></trkpt><trkpt lat="59.0899229050" lon="29.9871397018"><time>2026-04-22T11:20:13Z</time></trkpt><trkpt lat="59.0899658203" lon="29.9871611595"><time>2026-04-22T11:20:15Z</time></trkpt><trkpt lat="59.0899872780" lon="29.9871826172"><time>2026-04-22T11:20:18Z</time></trkpt><trkpt lat="59.0899872780" lon="29.9871826172"><time>2026-04-22T11:20:20Z</time></trkpt><trkpt lat="59.0899872780" lon="29.9871826172"><time>2026-04-22T11:20:23Z</time></trkpt><trkpt lat="59.0899872780" lon="29.9871826172"><time>2026-04-22T11:20:25Z</time></trkpt><trkpt lat="59.0899872780" lon="29.9872040749"><time>2026-04-22T11:20:28Z</time></trkpt><trkpt lat="59.0900087357" lon="29.9872899055"><time>2026-04-22T11:20:30Z</time></trkpt><trkpt lat="59.0900087357" lon="29.9872899055"><time>2026-04-22T11:20:33Z</time></trkpt><trkpt lat="59.0900087357" lon="29.9873113632"><time>2026-04-22T11:20:35Z</time></trkpt><trkpt lat="59.0900087357" lon="29.9873113632"><time>2026-04-22T11:20:38Z</time></trkpt><trkpt lat="59.0900087357" lon="29.9872899055"><time>2026-04-22T11:20:40Z</time></trkpt><trkpt lat="59.0900087357" lon="29.9872899055"><time>2026-04-22T11:20:43Z</time></trkpt><trkpt lat="59.0900516510" lon="29.9873542786"><time>2026-04-22T11:20:45Z</time></trkpt><trkpt lat="59.0900516510" lon="29.9873757362"><time>2026-04-22T11:20:48Z</time></trkpt><trkpt lat="59.0900945663" lon="29.9873971939"><time>2026-04-22T11:20:50Z</time></trkpt><trkpt lat="59.0901160240" lon="29.9874401093"><time>2026-04-22T11:20:53Z</time></trkpt><trkpt lat="59.0901374817" lon="29.9874401093"><time>2026-04-22T11:20:55Z</time></trkpt><trkpt lat="59.0901374817" lon="29.9874401093"><time>2026-04-22T11:20:58Z</time></trkpt><trkpt lat="59.0901589394" lon="29.9874615669"><time>2026-04-22T11:21:00Z</time></trkpt><trkpt lat="59.0901803970" lon="29.9874830246"><time>2026-04-22T11:21:03Z</time></trkpt><trkpt lat="59.0901803970" lon="29.9874830246"><time>2026-04-22T11:21:05Z</time></trkpt><trkpt lat="59.0901803970" lon="29.9875259399"><time>2026-04-22T11:21:08Z</time></trkpt><trkpt lat="59.0901803970" lon="29.9876117706"><time>2026-04-22T11:21:10Z</time></trkpt><trkpt lat="59.0901803970" lon="29.9876117706"><time>2026-04-22T11:21:13Z</time></trkpt><trkpt lat="59.0901803970" lon="29.9876117706"><time>2026-04-22T11:21:15Z</time></trkpt><trkpt lat="59.0901803970" lon="29.9876117706"><time>2026-04-22T11:21:18Z</time></trkpt><trkpt lat="59.0901589394" lon="29.9876761436"><time>2026-04-22T11:21:20Z</time></trkpt><trkpt lat="59.0901589394" lon="29.9877405167"><time>2026-04-22T11:21:23Z</time></trkpt><trkpt lat="59.0901589394" lon="29.9878048897"><time>2026-04-22T11:21:25Z</time></trkpt><trkpt lat="59.0901589394" lon="29.9878263474"><time>2026-04-22T11:21:28Z</time></trkpt><trkpt lat="59.0901589394" lon="29.9878263474"><time>2026-04-22T11:21:30Z</time></trkpt><trkpt lat="59.0901589394" lon="29.9878263474"><time>2026-04-22T11:21:33Z</time></trkpt><trkpt lat="59.0901589394" lon="29.9878263474"><time>2026-04-22T11:21:35Z</time></trkpt><trkpt lat="59.0901374817" lon="29.9878692627"><time>2026-04-22T11:21:38Z</time></trkpt><trkpt lat="59.0901374817" lon="29.9878907204"><time>2026-04-22T11:21:40Z</time></trkpt><trkpt lat="59.0901374817" lon="29.9878907204"><time>2026-04-22T11:21:43Z</time></trkpt><trkpt lat="59.0901374817" lon="29.9878907204"><time>2026-04-22T11:21:45Z</time></trkpt><trkpt lat="59.0901374817" lon="29.9879121780"><time>2026-04-22T11:21:48Z</time></trkpt><trkpt lat="59.0901374817" lon="29.9879550934"><time>2026-04-22T11:21:50Z</time></trkpt><trkpt lat="59.0901374817" lon="29.9879550934"><time>2026-04-22T11:21:53Z</time></trkpt><trkpt lat="59.0901374817" lon="29.9879550934"><time>2026-04-22T11:21:55Z</time></trkpt><trkpt lat="59.0901374817" lon="29.9879550934"><time>2026-04-22T11:21:58Z</time></trkpt><trkpt lat="59.0901374817" lon="29.9879550934"><time>2026-04-22T11:22:00Z</time></trkpt><trkpt lat="59.0901374817" lon="29.9879550934"><time>2026-04-22T11:22:03Z</time></trkpt><trkpt lat="59.0901374817" lon="29.9879550934"><time>2026-04-22T11:22:05Z</time></trkpt><trkpt lat="59.0901374817" lon="29.9879550934"><time>2026-04-22T11:22:08Z</time></trkpt><trkpt lat="59.0901374817" lon="29.9879550934"><time>2026-04-22T11:22:10Z</time></trkpt><trkpt lat="59.0901374817" lon="29.9879550934"><time>2026-04-22T11:22:13Z</time></trkpt><trkpt lat="59.0901374817" lon="29.9879550934"><time>2026-04-22T11:22:15Z</time></trkpt><trkpt lat="59.0901374817" lon="29.9879550934"><time>2026-04-22T11:22:18Z</time></trkpt><trkpt lat="59.0901374817" lon="29.9879550934"><time>2026-04-22T11:22:20Z</time></trkpt><trkpt lat="59.0901374817" lon="29.9879550934"><time>2026-04-22T11:22:23Z</time></trkpt><trkpt lat="59.0901374817" lon="29.9879550934"><time>2026-04-22T11:22:25Z</time></trkpt><trkpt lat="59.0901374817" lon="29.9879550934"><time>2026-04-22T11:22:28Z</time></trkpt><trkpt lat="59.0901374817" lon="29.9879550934"><time>2026-04-22T11:22:30Z</time></trkpt><trkpt lat="59.0901374817" lon="29.9879550934"><time>2026-04-22T11:22:33Z</time></trkpt><trkpt lat="59.0901374817" lon="29.9879550934"><time>2026-04-22T11:22:35Z</time></trkpt><trkpt lat="59.0901374817" lon="29.9879550934"><time>2026-04-22T11:22:38Z</time></trkpt><trkpt lat="59.0901589394" lon="29.9879550934"><time>2026-04-22T11:22:40Z</time></trkpt><trkpt lat="59.0901589394" lon="29.9879550934"><time>2026-04-22T11:22:43Z</time></trkpt><trkpt lat="59.0901589394" lon="29.9879765511"><time>2026-04-22T11:22:45Z</time></trkpt><trkpt lat="59.0901803970" lon="29.9880194664"><time>2026-04-22T11:22:48Z</time></trkpt><trkpt lat="59.0901803970" lon="29.9880838394"><time>2026-04-22T11:22:50Z</time></trkpt><trkpt lat="59.0901589394" lon="29.9881052971"><time>2026-04-22T11:22:53Z</time></trkpt><trkpt lat="59.0901589394" lon="29.9881267548"><time>2026-04-22T11:22:55Z</time></trkpt><trkpt lat="59.0901589394" lon="29.9881482124"><time>2026-04-22T11:22:58Z</time></trkpt><trkpt lat="59.0901589394" lon="29.9882125854"><time>2026-04-22T11:23:00Z</time></trkpt><trkpt lat="59.0901803970" lon="29.9882340431"><time>2026-04-22T11:23:03Z</time></trkpt><trkpt lat="59.0902018547" lon="29.9882555008"><time>2026-04-22T11:23:05Z</time></trkpt><trkpt lat="59.0902233124" lon="29.9882984161"><time>2026-04-22T11:23:08Z</time></trkpt><trkpt lat="59.0902447701" lon="29.9883198738"><time>2026-04-22T11:23:10Z</time></trkpt><trkpt lat="59.0902447701" lon="29.9883413315"><time>2026-04-22T11:23:13Z</time></trkpt><trkpt lat="59.0902447701" lon="29.9883842468"><time>2026-04-22T11:23:15Z</time></trkpt><trkpt lat="59.0902447701" lon="29.9883842468"><time>2026-04-22T11:23:18Z</time></trkpt><trkpt lat="59.0902447701" lon="29.9884271622"><time>2026-04-22T11:23:20Z</time></trkpt><trkpt lat="59.0902447701" lon="29.9884271622"><time>2026-04-22T11:23:23Z</time></trkpt><trkpt lat="59.0902447701" lon="29.9884271622"><time>2026-04-22T11:23:25Z</time></trkpt><trkpt lat="59.0902662277" lon="29.9884271622"><time>2026-04-22T11:23:28Z</time></trkpt><trkpt lat="59.0902662277" lon="29.9884271622"><time>2026-04-22T11:23:30Z</time></trkpt><trkpt lat="59.0902662277" lon="29.9884271622"><time>2026-04-22T11:23:33Z</time></trkpt><trkpt lat="59.0902662277" lon="29.9884271622"><time>2026-04-22T11:23:35Z</time></trkpt><trkpt lat="59.0902447701" lon="29.9884057045"><time>2026-04-22T11:23:38Z</time></trkpt><trkpt lat="59.0902662277" lon="29.9883842468"><time>2026-04-22T11:23:40Z</time></trkpt><trkpt lat="59.0902876854" lon="29.9884057045"><time>2026-04-22T11:23:43Z</time></trkpt><trkpt lat="59.0903520584" lon="29.9883842468"><time>2026-04-22T11:23:45Z</time></trkpt><trkpt lat="59.0903520584" lon="29.9883842468"><time>2026-04-22T11:23:48Z</time></trkpt><trkpt lat="59.0903735161" lon="29.9883198738"><time>2026-04-22T11:23:50Z</time></trkpt><trkpt lat="59.0903949738" lon="29.9882984161"><time>2026-04-22T11:23:53Z</time></trkpt><trkpt lat="59.0904378891" lon="29.9882984161"><time>2026-04-22T11:23:55Z</time></trkpt><trkpt lat="59.0904593468" lon="29.9882984161"><time>2026-04-22T11:23:58Z</time></trkpt><trkpt lat="59.0904808044" lon="29.9882125854"><time>2026-04-22T11:24:00Z</time></trkpt><trkpt lat="59.0905022621" lon="29.9881911278"><time>2026-04-22T11:24:03Z</time></trkpt><trkpt lat="59.0905022621" lon="29.9881267548"><time>2026-04-22T11:24:05Z</time></trkpt><trkpt lat="59.0905022621" lon="29.9881052971"><time>2026-04-22T11:24:08Z</time></trkpt><trkpt lat="59.0905022621" lon="29.9881052971"><time>2026-04-22T11:24:10Z</time></trkpt><trkpt lat="59.0905022621" lon="29.9881052971"><time>2026-04-22T11:24:13Z</time></trkpt><trkpt lat="59.0905022621" lon="29.9881052971"><time>2026-04-22T11:24:15Z</time></trkpt><trkpt lat="59.0905022621" lon="29.9881052971"><time>2026-04-22T11:24:18Z</time></trkpt><trkpt lat="59.0905022621" lon="29.9881052971"><time>2026-04-22T11:24:20Z</time></trkpt><trkpt lat="59.0905022621" lon="29.9881052971"><time>2026-04-22T11:24:23Z</time></trkpt><trkpt lat="59.0905022621" lon="29.9881482124"><time>2026-04-22T11:24:25Z</time></trkpt><trkpt lat="59.0905237198" lon="29.9881911278"><time>2026-04-22T11:24:28Z</time></trkpt><trkpt lat="59.0905237198" lon="29.9881911278"><time>2026-04-22T11:24:30Z</time></trkpt><trkpt lat="59.0905237198" lon="29.9881911278"><time>2026-04-22T11:24:33Z</time></trkpt><trkpt lat="59.0905237198" lon="29.9881911278"><time>2026-04-22T11:24:35Z</time></trkpt><trkpt lat="59.0905237198" lon="29.9881911278"><time>2026-04-22T11:24:38Z</time></trkpt><trkpt lat="59.0905237198" lon="29.9881911278"><time>2026-04-22T11:24:40Z</time></trkpt><trkpt lat="59.0905237198" lon="29.9881911278"><time>2026-04-22T11:24:43Z</time></trkpt><trkpt lat="59.0905237198" lon="29.9881911278"><time>2026-04-22T11:24:45Z</time></trkpt><trkpt lat="59.0905237198" lon="29.9881911278"><time>2026-04-22T11:24:48Z</time></trkpt><trkpt lat="59.0905237198" lon="29.9881911278"><time>2026-04-22T11:24:50Z</time></trkpt><trkpt lat="59.0905237198" lon="29.9881911278"><time>2026-04-22T11:24:53Z</time></trkpt><trkpt lat="59.0905237198" lon="29.9881911278"><time>2026-04-22T11:24:55Z</time></trkpt><trkpt lat="59.0905237198" lon="29.9881911278"><time>2026-04-22T11:24:58Z</time></trkpt><trkpt lat="59.0905237198" lon="29.9881911278"><time>2026-04-22T11:25:00Z</time></trkpt><trkpt lat="59.0905237198" lon="29.9881911278"><time>2026-04-22T11:25:03Z</time></trkpt><trkpt lat="59.0905237198" lon="29.9881911278"><time>2026-04-22T11:25:05Z</time></trkpt><trkpt lat="59.0905237198" lon="29.9881911278"><time>2026-04-22T11:25:08Z</time></trkpt><trkpt lat="59.0905237198" lon="29.9881911278"><time>2026-04-22T11:25:10Z</time></trkpt><trkpt lat="59.0905237198" lon="29.9881911278"><time>2026-04-22T11:25:13Z</time></trkpt><trkpt lat="59.0905237198" lon="29.9881911278"><time>2026-04-22T11:25:15Z</time></trkpt><trkpt lat="59.0905237198" lon="29.9881911278"><time>2026-04-22T11:25:18Z</time></trkpt><trkpt lat="59.0905237198" lon="29.9881911278"><time>2026-04-22T11:25:20Z</time></trkpt><trkpt lat="59.0905237198" lon="29.9881911278"><time>2026-04-22T11:25:23Z</time></trkpt><trkpt lat="59.0905237198" lon="29.9881911278"><time>2026-04-22T11:25:25Z</time></trkpt><trkpt lat="59.0905237198" lon="29.9881911278"><time>2026-04-22T11:25:28Z</time></trkpt><trkpt lat="59.0905237198" lon="29.9881911278"><time>2026-04-22T11:25:30Z</time></trkpt><trkpt lat="59.0905237198" lon="29.9881911278"><time>2026-04-22T11:25:33Z</time></trkpt><trkpt lat="59.0905237198" lon="29.9881911278"><time>2026-04-22T11:25:35Z</time></trkpt><trkpt lat="59.0905237198" lon="29.9881911278"><time>2026-04-22T11:25:38Z</time></trkpt><trkpt lat="59.0905237198" lon="29.9881911278"><time>2026-04-22T11:25:40Z</time></trkpt><trkpt lat="59.0905237198" lon="29.9881911278"><time>2026-04-22T11:25:43Z</time></trkpt><trkpt lat="59.0905237198" lon="29.9881911278"><time>2026-04-22T11:25:45Z</time></trkpt><trkpt lat="59.0905237198" lon="29.9881911278"><time>2026-04-22T11:25:48Z</time></trkpt><trkpt lat="59.0905237198" lon="29.9881911278"><time>2026-04-22T11:25:50Z</time></trkpt><trkpt lat="59.0905237198" lon="29.9881911278"><time>2026-04-22T11:25:53Z</time></trkpt><trkpt lat="59.0905237198" lon="29.9881911278"><time>2026-04-22T11:25:55Z</time></trkpt><trkpt lat="59.0905237198" lon="29.9881911278"><time>2026-04-22T11:25:58Z</time></trkpt><trkpt lat="59.0905237198" lon="29.9881911278"><time>2026-04-22T11:26:00Z</time></trkpt><trkpt lat="59.0905237198" lon="29.9881911278"><time>2026-04-22T11:26:03Z</time></trkpt><trkpt lat="59.0905237198" lon="29.9881911278"><time>2026-04-22T11:26:05Z</time></trkpt><trkpt lat="59.0905237198" lon="29.9881911278"><time>2026-04-22T11:26:08Z</time></trkpt><trkpt lat="59.0905237198" lon="29.9881911278"><time>2026-04-22T11:26:10Z</time></trkpt><trkpt lat="59.0905237198" lon="29.9881911278"><time>2026-04-22T11:26:13Z</time></trkpt><trkpt lat="59.0905237198" lon="29.9881911278"><time>2026-04-22T11:26:15Z</time></trkpt><trkpt lat="59.0905237198" lon="29.9881911278"><time>2026-04-22T11:26:18Z</time></trkpt><trkpt lat="59.0905237198" lon="29.9881911278"><time>2026-04-22T11:26:20Z</time></trkpt><trkpt lat="59.0905451775" lon="29.9882340431"><time>2026-04-22T11:26:23Z</time></trkpt><trkpt lat="59.0905666351" lon="29.9882984161"><time>2026-04-22T11:26:25Z</time></trkpt><trkpt lat="59.0905666351" lon="29.9883198738"><time>2026-04-22T11:26:28Z</time></trkpt><trkpt lat="59.0905666351" lon="29.9883627892"><time>2026-04-22T11:26:30Z</time></trkpt><trkpt lat="59.0905880928" lon="29.9884271622"><time>2026-04-22T11:26:33Z</time></trkpt><trkpt lat="59.0906095505" lon="29.9885129929"><time>2026-04-22T11:26:35Z</time></trkpt><trkpt lat="59.0906095505" lon="29.9885559082"><time>2026-04-22T11:26:38Z</time></trkpt><trkpt lat="59.0906095505" lon="29.9885559082"><time>2026-04-22T11:26:40Z</time></trkpt><trkpt lat="59.0906095505" lon="29.9885559082"><time>2026-04-22T11:26:43Z</time></trkpt><trkpt lat="59.0906095505" lon="29.9885559082"><time>2026-04-22T11:26:45Z</time></trkpt><trkpt lat="59.0906095505" lon="29.9885559082"><time>2026-04-22T11:26:48Z</time></trkpt><trkpt lat="59.0906095505" lon="29.9885559082"><time>2026-04-22T11:26:50Z</time></trkpt><trkpt lat="59.0906095505" lon="29.9885559082"><time>2026-04-22T11:26:53Z</time></trkpt><trkpt lat="59.0906095505" lon="29.9885559082"><time>2026-04-22T11:26:55Z</time></trkpt><trkpt lat="59.0906310081" lon="29.9885988235"><time>2026-04-22T11:26:58Z</time></trkpt><trkpt lat="59.0906524658" lon="29.9887061119"><time>2026-04-22T11:27:00Z</time></trkpt><trkpt lat="59.0906739235" lon="29.9887490273"><time>2026-04-22T11:27:03Z</time></trkpt><trkpt lat="59.0906953812" lon="29.9888134003"><time>2026-04-22T11:27:05Z</time></trkpt><trkpt lat="59.0907168388" lon="29.9888563156"><time>2026-04-22T11:27:08Z</time></trkpt><trkpt lat="59.0907168388" lon="29.9888777733"><time>2026-04-22T11:27:10Z</time></trkpt><trkpt lat="59.0907168388" lon="29.9889206886"><time>2026-04-22T11:27:13Z</time></trkpt><trkpt lat="59.0907382965" lon="29.9889636040"><time>2026-04-22T11:27:15Z</time></trkpt><trkpt lat="59.0907382965" lon="29.9889636040"><time>2026-04-22T11:27:18Z</time></trkpt><trkpt lat="59.0907382965" lon="29.9889636040"><time>2026-04-22T11:27:20Z</time></trkpt><trkpt lat="59.0907382965" lon="29.9889636040"><time>2026-04-22T11:27:23Z</time></trkpt><trkpt lat="59.0907382965" lon="29.9889636040"><time>2026-04-22T11:27:25Z</time></trkpt><trkpt lat="59.0907597542" lon="29.9890065193"><time>2026-04-22T11:27:28Z</time></trkpt><trkpt lat="59.0907812119" lon="29.9890708923"><time>2026-04-22T11:27:30Z</time></trkpt><trkpt lat="59.0908026695" lon="29.9890923500"><time>2026-04-22T11:27:33Z</time></trkpt><trkpt lat="59.0908026695" lon="29.9891138077"><time>2026-04-22T11:27:35Z</time></trkpt><trkpt lat="59.0908026695" lon="29.9891138077"><time>2026-04-22T11:27:38Z</time></trkpt><trkpt lat="59.0908026695" lon="29.9891138077"><time>2026-04-22T11:27:40Z</time></trkpt><trkpt lat="59.0908026695" lon="29.9891138077"><time>2026-04-22T11:27:43Z</time></trkpt><trkpt lat="59.0908241272" lon="29.9891781807"><time>2026-04-22T11:27:45Z</time></trkpt><trkpt lat="59.0908455849" lon="29.9892210960"><time>2026-04-22T11:27:48Z</time></trkpt><trkpt lat="59.0908670425" lon="29.9892854691"><time>2026-04-22T11:27:50Z</time></trkpt><trkpt lat="59.0908885002" lon="29.9892854691"><time>2026-04-22T11:27:53Z</time></trkpt><trkpt lat="59.0908885002" lon="29.9892854691"><time>2026-04-22T11:27:55Z</time></trkpt><trkpt lat="59.0908885002" lon="29.9892854691"><time>2026-04-22T11:27:58Z</time></trkpt><trkpt lat="59.0908885002" lon="29.9892854691"><time>2026-04-22T11:28:00Z</time></trkpt><trkpt lat="59.0908885002" lon="29.9892854691"><time>2026-04-22T11:28:03Z</time></trkpt><trkpt lat="59.0908670425" lon="29.9892425537"><time>2026-04-22T11:28:05Z</time></trkpt><trkpt lat="59.0908670425" lon="29.9891996384"><time>2026-04-22T11:28:08Z</time></trkpt><trkpt lat="59.0908455849" lon="29.9891781807"><time>2026-04-22T11:28:10Z</time></trkpt><trkpt lat="59.0908455849" lon="29.9891781807"><time>2026-04-22T11:28:13Z</time></trkpt><trkpt lat="59.0908455849" lon="29.9891781807"><time>2026-04-22T11:28:15Z</time></trkpt><trkpt lat="59.0908455849" lon="29.9891781807"><time>2026-04-22T11:28:18Z</time></trkpt><trkpt lat="59.0908455849" lon="29.9891781807"><time>2026-04-22T11:28:20Z</time></trkpt><trkpt lat="59.0908455849" lon="29.9891781807"><time>2026-04-22T11:28:23Z</time></trkpt><trkpt lat="59.0908455849" lon="29.9891781807"><time>2026-04-22T11:28:25Z</time></trkpt><trkpt lat="59.0908455849" lon="29.9891781807"><time>2026-04-22T11:28:28Z</time></trkpt><trkpt lat="59.0908455849" lon="29.9891781807"><time>2026-04-22T11:28:30Z</time></trkpt><trkpt lat="59.0908455849" lon="29.9891781807"><time>2026-04-22T11:28:33Z</time></trkpt><trkpt lat="59.0908455849" lon="29.9891781807"><time>2026-04-22T11:28:35Z</time></trkpt><trkpt lat="59.0908455849" lon="29.9891781807"><time>2026-04-22T11:28:38Z</time></trkpt><trkpt lat="59.0908455849" lon="29.9891781807"><time>2026-04-22T11:28:40Z</time></trkpt><trkpt lat="59.0908455849" lon="29.9891781807"><time>2026-04-22T11:28:43Z</time></trkpt><trkpt lat="59.0908455849" lon="29.9891781807"><time>2026-04-22T11:28:45Z</time></trkpt><trkpt lat="59.0908670425" lon="29.9891996384"><time>2026-04-22T11:28:48Z</time></trkpt><trkpt lat="59.0908885002" lon="29.9892425537"><time>2026-04-22T11:28:50Z</time></trkpt><trkpt lat="59.0908885002" lon="29.9892640114"><time>2026-04-22T11:28:53Z</time></trkpt><trkpt lat="59.0908885002" lon="29.9892640114"><time>2026-04-22T11:28:55Z</time></trkpt><trkpt lat="59.0908885002" lon="29.9892640114"><time>2026-04-22T11:28:58Z</time></trkpt><trkpt lat="59.0908885002" lon="29.9892640114"><time>2026-04-22T11:29:00Z</time></trkpt><trkpt lat="59.0908885002" lon="29.9892640114"><time>2026-04-22T11:29:03Z</time></trkpt><trkpt lat="59.0908670425" lon="29.9892640114"><time>2026-04-22T11:29:05Z</time></trkpt><trkpt lat="59.0908455849" lon="29.9892854691"><time>2026-04-22T11:29:08Z</time></trkpt><trkpt lat="59.0908241272" lon="29.9893069267"><time>2026-04-22T11:29:10Z</time></trkpt><trkpt lat="59.0908241272" lon="29.9893283844"><time>2026-04-22T11:29:13Z</time></trkpt><trkpt lat="59.0908241272" lon="29.9893283844"><time>2026-04-22T11:29:15Z</time></trkpt><trkpt lat="59.0908241272" lon="29.9893283844"><time>2026-04-22T11:29:18Z</time></trkpt><trkpt lat="59.0908241272" lon="29.9893498421"><time>2026-04-22T11:29:20Z</time></trkpt><trkpt lat="59.0908455849" lon="29.9894142151"><time>2026-04-22T11:29:23Z</time></trkpt><trkpt lat="59.0908455849" lon="29.9894571304"><time>2026-04-22T11:29:25Z</time></trkpt><trkpt lat="59.0908455849" lon="29.9894571304"><time>2026-04-22T11:29:28Z</time></trkpt><trkpt lat="59.0908455849" lon="29.9894571304"><time>2026-04-22T11:29:30Z</time></trkpt><trkpt lat="59.0908455849" lon="29.9894571304"><time>2026-04-22T11:29:33Z</time></trkpt><trkpt lat="59.0908026695" lon="29.9893927574"><time>2026-04-22T11:29:35Z</time></trkpt><trkpt lat="59.0907812119" lon="29.9892854691"><time>2026-04-22T11:29:38Z</time></trkpt><trkpt lat="59.0907597542" lon="29.9892210960"><time>2026-04-22T11:29:40Z</time></trkpt><trkpt lat="59.0907597542" lon="29.9892210960"><time>2026-04-22T11:29:43Z</time></trkpt><trkpt lat="59.0907597542" lon="29.9892210960"><time>2026-04-22T11:29:45Z</time></trkpt><trkpt lat="59.0907597542" lon="29.9892425537"><time>2026-04-22T11:29:48Z</time></trkpt><trkpt lat="59.0908026695" lon="29.9893712997"><time>2026-04-22T11:29:50Z</time></trkpt><trkpt lat="59.0908455849" lon="29.9893712997"><time>2026-04-22T11:29:53Z</time></trkpt><trkpt lat="59.0908670425" lon="29.9894571304"><time>2026-04-22T11:29:55Z</time></trkpt><trkpt lat="59.0908455849" lon="29.9894785881"><time>2026-04-22T11:29:58Z</time></trkpt><trkpt lat="59.0908455849" lon="29.9895000458"><time>2026-04-22T11:30:00Z</time></trkpt><trkpt lat="59.0908455849" lon="29.9895000458"><time>2026-04-22T11:30:03Z</time></trkpt><trkpt lat="59.0908455849" lon="29.9895000458"><time>2026-04-22T11:30:05Z</time></trkpt><trkpt lat="59.0908455849" lon="29.9895000458"><time>2026-04-22T11:30:08Z</time></trkpt><trkpt lat="59.0908455849" lon="29.9895000458"><time>2026-04-22T11:30:10Z</time></trkpt><trkpt lat="59.0908455849" lon="29.9895000458"><time>2026-04-22T11:30:13Z</time></trkpt><trkpt lat="59.0908455849" lon="29.9895215034"><time>2026-04-22T11:30:15Z</time></trkpt><trkpt lat="59.0908455849" lon="29.9895215034"><time>2026-04-22T11:30:18Z</time></trkpt><trkpt lat="59.0908455849" lon="29.9895215034"><time>2026-04-22T11:30:20Z</time></trkpt><trkpt lat="59.0908455849" lon="29.9895215034"><time>2026-04-22T11:30:23Z</time></trkpt><trkpt lat="59.0908455849" lon="29.9895215034"><time>2026-04-22T11:30:25Z</time></trkpt><trkpt lat="59.0908455849" lon="29.9895215034"><time>2026-04-22T11:30:28Z</time></trkpt><trkpt lat="59.0908455849" lon="29.9895215034"><time>2026-04-22T11:30:30Z</time></trkpt><trkpt lat="59.0908455849" lon="29.9895215034"><time>2026-04-22T11:30:33Z</time></trkpt><trkpt lat="59.0908455849" lon="29.9895215034"><time>2026-04-22T11:30:35Z</time></trkpt><trkpt lat="59.0908455849" lon="29.9895215034"><time>2026-04-22T11:30:38Z</time></trkpt><trkpt lat="59.0908455849" lon="29.9895215034"><time>2026-04-22T11:30:40Z</time></trkpt><trkpt lat="59.0908455849" lon="29.9895215034"><time>2026-04-22T11:30:43Z</time></trkpt><trkpt lat="59.0908455849" lon="29.9895215034"><time>2026-04-22T11:30:45Z</time></trkpt><trkpt lat="59.0908455849" lon="29.9895215034"><time>2026-04-22T11:30:48Z</time></trkpt><trkpt lat="59.0908455849" lon="29.9895215034"><time>2026-04-22T11:30:50Z</time></trkpt><trkpt lat="59.0908455849" lon="29.9895215034"><time>2026-04-22T11:30:53Z</time></trkpt><trkpt lat="59.0908455849" lon="29.9895215034"><time>2026-04-22T11:30:55Z</time></trkpt><trkpt lat="59.0908455849" lon="29.9895215034"><time>2026-04-22T11:30:58Z</time></trkpt><trkpt lat="59.0908455849" lon="29.9895215034"><time>2026-04-22T11:31:00Z</time></trkpt><trkpt lat="59.0908455849" lon="29.9895215034"><time>2026-04-22T11:31:03Z</time></trkpt><trkpt lat="59.0908241272" lon="29.9895215034"><time>2026-04-22T11:31:05Z</time></trkpt><trkpt lat="59.0908241272" lon="29.9895215034"><time>2026-04-22T11:31:08Z</time></trkpt><trkpt lat="59.0908241272" lon="29.9895215034"><time>2026-04-22T11:31:10Z</time></trkpt><trkpt lat="59.0908241272" lon="29.9895215034"><time>2026-04-22T11:31:13Z</time></trkpt><trkpt lat="59.0908241272" lon="29.9895215034"><time>2026-04-22T11:31:15Z</time></trkpt><trkpt lat="59.0908241272" lon="29.9895215034"><time>2026-04-22T11:31:18Z</time></trkpt><trkpt lat="59.0908241272" lon="29.9895215034"><time>2026-04-22T11:31:20Z</time></trkpt><trkpt lat="59.0908241272" lon="29.9895215034"><time>2026-04-22T11:31:23Z</time></trkpt><trkpt lat="59.0908241272" lon="29.9895215034"><time>2026-04-22T11:31:25Z</time></trkpt><trkpt lat="59.0908241272" lon="29.9895215034"><time>2026-04-22T11:31:28Z</time></trkpt><trkpt lat="59.0908241272" lon="29.9895215034"><time>2026-04-22T11:31:30Z</time></trkpt><trkpt lat="59.0908241272" lon="29.9895215034"><time>2026-04-22T11:31:33Z</time></trkpt><trkpt lat="59.0908241272" lon="29.9895215034"><time>2026-04-22T11:31:35Z</time></trkpt><trkpt lat="59.0908455849" lon="29.9895429611"><time>2026-04-22T11:31:38Z</time></trkpt><trkpt lat="59.0908670425" lon="29.9896287918"><time>2026-04-22T11:31:40Z</time></trkpt><trkpt lat="59.0908670425" lon="29.9896717072"><time>2026-04-22T11:31:43Z</time></trkpt><trkpt lat="59.0908670425" lon="29.9896717072"><time>2026-04-22T11:31:45Z</time></trkpt><trkpt lat="59.0908670425" lon="29.9896717072"><time>2026-04-22T11:31:48Z</time></trkpt><trkpt lat="59.0908455849" lon="29.9897146225"><time>2026-04-22T11:31:50Z</time></trkpt><trkpt lat="59.0908455849" lon="29.9897146225"><time>2026-04-22T11:31:53Z</time></trkpt><trkpt lat="59.0908455849" lon="29.9897146225"><time>2026-04-22T11:31:55Z</time></trkpt><trkpt lat="59.0908455849" lon="29.9897575378"><time>2026-04-22T11:31:58Z</time></trkpt><trkpt lat="59.0908455849" lon="29.9897789955"><time>2026-04-22T11:32:00Z</time></trkpt><trkpt lat="59.0908241272" lon="29.9898004532"><time>2026-04-22T11:32:03Z</time></trkpt><trkpt lat="59.0908026695" lon="29.9898648262"><time>2026-04-22T11:32:05Z</time></trkpt><trkpt lat="59.0908026695" lon="29.9899077415"><time>2026-04-22T11:32:08Z</time></trkpt><trkpt lat="59.0908026695" lon="29.9899935722"><time>2026-04-22T11:32:10Z</time></trkpt><trkpt lat="59.0907812119" lon="29.9900794029"><time>2026-04-22T11:32:13Z</time></trkpt><trkpt lat="59.0907812119" lon="29.9901008606"><time>2026-04-22T11:32:15Z</time></trkpt><trkpt lat="59.0907812119" lon="29.9901008606"><time>2026-04-22T11:32:18Z</time></trkpt><trkpt lat="59.0907812119" lon="29.9901008606"><time>2026-04-22T11:32:20Z</time></trkpt><trkpt lat="59.0908026695" lon="29.9901437759"><time>2026-04-22T11:32:23Z</time></trkpt><trkpt lat="59.0908026695" lon="29.9902081490"><time>2026-04-22T11:32:25Z</time></trkpt><trkpt lat="59.0908026695" lon="29.9902296066"><time>2026-04-22T11:32:28Z</time></trkpt><trkpt lat="59.0908026695" lon="29.9902296066"><time>2026-04-22T11:32:30Z</time></trkpt><trkpt lat="59.0908026695" lon="29.9902939796"><time>2026-04-22T11:32:33Z</time></trkpt><trkpt lat="59.0908026695" lon="29.9904012680"><time>2026-04-22T11:32:35Z</time></trkpt><trkpt lat="59.0908026695" lon="29.9904227257"><time>2026-04-22T11:32:38Z</time></trkpt><trkpt lat="59.0908026695" lon="29.9904227257"><time>2026-04-22T11:32:40Z</time></trkpt><trkpt lat="59.0908026695" lon="29.9904227257"><time>2026-04-22T11:32:43Z</time></trkpt><trkpt lat="59.0908026695" lon="29.9904227257"><time>2026-04-22T11:32:45Z</time></trkpt><trkpt lat="59.0908026695" lon="29.9904227257"><time>2026-04-22T11:32:48Z</time></trkpt><trkpt lat="59.0908241272" lon="29.9904441833"><time>2026-04-22T11:32:50Z</time></trkpt><trkpt lat="59.0908241272" lon="29.9905085564"><time>2026-04-22T11:32:53Z</time></trkpt><trkpt lat="59.0908455849" lon="29.9905943871"><time>2026-04-22T11:32:55Z</time></trkpt><trkpt lat="59.0908670425" lon="29.9906373024"><time>2026-04-22T11:32:58Z</time></trkpt><trkpt lat="59.0908670425" lon="29.9906373024"><time>2026-04-22T11:33:00Z</time></trkpt><trkpt lat="59.0908670425" lon="29.9906373024"><time>2026-04-22T11:33:03Z</time></trkpt><trkpt lat="59.0908670425" lon="29.9907231331"><time>2026-04-22T11:33:05Z</time></trkpt><trkpt lat="59.0908885002" lon="29.9907660484"><time>2026-04-22T11:33:08Z</time></trkpt><trkpt lat="59.0908885002" lon="29.9907660484"><time>2026-04-22T11:33:10Z</time></trkpt><trkpt lat="59.0908885002" lon="29.9907660484"><time>2026-04-22T11:33:13Z</time></trkpt><trkpt lat="59.0908885002" lon="29.9907660484"><time>2026-04-22T11:33:15Z</time></trkpt><trkpt lat="59.0908885002" lon="29.9907660484"><time>2026-04-22T11:33:18Z</time></trkpt><trkpt lat="59.0908885002" lon="29.9907660484"><time>2026-04-22T11:33:20Z</time></trkpt><trkpt lat="59.0908885002" lon="29.9907660484"><time>2026-04-22T11:33:23Z</time></trkpt><trkpt lat="59.0908885002" lon="29.9907660484"><time>2026-04-22T11:33:25Z</time></trkpt><trkpt lat="59.0908885002" lon="29.9907660484"><time>2026-04-22T11:33:28Z</time></trkpt><trkpt lat="59.0908670425" lon="29.9908733368"><time>2026-04-22T11:33:30Z</time></trkpt><trkpt lat="59.0908670425" lon="29.9909377098"><time>2026-04-22T11:33:33Z</time></trkpt><trkpt lat="59.0908885002" lon="29.9910235405"><time>2026-04-22T11:33:35Z</time></trkpt><trkpt lat="59.0908885002" lon="29.9910235405"><time>2026-04-22T11:33:38Z</time></trkpt><trkpt lat="59.0908885002" lon="29.9910235405"><time>2026-04-22T11:33:40Z</time></trkpt><trkpt lat="59.0908885002" lon="29.9910235405"><time>2026-04-22T11:33:43Z</time></trkpt><trkpt lat="59.0908670425" lon="29.9910664558"><time>2026-04-22T11:33:45Z</time></trkpt><trkpt lat="59.0908455849" lon="29.9910664558"><time>2026-04-22T11:33:48Z</time></trkpt><trkpt lat="59.0908026695" lon="29.9910235405"><time>2026-04-22T11:33:50Z</time></trkpt><trkpt lat="59.0907597542" lon="29.9910449982"><time>2026-04-22T11:33:53Z</time></trkpt><trkpt lat="59.0907382965" lon="29.9910449982"><time>2026-04-22T11:33:55Z</time></trkpt><trkpt lat="59.0907168388" lon="29.9910235405"><time>2026-04-22T11:33:58Z</time></trkpt><trkpt lat="59.0906739235" lon="29.9910235405"><time>2026-04-22T11:34:00Z</time></trkpt><trkpt lat="59.0906310081" lon="29.9910449982"><time>2026-04-22T11:34:03Z</time></trkpt><trkpt lat="59.0906095505" lon="29.9911093712"><time>2026-04-22T11:34:05Z</time></trkpt><trkpt lat="59.0906095505" lon="29.9911737442"><time>2026-04-22T11:34:08Z</time></trkpt><trkpt lat="59.0905880928" lon="29.9912381172"><time>2026-04-22T11:34:10Z</time></trkpt><trkpt lat="59.0905880928" lon="29.9912381172"><time>2026-04-22T11:34:13Z</time></trkpt><trkpt lat="59.0906095505" lon="29.9912595749"><time>2026-04-22T11:34:15Z</time></trkpt><trkpt lat="59.0906310081" lon="29.9912810326"><time>2026-04-22T11:34:18Z</time></trkpt><trkpt lat="59.0906524658" lon="29.9912166595"><time>2026-04-22T11:34:20Z</time></trkpt><trkpt lat="59.0906739235" lon="29.9911308289"><time>2026-04-22T11:34:23Z</time></trkpt><trkpt lat="59.0906953812" lon="29.9911093712"><time>2026-04-22T11:34:25Z</time></trkpt><trkpt lat="59.0906953812" lon="29.9911093712"><time>2026-04-22T11:34:28Z</time></trkpt><trkpt lat="59.0906953812" lon="29.9911093712"><time>2026-04-22T11:34:30Z</time></trkpt><trkpt lat="59.0907168388" lon="29.9911093712"><time>2026-04-22T11:34:33Z</time></trkpt><trkpt lat="59.0907168388" lon="29.9911093712"><time>2026-04-22T11:34:35Z</time></trkpt><trkpt lat="59.0907168388" lon="29.9911093712"><time>2026-04-22T11:34:38Z</time></trkpt><trkpt lat="59.0907168388" lon="29.9911093712"><time>2026-04-22T11:34:40Z</time></trkpt><trkpt lat="59.0907168388" lon="29.9911093712"><time>2026-04-22T11:34:43Z</time></trkpt><trkpt lat="59.0907168388" lon="29.9911093712"><time>2026-04-22T11:34:45Z</time></trkpt><trkpt lat="59.0907168388" lon="29.9911093712"><time>2026-04-22T11:34:48Z</time></trkpt><trkpt lat="59.0907168388" lon="29.9911093712"><time>2026-04-22T11:34:50Z</time></trkpt><trkpt lat="59.0907168388" lon="29.9911093712"><time>2026-04-22T11:34:53Z</time></trkpt><trkpt lat="59.0907168388" lon="29.9911093712"><time>2026-04-22T11:34:55Z</time></trkpt><trkpt lat="59.0907168388" lon="29.9911093712"><time>2026-04-22T11:34:58Z</time></trkpt><trkpt lat="59.0907168388" lon="29.9911093712"><time>2026-04-22T11:35:00Z</time></trkpt><trkpt lat="59.0907168388" lon="29.9911093712"><time>2026-04-22T11:35:03Z</time></trkpt><trkpt lat="59.0907168388" lon="29.9911093712"><time>2026-04-22T11:35:05Z</time></trkpt><trkpt lat="59.0907168388" lon="29.9911093712"><time>2026-04-22T11:35:08Z</time></trkpt><trkpt lat="59.0907168388" lon="29.9911093712"><time>2026-04-22T11:35:10Z</time></trkpt><trkpt lat="59.0907168388" lon="29.9911093712"><time>2026-04-22T11:35:13Z</time></trkpt><trkpt lat="59.0907168388" lon="29.9911093712"><time>2026-04-22T11:35:15Z</time></trkpt><trkpt lat="59.0907168388" lon="29.9911093712"><time>2026-04-22T11:35:18Z</time></trkpt><trkpt lat="59.0907168388" lon="29.9911093712"><time>2026-04-22T11:35:20Z</time></trkpt><trkpt lat="59.0907168388" lon="29.9911093712"><time>2026-04-22T11:35:23Z</time></trkpt><trkpt lat="59.0907168388" lon="29.9911093712"><time>2026-04-22T11:35:25Z</time></trkpt><trkpt lat="59.0907168388" lon="29.9911093712"><time>2026-04-22T11:35:28Z</time></trkpt><trkpt lat="59.0907168388" lon="29.9911093712"><time>2026-04-22T11:35:30Z</time></trkpt><trkpt lat="59.0907168388" lon="29.9911093712"><time>2026-04-22T11:35:33Z</time></trkpt><trkpt lat="59.0907168388" lon="29.9911093712"><time>2026-04-22T11:35:35Z</time></trkpt><trkpt lat="59.0907168388" lon="29.9911093712"><time>2026-04-22T11:35:38Z</time></trkpt><trkpt lat="59.0907168388" lon="29.9911093712"><time>2026-04-22T11:35:40Z</time></trkpt><trkpt lat="59.0907168388" lon="29.9911093712"><time>2026-04-22T11:35:43Z</time></trkpt><trkpt lat="59.0907168388" lon="29.9911093712"><time>2026-04-22T11:35:45Z</time></trkpt><trkpt lat="59.0907168388" lon="29.9911093712"><time>2026-04-22T11:35:48Z</time></trkpt><trkpt lat="59.0907168388" lon="29.9911093712"><time>2026-04-22T11:35:50Z</time></trkpt><trkpt lat="59.0907168388" lon="29.9911093712"><time>2026-04-22T11:35:53Z</time></trkpt><trkpt lat="59.0907168388" lon="29.9911093712"><time>2026-04-22T11:35:55Z</time></trkpt><trkpt lat="59.0907168388" lon="29.9911093712"><time>2026-04-22T11:35:58Z</time></trkpt><trkpt lat="59.0907168388" lon="29.9911093712"><time>2026-04-22T11:36:00Z</time></trkpt><trkpt lat="59.0907168388" lon="29.9911093712"><time>2026-04-22T11:36:03Z</time></trkpt><trkpt lat="59.0907168388" lon="29.9911093712"><time>2026-04-22T11:36:05Z</time></trkpt><trkpt lat="59.0907168388" lon="29.9911093712"><time>2026-04-22T11:36:08Z</time></trkpt><trkpt lat="59.0907168388" lon="29.9911093712"><time>2026-04-22T11:36:10Z</time></trkpt><trkpt lat="59.0907168388" lon="29.9911093712"><time>2026-04-22T11:36:13Z</time></trkpt><trkpt lat="59.0907168388" lon="29.9911093712"><time>2026-04-22T11:36:15Z</time></trkpt><trkpt lat="59.0907168388" lon="29.9911093712"><time>2026-04-22T11:36:18Z</time></trkpt><trkpt lat="59.0907168388" lon="29.9911093712"><time>2026-04-22T11:36:20Z</time></trkpt><trkpt lat="59.0907168388" lon="29.9911093712"><time>2026-04-22T11:36:23Z</time></trkpt><trkpt lat="59.0907168388" lon="29.9911093712"><time>2026-04-22T11:36:25Z</time></trkpt><trkpt lat="59.0907168388" lon="29.9911093712"><time>2026-04-22T11:36:28Z</time></trkpt><trkpt lat="59.0907168388" lon="29.9911093712"><time>2026-04-22T11:36:30Z</time></trkpt><trkpt lat="59.0907168388" lon="29.9911093712"><time>2026-04-22T11:36:33Z</time></trkpt><trkpt lat="59.0907168388" lon="29.9911093712"><time>2026-04-22T11:36:35Z</time></trkpt><trkpt lat="59.0907168388" lon="29.9911093712"><time>2026-04-22T11:36:38Z</time></trkpt><trkpt lat="59.0907168388" lon="29.9911093712"><time>2026-04-22T11:36:40Z</time></trkpt><trkpt lat="59.0907168388" lon="29.9911093712"><time>2026-04-22T11:36:43Z</time></trkpt><trkpt lat="59.0907168388" lon="29.9911093712"><time>2026-04-22T11:36:45Z</time></trkpt><trkpt lat="59.0907168388" lon="29.9911093712"><time>2026-04-22T11:36:48Z</time></trkpt><trkpt lat="59.0907168388" lon="29.9911093712"><time>2026-04-22T11:36:50Z</time></trkpt><trkpt lat="59.0907168388" lon="29.9911093712"><time>2026-04-22T11:36:53Z</time></trkpt><trkpt lat="59.0907168388" lon="29.9911093712"><time>2026-04-22T11:36:55Z</time></trkpt><trkpt lat="59.0907168388" lon="29.9911093712"><time>2026-04-22T11:36:58Z</time></trkpt><trkpt lat="59.0907168388" lon="29.9911093712"><time>2026-04-22T11:37:00Z</time></trkpt><trkpt lat="59.0907168388" lon="29.9911093712"><time>2026-04-22T11:37:03Z</time></trkpt><trkpt lat="59.0907168388" lon="29.9911093712"><time>2026-04-22T11:37:05Z</time></trkpt><trkpt lat="59.0907168388" lon="29.9911093712"><time>2026-04-22T11:37:08Z</time></trkpt><trkpt lat="59.0907168388" lon="29.9911093712"><time>2026-04-22T11:37:10Z</time></trkpt><trkpt lat="59.0907168388" lon="29.9911093712"><time>2026-04-22T11:37:13Z</time></trkpt><trkpt lat="59.0907168388" lon="29.9911093712"><time>2026-04-22T11:37:15Z</time></trkpt><trkpt lat="59.0907168388" lon="29.9911093712"><time>2026-04-22T11:37:18Z</time></trkpt><trkpt lat="59.0907168388" lon="29.9911093712"><time>2026-04-22T11:37:20Z</time></trkpt><trkpt lat="59.0907168388" lon="29.9911093712"><time>2026-04-22T11:37:23Z</time></trkpt><trkpt lat="59.0907168388" lon="29.9911093712"><time>2026-04-22T11:37:25Z</time></trkpt><trkpt lat="59.0907168388" lon="29.9911093712"><time>2026-04-22T11:37:28Z</time></trkpt><trkpt lat="59.0907168388" lon="29.9911093712"><time>2026-04-22T11:37:30Z</time></trkpt><trkpt lat="59.0907168388" lon="29.9911093712"><time>2026-04-22T11:37:33Z</time></trkpt><trkpt lat="59.0907168388" lon="29.9911093712"><time>2026-04-22T11:37:35Z</time></trkpt><trkpt lat="59.0907168388" lon="29.9911093712"><time>2026-04-22T11:37:38Z</time></trkpt><trkpt lat="59.0907168388" lon="29.9911093712"><time>2026-04-22T11:37:40Z</time></trkpt><trkpt lat="59.0907168388" lon="29.9911093712"><time>2026-04-22T11:37:43Z</time></trkpt><trkpt lat="59.0907168388" lon="29.9911093712"><time>2026-04-22T11:37:45Z</time></trkpt><trkpt lat="59.0907168388" lon="29.9911093712"><time>2026-04-22T11:37:48Z</time></trkpt><trkpt lat="59.0907168388" lon="29.9911093712"><time>2026-04-22T11:37:50Z</time></trkpt><trkpt lat="59.0907168388" lon="29.9911093712"><time>2026-04-22T11:37:53Z</time></trkpt><trkpt lat="59.0907168388" lon="29.9911093712"><time>2026-04-22T11:37:55Z</time></trkpt><trkpt lat="59.0907168388" lon="29.9911093712"><time>2026-04-22T11:37:58Z</time></trkpt><trkpt lat="59.0907168388" lon="29.9911093712"><time>2026-04-22T11:38:00Z</time></trkpt><trkpt lat="59.0907168388" lon="29.9911093712"><time>2026-04-22T11:38:03Z</time></trkpt><trkpt lat="59.0907168388" lon="29.9911093712"><time>2026-04-22T11:38:05Z</time></trkpt><trkpt lat="59.0907168388" lon="29.9911093712"><time>2026-04-22T11:38:08Z</time></trkpt><trkpt lat="59.0907168388" lon="29.9911093712"><time>2026-04-22T11:38:10Z</time></trkpt><trkpt lat="59.0907168388" lon="29.9911093712"><time>2026-04-22T11:38:13Z</time></trkpt><trkpt lat="59.0907168388" lon="29.9911093712"><time>2026-04-22T11:38:15Z</time></trkpt><trkpt lat="59.0907168388" lon="29.9911093712"><time>2026-04-22T11:38:18Z</time></trkpt><trkpt lat="59.0907168388" lon="29.9911093712"><time>2026-04-22T11:38:20Z</time></trkpt><trkpt lat="59.0907168388" lon="29.9911093712"><time>2026-04-22T11:38:23Z</time></trkpt><trkpt lat="59.0907168388" lon="29.9911093712"><time>2026-04-22T11:38:25Z</time></trkpt><trkpt lat="59.0907168388" lon="29.9911093712"><time>2026-04-22T11:38:28Z</time></trkpt><trkpt lat="59.0907168388" lon="29.9911093712"><time>2026-04-22T11:38:30Z</time></trkpt><trkpt lat="59.0907168388" lon="29.9911093712"><time>2026-04-22T11:38:33Z</time></trkpt><trkpt lat="59.0907168388" lon="29.9911093712"><time>2026-04-22T11:38:35Z</time></trkpt><trkpt lat="59.0907168388" lon="29.9911093712"><time>2026-04-22T11:38:38Z</time></trkpt><trkpt lat="59.0907168388" lon="29.9911093712"><time>2026-04-22T11:38:40Z</time></trkpt><trkpt lat="59.0907168388" lon="29.9911093712"><time>2026-04-22T11:38:43Z</time></trkpt><trkpt lat="59.0907168388" lon="29.9911093712"><time>2026-04-22T11:38:45Z</time></trkpt><trkpt lat="59.0907168388" lon="29.9911093712"><time>2026-04-22T11:38:48Z</time></trkpt><trkpt lat="59.0907168388" lon="29.9911093712"><time>2026-04-22T11:38:50Z</time></trkpt><trkpt lat="59.0907168388" lon="29.9911093712"><time>2026-04-22T11:38:53Z</time></trkpt><trkpt lat="59.0907168388" lon="29.9911093712"><time>2026-04-22T11:38:55Z</time></trkpt><trkpt lat="59.0907168388" lon="29.9911093712"><time>2026-04-22T11:38:58Z</time></trkpt><trkpt lat="59.0907168388" lon="29.9911093712"><time>2026-04-22T11:39:00Z</time></trkpt><trkpt lat="59.0907168388" lon="29.9911093712"><time>2026-04-22T11:39:03Z</time></trkpt><trkpt lat="59.0907168388" lon="29.9911093712"><time>2026-04-22T11:39:05Z</time></trkpt><trkpt lat="59.0907168388" lon="29.9911093712"><time>2026-04-22T11:39:08Z</time></trkpt><trkpt lat="59.0907168388" lon="29.9911093712"><time>2026-04-22T11:39:10Z</time></trkpt><trkpt lat="59.0907168388" lon="29.9911093712"><time>2026-04-22T11:39:13Z</time></trkpt><trkpt lat="59.0907168388" lon="29.9911093712"><time>2026-04-22T11:39:15Z</time></trkpt><trkpt lat="59.0907168388" lon="29.9911093712"><time>2026-04-22T11:39:18Z</time></trkpt><trkpt lat="59.0907168388" lon="29.9911093712"><time>2026-04-22T11:39:20Z</time></trkpt><trkpt lat="59.0907168388" lon="29.9911093712"><time>2026-04-22T11:39:23Z</time></trkpt><trkpt lat="59.0907168388" lon="29.9911093712"><time>2026-04-22T11:39:25Z</time></trkpt><trkpt lat="59.0907168388" lon="29.9911093712"><time>2026-04-22T11:39:28Z</time></trkpt><trkpt lat="59.0907168388" lon="29.9911093712"><time>2026-04-22T11:39:30Z</time></trkpt><trkpt lat="59.0907168388" lon="29.9911093712"><time>2026-04-22T11:39:33Z</time></trkpt><trkpt lat="59.0907168388" lon="29.9911093712"><time>2026-04-22T11:39:35Z</time></trkpt><trkpt lat="59.0907168388" lon="29.9911093712"><time>2026-04-22T11:39:38Z</time></trkpt><trkpt lat="59.0907168388" lon="29.9911093712"><time>2026-04-22T11:39:40Z</time></trkpt><trkpt lat="59.0907168388" lon="29.9911093712"><time>2026-04-22T11:39:43Z</time></trkpt><trkpt lat="59.0907168388" lon="29.9911093712"><time>2026-04-22T11:39:45Z</time></trkpt><trkpt lat="59.0907168388" lon="29.9911093712"><time>2026-04-22T11:39:48Z</time></trkpt><trkpt lat="59.0907168388" lon="29.9911093712"><time>2026-04-22T11:39:50Z</time></trkpt><trkpt lat="59.0907382965" lon="29.9911093712"><time>2026-04-22T11:39:53Z</time></trkpt><trkpt lat="59.0907382965" lon="29.9911093712"><time>2026-04-22T11:39:55Z</time></trkpt><trkpt lat="59.0907382965" lon="29.9911093712"><time>2026-04-22T11:39:58Z</time></trkpt><trkpt lat="59.0907382965" lon="29.9911093712"><time>2026-04-22T11:40:00Z</time></trkpt><trkpt lat="59.0907382965" lon="29.9911093712"><time>2026-04-22T11:40:03Z</time></trkpt><trkpt lat="59.0907382965" lon="29.9911093712"><time>2026-04-22T11:40:05Z</time></trkpt><trkpt lat="59.0907382965" lon="29.9911093712"><time>2026-04-22T11:40:08Z</time></trkpt><trkpt lat="59.0907382965" lon="29.9911093712"><time>2026-04-22T11:40:10Z</time></trkpt><trkpt lat="59.0907382965" lon="29.9911093712"><time>2026-04-22T11:40:13Z</time></trkpt><trkpt lat="59.0907382965" lon="29.9911093712"><time>2026-04-22T11:40:15Z</time></trkpt><trkpt lat="59.0907382965" lon="29.9911093712"><time>2026-04-22T11:40:18Z</time></trkpt><trkpt lat="59.0907382965" lon="29.9911093712"><time>2026-04-22T11:40:20Z</time></trkpt><trkpt lat="59.0907382965" lon="29.9911093712"><time>2026-04-22T11:40:23Z</time></trkpt><trkpt lat="59.0907382965" lon="29.9911093712"><time>2026-04-22T11:40:25Z</time></trkpt><trkpt lat="59.0907382965" lon="29.9911093712"><time>2026-04-22T11:40:28Z</time></trkpt><trkpt lat="59.0907382965" lon="29.9911093712"><time>2026-04-22T11:40:30Z</time></trkpt><trkpt lat="59.0907382965" lon="29.9911093712"><time>2026-04-22T11:40:33Z</time></trkpt><trkpt lat="59.0907382965" lon="29.9911308289"><time>2026-04-22T11:40:35Z</time></trkpt><trkpt lat="59.0907382965" lon="29.9911737442"><time>2026-04-22T11:40:38Z</time></trkpt><trkpt lat="59.0907597542" lon="29.9912381172"><time>2026-04-22T11:40:40Z</time></trkpt><trkpt lat="59.0907597542" lon="29.9912595749"><time>2026-04-22T11:40:43Z</time></trkpt><trkpt lat="59.0907597542" lon="29.9913024902"><time>2026-04-22T11:40:45Z</time></trkpt><trkpt lat="59.0907597542" lon="29.9913454056"><time>2026-04-22T11:40:48Z</time></trkpt><trkpt lat="59.0907597542" lon="29.9913454056"><time>2026-04-22T11:40:50Z</time></trkpt><trkpt lat="59.0907597542" lon="29.9913454056"><time>2026-04-22T11:40:53Z</time></trkpt><trkpt lat="59.0907597542" lon="29.9913454056"><time>2026-04-22T11:40:55Z</time></trkpt><trkpt lat="59.0907597542" lon="29.9913454056"><time>2026-04-22T11:40:58Z</time></trkpt><trkpt lat="59.0907812119" lon="29.9913668633"><time>2026-04-22T11:41:00Z</time></trkpt><trkpt lat="59.0908026695" lon="29.9914097786"><time>2026-04-22T11:41:03Z</time></trkpt><trkpt lat="59.0907812119" lon="29.9913883209"><time>2026-04-22T11:41:05Z</time></trkpt><trkpt lat="59.0907812119" lon="29.9913668633"><time>2026-04-22T11:41:08Z</time></trkpt><trkpt lat="59.0908026695" lon="29.9913668633"><time>2026-04-22T11:41:10Z</time></trkpt><trkpt lat="59.0908241272" lon="29.9913454056"><time>2026-04-22T11:41:13Z</time></trkpt><trkpt lat="59.0908885002" lon="29.9913454056"><time>2026-04-22T11:41:15Z</time></trkpt><trkpt lat="59.0909099579" lon="29.9913454056"><time>2026-04-22T11:41:18Z</time></trkpt><trkpt lat="59.0909528732" lon="29.9913239479"><time>2026-04-22T11:41:20Z</time></trkpt><trkpt lat="59.0909528732" lon="29.9913239479"><time>2026-04-22T11:41:23Z</time></trkpt><trkpt lat="59.0909528732" lon="29.9913668633"><time>2026-04-22T11:41:25Z</time></trkpt><trkpt lat="59.0909743309" lon="29.9914097786"><time>2026-04-22T11:41:28Z</time></trkpt><trkpt lat="59.0910172462" lon="29.9914526939"><time>2026-04-22T11:41:30Z</time></trkpt><trkpt lat="59.0910172462" lon="29.9914956093"><time>2026-04-22T11:41:33Z</time></trkpt><trkpt lat="59.0910601616" lon="29.9915170670"><time>2026-04-22T11:41:35Z</time></trkpt><trkpt lat="59.0910601616" lon="29.9915170670"><time>2026-04-22T11:41:38Z</time></trkpt><trkpt lat="59.0910601616" lon="29.9915170670"><time>2026-04-22T11:41:40Z</time></trkpt><trkpt lat="59.0910601616" lon="29.9915170670"><time>2026-04-22T11:41:43Z</time></trkpt><trkpt lat="59.0910601616" lon="29.9915170670"><time>2026-04-22T11:41:45Z</time></trkpt><trkpt lat="59.0910601616" lon="29.9915170670"><time>2026-04-22T11:41:48Z</time></trkpt><trkpt lat="59.0910601616" lon="29.9915170670"><time>2026-04-22T11:41:50Z</time></trkpt><trkpt lat="59.0910816193" lon="29.9915170670"><time>2026-04-22T11:41:53Z</time></trkpt><trkpt lat="59.0910816193" lon="29.9915385246"><time>2026-04-22T11:41:55Z</time></trkpt><trkpt lat="59.0910816193" lon="29.9915385246"><time>2026-04-22T11:41:58Z</time></trkpt><trkpt lat="59.0911030769" lon="29.9915599823"><time>2026-04-22T11:42:00Z</time></trkpt><trkpt lat="59.0911030769" lon="29.9915814400"><time>2026-04-22T11:42:03Z</time></trkpt><trkpt lat="59.0911245346" lon="29.9916028976"><time>2026-04-22T11:42:05Z</time></trkpt><trkpt lat="59.0911459923" lon="29.9916243553"><time>2026-04-22T11:42:08Z</time></trkpt><trkpt lat="59.0911674500" lon="29.9916028976"><time>2026-04-22T11:42:10Z</time></trkpt><trkpt lat="59.0911674500" lon="29.9916028976"><time>2026-04-22T11:42:13Z</time></trkpt><trkpt lat="59.0911889076" lon="29.9916028976"><time>2026-04-22T11:42:15Z</time></trkpt><trkpt lat="59.0912103653" lon="29.9916028976"><time>2026-04-22T11:42:18Z</time></trkpt><trkpt lat="59.0912103653" lon="29.9916028976"><time>2026-04-22T11:42:20Z</time></trkpt><trkpt lat="59.0912103653" lon="29.9916028976"><time>2026-04-22T11:42:23Z</time></trkpt><trkpt lat="59.0912103653" lon="29.9916028976"><time>2026-04-22T11:42:25Z</time></trkpt><trkpt lat="59.0912103653" lon="29.9916028976"><time>2026-04-22T11:42:28Z</time></trkpt><trkpt lat="59.0912103653" lon="29.9916028976"><time>2026-04-22T11:42:30Z</time></trkpt><trkpt lat="59.0912103653" lon="29.9916028976"><time>2026-04-22T11:42:33Z</time></trkpt><trkpt lat="59.0912318230" lon="29.9915814400"><time>2026-04-22T11:42:35Z</time></trkpt><trkpt lat="59.0912318230" lon="29.9915814400"><time>2026-04-22T11:42:38Z</time></trkpt><trkpt lat="59.0912532806" lon="29.9915385246"><time>2026-04-22T11:42:40Z</time></trkpt><trkpt lat="59.0912747383" lon="29.9915170670"><time>2026-04-22T11:42:43Z</time></trkpt><trkpt lat="59.0913176537" lon="29.9914956093"><time>2026-04-22T11:42:45Z</time></trkpt><trkpt lat="59.0913176537" lon="29.9914956093"><time>2026-04-22T11:42:48Z</time></trkpt><trkpt lat="59.0913176537" lon="29.9914741516"><time>2026-04-22T11:42:50Z</time></trkpt><trkpt lat="59.0913391113" lon="29.9914741516"><time>2026-04-22T11:42:53Z</time></trkpt><trkpt lat="59.0913176537" lon="29.9914741516"><time>2026-04-22T11:42:55Z</time></trkpt><trkpt lat="59.0913176537" lon="29.9914741516"><time>2026-04-22T11:42:58Z</time></trkpt><trkpt lat="59.0913176537" lon="29.9914741516"><time>2026-04-22T11:43:00Z</time></trkpt><trkpt lat="59.0913391113" lon="29.9914526939"><time>2026-04-22T11:43:03Z</time></trkpt><trkpt lat="59.0913820267" lon="29.9914741516"><time>2026-04-22T11:43:05Z</time></trkpt><trkpt lat="59.0913820267" lon="29.9914741516"><time>2026-04-22T11:43:08Z</time></trkpt><trkpt lat="59.0913820267" lon="29.9914741516"><time>2026-04-22T11:43:10Z</time></trkpt><trkpt lat="59.0914034843" lon="29.9914526939"><time>2026-04-22T11:43:13Z</time></trkpt><trkpt lat="59.0914463997" lon="29.9914526939"><time>2026-04-22T11:43:15Z</time></trkpt><trkpt lat="59.0914463997" lon="29.9914526939"><time>2026-04-22T11:43:18Z</time></trkpt><trkpt lat="59.0914463997" lon="29.9914526939"><time>2026-04-22T11:43:20Z</time></trkpt><trkpt lat="59.0914678574" lon="29.9914741516"><time>2026-04-22T11:43:23Z</time></trkpt><trkpt lat="59.0914893150" lon="29.9914526939"><time>2026-04-22T11:43:25Z</time></trkpt><trkpt lat="59.0915107727" lon="29.9914526939"><time>2026-04-22T11:43:28Z</time></trkpt><trkpt lat="59.0915536880" lon="29.9914097786"><time>2026-04-22T11:43:30Z</time></trkpt><trkpt lat="59.0915536880" lon="29.9914097786"><time>2026-04-22T11:43:33Z</time></trkpt><trkpt lat="59.0915536880" lon="29.9914097786"><time>2026-04-22T11:43:35Z</time></trkpt><trkpt lat="59.0915536880" lon="29.9914097786"><time>2026-04-22T11:43:38Z</time></trkpt><trkpt lat="59.0915536880" lon="29.9913668633"><time>2026-04-22T11:43:40Z</time></trkpt><trkpt lat="59.0915322304" lon="29.9913454056"><time>2026-04-22T11:43:43Z</time></trkpt><trkpt lat="59.0915322304" lon="29.9913454056"><time>2026-04-22T11:43:45Z</time></trkpt><trkpt lat="59.0915322304" lon="29.9913454056"><time>2026-04-22T11:43:48Z</time></trkpt><trkpt lat="59.0915322304" lon="29.9913454056"><time>2026-04-22T11:43:50Z</time></trkpt><trkpt lat="59.0915322304" lon="29.9913883209"><time>2026-04-22T11:43:53Z</time></trkpt><trkpt lat="59.0915322304" lon="29.9914097786"><time>2026-04-22T11:43:55Z</time></trkpt><trkpt lat="59.0915536880" lon="29.9914312363"><time>2026-04-22T11:43:58Z</time></trkpt><trkpt lat="59.0915966034" lon="29.9914526939"><time>2026-04-22T11:44:00Z</time></trkpt><trkpt lat="59.0916180611" lon="29.9914741516"><time>2026-04-22T11:44:03Z</time></trkpt><trkpt lat="59.0916180611" lon="29.9914526939"><time>2026-04-22T11:44:05Z</time></trkpt><trkpt lat="59.0916395187" lon="29.9914526939"><time>2026-04-22T11:44:08Z</time></trkpt><trkpt lat="59.0916395187" lon="29.9914526939"><time>2026-04-22T11:44:10Z</time></trkpt><trkpt lat="59.0916395187" lon="29.9914526939"><time>2026-04-22T11:44:13Z</time></trkpt><trkpt lat="59.0916395187" lon="29.9914741516"><time>2026-04-22T11:44:15Z</time></trkpt><trkpt lat="59.0916395187" lon="29.9914956093"><time>2026-04-22T11:44:18Z</time></trkpt><trkpt lat="59.0916395187" lon="29.9914956093"><time>2026-04-22T11:44:20Z</time></trkpt><trkpt lat="59.0916395187" lon="29.9914956093"><time>2026-04-22T11:44:23Z</time></trkpt><trkpt lat="59.0916609764" lon="29.9914741516"><time>2026-04-22T11:44:25Z</time></trkpt><trkpt lat="59.0916609764" lon="29.9914526939"><time>2026-04-22T11:44:28Z</time></trkpt><trkpt lat="59.0917038918" lon="29.9914526939"><time>2026-04-22T11:44:30Z</time></trkpt><trkpt lat="59.0917038918" lon="29.9914526939"><time>2026-04-22T11:44:33Z</time></trkpt><trkpt lat="59.0917253494" lon="29.9914312363"><time>2026-04-22T11:44:35Z</time></trkpt><trkpt lat="59.0917468071" lon="29.9913668633"><time>2026-04-22T11:44:38Z</time></trkpt><trkpt lat="59.0917468071" lon="29.9913454056"><time>2026-04-22T11:44:40Z</time></trkpt><trkpt lat="59.0917468071" lon="29.9913454056"><time>2026-04-22T11:44:43Z</time></trkpt><trkpt lat="59.0917468071" lon="29.9913454056"><time>2026-04-22T11:44:45Z</time></trkpt><trkpt lat="59.0917468071" lon="29.9913239479"><time>2026-04-22T11:44:48Z</time></trkpt><trkpt lat="59.0917468071" lon="29.9913239479"><time>2026-04-22T11:44:50Z</time></trkpt><trkpt lat="59.0917253494" lon="29.9913024902"><time>2026-04-22T11:44:53Z</time></trkpt><trkpt lat="59.0917468071" lon="29.9913024902"><time>2026-04-22T11:44:55Z</time></trkpt><trkpt lat="59.0917468071" lon="29.9913024902"><time>2026-04-22T11:44:58Z</time></trkpt><trkpt lat="59.0917468071" lon="29.9913024902"><time>2026-04-22T11:45:00Z</time></trkpt><trkpt lat="59.0917468071" lon="29.9913024902"><time>2026-04-22T11:45:03Z</time></trkpt><trkpt lat="59.0917468071" lon="29.9913239479"><time>2026-04-22T11:45:05Z</time></trkpt><trkpt lat="59.0917682648" lon="29.9913668633"><time>2026-04-22T11:45:08Z</time></trkpt><trkpt lat="59.0917682648" lon="29.9913668633"><time>2026-04-22T11:45:10Z</time></trkpt><trkpt lat="59.0917682648" lon="29.9913454056"><time>2026-04-22T11:45:13Z</time></trkpt><trkpt lat="59.0917682648" lon="29.9913024902"><time>2026-04-22T11:45:15Z</time></trkpt><trkpt lat="59.0917682648" lon="29.9913024902"><time>2026-04-22T11:45:18Z</time></trkpt><trkpt lat="59.0917682648" lon="29.9913024902"><time>2026-04-22T11:45:20Z</time></trkpt><trkpt lat="59.0917682648" lon="29.9913024902"><time>2026-04-22T11:45:23Z</time></trkpt><trkpt lat="59.0917682648" lon="29.9913024902"><time>2026-04-22T11:45:25Z</time></trkpt><trkpt lat="59.0917682648" lon="29.9913024902"><time>2026-04-22T11:45:28Z</time></trkpt><trkpt lat="59.0917682648" lon="29.9913024902"><time>2026-04-22T11:45:30Z</time></trkpt><trkpt lat="59.0917682648" lon="29.9913024902"><time>2026-04-22T11:45:33Z</time></trkpt><trkpt lat="59.0917682648" lon="29.9913024902"><time>2026-04-22T11:45:35Z</time></trkpt><trkpt lat="59.0917682648" lon="29.9913024902"><time>2026-04-22T11:45:38Z</time></trkpt><trkpt lat="59.0917897224" lon="29.9913024902"><time>2026-04-22T11:45:40Z</time></trkpt><trkpt lat="59.0917897224" lon="29.9913024902"><time>2026-04-22T11:45:43Z</time></trkpt><trkpt lat="59.0917897224" lon="29.9913024902"><time>2026-04-22T11:45:45Z</time></trkpt><trkpt lat="59.0917897224" lon="29.9913024902"><time>2026-04-22T11:45:48Z</time></trkpt><trkpt lat="59.0918111801" lon="29.9912810326"><time>2026-04-22T11:45:50Z</time></trkpt><trkpt lat="59.0918111801" lon="29.9912381172"><time>2026-04-22T11:45:53Z</time></trkpt><trkpt lat="59.0918111801" lon="29.9912381172"><time>2026-04-22T11:45:55Z</time></trkpt><trkpt lat="59.0918111801" lon="29.9912381172"><time>2026-04-22T11:45:58Z</time></trkpt><trkpt lat="59.0918111801" lon="29.9912381172"><time>2026-04-22T11:46:00Z</time></trkpt><trkpt lat="59.0918111801" lon="29.9912381172"><time>2026-04-22T11:46:03Z</time></trkpt><trkpt lat="59.0918111801" lon="29.9912381172"><time>2026-04-22T11:46:05Z</time></trkpt><trkpt lat="59.0918111801" lon="29.9912381172"><time>2026-04-22T11:46:08Z</time></trkpt><trkpt lat="59.0918111801" lon="29.9912595749"><time>2026-04-22T11:46:10Z</time></trkpt><trkpt lat="59.0918326378" lon="29.9912595749"><time>2026-04-22T11:46:13Z</time></trkpt><trkpt lat="59.0918326378" lon="29.9912595749"><time>2026-04-22T11:46:15Z</time></trkpt><trkpt lat="59.0918326378" lon="29.9912595749"><time>2026-04-22T11:46:18Z</time></trkpt><trkpt lat="59.0918326378" lon="29.9912595749"><time>2026-04-22T11:46:20Z</time></trkpt><trkpt lat="59.0918326378" lon="29.9912595749"><time>2026-04-22T11:46:23Z</time></trkpt><trkpt lat="59.0918326378" lon="29.9912595749"><time>2026-04-22T11:46:25Z</time></trkpt><trkpt lat="59.0918326378" lon="29.9912595749"><time>2026-04-22T11:46:28Z</time></trkpt><trkpt lat="59.0918326378" lon="29.9912595749"><time>2026-04-22T11:46:30Z</time></trkpt><trkpt lat="59.0918326378" lon="29.9912595749"><time>2026-04-22T11:46:33Z</time></trkpt><trkpt lat="59.0918755531" lon="29.9914526939"><time>2026-04-22T11:46:35Z</time></trkpt><trkpt lat="59.0918970108" lon="29.9915170670"><time>2026-04-22T11:46:38Z</time></trkpt><trkpt lat="59.0918970108" lon="29.9915170670"><time>2026-04-22T11:46:40Z</time></trkpt><trkpt lat="59.0918970108" lon="29.9915170670"><time>2026-04-22T11:46:43Z</time></trkpt><trkpt lat="59.0918970108" lon="29.9915170670"><time>2026-04-22T11:46:45Z</time></trkpt><trkpt lat="59.0918970108" lon="29.9915170670"><time>2026-04-22T11:46:48Z</time></trkpt><trkpt lat="59.0918755531" lon="29.9913883209"><time>2026-04-22T11:46:50Z</time></trkpt><trkpt lat="59.0918540955" lon="29.9913024902"><time>2026-04-22T11:46:53Z</time></trkpt><trkpt lat="59.0918540955" lon="29.9912595749"><time>2026-04-22T11:46:55Z</time></trkpt><trkpt lat="59.0918540955" lon="29.9912810326"><time>2026-04-22T11:46:58Z</time></trkpt><trkpt lat="59.0918540955" lon="29.9912810326"><time>2026-04-22T11:47:00Z</time></trkpt><trkpt lat="59.0918540955" lon="29.9912810326"><time>2026-04-22T11:47:03Z</time></trkpt><trkpt lat="59.0918540955" lon="29.9912810326"><time>2026-04-22T11:47:05Z</time></trkpt><trkpt lat="59.0918540955" lon="29.9912810326"><time>2026-04-22T11:47:08Z</time></trkpt><trkpt lat="59.0918540955" lon="29.9912810326"><time>2026-04-22T11:47:10Z</time></trkpt><trkpt lat="59.0918540955" lon="29.9912810326"><time>2026-04-22T11:47:13Z</time></trkpt><trkpt lat="59.0918540955" lon="29.9912810326"><time>2026-04-22T11:47:15Z</time></trkpt><trkpt lat="59.0918540955" lon="29.9912810326"><time>2026-04-22T11:47:18Z</time></trkpt><trkpt lat="59.0918540955" lon="29.9912810326"><time>2026-04-22T11:47:20Z</time></trkpt><trkpt lat="59.0918540955" lon="29.9912810326"><time>2026-04-22T11:47:23Z</time></trkpt><trkpt lat="59.0918326378" lon="29.9912810326"><time>2026-04-22T11:47:25Z</time></trkpt><trkpt lat="59.0918326378" lon="29.9912810326"><time>2026-04-22T11:47:28Z</time></trkpt><trkpt lat="59.0918326378" lon="29.9912810326"><time>2026-04-22T11:47:30Z</time></trkpt><trkpt lat="59.0918326378" lon="29.9912810326"><time>2026-04-22T11:47:33Z</time></trkpt><trkpt lat="59.0918326378" lon="29.9912810326"><time>2026-04-22T11:47:35Z</time></trkpt><trkpt lat="59.0918326378" lon="29.9912810326"><time>2026-04-22T11:47:38Z</time></trkpt><trkpt lat="59.0918326378" lon="29.9913024902"><time>2026-04-22T11:47:40Z</time></trkpt><trkpt lat="59.0918326378" lon="29.9913024902"><time>2026-04-22T11:47:43Z</time></trkpt><trkpt lat="59.0918326378" lon="29.9913024902"><time>2026-04-22T11:47:45Z</time></trkpt><trkpt lat="59.0918326378" lon="29.9913024902"><time>2026-04-22T11:47:48Z</time></trkpt><trkpt lat="59.0918540955" lon="29.9913239479"><time>2026-04-22T11:47:50Z</time></trkpt><trkpt lat="59.0918540955" lon="29.9913883209"><time>2026-04-22T11:47:53Z</time></trkpt><trkpt lat="59.0918970108" lon="29.9914312363"><time>2026-04-22T11:47:55Z</time></trkpt><trkpt lat="59.0919184685" lon="29.9914741516"><time>2026-04-22T11:47:58Z</time></trkpt><trkpt lat="59.0919184685" lon="29.9914741516"><time>2026-04-22T11:48:00Z</time></trkpt><trkpt lat="59.0919184685" lon="29.9914741516"><time>2026-04-22T11:48:03Z</time></trkpt><trkpt lat="59.0919184685" lon="29.9914526939"><time>2026-04-22T11:48:05Z</time></trkpt><trkpt lat="59.0919184685" lon="29.9914526939"><time>2026-04-22T11:48:08Z</time></trkpt><trkpt lat="59.0918970108" lon="29.9914956093"><time>2026-04-22T11:48:10Z</time></trkpt><trkpt lat="59.0918755531" lon="29.9915170670"><time>2026-04-22T11:48:13Z</time></trkpt><trkpt lat="59.0918755531" lon="29.9915814400"><time>2026-04-22T11:48:15Z</time></trkpt><trkpt lat="59.0918755531" lon="29.9916458130"><time>2026-04-22T11:48:18Z</time></trkpt><trkpt lat="59.0918970108" lon="29.9917316437"><time>2026-04-22T11:48:20Z</time></trkpt><trkpt lat="59.0919184685" lon="29.9917745590"><time>2026-04-22T11:48:23Z</time></trkpt><trkpt lat="59.0919184685" lon="29.9917745590"><time>2026-04-22T11:48:25Z</time></trkpt><trkpt lat="59.0919184685" lon="29.9917531013"><time>2026-04-22T11:48:28Z</time></trkpt><trkpt lat="59.0918970108" lon="29.9916458130"><time>2026-04-22T11:48:30Z</time></trkpt><trkpt lat="59.0919184685" lon="29.9916243553"><time>2026-04-22T11:48:33Z</time></trkpt><trkpt lat="59.0918970108" lon="29.9916028976"><time>2026-04-22T11:48:35Z</time></trkpt><trkpt lat="59.0918970108" lon="29.9916028976"><time>2026-04-22T11:48:38Z</time></trkpt><trkpt lat="59.0919184685" lon="29.9916028976"><time>2026-04-22T11:48:40Z</time></trkpt><trkpt lat="59.0919184685" lon="29.9916028976"><time>2026-04-22T11:48:43Z</time></trkpt><trkpt lat="59.0919184685" lon="29.9916028976"><time>2026-04-22T11:48:45Z</time></trkpt><trkpt lat="59.0919184685" lon="29.9916243553"><time>2026-04-22T11:48:48Z</time></trkpt><trkpt lat="59.0919613838" lon="29.9916458130"><time>2026-04-22T11:48:50Z</time></trkpt><trkpt lat="59.0919613838" lon="29.9916887283"><time>2026-04-22T11:48:53Z</time></trkpt><trkpt lat="59.0919613838" lon="29.9916887283"><time>2026-04-22T11:48:55Z</time></trkpt><trkpt lat="59.0919613838" lon="29.9916887283"><time>2026-04-22T11:48:58Z</time></trkpt><trkpt lat="59.0919828415" lon="29.9917101860"><time>2026-04-22T11:49:00Z</time></trkpt><trkpt lat="59.0920257568" lon="29.9917101860"><time>2026-04-22T11:49:03Z</time></trkpt><trkpt lat="59.0920686722" lon="29.9917101860"><time>2026-04-22T11:49:05Z</time></trkpt><trkpt lat="59.0920686722" lon="29.9917101860"><time>2026-04-22T11:49:08Z</time></trkpt><trkpt lat="59.0920901299" lon="29.9917745590"><time>2026-04-22T11:49:10Z</time></trkpt><trkpt lat="59.0921115875" lon="29.9918818474"><time>2026-04-22T11:49:13Z</time></trkpt><trkpt lat="59.0921115875" lon="29.9919676781"><time>2026-04-22T11:49:15Z</time></trkpt><trkpt lat="59.0921115875" lon="29.9919676781"><time>2026-04-22T11:49:18Z</time></trkpt><trkpt lat="59.0921115875" lon="29.9919676781"><time>2026-04-22T11:49:20Z</time></trkpt><trkpt lat="59.0921330452" lon="29.9919891357"><time>2026-04-22T11:49:23Z</time></trkpt><trkpt lat="59.0921759605" lon="29.9920535088"><time>2026-04-22T11:49:25Z</time></trkpt><trkpt lat="59.0921974182" lon="29.9920964241"><time>2026-04-22T11:49:28Z</time></trkpt><trkpt lat="59.0921974182" lon="29.9920964241"><time>2026-04-22T11:49:30Z</time></trkpt><trkpt lat="59.0921974182" lon="29.9920964241"><time>2026-04-22T11:49:33Z</time></trkpt><trkpt lat="59.0921974182" lon="29.9920964241"><time>2026-04-22T11:49:35Z</time></trkpt><trkpt lat="59.0922188759" lon="29.9920749664"><time>2026-04-22T11:49:38Z</time></trkpt><trkpt lat="59.0922617912" lon="29.9919891357"><time>2026-04-22T11:49:40Z</time></trkpt><trkpt lat="59.0922832489" lon="29.9919891357"><time>2026-04-22T11:49:43Z</time></trkpt><trkpt lat="59.0923047066" lon="29.9919676781"><time>2026-04-22T11:49:45Z</time></trkpt><trkpt lat="59.0923261642" lon="29.9919247627"><time>2026-04-22T11:49:48Z</time></trkpt><trkpt lat="59.0923476219" lon="29.9919033051"><time>2026-04-22T11:49:50Z</time></trkpt><trkpt lat="59.0923476219" lon="29.9919033051"><time>2026-04-22T11:49:53Z</time></trkpt><trkpt lat="59.0923476219" lon="29.9919033051"><time>2026-04-22T11:49:55Z</time></trkpt><trkpt lat="59.0923476219" lon="29.9919033051"><time>2026-04-22T11:49:58Z</time></trkpt><trkpt lat="59.0923690796" lon="29.9918818474"><time>2026-04-22T11:50:00Z</time></trkpt><trkpt lat="59.0924119949" lon="29.9918818474"><time>2026-04-22T11:50:03Z</time></trkpt><trkpt lat="59.0924549103" lon="29.9918818474"><time>2026-04-22T11:50:05Z</time></trkpt><trkpt lat="59.0924549103" lon="29.9918818474"><time>2026-04-22T11:50:08Z</time></trkpt><trkpt lat="59.0924549103" lon="29.9918818474"><time>2026-04-22T11:50:10Z</time></trkpt><trkpt lat="59.0924549103" lon="29.9918818474"><time>2026-04-22T11:50:13Z</time></trkpt><trkpt lat="59.0924549103" lon="29.9918818474"><time>2026-04-22T11:50:15Z</time></trkpt><trkpt lat="59.0924334526" lon="29.9918603897"><time>2026-04-22T11:50:18Z</time></trkpt><trkpt lat="59.0924334526" lon="29.9918174744"><time>2026-04-22T11:50:20Z</time></trkpt><trkpt lat="59.0924334526" lon="29.9917745590"><time>2026-04-22T11:50:23Z</time></trkpt><trkpt lat="59.0924119949" lon="29.9917745590"><time>2026-04-22T11:50:25Z</time></trkpt><trkpt lat="59.0924119949" lon="29.9917745590"><time>2026-04-22T11:50:30Z</time></trkpt><trkpt lat="59.0924119949" lon="29.9917745590"><time>2026-04-22T11:50:33Z</time></trkpt><trkpt lat="59.0924119949" lon="29.9917745590"><time>2026-04-22T11:50:35Z</time></trkpt><trkpt lat="59.0924119949" lon="29.9917745590"><time>2026-04-22T11:50:38Z</time></trkpt><trkpt lat="59.0924334526" lon="29.9917531013"><time>2026-04-22T11:50:40Z</time></trkpt><trkpt lat="59.0924549103" lon="29.9917316437"><time>2026-04-22T11:50:43Z</time></trkpt><trkpt lat="59.0924763680" lon="29.9916887283"><time>2026-04-22T11:50:45Z</time></trkpt><trkpt lat="59.0924763680" lon="29.9916458130"><time>2026-04-22T11:50:48Z</time></trkpt><trkpt lat="59.0924978256" lon="29.9916028976"><time>2026-04-22T11:50:50Z</time></trkpt><trkpt lat="59.0924978256" lon="29.9916028976"><time>2026-04-22T11:50:53Z</time></trkpt><trkpt lat="59.0924978256" lon="29.9916028976"><time>2026-04-22T11:50:55Z</time></trkpt><trkpt lat="59.0924978256" lon="29.9916028976"><time>2026-04-22T11:50:58Z</time></trkpt><trkpt lat="59.0924978256" lon="29.9916028976"><time>2026-04-22T11:51:00Z</time></trkpt><trkpt lat="59.0924978256" lon="29.9916028976"><time>2026-04-22T11:51:03Z</time></trkpt><trkpt lat="59.0924978256" lon="29.9916028976"><time>2026-04-22T11:51:05Z</time></trkpt><trkpt lat="59.0924978256" lon="29.9916028976"><time>2026-04-22T11:51:08Z</time></trkpt><trkpt lat="59.0924978256" lon="29.9915170670"><time>2026-04-22T11:51:10Z</time></trkpt><trkpt lat="59.0924763680" lon="29.9914741516"><time>2026-04-22T11:51:13Z</time></trkpt><trkpt lat="59.0924763680" lon="29.9914097786"><time>2026-04-22T11:51:15Z</time></trkpt><trkpt lat="59.0924763680" lon="29.9913668633"><time>2026-04-22T11:51:18Z</time></trkpt><trkpt lat="59.0924763680" lon="29.9913668633"><time>2026-04-22T11:51:20Z</time></trkpt><trkpt lat="59.0924763680" lon="29.9913668633"><time>2026-04-22T11:51:23Z</time></trkpt><trkpt lat="59.0924763680" lon="29.9913668633"><time>2026-04-22T11:51:25Z</time></trkpt><trkpt lat="59.0924763680" lon="29.9913668633"><time>2026-04-22T11:51:28Z</time></trkpt><trkpt lat="59.0924763680" lon="29.9913454056"><time>2026-04-22T11:51:30Z</time></trkpt><trkpt lat="59.0924763680" lon="29.9913454056"><time>2026-04-22T11:51:33Z</time></trkpt><trkpt lat="59.0924763680" lon="29.9912810326"><time>2026-04-22T11:51:35Z</time></trkpt><trkpt lat="59.0924763680" lon="29.9912810326"><time>2026-04-22T11:51:38Z</time></trkpt><trkpt lat="59.0924549103" lon="29.9912810326"><time>2026-04-22T11:51:40Z</time></trkpt><trkpt lat="59.0924549103" lon="29.9912595749"><time>2026-04-22T11:51:43Z</time></trkpt><trkpt lat="59.0924549103" lon="29.9912595749"><time>2026-04-22T11:51:45Z</time></trkpt><trkpt lat="59.0924549103" lon="29.9912595749"><time>2026-04-22T11:51:48Z</time></trkpt><trkpt lat="59.0924334526" lon="29.9912595749"><time>2026-04-22T11:51:50Z</time></trkpt><trkpt lat="59.0924334526" lon="29.9912595749"><time>2026-04-22T11:51:53Z</time></trkpt><trkpt lat="59.0924334526" lon="29.9912595749"><time>2026-04-22T11:51:55Z</time></trkpt><trkpt lat="59.0924334526" lon="29.9912595749"><time>2026-04-22T11:51:58Z</time></trkpt><trkpt lat="59.0924334526" lon="29.9912595749"><time>2026-04-22T11:52:00Z</time></trkpt><trkpt lat="59.0924334526" lon="29.9912595749"><time>2026-04-22T11:52:03Z</time></trkpt><trkpt lat="59.0924334526" lon="29.9912595749"><time>2026-04-22T11:52:05Z</time></trkpt><trkpt lat="59.0924334526" lon="29.9912595749"><time>2026-04-22T11:52:08Z</time></trkpt><trkpt lat="59.0924334526" lon="29.9912595749"><time>2026-04-22T11:52:10Z</time></trkpt><trkpt lat="59.0924334526" lon="29.9912595749"><time>2026-04-22T11:52:13Z</time></trkpt><trkpt lat="59.0924334526" lon="29.9912595749"><time>2026-04-22T11:52:15Z</time></trkpt><trkpt lat="59.0924334526" lon="29.9912595749"><time>2026-04-22T11:52:18Z</time></trkpt><trkpt lat="59.0924334526" lon="29.9912595749"><time>2026-04-22T11:52:20Z</time></trkpt><trkpt lat="59.0924334526" lon="29.9912595749"><time>2026-04-22T11:52:23Z</time></trkpt><trkpt lat="59.0924119949" lon="29.9912381172"><time>2026-04-22T11:52:25Z</time></trkpt><trkpt lat="59.0924119949" lon="29.9912166595"><time>2026-04-22T11:52:28Z</time></trkpt><trkpt lat="59.0924119949" lon="29.9912166595"><time>2026-04-22T11:52:30Z</time></trkpt><trkpt lat="59.0924119949" lon="29.9912166595"><time>2026-04-22T11:52:33Z</time></trkpt><trkpt lat="59.0924119949" lon="29.9912166595"><time>2026-04-22T11:52:35Z</time></trkpt><trkpt lat="59.0924119949" lon="29.9912166595"><time>2026-04-22T11:52:38Z</time></trkpt><trkpt lat="59.0924119949" lon="29.9912166595"><time>2026-04-22T11:52:40Z</time></trkpt><trkpt lat="59.0924119949" lon="29.9911952019"><time>2026-04-22T11:52:43Z</time></trkpt><trkpt lat="59.0924119949" lon="29.9911952019"><time>2026-04-22T11:52:45Z</time></trkpt><trkpt lat="59.0924119949" lon="29.9911952019"><time>2026-04-22T11:52:48Z</time></trkpt><trkpt lat="59.0924119949" lon="29.9911737442"><time>2026-04-22T11:52:50Z</time></trkpt><trkpt lat="59.0924119949" lon="29.9911737442"><time>2026-04-22T11:52:53Z</time></trkpt><trkpt lat="59.0924119949" lon="29.9911737442"><time>2026-04-22T11:52:55Z</time></trkpt><trkpt lat="59.0924119949" lon="29.9911737442"><time>2026-04-22T11:52:58Z</time></trkpt><trkpt lat="59.0924119949" lon="29.9911737442"><time>2026-04-22T11:53:00Z</time></trkpt><trkpt lat="59.0924119949" lon="29.9911737442"><time>2026-04-22T11:53:03Z</time></trkpt><trkpt lat="59.0924119949" lon="29.9911522865"><time>2026-04-22T11:53:05Z</time></trkpt><trkpt lat="59.0924119949" lon="29.9911522865"><time>2026-04-22T11:53:08Z</time></trkpt><trkpt lat="59.0924334526" lon="29.9911522865"><time>2026-04-22T11:53:10Z</time></trkpt><trkpt lat="59.0924334526" lon="29.9911093712"><time>2026-04-22T11:53:13Z</time></trkpt><trkpt lat="59.0924334526" lon="29.9911093712"><time>2026-04-22T11:53:15Z</time></trkpt><trkpt lat="59.0924334526" lon="29.9911093712"><time>2026-04-22T11:53:18Z</time></trkpt><trkpt lat="59.0924334526" lon="29.9910879135"><time>2026-04-22T11:53:20Z</time></trkpt><trkpt lat="59.0924334526" lon="29.9910664558"><time>2026-04-22T11:53:23Z</time></trkpt><trkpt lat="59.0924549103" lon="29.9910235405"><time>2026-04-22T11:53:25Z</time></trkpt><trkpt lat="59.0924549103" lon="29.9909806252"><time>2026-04-22T11:53:28Z</time></trkpt><trkpt lat="59.0924763680" lon="29.9908947945"><time>2026-04-22T11:53:30Z</time></trkpt><trkpt lat="59.0924763680" lon="29.9908947945"><time>2026-04-22T11:53:33Z</time></trkpt><trkpt lat="59.0924763680" lon="29.9908947945"><time>2026-04-22T11:53:35Z</time></trkpt><trkpt lat="59.0924763680" lon="29.9909162521"><time>2026-04-22T11:53:38Z</time></trkpt><trkpt lat="59.0924334526" lon="29.9910449982"><time>2026-04-22T11:53:40Z</time></trkpt><trkpt lat="59.0924334526" lon="29.9910664558"><time>2026-04-22T11:53:43Z</time></trkpt><trkpt lat="59.0924334526" lon="29.9910664558"><time>2026-04-22T11:53:45Z</time></trkpt><trkpt lat="59.0924334526" lon="29.9910664558"><time>2026-04-22T11:53:48Z</time></trkpt><trkpt lat="59.0924334526" lon="29.9910449982"><time>2026-04-22T11:53:50Z</time></trkpt><trkpt lat="59.0924334526" lon="29.9910449982"><time>2026-04-22T11:53:53Z</time></trkpt><trkpt lat="59.0924334526" lon="29.9910449982"><time>2026-04-22T11:53:55Z</time></trkpt><trkpt lat="59.0924334526" lon="29.9910449982"><time>2026-04-22T11:53:58Z</time></trkpt><trkpt lat="59.0924334526" lon="29.9910449982"><time>2026-04-22T11:54:00Z</time></trkpt><trkpt lat="59.0924334526" lon="29.9910449982"><time>2026-04-22T11:54:03Z</time></trkpt><trkpt lat="59.0924334526" lon="29.9910449982"><time>2026-04-22T11:54:05Z</time></trkpt><trkpt lat="59.0924334526" lon="29.9910449982"><time>2026-04-22T11:54:08Z</time></trkpt><trkpt lat="59.0924763680" lon="29.9910664558"><time>2026-04-22T11:54:10Z</time></trkpt><trkpt lat="59.0925192833" lon="29.9910235405"><time>2026-04-22T11:54:13Z</time></trkpt><trkpt lat="59.0925407410" lon="29.9909377098"><time>2026-04-22T11:54:15Z</time></trkpt><trkpt lat="59.0925407410" lon="29.9908947945"><time>2026-04-22T11:54:18Z</time></trkpt><trkpt lat="59.0925192833" lon="29.9908304214"><time>2026-04-22T11:54:20Z</time></trkpt><trkpt lat="59.0925192833" lon="29.9908304214"><time>2026-04-22T11:54:23Z</time></trkpt><trkpt lat="59.0925836563" lon="29.9908089638"><time>2026-04-22T11:54:25Z</time></trkpt><trkpt lat="59.0926051140" lon="29.9908089638"><time>2026-04-22T11:54:28Z</time></trkpt><trkpt lat="59.0926051140" lon="29.9908089638"><time>2026-04-22T11:54:30Z</time></trkpt><trkpt lat="59.0926051140" lon="29.9908089638"><time>2026-04-22T11:54:33Z</time></trkpt><trkpt lat="59.0926051140" lon="29.9908089638"><time>2026-04-22T11:54:35Z</time></trkpt><trkpt lat="59.0926051140" lon="29.9907875061"><time>2026-04-22T11:54:38Z</time></trkpt><trkpt lat="59.0926265717" lon="29.9907660484"><time>2026-04-22T11:54:40Z</time></trkpt><trkpt lat="59.0926265717" lon="29.9907660484"><time>2026-04-22T11:54:43Z</time></trkpt><trkpt lat="59.0926265717" lon="29.9907660484"><time>2026-04-22T11:54:45Z</time></trkpt><trkpt lat="59.0926265717" lon="29.9907445908"><time>2026-04-22T11:54:48Z</time></trkpt><trkpt lat="59.0926480293" lon="29.9907445908"><time>2026-04-22T11:54:50Z</time></trkpt><trkpt lat="59.0926694870" lon="29.9907445908"><time>2026-04-22T11:54:53Z</time></trkpt><trkpt lat="59.0926694870" lon="29.9907445908"><time>2026-04-22T11:54:55Z</time></trkpt><trkpt lat="59.0926694870" lon="29.9907445908"><time>2026-04-22T11:54:58Z</time></trkpt><trkpt lat="59.0926694870" lon="29.9907445908"><time>2026-04-22T11:55:00Z</time></trkpt><trkpt lat="59.0926694870" lon="29.9907445908"><time>2026-04-22T11:55:03Z</time></trkpt><trkpt lat="59.0926694870" lon="29.9907445908"><time>2026-04-22T11:55:05Z</time></trkpt><trkpt lat="59.0926694870" lon="29.9907445908"><time>2026-04-22T11:55:08Z</time></trkpt><trkpt lat="59.0926694870" lon="29.9907445908"><time>2026-04-22T11:55:10Z</time></trkpt><trkpt lat="59.0926694870" lon="29.9907445908"><time>2026-04-22T11:55:13Z</time></trkpt><trkpt lat="59.0926909447" lon="29.9907445908"><time>2026-04-22T11:55:15Z</time></trkpt><trkpt lat="59.0926909447" lon="29.9907445908"><time>2026-04-22T11:55:18Z</time></trkpt><trkpt lat="59.0926909447" lon="29.9907231331"><time>2026-04-22T11:55:20Z</time></trkpt><trkpt lat="59.0926909447" lon="29.9907231331"><time>2026-04-22T11:55:23Z</time></trkpt><trkpt lat="59.0926909447" lon="29.9907231331"><time>2026-04-22T11:55:25Z</time></trkpt><trkpt lat="59.0926909447" lon="29.9907445908"><time>2026-04-22T11:55:28Z</time></trkpt><trkpt lat="59.0927124023" lon="29.9907660484"><time>2026-04-22T11:55:30Z</time></trkpt><trkpt lat="59.0927338600" lon="29.9907660484"><time>2026-04-22T11:55:33Z</time></trkpt><trkpt lat="59.0927338600" lon="29.9907660484"><time>2026-04-22T11:55:35Z</time></trkpt><trkpt lat="59.0927553177" lon="29.9907660484"><time>2026-04-22T11:55:38Z</time></trkpt><trkpt lat="59.0927553177" lon="29.9907660484"><time>2026-04-22T11:55:40Z</time></trkpt><trkpt lat="59.0927767754" lon="29.9907660484"><time>2026-04-22T11:55:43Z</time></trkpt><trkpt lat="59.0927767754" lon="29.9907660484"><time>2026-04-22T11:55:45Z</time></trkpt><trkpt lat="59.0927553177" lon="29.9907660484"><time>2026-04-22T11:55:48Z</time></trkpt><trkpt lat="59.0927767754" lon="29.9907660484"><time>2026-04-22T11:55:50Z</time></trkpt><trkpt lat="59.0927767754" lon="29.9907660484"><time>2026-04-22T11:55:53Z</time></trkpt><trkpt lat="59.0927767754" lon="29.9907660484"><time>2026-04-22T11:55:55Z</time></trkpt><trkpt lat="59.0927767754" lon="29.9907660484"><time>2026-04-22T11:55:58Z</time></trkpt><trkpt lat="59.0927767754" lon="29.9907660484"><time>2026-04-22T11:56:00Z</time></trkpt><trkpt lat="59.0927767754" lon="29.9907660484"><time>2026-04-22T11:56:03Z</time></trkpt><trkpt lat="59.0927767754" lon="29.9907660484"><time>2026-04-22T11:56:05Z</time></trkpt><trkpt lat="59.0927767754" lon="29.9907660484"><time>2026-04-22T11:56:08Z</time></trkpt><trkpt lat="59.0927767754" lon="29.9907660484"><time>2026-04-22T11:56:10Z</time></trkpt><trkpt lat="59.0927767754" lon="29.9907660484"><time>2026-04-22T11:56:13Z</time></trkpt><trkpt lat="59.0927767754" lon="29.9907660484"><time>2026-04-22T11:56:15Z</time></trkpt><trkpt lat="59.0927767754" lon="29.9907660484"><time>2026-04-22T11:56:18Z</time></trkpt><trkpt lat="59.0927767754" lon="29.9907660484"><time>2026-04-22T11:56:20Z</time></trkpt><trkpt lat="59.0927767754" lon="29.9907660484"><time>2026-04-22T11:56:23Z</time></trkpt><trkpt lat="59.0927767754" lon="29.9907660484"><time>2026-04-22T11:56:25Z</time></trkpt><trkpt lat="59.0927767754" lon="29.9907660484"><time>2026-04-22T11:56:28Z</time></trkpt><trkpt lat="59.0927767754" lon="29.9907445908"><time>2026-04-22T11:56:30Z</time></trkpt><trkpt lat="59.0927767754" lon="29.9907445908"><time>2026-04-22T11:56:33Z</time></trkpt><trkpt lat="59.0927982330" lon="29.9907445908"><time>2026-04-22T11:56:35Z</time></trkpt><trkpt lat="59.0927982330" lon="29.9907445908"><time>2026-04-22T11:56:38Z</time></trkpt><trkpt lat="59.0927982330" lon="29.9907445908"><time>2026-04-22T11:56:40Z</time></trkpt><trkpt lat="59.0927982330" lon="29.9907445908"><time>2026-04-22T11:56:43Z</time></trkpt><trkpt lat="59.0927982330" lon="29.9907445908"><time>2026-04-22T11:56:45Z</time></trkpt><trkpt lat="59.0927982330" lon="29.9907445908"><time>2026-04-22T11:56:48Z</time></trkpt><trkpt lat="59.0927982330" lon="29.9907445908"><time>2026-04-22T11:56:50Z</time></trkpt><trkpt lat="59.0927982330" lon="29.9907445908"><time>2026-04-22T11:56:53Z</time></trkpt><trkpt lat="59.0927982330" lon="29.9907445908"><time>2026-04-22T11:56:55Z</time></trkpt><trkpt lat="59.0927982330" lon="29.9907445908"><time>2026-04-22T11:56:58Z</time></trkpt><trkpt lat="59.0927982330" lon="29.9907445908"><time>2026-04-22T11:57:00Z</time></trkpt><trkpt lat="59.0927982330" lon="29.9907445908"><time>2026-04-22T11:57:03Z</time></trkpt><trkpt lat="59.0927982330" lon="29.9907445908"><time>2026-04-22T11:57:05Z</time></trkpt><trkpt lat="59.0927982330" lon="29.9907445908"><time>2026-04-22T11:57:08Z</time></trkpt><trkpt lat="59.0927982330" lon="29.9907445908"><time>2026-04-22T11:57:10Z</time></trkpt><trkpt lat="59.0927982330" lon="29.9907445908"><time>2026-04-22T11:57:13Z</time></trkpt><trkpt lat="59.0927982330" lon="29.9907445908"><time>2026-04-22T11:57:15Z</time></trkpt><trkpt lat="59.0927982330" lon="29.9907445908"><time>2026-04-22T11:57:18Z</time></trkpt><trkpt lat="59.0927982330" lon="29.9907445908"><time>2026-04-22T11:57:20Z</time></trkpt><trkpt lat="59.0927982330" lon="29.9907445908"><time>2026-04-22T11:57:23Z</time></trkpt><trkpt lat="59.0927982330" lon="29.9907445908"><time>2026-04-22T11:57:25Z</time></trkpt><trkpt lat="59.0927982330" lon="29.9907445908"><time>2026-04-22T11:57:28Z</time></trkpt><trkpt lat="59.0927982330" lon="29.9907445908"><time>2026-04-22T11:57:30Z</time></trkpt><trkpt lat="59.0927982330" lon="29.9907445908"><time>2026-04-22T11:57:33Z</time></trkpt><trkpt lat="59.0927982330" lon="29.9907445908"><time>2026-04-22T11:57:35Z</time></trkpt><trkpt lat="59.0927982330" lon="29.9907445908"><time>2026-04-22T11:57:38Z</time></trkpt><trkpt lat="59.0927982330" lon="29.9907445908"><time>2026-04-22T11:57:40Z</time></trkpt><trkpt lat="59.0927982330" lon="29.9907445908"><time>2026-04-22T11:57:43Z</time></trkpt><trkpt lat="59.0927982330" lon="29.9907445908"><time>2026-04-22T11:57:45Z</time></trkpt><trkpt lat="59.0927982330" lon="29.9907445908"><time>2026-04-22T11:57:48Z</time></trkpt><trkpt lat="59.0927982330" lon="29.9907445908"><time>2026-04-22T11:57:50Z</time></trkpt><trkpt lat="59.0927982330" lon="29.9907445908"><time>2026-04-22T11:57:53Z</time></trkpt><trkpt lat="59.0927982330" lon="29.9907445908"><time>2026-04-22T11:57:55Z</time></trkpt><trkpt lat="59.0927982330" lon="29.9907445908"><time>2026-04-22T11:57:58Z</time></trkpt><trkpt lat="59.0927982330" lon="29.9907445908"><time>2026-04-22T11:58:00Z</time></trkpt><trkpt lat="59.0927982330" lon="29.9907445908"><time>2026-04-22T11:58:03Z</time></trkpt><trkpt lat="59.0927767754" lon="29.9907445908"><time>2026-04-22T11:58:05Z</time></trkpt><trkpt lat="59.0927767754" lon="29.9907660484"><time>2026-04-22T11:58:08Z</time></trkpt><trkpt lat="59.0927767754" lon="29.9907445908"><time>2026-04-22T11:58:10Z</time></trkpt><trkpt lat="59.0927553177" lon="29.9907445908"><time>2026-04-22T11:58:13Z</time></trkpt><trkpt lat="59.0927338600" lon="29.9907231331"><time>2026-04-22T11:58:15Z</time></trkpt><trkpt lat="59.0927124023" lon="29.9907231331"><time>2026-04-22T11:58:18Z</time></trkpt><trkpt lat="59.0927124023" lon="29.9907231331"><time>2026-04-22T11:58:20Z</time></trkpt><trkpt lat="59.0927124023" lon="29.9907231331"><time>2026-04-22T11:58:23Z</time></trkpt><trkpt lat="59.0926909447" lon="29.9907231331"><time>2026-04-22T11:58:25Z</time></trkpt><trkpt lat="59.0926480293" lon="29.9907231331"><time>2026-04-22T11:58:28Z</time></trkpt><trkpt lat="59.0926051140" lon="29.9907016754"><time>2026-04-22T11:58:30Z</time></trkpt><trkpt lat="59.0926051140" lon="29.9907016754"><time>2026-04-22T11:58:33Z</time></trkpt><trkpt lat="59.0926051140" lon="29.9907016754"><time>2026-04-22T11:58:35Z</time></trkpt><trkpt lat="59.0926051140" lon="29.9907016754"><time>2026-04-22T11:58:38Z</time></trkpt><trkpt lat="59.0926051140" lon="29.9906802177"><time>2026-04-22T11:58:40Z</time></trkpt><trkpt lat="59.0925836563" lon="29.9906802177"><time>2026-04-22T11:58:43Z</time></trkpt><trkpt lat="59.0925836563" lon="29.9906802177"><time>2026-04-22T11:58:45Z</time></trkpt><trkpt lat="59.0925836563" lon="29.9906587601"><time>2026-04-22T11:58:48Z</time></trkpt><trkpt lat="59.0925836563" lon="29.9906587601"><time>2026-04-22T11:58:50Z</time></trkpt><trkpt lat="59.0925836563" lon="29.9906587601"><time>2026-04-22T11:58:53Z</time></trkpt><trkpt lat="59.0925836563" lon="29.9906587601"><time>2026-04-22T11:58:55Z</time></trkpt><trkpt lat="59.0925836563" lon="29.9906587601"><time>2026-04-22T11:58:58Z</time></trkpt><trkpt lat="59.0925836563" lon="29.9906587601"><time>2026-04-22T11:59:00Z</time></trkpt><trkpt lat="59.0925836563" lon="29.9906373024"><time>2026-04-22T11:59:03Z</time></trkpt><trkpt lat="59.0925621986" lon="29.9906373024"><time>2026-04-22T11:59:05Z</time></trkpt><trkpt lat="59.0925407410" lon="29.9906158447"><time>2026-04-22T11:59:08Z</time></trkpt><trkpt lat="59.0925621986" lon="29.9905514717"><time>2026-04-22T11:59:10Z</time></trkpt><trkpt lat="59.0925621986" lon="29.9905514717"><time>2026-04-22T11:59:13Z</time></trkpt><trkpt lat="59.0925407410" lon="29.9905514717"><time>2026-04-22T11:59:15Z</time></trkpt><trkpt lat="59.0925407410" lon="29.9905300140"><time>2026-04-22T11:59:18Z</time></trkpt><trkpt lat="59.0925407410" lon="29.9905300140"><time>2026-04-22T11:59:20Z</time></trkpt><trkpt lat="59.0925407410" lon="29.9905085564"><time>2026-04-22T11:59:23Z</time></trkpt><trkpt lat="59.0925192833" lon="29.9904441833"><time>2026-04-22T11:59:25Z</time></trkpt><trkpt lat="59.0924978256" lon="29.9904441833"><time>2026-04-22T11:59:28Z</time></trkpt><trkpt lat="59.0924978256" lon="29.9904227257"><time>2026-04-22T11:59:30Z</time></trkpt><trkpt lat="59.0924978256" lon="29.9904012680"><time>2026-04-22T11:59:33Z</time></trkpt><trkpt lat="59.0924978256" lon="29.9904012680"><time>2026-04-22T11:59:35Z</time></trkpt><trkpt lat="59.0924978256" lon="29.9904012680"><time>2026-04-22T11:59:38Z</time></trkpt><trkpt lat="59.0924978256" lon="29.9904012680"><time>2026-04-22T11:59:40Z</time></trkpt><trkpt lat="59.0924978256" lon="29.9904012680"><time>2026-04-22T11:59:43Z</time></trkpt><trkpt lat="59.0924978256" lon="29.9904227257"><time>2026-04-22T11:59:45Z</time></trkpt><trkpt lat="59.0924978256" lon="29.9904227257"><time>2026-04-22T11:59:48Z</time></trkpt><trkpt lat="59.0924978256" lon="29.9904227257"><time>2026-04-22T11:59:50Z</time></trkpt><trkpt lat="59.0924763680" lon="29.9904227257"><time>2026-04-22T11:59:53Z</time></trkpt><trkpt lat="59.0924334526" lon="29.9904227257"><time>2026-04-22T11:59:55Z</time></trkpt><trkpt lat="59.0924119949" lon="29.9904227257"><time>2026-04-22T11:59:58Z</time></trkpt><trkpt lat="59.0923905373" lon="29.9904227257"><time>2026-04-22T12:00:00Z</time></trkpt><trkpt lat="59.0923905373" lon="29.9904227257"><time>2026-04-22T12:00:03Z</time></trkpt><trkpt lat="59.0923476219" lon="29.9904227257"><time>2026-04-22T12:00:05Z</time></trkpt><trkpt lat="59.0923261642" lon="29.9904012680"><time>2026-04-22T12:00:08Z</time></trkpt><trkpt lat="59.0922617912" lon="29.9904012680"><time>2026-04-22T12:00:10Z</time></trkpt><trkpt lat="59.0922403336" lon="29.9903798103"><time>2026-04-22T12:00:13Z</time></trkpt><trkpt lat="59.0922403336" lon="29.9903798103"><time>2026-04-22T12:00:15Z</time></trkpt><trkpt lat="59.0922403336" lon="29.9903798103"><time>2026-04-22T12:00:18Z</time></trkpt><trkpt lat="59.0922403336" lon="29.9903798103"><time>2026-04-22T12:00:20Z</time></trkpt><trkpt lat="59.0922403336" lon="29.9903798103"><time>2026-04-22T12:00:23Z</time></trkpt><trkpt lat="59.0922403336" lon="29.9903798103"><time>2026-04-22T12:00:25Z</time></trkpt><trkpt lat="59.0922403336" lon="29.9903798103"><time>2026-04-22T12:00:28Z</time></trkpt><trkpt lat="59.0922403336" lon="29.9903798103"><time>2026-04-22T12:00:30Z</time></trkpt><trkpt lat="59.0922403336" lon="29.9903798103"><time>2026-04-22T12:00:33Z</time></trkpt><trkpt lat="59.0922403336" lon="29.9903798103"><time>2026-04-22T12:00:35Z</time></trkpt><trkpt lat="59.0922403336" lon="29.9903798103"><time>2026-04-22T12:00:38Z</time></trkpt><trkpt lat="59.0922403336" lon="29.9903798103"><time>2026-04-22T12:00:40Z</time></trkpt><trkpt lat="59.0922403336" lon="29.9903798103"><time>2026-04-22T12:00:43Z</time></trkpt><trkpt lat="59.0922403336" lon="29.9903798103"><time>2026-04-22T12:00:45Z</time></trkpt><trkpt lat="59.0922403336" lon="29.9903798103"><time>2026-04-22T12:00:48Z</time></trkpt><trkpt lat="59.0922403336" lon="29.9903798103"><time>2026-04-22T12:00:50Z</time></trkpt><trkpt lat="59.0921974182" lon="29.9903798103"><time>2026-04-22T12:00:53Z</time></trkpt><trkpt lat="59.0921545029" lon="29.9904012680"><time>2026-04-22T12:00:55Z</time></trkpt><trkpt lat="59.0921330452" lon="29.9903798103"><time>2026-04-22T12:00:58Z</time></trkpt><trkpt lat="59.0920901299" lon="29.9903583527"><time>2026-04-22T12:01:00Z</time></trkpt><trkpt lat="59.0920686722" lon="29.9903583527"><time>2026-04-22T12:01:03Z</time></trkpt><trkpt lat="59.0920686722" lon="29.9903583527"><time>2026-04-22T12:01:05Z</time></trkpt><trkpt lat="59.0920901299" lon="29.9903798103"><time>2026-04-22T12:01:08Z</time></trkpt><trkpt lat="59.0921115875" lon="29.9904012680"><time>2026-04-22T12:01:10Z</time></trkpt><trkpt lat="59.0921115875" lon="29.9903798103"><time>2026-04-22T12:01:13Z</time></trkpt><trkpt lat="59.0921115875" lon="29.9903368950"><time>2026-04-22T12:01:15Z</time></trkpt><trkpt lat="59.0921330452" lon="29.9902939796"><time>2026-04-22T12:01:20Z</time></trkpt><trkpt lat="59.0921330452" lon="29.9903368950"><time>2026-04-22T12:01:23Z</time></trkpt><trkpt lat="59.0921330452" lon="29.9903154373"><time>2026-04-22T12:01:25Z</time></trkpt><trkpt lat="59.0921330452" lon="29.9903154373"><time>2026-04-22T12:01:28Z</time></trkpt><trkpt lat="59.0921545029" lon="29.9902939796"><time>2026-04-22T12:01:30Z</time></trkpt><trkpt lat="59.0921330452" lon="29.9902510643"><time>2026-04-22T12:01:33Z</time></trkpt><trkpt lat="59.0920686722" lon="29.9902725220"><time>2026-04-22T12:01:35Z</time></trkpt><trkpt lat="59.0919828415" lon="29.9903154373"><time>2026-04-22T12:01:40Z</time></trkpt><trkpt lat="59.0919399261" lon="29.9903154373"><time>2026-04-22T12:01:43Z</time></trkpt><trkpt lat="59.0918970108" lon="29.9902939796"><time>2026-04-22T12:01:45Z</time></trkpt><trkpt lat="59.0918755531" lon="29.9902939796"><time>2026-04-22T12:01:48Z</time></trkpt><trkpt lat="59.0918755531" lon="29.9902939796"><time>2026-04-22T12:01:50Z</time></trkpt><trkpt lat="59.0918755531" lon="29.9902939796"><time>2026-04-22T12:01:53Z</time></trkpt><trkpt lat="59.0918755531" lon="29.9902939796"><time>2026-04-22T12:01:55Z</time></trkpt><trkpt lat="59.0918540955" lon="29.9902939796"><time>2026-04-22T12:01:58Z</time></trkpt><trkpt lat="59.0918111801" lon="29.9902939796"><time>2026-04-22T12:02:00Z</time></trkpt><trkpt lat="59.0917897224" lon="29.9902939796"><time>2026-04-22T12:02:03Z</time></trkpt><trkpt lat="59.0917468071" lon="29.9902939796"><time>2026-04-22T12:02:05Z</time></trkpt><trkpt lat="59.0917468071" lon="29.9902939796"><time>2026-04-22T12:02:08Z</time></trkpt><trkpt lat="59.0917253494" lon="29.9902939796"><time>2026-04-22T12:02:10Z</time></trkpt><trkpt lat="59.0917038918" lon="29.9902725220"><time>2026-04-22T12:02:13Z</time></trkpt><trkpt lat="59.0916609764" lon="29.9902725220"><time>2026-04-22T12:02:15Z</time></trkpt><trkpt lat="59.0916395187" lon="29.9902510643"><time>2026-04-22T12:02:18Z</time></trkpt><trkpt lat="59.0916180611" lon="29.9902510643"><time>2026-04-22T12:02:20Z</time></trkpt><trkpt lat="59.0916180611" lon="29.9902510643"><time>2026-04-22T12:02:23Z</time></trkpt><trkpt lat="59.0916180611" lon="29.9902510643"><time>2026-04-22T12:02:25Z</time></trkpt><trkpt lat="59.0916180611" lon="29.9902510643"><time>2026-04-22T12:02:28Z</time></trkpt><trkpt lat="59.0915751457" lon="29.9902296066"><time>2026-04-22T12:02:30Z</time></trkpt><trkpt lat="59.0915536880" lon="29.9902296066"><time>2026-04-22T12:02:33Z</time></trkpt><trkpt lat="59.0915536880" lon="29.9902296066"><time>2026-04-22T12:02:35Z</time></trkpt><trkpt lat="59.0915536880" lon="29.9902296066"><time>2026-04-22T12:02:38Z</time></trkpt><trkpt lat="59.0915536880" lon="29.9902296066"><time>2026-04-22T12:02:40Z</time></trkpt><trkpt lat="59.0915536880" lon="29.9902296066"><time>2026-04-22T12:02:43Z</time></trkpt><trkpt lat="59.0915536880" lon="29.9902296066"><time>2026-04-22T12:02:45Z</time></trkpt><trkpt lat="59.0915536880" lon="29.9902296066"><time>2026-04-22T12:02:48Z</time></trkpt><trkpt lat="59.0915536880" lon="29.9902296066"><time>2026-04-22T12:02:50Z</time></trkpt><trkpt lat="59.0915536880" lon="29.9902296066"><time>2026-04-22T12:02:53Z</time></trkpt><trkpt lat="59.0915536880" lon="29.9902296066"><time>2026-04-22T12:02:55Z</time></trkpt><trkpt lat="59.0915322304" lon="29.9902296066"><time>2026-04-22T12:02:58Z</time></trkpt><trkpt lat="59.0915322304" lon="29.9901866913"><time>2026-04-22T12:03:00Z</time></trkpt><trkpt lat="59.0915322304" lon="29.9901866913"><time>2026-04-22T12:03:03Z</time></trkpt><trkpt lat="59.0915322304" lon="29.9901866913"><time>2026-04-22T12:03:05Z</time></trkpt><trkpt lat="59.0915322304" lon="29.9901866913"><time>2026-04-22T12:03:08Z</time></trkpt><trkpt lat="59.0915322304" lon="29.9901866913"><time>2026-04-22T12:03:10Z</time></trkpt><trkpt lat="59.0915322304" lon="29.9901866913"><time>2026-04-22T12:03:13Z</time></trkpt><trkpt lat="59.0915322304" lon="29.9901866913"><time>2026-04-22T12:03:15Z</time></trkpt><trkpt lat="59.0915322304" lon="29.9901652336"><time>2026-04-22T12:03:18Z</time></trkpt><trkpt lat="59.0915107727" lon="29.9901223183"><time>2026-04-22T12:03:20Z</time></trkpt><trkpt lat="59.0915107727" lon="29.9901223183"><time>2026-04-22T12:03:23Z</time></trkpt><trkpt lat="59.0915107727" lon="29.9901223183"><time>2026-04-22T12:03:25Z</time></trkpt><trkpt lat="59.0915322304" lon="29.9901437759"><time>2026-04-22T12:03:28Z</time></trkpt><trkpt lat="59.0914893150" lon="29.9901223183"><time>2026-04-22T12:03:30Z</time></trkpt><trkpt lat="59.0914463997" lon="29.9901223183"><time>2026-04-22T12:03:33Z</time></trkpt><trkpt lat="59.0914034843" lon="29.9900579453"><time>2026-04-22T12:03:35Z</time></trkpt><trkpt lat="59.0913820267" lon="29.9900150299"><time>2026-04-22T12:03:38Z</time></trkpt><trkpt lat="59.0913605690" lon="29.9899935722"><time>2026-04-22T12:03:40Z</time></trkpt><trkpt lat="59.0913605690" lon="29.9899935722"><time>2026-04-22T12:03:43Z</time></trkpt><trkpt lat="59.0913605690" lon="29.9899935722"><time>2026-04-22T12:03:45Z</time></trkpt><trkpt lat="59.0913605690" lon="29.9899935722"><time>2026-04-22T12:03:48Z</time></trkpt><trkpt lat="59.0913605690" lon="29.9899721146"><time>2026-04-22T12:03:50Z</time></trkpt><trkpt lat="59.0913820267" lon="29.9899506569"><time>2026-04-22T12:03:53Z</time></trkpt><trkpt lat="59.0914034843" lon="29.9899721146"><time>2026-04-22T12:03:55Z</time></trkpt><trkpt lat="59.0914034843" lon="29.9899077415"><time>2026-04-22T12:03:58Z</time></trkpt><trkpt lat="59.0913820267" lon="29.9898219109"><time>2026-04-22T12:04:00Z</time></trkpt><trkpt lat="59.0913820267" lon="29.9897360802"><time>2026-04-22T12:04:03Z</time></trkpt><trkpt lat="59.0913820267" lon="29.9897146225"><time>2026-04-22T12:04:05Z</time></trkpt><trkpt lat="59.0913820267" lon="29.9897146225"><time>2026-04-22T12:04:08Z</time></trkpt><trkpt lat="59.0913820267" lon="29.9897146225"><time>2026-04-22T12:04:10Z</time></trkpt><trkpt lat="59.0913820267" lon="29.9896502495"><time>2026-04-22T12:04:13Z</time></trkpt><trkpt lat="59.0913605690" lon="29.9895429611"><time>2026-04-22T12:04:15Z</time></trkpt><trkpt lat="59.0913605690" lon="29.9895000458"><time>2026-04-22T12:04:18Z</time></trkpt><trkpt lat="59.0913605690" lon="29.9895000458"><time>2026-04-22T12:04:20Z</time></trkpt><trkpt lat="59.0913605690" lon="29.9895000458"><time>2026-04-22T12:04:23Z</time></trkpt><trkpt lat="59.0913605690" lon="29.9895000458"><time>2026-04-22T12:04:25Z</time></trkpt><trkpt lat="59.0913605690" lon="29.9895000458"><time>2026-04-22T12:04:28Z</time></trkpt><trkpt lat="59.0913176537" lon="29.9894571304"><time>2026-04-22T12:04:30Z</time></trkpt><trkpt lat="59.0912961960" lon="29.9894356728"><time>2026-04-22T12:04:33Z</time></trkpt><trkpt lat="59.0912318230" lon="29.9893712997"><time>2026-04-22T12:04:35Z</time></trkpt><trkpt lat="59.0912103653" lon="29.9893069267"><time>2026-04-22T12:04:38Z</time></trkpt><trkpt lat="59.0911889076" lon="29.9892854691"><time>2026-04-22T12:04:40Z</time></trkpt><trkpt lat="59.0911889076" lon="29.9892640114"><time>2026-04-22T12:04:43Z</time></trkpt><trkpt lat="59.0911459923" lon="29.9891781807"><time>2026-04-22T12:04:45Z</time></trkpt><trkpt lat="59.0911674500" lon="29.9890923500"><time>2026-04-22T12:04:48Z</time></trkpt><trkpt lat="59.0911889076" lon="29.9890494347"><time>2026-04-22T12:04:50Z</time></trkpt><trkpt lat="59.0912103653" lon="29.9890494347"><time>2026-04-22T12:04:53Z</time></trkpt><trkpt lat="59.0912532806" lon="29.9890494347"><time>2026-04-22T12:04:55Z</time></trkpt><trkpt lat="59.0912961960" lon="29.9890923500"><time>2026-04-22T12:04:58Z</time></trkpt><trkpt lat="59.0913176537" lon="29.9891567230"><time>2026-04-22T12:05:00Z</time></trkpt><trkpt lat="59.0913391113" lon="29.9891352654"><time>2026-04-22T12:05:03Z</time></trkpt><trkpt lat="59.0913605690" lon="29.9890708923"><time>2026-04-22T12:05:05Z</time></trkpt><trkpt lat="59.0913391113" lon="29.9890494347"><time>2026-04-22T12:05:08Z</time></trkpt><trkpt lat="59.0913391113" lon="29.9889850616"><time>2026-04-22T12:05:10Z</time></trkpt><trkpt lat="59.0913391113" lon="29.9889421463"><time>2026-04-22T12:05:15Z</time></trkpt><trkpt lat="59.0913391113" lon="29.9889421463"><time>2026-04-22T12:05:18Z</time></trkpt><trkpt lat="59.0913391113" lon="29.9889421463"><time>2026-04-22T12:05:20Z</time></trkpt><trkpt lat="59.0913391113" lon="29.9889421463"><time>2026-04-22T12:05:23Z</time></trkpt><trkpt lat="59.0913391113" lon="29.9889206886"><time>2026-04-22T12:05:25Z</time></trkpt><trkpt lat="59.0913391113" lon="29.9889206886"><time>2026-04-22T12:05:28Z</time></trkpt><trkpt lat="59.0913391113" lon="29.9888563156"><time>2026-04-22T12:05:30Z</time></trkpt><trkpt lat="59.0913605690" lon="29.9888348579"><time>2026-04-22T12:05:33Z</time></trkpt><trkpt lat="59.0913605690" lon="29.9888348579"><time>2026-04-22T12:05:35Z</time></trkpt><trkpt lat="59.0913605690" lon="29.9888348579"><time>2026-04-22T12:05:38Z</time></trkpt><trkpt lat="59.0913605690" lon="29.9888348579"><time>2026-04-22T12:05:40Z</time></trkpt><trkpt lat="59.0913605690" lon="29.9888348579"><time>2026-04-22T12:05:43Z</time></trkpt><trkpt lat="59.0913605690" lon="29.9888348579"><time>2026-04-22T12:05:45Z</time></trkpt><trkpt lat="59.0913605690" lon="29.9888348579"><time>2026-04-22T12:05:48Z</time></trkpt><trkpt lat="59.0913605690" lon="29.9888348579"><time>2026-04-22T12:05:50Z</time></trkpt><trkpt lat="59.0913605690" lon="29.9888348579"><time>2026-04-22T12:05:53Z</time></trkpt><trkpt lat="59.0913605690" lon="29.9888348579"><time>2026-04-22T12:05:55Z</time></trkpt><trkpt lat="59.0913605690" lon="29.9888348579"><time>2026-04-22T12:05:58Z</time></trkpt><trkpt lat="59.0913605690" lon="29.9888348579"><time>2026-04-22T12:06:00Z</time></trkpt><trkpt lat="59.0913605690" lon="29.9888348579"><time>2026-04-22T12:06:03Z</time></trkpt><trkpt lat="59.0913605690" lon="29.9888348579"><time>2026-04-22T12:06:05Z</time></trkpt><trkpt lat="59.0913605690" lon="29.9888348579"><time>2026-04-22T12:06:08Z</time></trkpt><trkpt lat="59.0913605690" lon="29.9888348579"><time>2026-04-22T12:06:10Z</time></trkpt><trkpt lat="59.0913605690" lon="29.9888348579"><time>2026-04-22T12:06:13Z</time></trkpt><trkpt lat="59.0913605690" lon="29.9888348579"><time>2026-04-22T12:06:15Z</time></trkpt><trkpt lat="59.0913605690" lon="29.9888348579"><time>2026-04-22T12:06:18Z</time></trkpt><trkpt lat="59.0913605690" lon="29.9888348579"><time>2026-04-22T12:06:20Z</time></trkpt><trkpt lat="59.0913605690" lon="29.9888348579"><time>2026-04-22T12:06:23Z</time></trkpt><trkpt lat="59.0913605690" lon="29.9888348579"><time>2026-04-22T12:06:25Z</time></trkpt><trkpt lat="59.0913605690" lon="29.9888348579"><time>2026-04-22T12:06:28Z</time></trkpt><trkpt lat="59.0913605690" lon="29.9888348579"><time>2026-04-22T12:06:30Z</time></trkpt><trkpt lat="59.0913605690" lon="29.9888348579"><time>2026-04-22T12:06:33Z</time></trkpt><trkpt lat="59.0913605690" lon="29.9888348579"><time>2026-04-22T12:06:35Z</time></trkpt><trkpt lat="59.0913605690" lon="29.9888348579"><time>2026-04-22T12:06:38Z</time></trkpt><trkpt lat="59.0913820267" lon="29.9888563156"><time>2026-04-22T12:06:40Z</time></trkpt><trkpt lat="59.0914034843" lon="29.9888348579"><time>2026-04-22T12:06:43Z</time></trkpt><trkpt lat="59.0914034843" lon="29.9888134003"><time>2026-04-22T12:06:45Z</time></trkpt><trkpt lat="59.0914034843" lon="29.9888134003"><time>2026-04-22T12:06:48Z</time></trkpt><trkpt lat="59.0913820267" lon="29.9888134003"><time>2026-04-22T12:06:50Z</time></trkpt><trkpt lat="59.0913820267" lon="29.9888134003"><time>2026-04-22T12:06:53Z</time></trkpt><trkpt lat="59.0913820267" lon="29.9888134003"><time>2026-04-22T12:06:55Z</time></trkpt><trkpt lat="59.0913820267" lon="29.9888134003"><time>2026-04-22T12:06:58Z</time></trkpt><trkpt lat="59.0913820267" lon="29.9888134003"><time>2026-04-22T12:07:00Z</time></trkpt><trkpt lat="59.0913820267" lon="29.9888134003"><time>2026-04-22T12:07:03Z</time></trkpt><trkpt lat="59.0913820267" lon="29.9888134003"><time>2026-04-22T12:07:05Z</time></trkpt><trkpt lat="59.0913820267" lon="29.9888134003"><time>2026-04-22T12:07:08Z</time></trkpt><trkpt lat="59.0913820267" lon="29.9888134003"><time>2026-04-22T12:07:10Z</time></trkpt><trkpt lat="59.0913820267" lon="29.9888134003"><time>2026-04-22T12:07:13Z</time></trkpt><trkpt lat="59.0914034843" lon="29.9888992310"><time>2026-04-22T12:07:15Z</time></trkpt><trkpt lat="59.0914034843" lon="29.9889421463"><time>2026-04-22T12:07:18Z</time></trkpt><trkpt lat="59.0914463997" lon="29.9889850616"><time>2026-04-22T12:07:20Z</time></trkpt><trkpt lat="59.0914678574" lon="29.9889636040"><time>2026-04-22T12:07:23Z</time></trkpt><trkpt lat="59.0914678574" lon="29.9888777733"><time>2026-04-22T12:07:25Z</time></trkpt><trkpt lat="59.0914893150" lon="29.9887275696"><time>2026-04-22T12:07:30Z</time></trkpt><trkpt lat="59.0914893150" lon="29.9887275696"><time>2026-04-22T12:07:33Z</time></trkpt><trkpt lat="59.0914893150" lon="29.9887275696"><time>2026-04-22T12:07:35Z</time></trkpt><trkpt lat="59.0915107727" lon="29.9887490273"><time>2026-04-22T12:07:38Z</time></trkpt><trkpt lat="59.0915107727" lon="29.9887490273"><time>2026-04-22T12:07:40Z</time></trkpt><trkpt lat="59.0915107727" lon="29.9887490273"><time>2026-04-22T12:07:43Z</time></trkpt><trkpt lat="59.0915107727" lon="29.9887490273"><time>2026-04-22T12:07:45Z</time></trkpt><trkpt lat="59.0915107727" lon="29.9887490273"><time>2026-04-22T12:07:48Z</time></trkpt><trkpt lat="59.0915322304" lon="29.9887275696"><time>2026-04-22T12:07:50Z</time></trkpt><trkpt lat="59.0915322304" lon="29.9887275696"><time>2026-04-22T12:07:53Z</time></trkpt><trkpt lat="59.0915536880" lon="29.9887275696"><time>2026-04-22T12:07:55Z</time></trkpt><trkpt lat="59.0915536880" lon="29.9887490273"><time>2026-04-22T12:07:58Z</time></trkpt><trkpt lat="59.0915966034" lon="29.9887704849"><time>2026-04-22T12:08:00Z</time></trkpt><trkpt lat="59.0916180611" lon="29.9887490273"><time>2026-04-22T12:08:03Z</time></trkpt><trkpt lat="59.0916180611" lon="29.9887490273"><time>2026-04-22T12:08:05Z</time></trkpt><trkpt lat="59.0916180611" lon="29.9887490273"><time>2026-04-22T12:08:08Z</time></trkpt><trkpt lat="59.0916180611" lon="29.9887919426"><time>2026-04-22T12:08:10Z</time></trkpt><trkpt lat="59.0916180611" lon="29.9887919426"><time>2026-04-22T12:08:13Z</time></trkpt><trkpt lat="59.0916395187" lon="29.9888134003"><time>2026-04-22T12:08:15Z</time></trkpt><trkpt lat="59.0916395187" lon="29.9888134003"><time>2026-04-22T12:08:18Z</time></trkpt><trkpt lat="59.0916609764" lon="29.9888348579"><time>2026-04-22T12:08:20Z</time></trkpt><trkpt lat="59.0916824341" lon="29.9888777733"><time>2026-04-22T12:08:23Z</time></trkpt><trkpt lat="59.0916824341" lon="29.9888992310"><time>2026-04-22T12:08:25Z</time></trkpt><trkpt lat="59.0916824341" lon="29.9888992310"><time>2026-04-22T12:08:28Z</time></trkpt><trkpt lat="59.0917038918" lon="29.9888992310"><time>2026-04-22T12:08:30Z</time></trkpt><trkpt lat="59.0917253494" lon="29.9889206886"><time>2026-04-22T12:08:33Z</time></trkpt><trkpt lat="59.0917468071" lon="29.9889206886"><time>2026-04-22T12:08:35Z</time></trkpt><trkpt lat="59.0917897224" lon="29.9888992310"><time>2026-04-22T12:08:38Z</time></trkpt><trkpt lat="59.0918111801" lon="29.9889421463"><time>2026-04-22T12:08:40Z</time></trkpt><trkpt lat="59.0918111801" lon="29.9889421463"><time>2026-04-22T12:08:43Z</time></trkpt><trkpt lat="59.0918111801" lon="29.9889421463"><time>2026-04-22T12:08:45Z</time></trkpt><trkpt lat="59.0918111801" lon="29.9889421463"><time>2026-04-22T12:08:48Z</time></trkpt><trkpt lat="59.0918540955" lon="29.9890279770"><time>2026-04-22T12:08:50Z</time></trkpt><trkpt lat="59.0918540955" lon="29.9890279770"><time>2026-04-22T12:08:53Z</time></trkpt><trkpt lat="59.0918540955" lon="29.9890279770"><time>2026-04-22T12:08:55Z</time></trkpt><trkpt lat="59.0918540955" lon="29.9890279770"><time>2026-04-22T12:08:58Z</time></trkpt><trkpt lat="59.0918540955" lon="29.9890279770"><time>2026-04-22T12:09:00Z</time></trkpt><trkpt lat="59.0918755531" lon="29.9890279770"><time>2026-04-22T12:09:03Z</time></trkpt><trkpt lat="59.0918755531" lon="29.9890279770"><time>2026-04-22T12:09:05Z</time></trkpt><trkpt lat="59.0918755531" lon="29.9890279770"><time>2026-04-22T12:09:08Z</time></trkpt><trkpt lat="59.0918755531" lon="29.9890279770"><time>2026-04-22T12:09:10Z</time></trkpt><trkpt lat="59.0918970108" lon="29.9890279770"><time>2026-04-22T12:09:13Z</time></trkpt><trkpt lat="59.0919184685" lon="29.9890923500"><time>2026-04-22T12:09:15Z</time></trkpt><trkpt lat="59.0919184685" lon="29.9891352654"><time>2026-04-22T12:09:18Z</time></trkpt><trkpt lat="59.0919184685" lon="29.9891996384"><time>2026-04-22T12:09:20Z</time></trkpt><trkpt lat="59.0919399261" lon="29.9892210960"><time>2026-04-22T12:09:23Z</time></trkpt><trkpt lat="59.0919613838" lon="29.9892210960"><time>2026-04-22T12:09:25Z</time></trkpt><trkpt lat="59.0919613838" lon="29.9892425537"><time>2026-04-22T12:09:28Z</time></trkpt><trkpt lat="59.0919828415" lon="29.9893069267"><time>2026-04-22T12:09:30Z</time></trkpt><trkpt lat="59.0919828415" lon="29.9893069267"><time>2026-04-22T12:09:33Z</time></trkpt><trkpt lat="59.0919828415" lon="29.9893069267"><time>2026-04-22T12:09:35Z</time></trkpt><trkpt lat="59.0919828415" lon="29.9893069267"><time>2026-04-22T12:09:38Z</time></trkpt><trkpt lat="59.0919828415" lon="29.9893069267"><time>2026-04-22T12:09:40Z</time></trkpt><trkpt lat="59.0919828415" lon="29.9893069267"><time>2026-04-22T12:09:43Z</time></trkpt><trkpt lat="59.0919828415" lon="29.9893069267"><time>2026-04-22T12:09:45Z</time></trkpt><trkpt lat="59.0919828415" lon="29.9893069267"><time>2026-04-22T12:09:48Z</time></trkpt><trkpt lat="59.0919828415" lon="29.9893069267"><time>2026-04-22T12:09:50Z</time></trkpt><trkpt lat="59.0919828415" lon="29.9893069267"><time>2026-04-22T12:09:53Z</time></trkpt><trkpt lat="59.0919828415" lon="29.9893283844"><time>2026-04-22T12:09:55Z</time></trkpt><trkpt lat="59.0920042992" lon="29.9893283844"><time>2026-04-22T12:09:58Z</time></trkpt><trkpt lat="59.0920472145" lon="29.9893498421"><time>2026-04-22T12:10:00Z</time></trkpt><trkpt lat="59.0920472145" lon="29.9893498421"><time>2026-04-22T12:10:03Z</time></trkpt><trkpt lat="59.0920472145" lon="29.9893927574"><time>2026-04-22T12:10:05Z</time></trkpt><trkpt lat="59.0920686722" lon="29.9894142151"><time>2026-04-22T12:10:08Z</time></trkpt><trkpt lat="59.0921115875" lon="29.9894571304"><time>2026-04-22T12:10:10Z</time></trkpt><trkpt lat="59.0921330452" lon="29.9894571304"><time>2026-04-22T12:10:13Z</time></trkpt><trkpt lat="59.0921330452" lon="29.9894571304"><time>2026-04-22T12:10:15Z</time></trkpt><trkpt lat="59.0921330452" lon="29.9894571304"><time>2026-04-22T12:10:18Z</time></trkpt><trkpt lat="59.0921330452" lon="29.9894571304"><time>2026-04-22T12:10:20Z</time></trkpt><trkpt lat="59.0921330452" lon="29.9894571304"><time>2026-04-22T12:10:23Z</time></trkpt><trkpt lat="59.0921330452" lon="29.9894571304"><time>2026-04-22T12:10:25Z</time></trkpt><trkpt lat="59.0921330452" lon="29.9894571304"><time>2026-04-22T12:10:28Z</time></trkpt><trkpt lat="59.0921330452" lon="29.9895000458"><time>2026-04-22T12:10:30Z</time></trkpt><trkpt lat="59.0921330452" lon="29.9895215034"><time>2026-04-22T12:10:33Z</time></trkpt><trkpt lat="59.0921330452" lon="29.9895215034"><time>2026-04-22T12:10:35Z</time></trkpt><trkpt lat="59.0921330452" lon="29.9895215034"><time>2026-04-22T12:10:38Z</time></trkpt><trkpt lat="59.0921330452" lon="29.9895215034"><time>2026-04-22T12:10:40Z</time></trkpt><trkpt lat="59.0921330452" lon="29.9895215034"><time>2026-04-22T12:10:43Z</time></trkpt><trkpt lat="59.0921330452" lon="29.9895215034"><time>2026-04-22T12:10:45Z</time></trkpt><trkpt lat="59.0921330452" lon="29.9895215034"><time>2026-04-22T12:10:48Z</time></trkpt><trkpt lat="59.0921330452" lon="29.9895429611"><time>2026-04-22T12:10:50Z</time></trkpt><trkpt lat="59.0921545029" lon="29.9895644188"><time>2026-04-22T12:10:53Z</time></trkpt><trkpt lat="59.0921545029" lon="29.9895644188"><time>2026-04-22T12:10:55Z</time></trkpt><trkpt lat="59.0921545029" lon="29.9895644188"><time>2026-04-22T12:10:58Z</time></trkpt><trkpt lat="59.0921545029" lon="29.9895644188"><time>2026-04-22T12:11:00Z</time></trkpt><trkpt lat="59.0921545029" lon="29.9895644188"><time>2026-04-22T12:11:03Z</time></trkpt><trkpt lat="59.0921545029" lon="29.9895644188"><time>2026-04-22T12:11:05Z</time></trkpt><trkpt lat="59.0921545029" lon="29.9895644188"><time>2026-04-22T12:11:08Z</time></trkpt><trkpt lat="59.0921545029" lon="29.9895858765"><time>2026-04-22T12:11:10Z</time></trkpt><trkpt lat="59.0921545029" lon="29.9895858765"><time>2026-04-22T12:11:13Z</time></trkpt><trkpt lat="59.0921545029" lon="29.9895858765"><time>2026-04-22T12:11:15Z</time></trkpt><trkpt lat="59.0921545029" lon="29.9895858765"><time>2026-04-22T12:11:18Z</time></trkpt><trkpt lat="59.0921545029" lon="29.9895858765"><time>2026-04-22T12:11:20Z</time></trkpt><trkpt lat="59.0921545029" lon="29.9895858765"><time>2026-04-22T12:11:23Z</time></trkpt><trkpt lat="59.0921545029" lon="29.9895858765"><time>2026-04-22T12:11:25Z</time></trkpt><trkpt lat="59.0921545029" lon="29.9895858765"><time>2026-04-22T12:11:28Z</time></trkpt><trkpt lat="59.0921545029" lon="29.9895858765"><time>2026-04-22T12:11:30Z</time></trkpt><trkpt lat="59.0921545029" lon="29.9895858765"><time>2026-04-22T12:11:33Z</time></trkpt><trkpt lat="59.0921545029" lon="29.9895858765"><time>2026-04-22T12:11:35Z</time></trkpt><trkpt lat="59.0921545029" lon="29.9895858765"><time>2026-04-22T12:11:38Z</time></trkpt><trkpt lat="59.0921545029" lon="29.9896073341"><time>2026-04-22T12:11:40Z</time></trkpt><trkpt lat="59.0921545029" lon="29.9896073341"><time>2026-04-22T12:11:43Z</time></trkpt><trkpt lat="59.0921545029" lon="29.9896287918"><time>2026-04-22T12:11:45Z</time></trkpt><trkpt lat="59.0921545029" lon="29.9896287918"><time>2026-04-22T12:11:48Z</time></trkpt><trkpt lat="59.0921545029" lon="29.9896287918"><time>2026-04-22T12:11:50Z</time></trkpt><trkpt lat="59.0921545029" lon="29.9896287918"><time>2026-04-22T12:11:53Z</time></trkpt><trkpt lat="59.0921545029" lon="29.9896287918"><time>2026-04-22T12:11:55Z</time></trkpt><trkpt lat="59.0921545029" lon="29.9896287918"><time>2026-04-22T12:11:58Z</time></trkpt><trkpt lat="59.0921545029" lon="29.9896287918"><time>2026-04-22T12:12:00Z</time></trkpt><trkpt lat="59.0921545029" lon="29.9896287918"><time>2026-04-22T12:12:03Z</time></trkpt><trkpt lat="59.0921545029" lon="29.9896287918"><time>2026-04-22T12:12:05Z</time></trkpt><trkpt lat="59.0921759605" lon="29.9896287918"><time>2026-04-22T12:12:08Z</time></trkpt><trkpt lat="59.0921759605" lon="29.9896717072"><time>2026-04-22T12:12:10Z</time></trkpt><trkpt lat="59.0921974182" lon="29.9896931648"><time>2026-04-22T12:12:13Z</time></trkpt><trkpt lat="59.0921974182" lon="29.9897360802"><time>2026-04-22T12:12:15Z</time></trkpt><trkpt lat="59.0922188759" lon="29.9897789955"><time>2026-04-22T12:12:18Z</time></trkpt><trkpt lat="59.0922188759" lon="29.9897575378"><time>2026-04-22T12:12:20Z</time></trkpt><trkpt lat="59.0922188759" lon="29.9897575378"><time>2026-04-22T12:12:23Z</time></trkpt><trkpt lat="59.0922403336" lon="29.9897360802"><time>2026-04-22T12:12:25Z</time></trkpt><trkpt lat="59.0922617912" lon="29.9897146225"><time>2026-04-22T12:12:28Z</time></trkpt><trkpt lat="59.0922617912" lon="29.9897146225"><time>2026-04-22T12:12:30Z</time></trkpt><trkpt lat="59.0922617912" lon="29.9897146225"><time>2026-04-22T12:12:33Z</time></trkpt><trkpt lat="59.0922617912" lon="29.9896931648"><time>2026-04-22T12:12:35Z</time></trkpt><trkpt lat="59.0923047066" lon="29.9896931648"><time>2026-04-22T12:12:38Z</time></trkpt><trkpt lat="59.0923690796" lon="29.9897360802"><time>2026-04-22T12:12:40Z</time></trkpt><trkpt lat="59.0923690796" lon="29.9897146225"><time>2026-04-22T12:12:43Z</time></trkpt><trkpt lat="59.0923905373" lon="29.9896717072"><time>2026-04-22T12:12:45Z</time></trkpt><trkpt lat="59.0923905373" lon="29.9896073341"><time>2026-04-22T12:12:48Z</time></trkpt><trkpt lat="59.0923905373" lon="29.9896073341"><time>2026-04-22T12:12:50Z</time></trkpt><trkpt lat="59.0923905373" lon="29.9896073341"><time>2026-04-22T12:12:53Z</time></trkpt><trkpt lat="59.0923905373" lon="29.9895858765"><time>2026-04-22T12:12:55Z</time></trkpt><trkpt lat="59.0923905373" lon="29.9895858765"><time>2026-04-22T12:12:58Z</time></trkpt><trkpt lat="59.0924119949" lon="29.9895644188"><time>2026-04-22T12:13:00Z</time></trkpt><trkpt lat="59.0924119949" lon="29.9895429611"><time>2026-04-22T12:13:03Z</time></trkpt><trkpt lat="59.0924334526" lon="29.9895215034"><time>2026-04-22T12:13:05Z</time></trkpt><trkpt lat="59.0924549103" lon="29.9895429611"><time>2026-04-22T12:13:08Z</time></trkpt><trkpt lat="59.0924978256" lon="29.9895429611"><time>2026-04-22T12:13:10Z</time></trkpt><trkpt lat="59.0925407410" lon="29.9895429611"><time>2026-04-22T12:13:13Z</time></trkpt><trkpt lat="59.0925836563" lon="29.9895215034"><time>2026-04-22T12:13:15Z</time></trkpt><trkpt lat="59.0926051140" lon="29.9895215034"><time>2026-04-22T12:13:18Z</time></trkpt><trkpt lat="59.0926051140" lon="29.9895215034"><time>2026-04-22T12:13:20Z</time></trkpt><trkpt lat="59.0926051140" lon="29.9895215034"><time>2026-04-22T12:13:23Z</time></trkpt><trkpt lat="59.0926480293" lon="29.9895215034"><time>2026-04-22T12:13:25Z</time></trkpt><trkpt lat="59.0926480293" lon="29.9895215034"><time>2026-04-22T12:13:28Z</time></trkpt><trkpt lat="59.0926480293" lon="29.9895215034"><time>2026-04-22T12:13:30Z</time></trkpt><trkpt lat="59.0926694870" lon="29.9895644188"><time>2026-04-22T12:13:33Z</time></trkpt><trkpt lat="59.0926909447" lon="29.9895858765"><time>2026-04-22T12:13:35Z</time></trkpt><trkpt lat="59.0927124023" lon="29.9895644188"><time>2026-04-22T12:13:38Z</time></trkpt><trkpt lat="59.0927553177" lon="29.9895000458"><time>2026-04-22T12:13:40Z</time></trkpt><trkpt lat="59.0927553177" lon="29.9895000458"><time>2026-04-22T12:13:43Z</time></trkpt><trkpt lat="59.0927553177" lon="29.9894571304"><time>2026-04-22T12:13:45Z</time></trkpt><trkpt lat="59.0927553177" lon="29.9894356728"><time>2026-04-22T12:13:48Z</time></trkpt><trkpt lat="59.0927553177" lon="29.9894356728"><time>2026-04-22T12:13:50Z</time></trkpt><trkpt lat="59.0927553177" lon="29.9894356728"><time>2026-04-22T12:13:53Z</time></trkpt><trkpt lat="59.0927553177" lon="29.9894356728"><time>2026-04-22T12:13:55Z</time></trkpt><trkpt lat="59.0927553177" lon="29.9894356728"><time>2026-04-22T12:13:58Z</time></trkpt><trkpt lat="59.0927553177" lon="29.9894356728"><time>2026-04-22T12:14:00Z</time></trkpt><trkpt lat="59.0927553177" lon="29.9894356728"><time>2026-04-22T12:14:03Z</time></trkpt><trkpt lat="59.0927553177" lon="29.9894356728"><time>2026-04-22T12:14:05Z</time></trkpt><trkpt lat="59.0927553177" lon="29.9894142151"><time>2026-04-22T12:14:08Z</time></trkpt><trkpt lat="59.0927553177" lon="29.9894142151"><time>2026-04-22T12:14:10Z</time></trkpt><trkpt lat="59.0927553177" lon="29.9894142151"><time>2026-04-22T12:14:13Z</time></trkpt><trkpt lat="59.0927553177" lon="29.9894142151"><time>2026-04-22T12:14:15Z</time></trkpt><trkpt lat="59.0927553177" lon="29.9894142151"><time>2026-04-22T12:14:18Z</time></trkpt><trkpt lat="59.0927553177" lon="29.9894142151"><time>2026-04-22T12:14:20Z</time></trkpt><trkpt lat="59.0927553177" lon="29.9894142151"><time>2026-04-22T12:14:23Z</time></trkpt><trkpt lat="59.0927553177" lon="29.9894142151"><time>2026-04-22T12:14:25Z</time></trkpt><trkpt lat="59.0927553177" lon="29.9894142151"><time>2026-04-22T12:14:28Z</time></trkpt><trkpt lat="59.0927553177" lon="29.9894142151"><time>2026-04-22T12:14:30Z</time></trkpt><trkpt lat="59.0927553177" lon="29.9894142151"><time>2026-04-22T12:14:33Z</time></trkpt><trkpt lat="59.0927553177" lon="29.9894142151"><time>2026-04-22T12:14:35Z</time></trkpt><trkpt lat="59.0927553177" lon="29.9894142151"><time>2026-04-22T12:14:38Z</time></trkpt><trkpt lat="59.0927338600" lon="29.9893069267"><time>2026-04-22T12:14:40Z</time></trkpt><trkpt lat="59.0927338600" lon="29.9892425537"><time>2026-04-22T12:14:43Z</time></trkpt><trkpt lat="59.0927338600" lon="29.9891567230"><time>2026-04-22T12:14:45Z</time></trkpt><trkpt lat="59.0927124023" lon="29.9890923500"><time>2026-04-22T12:14:48Z</time></trkpt><trkpt lat="59.0926909447" lon="29.9890065193"><time>2026-04-22T12:14:50Z</time></trkpt><trkpt lat="59.0926694870" lon="29.9889421463"><time>2026-04-22T12:14:53Z</time></trkpt><trkpt lat="59.0926694870" lon="29.9889206886"><time>2026-04-22T12:14:55Z</time></trkpt><trkpt lat="59.0926694870" lon="29.9889206886"><time>2026-04-22T12:14:58Z</time></trkpt><trkpt lat="59.0926694870" lon="29.9889206886"><time>2026-04-22T12:15:00Z</time></trkpt><trkpt lat="59.0926694870" lon="29.9889206886"><time>2026-04-22T12:15:03Z</time></trkpt><trkpt lat="59.0926694870" lon="29.9889206886"><time>2026-04-22T12:15:05Z</time></trkpt><trkpt lat="59.0926480293" lon="29.9888992310"><time>2026-04-22T12:15:08Z</time></trkpt><trkpt lat="59.0926694870" lon="29.9888777733"><time>2026-04-22T12:15:10Z</time></trkpt><trkpt lat="59.0926694870" lon="29.9888777733"><time>2026-04-22T12:15:13Z</time></trkpt><trkpt lat="59.0926694870" lon="29.9888992310"><time>2026-04-22T12:15:15Z</time></trkpt><trkpt lat="59.0926694870" lon="29.9888992310"><time>2026-04-22T12:15:18Z</time></trkpt><trkpt lat="59.0926694870" lon="29.9889421463"><time>2026-04-22T12:15:20Z</time></trkpt><trkpt lat="59.0926909447" lon="29.9889636040"><time>2026-04-22T12:15:23Z</time></trkpt><trkpt lat="59.0926909447" lon="29.9889636040"><time>2026-04-22T12:15:25Z</time></trkpt><trkpt lat="59.0926909447" lon="29.9889850616"><time>2026-04-22T12:15:28Z</time></trkpt><trkpt lat="59.0926909447" lon="29.9889850616"><time>2026-04-22T12:15:30Z</time></trkpt><trkpt lat="59.0926909447" lon="29.9889206886"><time>2026-04-22T12:15:33Z</time></trkpt><trkpt lat="59.0926480293" lon="29.9888348579"><time>2026-04-22T12:15:35Z</time></trkpt><trkpt lat="59.0926480293" lon="29.9888348579"><time>2026-04-22T12:15:38Z</time></trkpt><trkpt lat="59.0926480293" lon="29.9887919426"><time>2026-04-22T12:15:40Z</time></trkpt><trkpt lat="59.0926480293" lon="29.9887919426"><time>2026-04-22T12:15:43Z</time></trkpt><trkpt lat="59.0926480293" lon="29.9887919426"><time>2026-04-22T12:15:45Z</time></trkpt><trkpt lat="59.0926265717" lon="29.9887490273"><time>2026-04-22T12:15:48Z</time></trkpt><trkpt lat="59.0925836563" lon="29.9886631966"><time>2026-04-22T12:15:50Z</time></trkpt><trkpt lat="59.0925836563" lon="29.9886202812"><time>2026-04-22T12:15:53Z</time></trkpt><trkpt lat="59.0925836563" lon="29.9885559082"><time>2026-04-22T12:15:55Z</time></trkpt><trkpt lat="59.0925621986" lon="29.9884915352"><time>2026-04-22T12:15:58Z</time></trkpt><trkpt lat="59.0925621986" lon="29.9884057045"><time>2026-04-22T12:16:00Z</time></trkpt><trkpt lat="59.0925407410" lon="29.9883842468"><time>2026-04-22T12:16:03Z</time></trkpt><trkpt lat="59.0925407410" lon="29.9883842468"><time>2026-04-22T12:16:05Z</time></trkpt><trkpt lat="59.0925621986" lon="29.9883842468"><time>2026-04-22T12:16:08Z</time></trkpt><trkpt lat="59.0925407410" lon="29.9883842468"><time>2026-04-22T12:16:10Z</time></trkpt><trkpt lat="59.0925407410" lon="29.9883627892"><time>2026-04-22T12:16:13Z</time></trkpt><trkpt lat="59.0925407410" lon="29.9883627892"><time>2026-04-22T12:16:15Z</time></trkpt><trkpt lat="59.0925192833" lon="29.9883413315"><time>2026-04-22T12:16:18Z</time></trkpt><trkpt lat="59.0925192833" lon="29.9882555008"><time>2026-04-22T12:16:20Z</time></trkpt><trkpt lat="59.0924978256" lon="29.9882340431"><time>2026-04-22T12:16:23Z</time></trkpt><trkpt lat="59.0924763680" lon="29.9882125854"><time>2026-04-22T12:16:25Z</time></trkpt><trkpt lat="59.0924763680" lon="29.9882125854"><time>2026-04-22T12:16:28Z</time></trkpt><trkpt lat="59.0924549103" lon="29.9881267548"><time>2026-04-22T12:16:30Z</time></trkpt><trkpt lat="59.0924549103" lon="29.9881267548"><time>2026-04-22T12:16:33Z</time></trkpt><trkpt lat="59.0924763680" lon="29.9880838394"><time>2026-04-22T12:16:35Z</time></trkpt><trkpt lat="59.0924549103" lon="29.9880194664"><time>2026-04-22T12:16:38Z</time></trkpt><trkpt lat="59.0924334526" lon="29.9879980087"><time>2026-04-22T12:16:40Z</time></trkpt><trkpt lat="59.0924334526" lon="29.9879765511"><time>2026-04-22T12:16:43Z</time></trkpt><trkpt lat="59.0924334526" lon="29.9879765511"><time>2026-04-22T12:16:45Z</time></trkpt><trkpt lat="59.0924549103" lon="29.9879121780"><time>2026-04-22T12:16:48Z</time></trkpt><trkpt lat="59.0924334526" lon="29.9878263474"><time>2026-04-22T12:16:50Z</time></trkpt><trkpt lat="59.0924119949" lon="29.9878048897"><time>2026-04-22T12:16:53Z</time></trkpt><trkpt lat="59.0924119949" lon="29.9877405167"><time>2026-04-22T12:16:55Z</time></trkpt><trkpt lat="59.0924119949" lon="29.9877190590"><time>2026-04-22T12:16:58Z</time></trkpt><trkpt lat="59.0924334526" lon="29.9876761436"><time>2026-04-22T12:17:00Z</time></trkpt><trkpt lat="59.0924334526" lon="29.9876332283"><time>2026-04-22T12:17:03Z</time></trkpt><trkpt lat="59.0924334526" lon="29.9876332283"><time>2026-04-22T12:17:05Z</time></trkpt><trkpt lat="59.0924334526" lon="29.9876332283"><time>2026-04-22T12:17:08Z</time></trkpt><trkpt lat="59.0924334526" lon="29.9876117706"><time>2026-04-22T12:17:10Z</time></trkpt><trkpt lat="59.0924334526" lon="29.9876117706"><time>2026-04-22T12:17:13Z</time></trkpt><trkpt lat="59.0924334526" lon="29.9876117706"><time>2026-04-22T12:17:15Z</time></trkpt><trkpt lat="59.0924334526" lon="29.9875903130"><time>2026-04-22T12:17:18Z</time></trkpt><trkpt lat="59.0924119949" lon="29.9875688553"><time>2026-04-22T12:17:20Z</time></trkpt><trkpt lat="59.0924119949" lon="29.9876332283"><time>2026-04-22T12:17:23Z</time></trkpt><trkpt lat="59.0923905373" lon="29.9876546860"><time>2026-04-22T12:17:25Z</time></trkpt><trkpt lat="59.0923905373" lon="29.9876546860"><time>2026-04-22T12:17:28Z</time></trkpt><trkpt lat="59.0923905373" lon="29.9876546860"><time>2026-04-22T12:17:30Z</time></trkpt><trkpt lat="59.0923905373" lon="29.9876546860"><time>2026-04-22T12:17:33Z</time></trkpt><trkpt lat="59.0923905373" lon="29.9876546860"><time>2026-04-22T12:17:35Z</time></trkpt><trkpt lat="59.0923905373" lon="29.9876546860"><time>2026-04-22T12:17:38Z</time></trkpt><trkpt lat="59.0923905373" lon="29.9876546860"><time>2026-04-22T12:17:40Z</time></trkpt><trkpt lat="59.0923905373" lon="29.9876546860"><time>2026-04-22T12:17:43Z</time></trkpt><trkpt lat="59.0923905373" lon="29.9876546860"><time>2026-04-22T12:17:45Z</time></trkpt><trkpt lat="59.0923905373" lon="29.9876546860"><time>2026-04-22T12:17:48Z</time></trkpt><trkpt lat="59.0923905373" lon="29.9876546860"><time>2026-04-22T12:17:50Z</time></trkpt><trkpt lat="59.0923905373" lon="29.9876546860"><time>2026-04-22T12:17:53Z</time></trkpt><trkpt lat="59.0923905373" lon="29.9876546860"><time>2026-04-22T12:17:55Z</time></trkpt><trkpt lat="59.0923905373" lon="29.9876546860"><time>2026-04-22T12:17:58Z</time></trkpt><trkpt lat="59.0923905373" lon="29.9876546860"><time>2026-04-22T12:18:00Z</time></trkpt><trkpt lat="59.0923905373" lon="29.9876546860"><time>2026-04-22T12:18:03Z</time></trkpt><trkpt lat="59.0923905373" lon="29.9876546860"><time>2026-04-22T12:18:05Z</time></trkpt><trkpt lat="59.0923905373" lon="29.9876546860"><time>2026-04-22T12:18:08Z</time></trkpt><trkpt lat="59.0923905373" lon="29.9876546860"><time>2026-04-22T12:18:10Z</time></trkpt><trkpt lat="59.0923905373" lon="29.9876546860"><time>2026-04-22T12:18:13Z</time></trkpt><trkpt lat="59.0923905373" lon="29.9876546860"><time>2026-04-22T12:18:15Z</time></trkpt><trkpt lat="59.0923905373" lon="29.9876546860"><time>2026-04-22T12:18:18Z</time></trkpt><trkpt lat="59.0923905373" lon="29.9876546860"><time>2026-04-22T12:18:20Z</time></trkpt><trkpt lat="59.0923905373" lon="29.9876546860"><time>2026-04-22T12:18:23Z</time></trkpt><trkpt lat="59.0923905373" lon="29.9876546860"><time>2026-04-22T12:18:25Z</time></trkpt><trkpt lat="59.0923905373" lon="29.9876332283"><time>2026-04-22T12:18:28Z</time></trkpt><trkpt lat="59.0923905373" lon="29.9875903130"><time>2026-04-22T12:18:30Z</time></trkpt><trkpt lat="59.0923905373" lon="29.9875903130"><time>2026-04-22T12:18:33Z</time></trkpt><trkpt lat="59.0923905373" lon="29.9875903130"><time>2026-04-22T12:18:35Z</time></trkpt><trkpt lat="59.0923905373" lon="29.9875903130"><time>2026-04-22T12:18:38Z</time></trkpt><trkpt lat="59.0924119949" lon="29.9876332283"><time>2026-04-22T12:18:40Z</time></trkpt><trkpt lat="59.0924119949" lon="29.9876332283"><time>2026-04-22T12:18:43Z</time></trkpt><trkpt lat="59.0924119949" lon="29.9876332283"><time>2026-04-22T12:18:45Z</time></trkpt><trkpt lat="59.0924119949" lon="29.9876332283"><time>2026-04-22T12:18:48Z</time></trkpt><trkpt lat="59.0924119949" lon="29.9876332283"><time>2026-04-22T12:18:50Z</time></trkpt><trkpt lat="59.0924119949" lon="29.9876332283"><time>2026-04-22T12:18:53Z</time></trkpt><trkpt lat="59.0924119949" lon="29.9876332283"><time>2026-04-22T12:18:55Z</time></trkpt><trkpt lat="59.0924119949" lon="29.9876332283"><time>2026-04-22T12:18:58Z</time></trkpt><trkpt lat="59.0924119949" lon="29.9876332283"><time>2026-04-22T12:19:00Z</time></trkpt><trkpt lat="59.0924119949" lon="29.9876117706"><time>2026-04-22T12:19:03Z</time></trkpt><trkpt lat="59.0924119949" lon="29.9876117706"><time>2026-04-22T12:19:05Z</time></trkpt><trkpt lat="59.0924119949" lon="29.9876117706"><time>2026-04-22T12:19:08Z</time></trkpt><trkpt lat="59.0924119949" lon="29.9876117706"><time>2026-04-22T12:19:10Z</time></trkpt><trkpt lat="59.0923905373" lon="29.9876117706"><time>2026-04-22T12:19:13Z</time></trkpt><trkpt lat="59.0923905373" lon="29.9876117706"><time>2026-04-22T12:19:15Z</time></trkpt><trkpt lat="59.0924119949" lon="29.9876117706"><time>2026-04-22T12:19:18Z</time></trkpt><trkpt lat="59.0923905373" lon="29.9876117706"><time>2026-04-22T12:19:20Z</time></trkpt><trkpt lat="59.0923905373" lon="29.9876117706"><time>2026-04-22T12:19:23Z</time></trkpt><trkpt lat="59.0923905373" lon="29.9876332283"><time>2026-04-22T12:19:25Z</time></trkpt><trkpt lat="59.0923905373" lon="29.9876332283"><time>2026-04-22T12:19:28Z</time></trkpt><trkpt lat="59.0923905373" lon="29.9876332283"><time>2026-04-22T12:19:30Z</time></trkpt><trkpt lat="59.0923905373" lon="29.9876117706"><time>2026-04-22T12:19:33Z</time></trkpt><trkpt lat="59.0923905373" lon="29.9875473976"><time>2026-04-22T12:19:35Z</time></trkpt><trkpt lat="59.0923905373" lon="29.9875473976"><time>2026-04-22T12:19:38Z</time></trkpt><trkpt lat="59.0923905373" lon="29.9875473976"><time>2026-04-22T12:19:40Z</time></trkpt><trkpt lat="59.0923905373" lon="29.9875473976"><time>2026-04-22T12:19:43Z</time></trkpt><trkpt lat="59.0923905373" lon="29.9875473976"><time>2026-04-22T12:19:45Z</time></trkpt><trkpt lat="59.0923905373" lon="29.9875473976"><time>2026-04-22T12:19:48Z</time></trkpt><trkpt lat="59.0924119949" lon="29.9875473976"><time>2026-04-22T12:19:50Z</time></trkpt><trkpt lat="59.0924119949" lon="29.9875473976"><time>2026-04-22T12:19:53Z</time></trkpt><trkpt lat="59.0924119949" lon="29.9875473976"><time>2026-04-22T12:19:55Z</time></trkpt><trkpt lat="59.0924119949" lon="29.9875903130"><time>2026-04-22T12:19:58Z</time></trkpt><trkpt lat="59.0924119949" lon="29.9876117706"><time>2026-04-22T12:20:00Z</time></trkpt><trkpt lat="59.0924119949" lon="29.9876117706"><time>2026-04-22T12:20:03Z</time></trkpt><trkpt lat="59.0924119949" lon="29.9876117706"><time>2026-04-22T12:20:05Z</time></trkpt><trkpt lat="59.0924119949" lon="29.9876117706"><time>2026-04-22T12:20:08Z</time></trkpt><trkpt lat="59.0924119949" lon="29.9876117706"><time>2026-04-22T12:20:10Z</time></trkpt><trkpt lat="59.0924119949" lon="29.9876117706"><time>2026-04-22T12:20:13Z</time></trkpt><trkpt lat="59.0924119949" lon="29.9876117706"><time>2026-04-22T12:20:15Z</time></trkpt><trkpt lat="59.0924119949" lon="29.9876117706"><time>2026-04-22T12:20:18Z</time></trkpt><trkpt lat="59.0924119949" lon="29.9876117706"><time>2026-04-22T12:20:20Z</time></trkpt><trkpt lat="59.0924119949" lon="29.9876117706"><time>2026-04-22T12:20:23Z</time></trkpt><trkpt lat="59.0924119949" lon="29.9876117706"><time>2026-04-22T12:20:25Z</time></trkpt><trkpt lat="59.0924119949" lon="29.9876117706"><time>2026-04-22T12:20:28Z</time></trkpt><trkpt lat="59.0924119949" lon="29.9876117706"><time>2026-04-22T12:20:30Z</time></trkpt><trkpt lat="59.0924119949" lon="29.9876117706"><time>2026-04-22T12:20:33Z</time></trkpt><trkpt lat="59.0924119949" lon="29.9876117706"><time>2026-04-22T12:20:35Z</time></trkpt><trkpt lat="59.0924119949" lon="29.9876117706"><time>2026-04-22T12:20:38Z</time></trkpt><trkpt lat="59.0924119949" lon="29.9876117706"><time>2026-04-22T12:20:40Z</time></trkpt></trkseg></trk></gpx>